<?xml version="1.0" encoding="UTF-8" standalone="no" ?>
<gpx xmlns="http://www.topografix.com/GPX/1/1" xmlns:xsi="http://www.w3.org/2001/XMLSchema-instance" xsi:schemaLocation="http://www.topografix.com/GPX/1/1 http://www.topografix.com/GPX/1/1/gpx.xsd" version="1.1" creator="VisuGPX - https://www.visugpx.com">
  <metadata>
    <name>019SG74-8021565</name>
    <desc><![CDATA[
01]]></desc>
  </metadata>
  <trk>
    <name><![CDATA[019SG74-8021565]]></name>
    <trkseg>
      <trkpt lat="46.69806" lon="-1.93425">
        <ele>5</ele>
        <time>2018-03-06T21:48:15Z</time>
      </trkpt>
      <trkpt lat="46.69805" lon="-1.93425">
        <ele>5</ele>
        <time>2018-03-06T21:49:15Z</time>
      </trkpt>
      <trkpt lat="46.69798" lon="-1.93426">
        <ele>5</ele>
        <time>2018-03-06T21:50:15Z</time>
      </trkpt>
      <trkpt lat="46.69792" lon="-1.93425">
        <ele>5</ele>
        <time>2018-03-06T21:51:15Z</time>
      </trkpt>
      <trkpt lat="46.69792" lon="-1.93425">
        <ele>5</ele>
        <time>2018-03-06T21:52:15Z</time>
      </trkpt>
      <trkpt lat="46.69792" lon="-1.93426">
        <ele>5</ele>
        <time>2018-03-06T21:53:15Z</time>
      </trkpt>
      <trkpt lat="46.69791" lon="-1.93426">
        <ele>5</ele>
        <time>2018-03-06T21:54:15Z</time>
      </trkpt>
      <trkpt lat="46.69791" lon="-1.93427">
        <ele>5</ele>
        <time>2018-03-06T21:55:15Z</time>
      </trkpt>
      <trkpt lat="46.6979" lon="-1.93427">
        <ele>5</ele>
        <time>2018-03-06T21:56:15Z</time>
      </trkpt>
      <trkpt lat="46.6979" lon="-1.93428">
        <ele>5</ele>
        <time>2018-03-06T21:57:15Z</time>
      </trkpt>
      <trkpt lat="46.69789" lon="-1.93428">
        <ele>5</ele>
        <time>2018-03-06T21:58:15Z</time>
      </trkpt>
      <trkpt lat="46.69788" lon="-1.93428">
        <ele>5</ele>
        <time>2018-03-06T21:59:15Z</time>
      </trkpt>
      <trkpt lat="46.69788" lon="-1.93427">
        <ele>5</ele>
        <time>2018-03-06T22:00:15Z</time>
      </trkpt>
      <trkpt lat="46.69787" lon="-1.93427">
        <ele>5</ele>
        <time>2018-03-06T22:01:15Z</time>
      </trkpt>
      <trkpt lat="46.69787" lon="-1.93426">
        <ele>5</ele>
        <time>2018-03-06T22:02:15Z</time>
      </trkpt>
      <trkpt lat="46.69786" lon="-1.93426">
        <ele>5</ele>
        <time>2018-03-06T22:03:15Z</time>
      </trkpt>
      <trkpt lat="46.69786" lon="-1.93425">
        <ele>5</ele>
        <time>2018-03-06T22:04:15Z</time>
      </trkpt>
      <trkpt lat="46.69786" lon="-1.93424">
        <ele>5</ele>
        <time>2018-03-06T22:05:15Z</time>
      </trkpt>
      <trkpt lat="46.69785" lon="-1.93424">
        <ele>5</ele>
        <time>2018-03-06T22:06:15Z</time>
      </trkpt>
      <trkpt lat="46.69785" lon="-1.93423">
        <ele>5</ele>
        <time>2018-03-06T22:07:15Z</time>
      </trkpt>
      <trkpt lat="46.69785" lon="-1.93422">
        <ele>5</ele>
        <time>2018-03-06T22:08:15Z</time>
      </trkpt>
      <trkpt lat="46.69779" lon="-1.9342">
        <ele>5</ele>
        <time>2018-03-06T22:09:15Z</time>
      </trkpt>
      <trkpt lat="46.69776" lon="-1.9342">
        <ele>5</ele>
        <time>2018-03-06T22:10:15Z</time>
      </trkpt>
      <trkpt lat="46.69772" lon="-1.9342">
        <ele>5</ele>
        <time>2018-03-06T22:11:15Z</time>
      </trkpt>
      <trkpt lat="46.69762" lon="-1.93423">
        <ele>5</ele>
        <time>2018-03-06T22:12:15Z</time>
      </trkpt>
      <trkpt lat="46.69759" lon="-1.93424">
        <ele>5</ele>
        <time>2018-03-06T22:13:15Z</time>
      </trkpt>
      <trkpt lat="46.69721" lon="-1.93434">
        <ele>5</ele>
        <time>2018-03-06T22:14:15Z</time>
      </trkpt>
      <trkpt lat="46.69714" lon="-1.93435">
        <ele>5</ele>
        <time>2018-03-06T22:15:15Z</time>
      </trkpt>
      <trkpt lat="46.69697" lon="-1.93436">
        <ele>5</ele>
        <time>2018-03-06T22:16:15Z</time>
      </trkpt>
      <trkpt lat="46.69685" lon="-1.93435">
        <ele>5</ele>
        <time>2018-03-06T22:17:15Z</time>
      </trkpt>
      <trkpt lat="46.69633" lon="-1.93423">
        <ele>5</ele>
        <time>2018-03-06T22:18:15Z</time>
      </trkpt>
      <trkpt lat="46.69633" lon="-1.93423">
        <ele>5</ele>
        <time>2018-03-06T22:19:15Z</time>
      </trkpt>
      <trkpt lat="46.69633" lon="-1.93424">
        <ele>4</ele>
        <time>2018-03-06T22:20:15Z</time>
      </trkpt>
      <trkpt lat="46.69633" lon="-1.93425">
        <ele>4</ele>
        <time>2018-03-06T22:21:15Z</time>
      </trkpt>
      <trkpt lat="46.69633" lon="-1.93426">
        <ele>4</ele>
        <time>2018-03-06T22:22:15Z</time>
      </trkpt>
      <trkpt lat="46.69633" lon="-1.93427">
        <ele>4</ele>
        <time>2018-03-06T22:23:15Z</time>
      </trkpt>
      <trkpt lat="46.69633" lon="-1.93428">
        <ele>4</ele>
        <time>2018-03-06T22:24:15Z</time>
      </trkpt>
      <trkpt lat="46.69633" lon="-1.93429">
        <ele>4</ele>
        <time>2018-03-06T22:25:15Z</time>
      </trkpt>
      <trkpt lat="46.69633" lon="-1.9343">
        <ele>4</ele>
        <time>2018-03-06T22:26:15Z</time>
      </trkpt>
      <trkpt lat="46.69632" lon="-1.9343">
        <ele>4</ele>
        <time>2018-03-06T22:27:15Z</time>
      </trkpt>
      <trkpt lat="46.69632" lon="-1.93431">
        <ele>4</ele>
        <time>2018-03-06T22:28:15Z</time>
      </trkpt>
      <trkpt lat="46.69632" lon="-1.93432">
        <ele>4</ele>
        <time>2018-03-06T22:29:15Z</time>
      </trkpt>
      <trkpt lat="46.69631" lon="-1.93432">
        <ele>4</ele>
        <time>2018-03-06T22:30:15Z</time>
      </trkpt>
      <trkpt lat="46.69631" lon="-1.93433">
        <ele>4</ele>
        <time>2018-03-06T22:31:15Z</time>
      </trkpt>
      <trkpt lat="46.69631" lon="-1.93434">
        <ele>4</ele>
        <time>2018-03-06T22:32:15Z</time>
      </trkpt>
      <trkpt lat="46.6963" lon="-1.93434">
        <ele>4</ele>
        <time>2018-03-06T22:33:15Z</time>
      </trkpt>
      <trkpt lat="46.6963" lon="-1.93435">
        <ele>4</ele>
        <time>2018-03-06T22:34:15Z</time>
      </trkpt>
      <trkpt lat="46.69629" lon="-1.93435">
        <ele>4</ele>
        <time>2018-03-06T22:35:15Z</time>
      </trkpt>
      <trkpt lat="46.69629" lon="-1.93436">
        <ele>4</ele>
        <time>2018-03-06T22:36:15Z</time>
      </trkpt>
      <trkpt lat="46.69628" lon="-1.93436">
        <ele>4</ele>
        <time>2018-03-06T22:37:15Z</time>
      </trkpt>
      <trkpt lat="46.69627" lon="-1.93436">
        <ele>4</ele>
        <time>2018-03-06T22:38:15Z</time>
      </trkpt>
      <trkpt lat="46.69627" lon="-1.93437">
        <ele>4</ele>
        <time>2018-03-06T22:39:15Z</time>
      </trkpt>
      <trkpt lat="46.69626" lon="-1.93437">
        <ele>4</ele>
        <time>2018-03-06T22:40:15Z</time>
      </trkpt>
      <trkpt lat="46.69625" lon="-1.93437">
        <ele>4</ele>
        <time>2018-03-06T22:41:15Z</time>
      </trkpt>
      <trkpt lat="46.69624" lon="-1.93437">
        <ele>4</ele>
        <time>2018-03-06T22:42:15Z</time>
      </trkpt>
      <trkpt lat="46.69623" lon="-1.93437">
        <ele>4</ele>
        <time>2018-03-06T22:43:15Z</time>
      </trkpt>
      <trkpt lat="46.69622" lon="-1.93436">
        <ele>4</ele>
        <time>2018-03-06T22:44:15Z</time>
      </trkpt>
      <trkpt lat="46.69621" lon="-1.93436">
        <ele>4</ele>
        <time>2018-03-06T22:45:15Z</time>
      </trkpt>
      <trkpt lat="46.6962" lon="-1.93435">
        <ele>4</ele>
        <time>2018-03-06T22:46:15Z</time>
      </trkpt>
      <trkpt lat="46.69619" lon="-1.93434">
        <ele>4</ele>
        <time>2018-03-06T22:47:15Z</time>
      </trkpt>
      <trkpt lat="46.69619" lon="-1.93433">
        <ele>4</ele>
        <time>2018-03-06T22:48:15Z</time>
      </trkpt>
      <trkpt lat="46.69618" lon="-1.93433">
        <ele>4</ele>
        <time>2018-03-06T22:49:15Z</time>
      </trkpt>
      <trkpt lat="46.69618" lon="-1.93432">
        <ele>4</ele>
        <time>2018-03-06T22:50:15Z</time>
      </trkpt>
      <trkpt lat="46.69618" lon="-1.93431">
        <ele>4</ele>
        <time>2018-03-06T22:51:15Z</time>
      </trkpt>
      <trkpt lat="46.69617" lon="-1.93431">
        <ele>4</ele>
        <time>2018-03-06T22:52:15Z</time>
      </trkpt>
      <trkpt lat="46.69617" lon="-1.9343">
        <ele>4</ele>
        <time>2018-03-06T22:53:15Z</time>
      </trkpt>
      <trkpt lat="46.69617" lon="-1.93429">
        <ele>4</ele>
        <time>2018-03-06T22:54:15Z</time>
      </trkpt>
      <trkpt lat="46.69617" lon="-1.93428">
        <ele>4</ele>
        <time>2018-03-06T22:55:15Z</time>
      </trkpt>
      <trkpt lat="46.69616" lon="-1.93428">
        <ele>4</ele>
        <time>2018-03-06T22:56:15Z</time>
      </trkpt>
      <trkpt lat="46.69616" lon="-1.93427">
        <ele>4</ele>
        <time>2018-03-06T22:57:15Z</time>
      </trkpt>
      <trkpt lat="46.69616" lon="-1.93426">
        <ele>4</ele>
        <time>2018-03-06T22:58:15Z</time>
      </trkpt>
      <trkpt lat="46.69616" lon="-1.93425">
        <ele>4</ele>
        <time>2018-03-06T22:59:15Z</time>
      </trkpt>
      <trkpt lat="46.69616" lon="-1.93424">
        <ele>4</ele>
        <time>2018-03-06T23:00:15Z</time>
      </trkpt>
      <trkpt lat="46.69616" lon="-1.93423">
        <ele>4</ele>
        <time>2018-03-06T23:01:15Z</time>
      </trkpt>
      <trkpt lat="46.69616" lon="-1.93422">
        <ele>4</ele>
        <time>2018-03-06T23:02:15Z</time>
      </trkpt>
      <trkpt lat="46.69616" lon="-1.93421">
        <ele>4</ele>
        <time>2018-03-06T23:03:15Z</time>
      </trkpt>
      <trkpt lat="46.69617" lon="-1.93421">
        <ele>4</ele>
        <time>2018-03-06T23:04:15Z</time>
      </trkpt>
      <trkpt lat="46.69617" lon="-1.9342">
        <ele>4</ele>
        <time>2018-03-06T23:05:15Z</time>
      </trkpt>
      <trkpt lat="46.69607" lon="-1.93416">
        <ele>4</ele>
        <time>2018-03-06T23:06:15Z</time>
      </trkpt>
      <trkpt lat="46.69587" lon="-1.93404">
        <ele>4</ele>
        <time>2018-03-06T23:07:15Z</time>
      </trkpt>
      <trkpt lat="46.69551" lon="-1.93388">
        <ele>4</ele>
        <time>2018-03-06T23:08:15Z</time>
      </trkpt>
      <trkpt lat="46.69518" lon="-1.93374">
        <ele>4</ele>
        <time>2018-03-06T23:09:15Z</time>
      </trkpt>
      <trkpt lat="46.69507" lon="-1.9337">
        <ele>4</ele>
        <time>2018-03-06T23:10:15Z</time>
      </trkpt>
      <trkpt lat="46.69503" lon="-1.93368">
        <ele>4</ele>
        <time>2018-03-06T23:11:15Z</time>
      </trkpt>
      <trkpt lat="46.69498" lon="-1.93366">
        <ele>4</ele>
        <time>2018-03-06T23:12:15Z</time>
      </trkpt>
      <trkpt lat="46.6946" lon="-1.93349">
        <ele>4</ele>
        <time>2018-03-06T23:13:15Z</time>
      </trkpt>
      <trkpt lat="46.69431" lon="-1.93336">
        <ele>4</ele>
        <time>2018-03-06T23:14:15Z</time>
      </trkpt>
      <trkpt lat="46.69426" lon="-1.93334">
        <ele>4</ele>
        <time>2018-03-06T23:15:15Z</time>
      </trkpt>
      <trkpt lat="46.69421" lon="-1.93333">
        <ele>4</ele>
        <time>2018-03-06T23:16:15Z</time>
      </trkpt>
      <trkpt lat="46.69416" lon="-1.93331">
        <ele>4</ele>
        <time>2018-03-06T23:17:15Z</time>
      </trkpt>
      <trkpt lat="46.69405" lon="-1.9333">
        <ele>4</ele>
        <time>2018-03-06T23:18:15Z</time>
      </trkpt>
      <trkpt lat="46.69394" lon="-1.93333">
        <ele>4</ele>
        <time>2018-03-06T23:19:15Z</time>
      </trkpt>
      <trkpt lat="46.69394" lon="-1.93333">
        <ele>4</ele>
        <time>2018-03-06T23:20:15Z</time>
      </trkpt>
      <trkpt lat="46.69394" lon="-1.93334">
        <ele>4</ele>
        <time>2018-03-06T23:21:15Z</time>
      </trkpt>
      <trkpt lat="46.69394" lon="-1.93335">
        <ele>4</ele>
        <time>2018-03-06T23:22:15Z</time>
      </trkpt>
      <trkpt lat="46.69393" lon="-1.93335">
        <ele>4</ele>
        <time>2018-03-06T23:23:15Z</time>
      </trkpt>
      <trkpt lat="46.69393" lon="-1.93336">
        <ele>4</ele>
        <time>2018-03-06T23:24:15Z</time>
      </trkpt>
      <trkpt lat="46.69392" lon="-1.93336">
        <ele>4</ele>
        <time>2018-03-06T23:25:15Z</time>
      </trkpt>
      <trkpt lat="46.69392" lon="-1.93337">
        <ele>4</ele>
        <time>2018-03-06T23:26:15Z</time>
      </trkpt>
      <trkpt lat="46.69391" lon="-1.93337">
        <ele>4</ele>
        <time>2018-03-06T23:27:15Z</time>
      </trkpt>
      <trkpt lat="46.6939" lon="-1.93338">
        <ele>4</ele>
        <time>2018-03-06T23:28:15Z</time>
      </trkpt>
      <trkpt lat="46.69389" lon="-1.93338">
        <ele>4</ele>
        <time>2018-03-06T23:29:15Z</time>
      </trkpt>
      <trkpt lat="46.69388" lon="-1.93338">
        <ele>4</ele>
        <time>2018-03-06T23:30:15Z</time>
      </trkpt>
      <trkpt lat="46.69387" lon="-1.93338">
        <ele>4</ele>
        <time>2018-03-06T23:31:15Z</time>
      </trkpt>
      <trkpt lat="46.69386" lon="-1.93338">
        <ele>4</ele>
        <time>2018-03-06T23:32:15Z</time>
      </trkpt>
      <trkpt lat="46.69385" lon="-1.93338">
        <ele>4</ele>
        <time>2018-03-06T23:33:15Z</time>
      </trkpt>
      <trkpt lat="46.69384" lon="-1.93338">
        <ele>4</ele>
        <time>2018-03-06T23:34:15Z</time>
      </trkpt>
      <trkpt lat="46.69384" lon="-1.93337">
        <ele>4</ele>
        <time>2018-03-06T23:35:15Z</time>
      </trkpt>
      <trkpt lat="46.69383" lon="-1.93337">
        <ele>4</ele>
        <time>2018-03-06T23:36:15Z</time>
      </trkpt>
      <trkpt lat="46.69383" lon="-1.93336">
        <ele>4</ele>
        <time>2018-03-06T23:37:15Z</time>
      </trkpt>
      <trkpt lat="46.69382" lon="-1.93336">
        <ele>4</ele>
        <time>2018-03-06T23:38:15Z</time>
      </trkpt>
      <trkpt lat="46.69382" lon="-1.93335">
        <ele>4</ele>
        <time>2018-03-06T23:39:15Z</time>
      </trkpt>
      <trkpt lat="46.69381" lon="-1.93335">
        <ele>4</ele>
        <time>2018-03-06T23:40:15Z</time>
      </trkpt>
      <trkpt lat="46.69381" lon="-1.93334">
        <ele>4</ele>
        <time>2018-03-06T23:41:15Z</time>
      </trkpt>
      <trkpt lat="46.6938" lon="-1.93333">
        <ele>4</ele>
        <time>2018-03-06T23:42:15Z</time>
      </trkpt>
      <trkpt lat="46.6938" lon="-1.93332">
        <ele>4</ele>
        <time>2018-03-06T23:43:15Z</time>
      </trkpt>
      <trkpt lat="46.69379" lon="-1.93332">
        <ele>4</ele>
        <time>2018-03-06T23:44:15Z</time>
      </trkpt>
      <trkpt lat="46.69379" lon="-1.93331">
        <ele>4</ele>
        <time>2018-03-06T23:45:15Z</time>
      </trkpt>
      <trkpt lat="46.69379" lon="-1.9333">
        <ele>4</ele>
        <time>2018-03-06T23:46:15Z</time>
      </trkpt>
      <trkpt lat="46.69379" lon="-1.93329">
        <ele>4</ele>
        <time>2018-03-06T23:47:15Z</time>
      </trkpt>
      <trkpt lat="46.69376" lon="-1.93327">
        <ele>4</ele>
        <time>2018-03-06T23:48:15Z</time>
      </trkpt>
      <trkpt lat="46.69367" lon="-1.93325">
        <ele>4</ele>
        <time>2018-03-06T23:49:15Z</time>
      </trkpt>
      <trkpt lat="46.69363" lon="-1.93325">
        <ele>4</ele>
        <time>2018-03-06T23:50:15Z</time>
      </trkpt>
      <trkpt lat="46.69356" lon="-1.93325">
        <ele>4</ele>
        <time>2018-03-06T23:51:15Z</time>
      </trkpt>
      <trkpt lat="46.69353" lon="-1.93324">
        <ele>4</ele>
        <time>2018-03-06T23:52:15Z</time>
      </trkpt>
      <trkpt lat="46.69315" lon="-1.93317">
        <ele>4</ele>
        <time>2018-03-06T23:53:15Z</time>
      </trkpt>
      <trkpt lat="46.69286" lon="-1.93313">
        <ele>4</ele>
        <time>2018-03-06T23:54:15Z</time>
      </trkpt>
      <trkpt lat="46.6924" lon="-1.93303">
        <ele>3</ele>
        <time>2018-03-06T23:55:15Z</time>
      </trkpt>
      <trkpt lat="46.69218" lon="-1.933">
        <ele>3</ele>
        <time>2018-03-06T23:56:15Z</time>
      </trkpt>
      <trkpt lat="46.69217" lon="-1.933">
        <ele>3</ele>
        <time>2018-03-06T23:57:15Z</time>
      </trkpt>
      <trkpt lat="46.69209" lon="-1.93298">
        <ele>3</ele>
        <time>2018-03-06T23:58:15Z</time>
      </trkpt>
      <trkpt lat="46.69203" lon="-1.93298">
        <ele>3</ele>
        <time>2018-03-06T23:59:15Z</time>
      </trkpt>
      <trkpt lat="46.69197" lon="-1.93299">
        <ele>3</ele>
        <time>2018-03-07T00:00:15Z</time>
      </trkpt>
      <trkpt lat="46.69182" lon="-1.93301">
        <ele>3</ele>
        <time>2018-03-07T00:01:15Z</time>
      </trkpt>
      <trkpt lat="46.69182" lon="-1.93301">
        <ele>3</ele>
        <time>2018-03-07T00:02:15Z</time>
      </trkpt>
      <trkpt lat="46.6918" lon="-1.93305">
        <ele>3</ele>
        <time>2018-03-07T00:03:15Z</time>
      </trkpt>
      <trkpt lat="46.69177" lon="-1.93307">
        <ele>3</ele>
        <time>2018-03-07T00:04:15Z</time>
      </trkpt>
      <trkpt lat="46.69173" lon="-1.93307">
        <ele>3</ele>
        <time>2018-03-07T00:05:15Z</time>
      </trkpt>
      <trkpt lat="46.69169" lon="-1.93306">
        <ele>3</ele>
        <time>2018-03-07T00:06:15Z</time>
      </trkpt>
      <trkpt lat="46.69167" lon="-1.93304">
        <ele>3</ele>
        <time>2018-03-07T00:07:15Z</time>
      </trkpt>
      <trkpt lat="46.69165" lon="-1.93301">
        <ele>3</ele>
        <time>2018-03-07T00:08:15Z</time>
      </trkpt>
      <trkpt lat="46.69164" lon="-1.93298">
        <ele>3</ele>
        <time>2018-03-07T00:09:15Z</time>
      </trkpt>
      <trkpt lat="46.69163" lon="-1.93296">
        <ele>3</ele>
        <time>2018-03-07T00:10:15Z</time>
      </trkpt>
      <trkpt lat="46.69163" lon="-1.93293">
        <ele>2</ele>
        <time>2018-03-07T00:11:15Z</time>
      </trkpt>
      <trkpt lat="46.69163" lon="-1.93289">
        <ele>2</ele>
        <time>2018-03-07T00:12:15Z</time>
      </trkpt>
      <trkpt lat="46.69165" lon="-1.93285">
        <ele>2</ele>
        <time>2018-03-07T00:13:15Z</time>
      </trkpt>
      <trkpt lat="46.69169" lon="-1.9328">
        <ele>2</ele>
        <time>2018-03-07T00:14:15Z</time>
      </trkpt>
      <trkpt lat="46.69166" lon="-1.93273">
        <ele>2</ele>
        <time>2018-03-07T00:15:15Z</time>
      </trkpt>
      <trkpt lat="46.69166" lon="-1.93263">
        <ele>2</ele>
        <time>2018-03-07T00:16:15Z</time>
      </trkpt>
      <trkpt lat="46.69167" lon="-1.93252">
        <ele>2</ele>
        <time>2018-03-07T00:17:15Z</time>
      </trkpt>
      <trkpt lat="46.69169" lon="-1.93244">
        <ele>2</ele>
        <time>2018-03-07T00:18:15Z</time>
      </trkpt>
      <trkpt lat="46.69177" lon="-1.93193">
        <ele>4</ele>
        <time>2018-03-07T00:19:15Z</time>
      </trkpt>
      <trkpt lat="46.69179" lon="-1.9318">
        <ele>4</ele>
        <time>2018-03-07T00:20:15Z</time>
      </trkpt>
      <trkpt lat="46.69182" lon="-1.93159">
        <ele>4</ele>
        <time>2018-03-07T00:21:15Z</time>
      </trkpt>
      <trkpt lat="46.69183" lon="-1.9315">
        <ele>4</ele>
        <time>2018-03-07T00:22:15Z</time>
      </trkpt>
      <trkpt lat="46.69186" lon="-1.93138">
        <ele>4</ele>
        <time>2018-03-07T00:23:15Z</time>
      </trkpt>
      <trkpt lat="46.69187" lon="-1.93134">
        <ele>4</ele>
        <time>2018-03-07T00:24:15Z</time>
      </trkpt>
      <trkpt lat="46.6919" lon="-1.93125">
        <ele>4</ele>
        <time>2018-03-07T00:25:15Z</time>
      </trkpt>
      <trkpt lat="46.69194" lon="-1.93117">
        <ele>4</ele>
        <time>2018-03-07T00:26:15Z</time>
      </trkpt>
      <trkpt lat="46.69201" lon="-1.93103">
        <ele>4</ele>
        <time>2018-03-07T00:27:15Z</time>
      </trkpt>
      <trkpt lat="46.6921" lon="-1.93085">
        <ele>5</ele>
        <time>2018-03-07T00:28:15Z</time>
      </trkpt>
      <trkpt lat="46.69219" lon="-1.93065">
        <ele>5</ele>
        <time>2018-03-07T00:29:15Z</time>
      </trkpt>
      <trkpt lat="46.69224" lon="-1.93053">
        <ele>5</ele>
        <time>2018-03-07T00:30:15Z</time>
      </trkpt>
      <trkpt lat="46.69224" lon="-1.93053">
        <ele>5</ele>
        <time>2018-03-07T00:31:15Z</time>
      </trkpt>
      <trkpt lat="46.69217" lon="-1.93046">
        <ele>5</ele>
        <time>2018-03-07T00:32:15Z</time>
      </trkpt>
      <trkpt lat="46.69194" lon="-1.93026">
        <ele>5</ele>
        <time>2018-03-07T00:33:15Z</time>
      </trkpt>
      <trkpt lat="46.69175" lon="-1.93009">
        <ele>4</ele>
        <time>2018-03-07T00:34:15Z</time>
      </trkpt>
      <trkpt lat="46.6917" lon="-1.93005">
        <ele>4</ele>
        <time>2018-03-07T00:35:15Z</time>
      </trkpt>
      <trkpt lat="46.69154" lon="-1.92991">
        <ele>4</ele>
        <time>2018-03-07T00:36:15Z</time>
      </trkpt>
      <trkpt lat="46.69133" lon="-1.92971">
        <ele>4</ele>
        <time>2018-03-07T00:37:15Z</time>
      </trkpt>
      <trkpt lat="46.69107" lon="-1.92948">
        <ele>4</ele>
        <time>2018-03-07T00:38:15Z</time>
      </trkpt>
      <trkpt lat="46.69095" lon="-1.92938">
        <ele>4</ele>
        <time>2018-03-07T00:39:15Z</time>
      </trkpt>
      <trkpt lat="46.69068" lon="-1.92907">
        <ele>4</ele>
        <time>2018-03-07T00:40:15Z</time>
      </trkpt>
      <trkpt lat="46.69055" lon="-1.9289">
        <ele>4</ele>
        <time>2018-03-07T00:41:15Z</time>
      </trkpt>
      <trkpt lat="46.69038" lon="-1.92867">
        <ele>4</ele>
        <time>2018-03-07T00:42:15Z</time>
      </trkpt>
      <trkpt lat="46.69014" lon="-1.92836">
        <ele>4</ele>
        <time>2018-03-07T00:43:15Z</time>
      </trkpt>
      <trkpt lat="46.68993" lon="-1.92806">
        <ele>4</ele>
        <time>2018-03-07T00:44:15Z</time>
      </trkpt>
      <trkpt lat="46.68992" lon="-1.92805">
        <ele>4</ele>
        <time>2018-03-07T00:45:15Z</time>
      </trkpt>
      <trkpt lat="46.68977" lon="-1.92784">
        <ele>4</ele>
        <time>2018-03-07T00:46:15Z</time>
      </trkpt>
      <trkpt lat="46.68969" lon="-1.92774">
        <ele>4</ele>
        <time>2018-03-07T00:47:15Z</time>
      </trkpt>
      <trkpt lat="46.68965" lon="-1.92769">
        <ele>4</ele>
        <time>2018-03-07T00:48:15Z</time>
      </trkpt>
      <trkpt lat="46.68955" lon="-1.92755">
        <ele>4</ele>
        <time>2018-03-07T00:49:15Z</time>
      </trkpt>
      <trkpt lat="46.68947" lon="-1.92747">
        <ele>4</ele>
        <time>2018-03-07T00:50:15Z</time>
      </trkpt>
      <trkpt lat="46.68936" lon="-1.92737">
        <ele>4</ele>
        <time>2018-03-07T00:51:15Z</time>
      </trkpt>
      <trkpt lat="46.68926" lon="-1.9273">
        <ele>4</ele>
        <time>2018-03-07T00:52:15Z</time>
      </trkpt>
      <trkpt lat="46.68913" lon="-1.92723">
        <ele>4</ele>
        <time>2018-03-07T00:53:15Z</time>
      </trkpt>
      <trkpt lat="46.68897" lon="-1.92716">
        <ele>4</ele>
        <time>2018-03-07T00:54:15Z</time>
      </trkpt>
      <trkpt lat="46.68881" lon="-1.92711">
        <ele>5</ele>
        <time>2018-03-07T00:55:15Z</time>
      </trkpt>
      <trkpt lat="46.68869" lon="-1.92706">
        <ele>5</ele>
        <time>2018-03-07T00:56:15Z</time>
      </trkpt>
      <trkpt lat="46.6886" lon="-1.92704">
        <ele>6</ele>
        <time>2018-03-07T00:57:15Z</time>
      </trkpt>
      <trkpt lat="46.68859" lon="-1.92704">
        <ele>6</ele>
        <time>2018-03-07T00:58:15Z</time>
      </trkpt>
      <trkpt lat="46.68851" lon="-1.92698">
        <ele>6</ele>
        <time>2018-03-07T00:59:15Z</time>
      </trkpt>
      <trkpt lat="46.68851" lon="-1.92698">
        <ele>6</ele>
        <time>2018-03-07T01:00:15Z</time>
      </trkpt>
      <trkpt lat="46.68851" lon="-1.92699">
        <ele>6</ele>
        <time>2018-03-07T01:01:15Z</time>
      </trkpt>
      <trkpt lat="46.6885" lon="-1.92699">
        <ele>6</ele>
        <time>2018-03-07T01:02:15Z</time>
      </trkpt>
      <trkpt lat="46.68849" lon="-1.927">
        <ele>6</ele>
        <time>2018-03-07T01:03:15Z</time>
      </trkpt>
      <trkpt lat="46.68848" lon="-1.927">
        <ele>6</ele>
        <time>2018-03-07T01:04:15Z</time>
      </trkpt>
      <trkpt lat="46.68848" lon="-1.92701">
        <ele>6</ele>
        <time>2018-03-07T01:05:15Z</time>
      </trkpt>
      <trkpt lat="46.68847" lon="-1.92701">
        <ele>6</ele>
        <time>2018-03-07T01:06:15Z</time>
      </trkpt>
      <trkpt lat="46.68846" lon="-1.92701">
        <ele>6</ele>
        <time>2018-03-07T01:07:15Z</time>
      </trkpt>
      <trkpt lat="46.68845" lon="-1.92701">
        <ele>6</ele>
        <time>2018-03-07T01:08:15Z</time>
      </trkpt>
      <trkpt lat="46.68844" lon="-1.92701">
        <ele>7</ele>
        <time>2018-03-07T01:09:15Z</time>
      </trkpt>
      <trkpt lat="46.68844" lon="-1.927">
        <ele>7</ele>
        <time>2018-03-07T01:10:15Z</time>
      </trkpt>
      <trkpt lat="46.68843" lon="-1.927">
        <ele>7</ele>
        <time>2018-03-07T01:11:15Z</time>
      </trkpt>
      <trkpt lat="46.68842" lon="-1.92699">
        <ele>7</ele>
        <time>2018-03-07T01:12:15Z</time>
      </trkpt>
      <trkpt lat="46.68837" lon="-1.927">
        <ele>7</ele>
        <time>2018-03-07T01:13:15Z</time>
      </trkpt>
      <trkpt lat="46.68833" lon="-1.92701">
        <ele>7</ele>
        <time>2018-03-07T01:14:15Z</time>
      </trkpt>
      <trkpt lat="46.68828" lon="-1.927">
        <ele>7</ele>
        <time>2018-03-07T01:15:15Z</time>
      </trkpt>
      <trkpt lat="46.68827" lon="-1.927">
        <ele>7</ele>
        <time>2018-03-07T01:16:15Z</time>
      </trkpt>
      <trkpt lat="46.68827" lon="-1.92701">
        <ele>7</ele>
        <time>2018-03-07T01:17:15Z</time>
      </trkpt>
      <trkpt lat="46.68826" lon="-1.92701">
        <ele>7</ele>
        <time>2018-03-07T01:18:15Z</time>
      </trkpt>
      <trkpt lat="46.68826" lon="-1.92702">
        <ele>7</ele>
        <time>2018-03-07T01:19:15Z</time>
      </trkpt>
      <trkpt lat="46.68825" lon="-1.92702">
        <ele>7</ele>
        <time>2018-03-07T01:20:15Z</time>
      </trkpt>
      <trkpt lat="46.68825" lon="-1.92703">
        <ele>7</ele>
        <time>2018-03-07T01:21:15Z</time>
      </trkpt>
      <trkpt lat="46.68824" lon="-1.92703">
        <ele>7</ele>
        <time>2018-03-07T01:22:15Z</time>
      </trkpt>
      <trkpt lat="46.68823" lon="-1.92703">
        <ele>7</ele>
        <time>2018-03-07T01:23:15Z</time>
      </trkpt>
      <trkpt lat="46.68822" lon="-1.92703">
        <ele>7</ele>
        <time>2018-03-07T01:24:15Z</time>
      </trkpt>
      <trkpt lat="46.68821" lon="-1.92703">
        <ele>7</ele>
        <time>2018-03-07T01:25:15Z</time>
      </trkpt>
      <trkpt lat="46.68821" lon="-1.92702">
        <ele>7</ele>
        <time>2018-03-07T01:26:15Z</time>
      </trkpt>
      <trkpt lat="46.6882" lon="-1.92702">
        <ele>7</ele>
        <time>2018-03-07T01:27:15Z</time>
      </trkpt>
      <trkpt lat="46.6882" lon="-1.92701">
        <ele>7</ele>
        <time>2018-03-07T01:28:15Z</time>
      </trkpt>
      <trkpt lat="46.68819" lon="-1.92701">
        <ele>7</ele>
        <time>2018-03-07T01:29:15Z</time>
      </trkpt>
      <trkpt lat="46.68819" lon="-1.927">
        <ele>7</ele>
        <time>2018-03-07T01:30:15Z</time>
      </trkpt>
      <trkpt lat="46.68818" lon="-1.927">
        <ele>7</ele>
        <time>2018-03-07T01:31:15Z</time>
      </trkpt>
      <trkpt lat="46.68818" lon="-1.92699">
        <ele>7</ele>
        <time>2018-03-07T01:32:15Z</time>
      </trkpt>
      <trkpt lat="46.68818" lon="-1.92698">
        <ele>7</ele>
        <time>2018-03-07T01:33:15Z</time>
      </trkpt>
      <trkpt lat="46.68817" lon="-1.92698">
        <ele>7</ele>
        <time>2018-03-07T01:34:15Z</time>
      </trkpt>
      <trkpt lat="46.68817" lon="-1.92697">
        <ele>7</ele>
        <time>2018-03-07T01:35:15Z</time>
      </trkpt>
      <trkpt lat="46.68817" lon="-1.92696">
        <ele>7</ele>
        <time>2018-03-07T01:36:15Z</time>
      </trkpt>
      <trkpt lat="46.68817" lon="-1.92695">
        <ele>7</ele>
        <time>2018-03-07T01:37:15Z</time>
      </trkpt>
      <trkpt lat="46.68817" lon="-1.92694">
        <ele>7</ele>
        <time>2018-03-07T01:38:15Z</time>
      </trkpt>
      <trkpt lat="46.68817" lon="-1.92693">
        <ele>7</ele>
        <time>2018-03-07T01:39:15Z</time>
      </trkpt>
      <trkpt lat="46.68817" lon="-1.92692">
        <ele>7</ele>
        <time>2018-03-07T01:40:15Z</time>
      </trkpt>
      <trkpt lat="46.68817" lon="-1.92691">
        <ele>7</ele>
        <time>2018-03-07T01:41:15Z</time>
      </trkpt>
      <trkpt lat="46.68817" lon="-1.9269">
        <ele>7</ele>
        <time>2018-03-07T01:42:15Z</time>
      </trkpt>
      <trkpt lat="46.68804" lon="-1.92685">
        <ele>7</ele>
        <time>2018-03-07T01:43:15Z</time>
      </trkpt>
      <trkpt lat="46.68787" lon="-1.9268">
        <ele>8</ele>
        <time>2018-03-07T01:44:15Z</time>
      </trkpt>
      <trkpt lat="46.68776" lon="-1.92676">
        <ele>8</ele>
        <time>2018-03-07T01:45:15Z</time>
      </trkpt>
      <trkpt lat="46.6876" lon="-1.92669">
        <ele>8</ele>
        <time>2018-03-07T01:46:15Z</time>
      </trkpt>
      <trkpt lat="46.68759" lon="-1.92668">
        <ele>8</ele>
        <time>2018-03-07T01:47:15Z</time>
      </trkpt>
      <trkpt lat="46.68733" lon="-1.92654">
        <ele>8</ele>
        <time>2018-03-07T01:48:15Z</time>
      </trkpt>
      <trkpt lat="46.68732" lon="-1.92654">
        <ele>8</ele>
        <time>2018-03-07T01:49:15Z</time>
      </trkpt>
      <trkpt lat="46.68707" lon="-1.92638">
        <ele>9</ele>
        <time>2018-03-07T01:50:15Z</time>
      </trkpt>
      <trkpt lat="46.68669" lon="-1.92615">
        <ele>10</ele>
        <time>2018-03-07T01:51:15Z</time>
      </trkpt>
      <trkpt lat="46.68651" lon="-1.92602">
        <ele>10</ele>
        <time>2018-03-07T01:52:15Z</time>
      </trkpt>
      <trkpt lat="46.68644" lon="-1.92596">
        <ele>10</ele>
        <time>2018-03-07T01:53:15Z</time>
      </trkpt>
      <trkpt lat="46.68635" lon="-1.92588">
        <ele>10</ele>
        <time>2018-03-07T01:54:15Z</time>
      </trkpt>
      <trkpt lat="46.68634" lon="-1.92586">
        <ele>10</ele>
        <time>2018-03-07T01:55:15Z</time>
      </trkpt>
      <trkpt lat="46.68629" lon="-1.9258">
        <ele>10</ele>
        <time>2018-03-07T01:56:15Z</time>
      </trkpt>
      <trkpt lat="46.68625" lon="-1.92575">
        <ele>10</ele>
        <time>2018-03-07T01:57:15Z</time>
      </trkpt>
      <trkpt lat="46.68616" lon="-1.92563">
        <ele>10</ele>
        <time>2018-03-07T01:58:15Z</time>
      </trkpt>
      <trkpt lat="46.68605" lon="-1.92548">
        <ele>10</ele>
        <time>2018-03-07T01:59:15Z</time>
      </trkpt>
      <trkpt lat="46.68594" lon="-1.92534">
        <ele>10</ele>
        <time>2018-03-07T02:00:15Z</time>
      </trkpt>
      <trkpt lat="46.68589" lon="-1.92528">
        <ele>10</ele>
        <time>2018-03-07T02:01:15Z</time>
      </trkpt>
      <trkpt lat="46.68567" lon="-1.925">
        <ele>10</ele>
        <time>2018-03-07T02:02:15Z</time>
      </trkpt>
      <trkpt lat="46.68549" lon="-1.92476">
        <ele>10</ele>
        <time>2018-03-07T02:03:15Z</time>
      </trkpt>
      <trkpt lat="46.68538" lon="-1.92464">
        <ele>10</ele>
        <time>2018-03-07T02:04:15Z</time>
      </trkpt>
      <trkpt lat="46.68532" lon="-1.92456">
        <ele>10</ele>
        <time>2018-03-07T02:05:15Z</time>
      </trkpt>
      <trkpt lat="46.68528" lon="-1.9245">
        <ele>10</ele>
        <time>2018-03-07T02:06:15Z</time>
      </trkpt>
      <trkpt lat="46.68514" lon="-1.92436">
        <ele>10</ele>
        <time>2018-03-07T02:07:15Z</time>
      </trkpt>
      <trkpt lat="46.68505" lon="-1.92428">
        <ele>10</ele>
        <time>2018-03-07T02:08:15Z</time>
      </trkpt>
      <trkpt lat="46.68495" lon="-1.9242">
        <ele>10</ele>
        <time>2018-03-07T02:09:15Z</time>
      </trkpt>
      <trkpt lat="46.68487" lon="-1.92415">
        <ele>10</ele>
        <time>2018-03-07T02:10:15Z</time>
      </trkpt>
      <trkpt lat="46.68481" lon="-1.92411">
        <ele>10</ele>
        <time>2018-03-07T02:11:15Z</time>
      </trkpt>
      <trkpt lat="46.68472" lon="-1.92408">
        <ele>10</ele>
        <time>2018-03-07T02:12:15Z</time>
      </trkpt>
      <trkpt lat="46.68463" lon="-1.92406">
        <ele>10</ele>
        <time>2018-03-07T02:13:15Z</time>
      </trkpt>
      <trkpt lat="46.68454" lon="-1.92404">
        <ele>10</ele>
        <time>2018-03-07T02:14:15Z</time>
      </trkpt>
      <trkpt lat="46.68447" lon="-1.92403">
        <ele>10</ele>
        <time>2018-03-07T02:15:15Z</time>
      </trkpt>
      <trkpt lat="46.68435" lon="-1.924">
        <ele>10</ele>
        <time>2018-03-07T02:16:15Z</time>
      </trkpt>
      <trkpt lat="46.68426" lon="-1.92396">
        <ele>10</ele>
        <time>2018-03-07T02:17:15Z</time>
      </trkpt>
      <trkpt lat="46.68413" lon="-1.92388">
        <ele>10</ele>
        <time>2018-03-07T02:18:15Z</time>
      </trkpt>
      <trkpt lat="46.68403" lon="-1.9238">
        <ele>10</ele>
        <time>2018-03-07T02:19:15Z</time>
      </trkpt>
      <trkpt lat="46.68389" lon="-1.92363">
        <ele>10</ele>
        <time>2018-03-07T02:20:15Z</time>
      </trkpt>
      <trkpt lat="46.6838" lon="-1.92351">
        <ele>10</ele>
        <time>2018-03-07T02:21:15Z</time>
      </trkpt>
      <trkpt lat="46.68377" lon="-1.92346">
        <ele>10</ele>
        <time>2018-03-07T02:22:15Z</time>
      </trkpt>
      <trkpt lat="46.6837" lon="-1.92334">
        <ele>10</ele>
        <time>2018-03-07T02:23:15Z</time>
      </trkpt>
      <trkpt lat="46.68355" lon="-1.92305">
        <ele>10</ele>
        <time>2018-03-07T02:24:15Z</time>
      </trkpt>
      <trkpt lat="46.6833" lon="-1.92261">
        <ele>9</ele>
        <time>2018-03-07T02:25:15Z</time>
      </trkpt>
      <trkpt lat="46.6832" lon="-1.92245">
        <ele>9</ele>
        <time>2018-03-07T02:26:15Z</time>
      </trkpt>
      <trkpt lat="46.68306" lon="-1.92219">
        <ele>9</ele>
        <time>2018-03-07T02:27:15Z</time>
      </trkpt>
      <trkpt lat="46.68291" lon="-1.92193">
        <ele>8</ele>
        <time>2018-03-07T02:28:15Z</time>
      </trkpt>
      <trkpt lat="46.68286" lon="-1.92186">
        <ele>8</ele>
        <time>2018-03-07T02:29:15Z</time>
      </trkpt>
      <trkpt lat="46.68277" lon="-1.92172">
        <ele>8</ele>
        <time>2018-03-07T02:30:15Z</time>
      </trkpt>
      <trkpt lat="46.68267" lon="-1.92157">
        <ele>7</ele>
        <time>2018-03-07T02:31:15Z</time>
      </trkpt>
      <trkpt lat="46.68255" lon="-1.9214">
        <ele>7</ele>
        <time>2018-03-07T02:32:15Z</time>
      </trkpt>
      <trkpt lat="46.6823" lon="-1.92107">
        <ele>7</ele>
        <time>2018-03-07T02:33:15Z</time>
      </trkpt>
      <trkpt lat="46.68227" lon="-1.92103">
        <ele>7</ele>
        <time>2018-03-07T02:34:15Z</time>
      </trkpt>
      <trkpt lat="46.68224" lon="-1.92098">
        <ele>7</ele>
        <time>2018-03-07T02:35:15Z</time>
      </trkpt>
      <trkpt lat="46.68224" lon="-1.92097">
        <ele>7</ele>
        <time>2018-03-07T02:36:15Z</time>
      </trkpt>
      <trkpt lat="46.6822" lon="-1.92091">
        <ele>7</ele>
        <time>2018-03-07T02:37:15Z</time>
      </trkpt>
      <trkpt lat="46.68208" lon="-1.92073">
        <ele>7</ele>
        <time>2018-03-07T02:38:15Z</time>
      </trkpt>
      <trkpt lat="46.68198" lon="-1.92057">
        <ele>7</ele>
        <time>2018-03-07T02:39:15Z</time>
      </trkpt>
      <trkpt lat="46.68174" lon="-1.92025">
        <ele>8</ele>
        <time>2018-03-07T02:40:15Z</time>
      </trkpt>
      <trkpt lat="46.68158" lon="-1.92003">
        <ele>8</ele>
        <time>2018-03-07T02:41:15Z</time>
      </trkpt>
      <trkpt lat="46.68115" lon="-1.91941">
        <ele>8</ele>
        <time>2018-03-07T02:42:15Z</time>
      </trkpt>
      <trkpt lat="46.68083" lon="-1.91897">
        <ele>8</ele>
        <time>2018-03-07T02:43:15Z</time>
      </trkpt>
      <trkpt lat="46.68057" lon="-1.91858">
        <ele>8</ele>
        <time>2018-03-07T02:44:15Z</time>
      </trkpt>
      <trkpt lat="46.68041" lon="-1.91836">
        <ele>8</ele>
        <time>2018-03-07T02:45:15Z</time>
      </trkpt>
      <trkpt lat="46.68033" lon="-1.91825">
        <ele>8</ele>
        <time>2018-03-07T02:46:15Z</time>
      </trkpt>
      <trkpt lat="46.68022" lon="-1.91808">
        <ele>8</ele>
        <time>2018-03-07T02:47:15Z</time>
      </trkpt>
      <trkpt lat="46.68" lon="-1.91776">
        <ele>8</ele>
        <time>2018-03-07T02:48:15Z</time>
      </trkpt>
      <trkpt lat="46.67972" lon="-1.91737">
        <ele>7</ele>
        <time>2018-03-07T02:49:15Z</time>
      </trkpt>
      <trkpt lat="46.67947" lon="-1.91703">
        <ele>7</ele>
        <time>2018-03-07T02:50:15Z</time>
      </trkpt>
      <trkpt lat="46.67928" lon="-1.91675">
        <ele>7</ele>
        <time>2018-03-07T02:51:15Z</time>
      </trkpt>
      <trkpt lat="46.67898" lon="-1.91633">
        <ele>7</ele>
        <time>2018-03-07T02:52:15Z</time>
      </trkpt>
      <trkpt lat="46.67883" lon="-1.91611">
        <ele>6</ele>
        <time>2018-03-07T02:53:15Z</time>
      </trkpt>
      <trkpt lat="46.67864" lon="-1.91583">
        <ele>6</ele>
        <time>2018-03-07T02:54:15Z</time>
      </trkpt>
      <trkpt lat="46.6784" lon="-1.91552">
        <ele>6</ele>
        <time>2018-03-07T02:55:15Z</time>
      </trkpt>
      <trkpt lat="46.67831" lon="-1.91538">
        <ele>6</ele>
        <time>2018-03-07T02:56:15Z</time>
      </trkpt>
      <trkpt lat="46.67783" lon="-1.91471">
        <ele>6</ele>
        <time>2018-03-07T02:57:15Z</time>
      </trkpt>
      <trkpt lat="46.67747" lon="-1.9142">
        <ele>6</ele>
        <time>2018-03-07T02:58:15Z</time>
      </trkpt>
      <trkpt lat="46.67743" lon="-1.91414">
        <ele>6</ele>
        <time>2018-03-07T02:59:15Z</time>
      </trkpt>
      <trkpt lat="46.67704" lon="-1.91358">
        <ele>5</ele>
        <time>2018-03-07T03:00:15Z</time>
      </trkpt>
      <trkpt lat="46.67662" lon="-1.91298">
        <ele>5</ele>
        <time>2018-03-07T03:01:15Z</time>
      </trkpt>
      <trkpt lat="46.67634" lon="-1.91261">
        <ele>5</ele>
        <time>2018-03-07T03:02:15Z</time>
      </trkpt>
      <trkpt lat="46.67612" lon="-1.91228">
        <ele>5</ele>
        <time>2018-03-07T03:03:15Z</time>
      </trkpt>
      <trkpt lat="46.67587" lon="-1.91194">
        <ele>6</ele>
        <time>2018-03-07T03:04:15Z</time>
      </trkpt>
      <trkpt lat="46.67578" lon="-1.91181">
        <ele>6</ele>
        <time>2018-03-07T03:05:15Z</time>
      </trkpt>
      <trkpt lat="46.67546" lon="-1.91137">
        <ele>5</ele>
        <time>2018-03-07T03:06:15Z</time>
      </trkpt>
      <trkpt lat="46.67518" lon="-1.91097">
        <ele>5</ele>
        <time>2018-03-07T03:07:15Z</time>
      </trkpt>
      <trkpt lat="46.6749" lon="-1.9106">
        <ele>5</ele>
        <time>2018-03-07T03:08:15Z</time>
      </trkpt>
      <trkpt lat="46.67469" lon="-1.9103">
        <ele>4</ele>
        <time>2018-03-07T03:09:15Z</time>
      </trkpt>
      <trkpt lat="46.67456" lon="-1.9101">
        <ele>4</ele>
        <time>2018-03-07T03:10:15Z</time>
      </trkpt>
      <trkpt lat="46.67452" lon="-1.91005">
        <ele>4</ele>
        <time>2018-03-07T03:11:15Z</time>
      </trkpt>
      <trkpt lat="46.67446" lon="-1.90996">
        <ele>4</ele>
        <time>2018-03-07T03:12:15Z</time>
      </trkpt>
      <trkpt lat="46.6744" lon="-1.90984">
        <ele>4</ele>
        <time>2018-03-07T03:13:15Z</time>
      </trkpt>
      <trkpt lat="46.67435" lon="-1.90971">
        <ele>3</ele>
        <time>2018-03-07T03:14:15Z</time>
      </trkpt>
      <trkpt lat="46.67435" lon="-1.90971">
        <ele>3</ele>
        <time>2018-03-07T03:15:15Z</time>
      </trkpt>
      <trkpt lat="46.67432" lon="-1.90969">
        <ele>3</ele>
        <time>2018-03-07T03:16:15Z</time>
      </trkpt>
      <trkpt lat="46.6743" lon="-1.90968">
        <ele>3</ele>
        <time>2018-03-07T03:17:15Z</time>
      </trkpt>
      <trkpt lat="46.67429" lon="-1.90967">
        <ele>3</ele>
        <time>2018-03-07T03:18:15Z</time>
      </trkpt>
      <trkpt lat="46.67427" lon="-1.90965">
        <ele>3</ele>
        <time>2018-03-07T03:19:15Z</time>
      </trkpt>
      <trkpt lat="46.67426" lon="-1.90964">
        <ele>3</ele>
        <time>2018-03-07T03:20:15Z</time>
      </trkpt>
      <trkpt lat="46.67424" lon="-1.90962">
        <ele>3</ele>
        <time>2018-03-07T03:21:15Z</time>
      </trkpt>
      <trkpt lat="46.67423" lon="-1.9096">
        <ele>3</ele>
        <time>2018-03-07T03:22:15Z</time>
      </trkpt>
      <trkpt lat="46.67422" lon="-1.90958">
        <ele>3</ele>
        <time>2018-03-07T03:23:15Z</time>
      </trkpt>
      <trkpt lat="46.67421" lon="-1.90956">
        <ele>3</ele>
        <time>2018-03-07T03:24:15Z</time>
      </trkpt>
      <trkpt lat="46.6742" lon="-1.90953">
        <ele>3</ele>
        <time>2018-03-07T03:25:15Z</time>
      </trkpt>
      <trkpt lat="46.6742" lon="-1.90951">
        <ele>3</ele>
        <time>2018-03-07T03:26:15Z</time>
      </trkpt>
      <trkpt lat="46.6742" lon="-1.9095">
        <ele>3</ele>
        <time>2018-03-07T03:27:15Z</time>
      </trkpt>
      <trkpt lat="46.67419" lon="-1.9095">
        <ele>3</ele>
        <time>2018-03-07T03:28:15Z</time>
      </trkpt>
      <trkpt lat="46.67419" lon="-1.90949">
        <ele>3</ele>
        <time>2018-03-07T03:29:15Z</time>
      </trkpt>
      <trkpt lat="46.67419" lon="-1.90948">
        <ele>3</ele>
        <time>2018-03-07T03:30:15Z</time>
      </trkpt>
      <trkpt lat="46.67419" lon="-1.90947">
        <ele>3</ele>
        <time>2018-03-07T03:31:15Z</time>
      </trkpt>
      <trkpt lat="46.67419" lon="-1.90946">
        <ele>3</ele>
        <time>2018-03-07T03:32:15Z</time>
      </trkpt>
      <trkpt lat="46.67414" lon="-1.90938">
        <ele>3</ele>
        <time>2018-03-07T03:33:15Z</time>
      </trkpt>
      <trkpt lat="46.67409" lon="-1.90932">
        <ele>3</ele>
        <time>2018-03-07T03:34:15Z</time>
      </trkpt>
      <trkpt lat="46.67407" lon="-1.90929">
        <ele>3</ele>
        <time>2018-03-07T03:35:15Z</time>
      </trkpt>
      <trkpt lat="46.67405" lon="-1.90925">
        <ele>3</ele>
        <time>2018-03-07T03:36:15Z</time>
      </trkpt>
      <trkpt lat="46.67398" lon="-1.90917">
        <ele>3</ele>
        <time>2018-03-07T03:37:15Z</time>
      </trkpt>
      <trkpt lat="46.67384" lon="-1.90901">
        <ele>3</ele>
        <time>2018-03-07T03:38:15Z</time>
      </trkpt>
      <trkpt lat="46.67344" lon="-1.90854">
        <ele>2</ele>
        <time>2018-03-07T03:39:15Z</time>
      </trkpt>
      <trkpt lat="46.67339" lon="-1.90844">
        <ele>2</ele>
        <time>2018-03-07T03:40:15Z</time>
      </trkpt>
      <trkpt lat="46.67336" lon="-1.9084">
        <ele>2</ele>
        <time>2018-03-07T03:41:15Z</time>
      </trkpt>
      <trkpt lat="46.67333" lon="-1.90837">
        <ele>2</ele>
        <time>2018-03-07T03:42:15Z</time>
      </trkpt>
      <trkpt lat="46.6733" lon="-1.90833">
        <ele>2</ele>
        <time>2018-03-07T03:43:15Z</time>
      </trkpt>
      <trkpt lat="46.67327" lon="-1.90829">
        <ele>2</ele>
        <time>2018-03-07T03:44:15Z</time>
      </trkpt>
      <trkpt lat="46.67323" lon="-1.90824">
        <ele>2</ele>
        <time>2018-03-07T03:45:15Z</time>
      </trkpt>
      <trkpt lat="46.6732" lon="-1.90819">
        <ele>2</ele>
        <time>2018-03-07T03:46:15Z</time>
      </trkpt>
      <trkpt lat="46.67313" lon="-1.9081">
        <ele>2</ele>
        <time>2018-03-07T03:47:15Z</time>
      </trkpt>
      <trkpt lat="46.67301" lon="-1.90794">
        <ele>2</ele>
        <time>2018-03-07T03:48:15Z</time>
      </trkpt>
      <trkpt lat="46.67282" lon="-1.90767">
        <ele>3</ele>
        <time>2018-03-07T03:49:15Z</time>
      </trkpt>
      <trkpt lat="46.67255" lon="-1.90729">
        <ele>3</ele>
        <time>2018-03-07T03:50:15Z</time>
      </trkpt>
      <trkpt lat="46.67226" lon="-1.90688">
        <ele>4</ele>
        <time>2018-03-07T03:51:15Z</time>
      </trkpt>
      <trkpt lat="46.67205" lon="-1.90658">
        <ele>4</ele>
        <time>2018-03-07T03:52:15Z</time>
      </trkpt>
      <trkpt lat="46.67166" lon="-1.90604">
        <ele>5</ele>
        <time>2018-03-07T03:53:15Z</time>
      </trkpt>
      <trkpt lat="46.67105" lon="-1.90518">
        <ele>5</ele>
        <time>2018-03-07T03:54:15Z</time>
      </trkpt>
      <trkpt lat="46.67097" lon="-1.90511">
        <ele>5</ele>
        <time>2018-03-07T03:55:15Z</time>
      </trkpt>
      <trkpt lat="46.67055" lon="-1.90456">
        <ele>5</ele>
        <time>2018-03-07T03:56:15Z</time>
      </trkpt>
      <trkpt lat="46.67046" lon="-1.90444">
        <ele>5</ele>
        <time>2018-03-07T03:57:15Z</time>
      </trkpt>
      <trkpt lat="46.67037" lon="-1.9043">
        <ele>5</ele>
        <time>2018-03-07T03:58:15Z</time>
      </trkpt>
      <trkpt lat="46.67034" lon="-1.90427">
        <ele>5</ele>
        <time>2018-03-07T03:59:15Z</time>
      </trkpt>
      <trkpt lat="46.67019" lon="-1.90408">
        <ele>5</ele>
        <time>2018-03-07T04:00:15Z</time>
      </trkpt>
      <trkpt lat="46.67018" lon="-1.90407">
        <ele>5</ele>
        <time>2018-03-07T04:01:15Z</time>
      </trkpt>
      <trkpt lat="46.67017" lon="-1.90406">
        <ele>5</ele>
        <time>2018-03-07T04:02:15Z</time>
      </trkpt>
      <trkpt lat="46.67016" lon="-1.90404">
        <ele>5</ele>
        <time>2018-03-07T04:03:15Z</time>
      </trkpt>
      <trkpt lat="46.67014" lon="-1.90402">
        <ele>5</ele>
        <time>2018-03-07T04:04:15Z</time>
      </trkpt>
      <trkpt lat="46.67012" lon="-1.90399">
        <ele>5</ele>
        <time>2018-03-07T04:05:15Z</time>
      </trkpt>
      <trkpt lat="46.66999" lon="-1.9038">
        <ele>5</ele>
        <time>2018-03-07T04:06:15Z</time>
      </trkpt>
      <trkpt lat="46.66997" lon="-1.90377">
        <ele>5</ele>
        <time>2018-03-07T04:07:15Z</time>
      </trkpt>
      <trkpt lat="46.66995" lon="-1.90374">
        <ele>5</ele>
        <time>2018-03-07T04:08:15Z</time>
      </trkpt>
      <trkpt lat="46.66993" lon="-1.90372">
        <ele>5</ele>
        <time>2018-03-07T04:09:15Z</time>
      </trkpt>
      <trkpt lat="46.66982" lon="-1.90356">
        <ele>5</ele>
        <time>2018-03-07T04:10:15Z</time>
      </trkpt>
      <trkpt lat="46.66982" lon="-1.90356">
        <ele>5</ele>
        <time>2018-03-07T04:11:15Z</time>
      </trkpt>
      <trkpt lat="46.66981" lon="-1.90356">
        <ele>5</ele>
        <time>2018-03-07T04:12:15Z</time>
      </trkpt>
      <trkpt lat="46.66979" lon="-1.90355">
        <ele>5</ele>
        <time>2018-03-07T04:13:15Z</time>
      </trkpt>
      <trkpt lat="46.66978" lon="-1.90355">
        <ele>5</ele>
        <time>2018-03-07T04:14:15Z</time>
      </trkpt>
      <trkpt lat="46.66977" lon="-1.90354">
        <ele>5</ele>
        <time>2018-03-07T04:15:15Z</time>
      </trkpt>
      <trkpt lat="46.66976" lon="-1.90353">
        <ele>5</ele>
        <time>2018-03-07T04:16:15Z</time>
      </trkpt>
      <trkpt lat="46.66975" lon="-1.90352">
        <ele>5</ele>
        <time>2018-03-07T04:17:15Z</time>
      </trkpt>
      <trkpt lat="46.66974" lon="-1.90351">
        <ele>5</ele>
        <time>2018-03-07T04:18:15Z</time>
      </trkpt>
      <trkpt lat="46.66973" lon="-1.9035">
        <ele>5</ele>
        <time>2018-03-07T04:19:15Z</time>
      </trkpt>
      <trkpt lat="46.66972" lon="-1.90349">
        <ele>5</ele>
        <time>2018-03-07T04:20:15Z</time>
      </trkpt>
      <trkpt lat="46.66971" lon="-1.90348">
        <ele>5</ele>
        <time>2018-03-07T04:21:15Z</time>
      </trkpt>
      <trkpt lat="46.6697" lon="-1.90346">
        <ele>5</ele>
        <time>2018-03-07T04:22:15Z</time>
      </trkpt>
      <trkpt lat="46.66969" lon="-1.90345">
        <ele>5</ele>
        <time>2018-03-07T04:23:15Z</time>
      </trkpt>
      <trkpt lat="46.66969" lon="-1.90343">
        <ele>5</ele>
        <time>2018-03-07T04:24:15Z</time>
      </trkpt>
      <trkpt lat="46.66968" lon="-1.90341">
        <ele>5</ele>
        <time>2018-03-07T04:25:15Z</time>
      </trkpt>
      <trkpt lat="46.66968" lon="-1.9034">
        <ele>5</ele>
        <time>2018-03-07T04:26:15Z</time>
      </trkpt>
      <trkpt lat="46.66967" lon="-1.90338">
        <ele>5</ele>
        <time>2018-03-07T04:27:15Z</time>
      </trkpt>
      <trkpt lat="46.66967" lon="-1.90335">
        <ele>5</ele>
        <time>2018-03-07T04:28:15Z</time>
      </trkpt>
      <trkpt lat="46.66967" lon="-1.90331">
        <ele>5</ele>
        <time>2018-03-07T04:29:15Z</time>
      </trkpt>
      <trkpt lat="46.66967" lon="-1.9033">
        <ele>5</ele>
        <time>2018-03-07T04:30:15Z</time>
      </trkpt>
      <trkpt lat="46.66967" lon="-1.90328">
        <ele>5</ele>
        <time>2018-03-07T04:31:15Z</time>
      </trkpt>
      <trkpt lat="46.66967" lon="-1.90326">
        <ele>5</ele>
        <time>2018-03-07T04:32:15Z</time>
      </trkpt>
      <trkpt lat="46.66968" lon="-1.90324">
        <ele>5</ele>
        <time>2018-03-07T04:33:15Z</time>
      </trkpt>
      <trkpt lat="46.66968" lon="-1.90323">
        <ele>5</ele>
        <time>2018-03-07T04:34:15Z</time>
      </trkpt>
      <trkpt lat="46.66968" lon="-1.90321">
        <ele>5</ele>
        <time>2018-03-07T04:35:15Z</time>
      </trkpt>
      <trkpt lat="46.66969" lon="-1.90319">
        <ele>5</ele>
        <time>2018-03-07T04:36:15Z</time>
      </trkpt>
      <trkpt lat="46.6697" lon="-1.90318">
        <ele>5</ele>
        <time>2018-03-07T04:37:15Z</time>
      </trkpt>
      <trkpt lat="46.6697" lon="-1.90316">
        <ele>5</ele>
        <time>2018-03-07T04:38:15Z</time>
      </trkpt>
      <trkpt lat="46.66971" lon="-1.90315">
        <ele>5</ele>
        <time>2018-03-07T04:39:15Z</time>
      </trkpt>
      <trkpt lat="46.66972" lon="-1.90314">
        <ele>5</ele>
        <time>2018-03-07T04:40:15Z</time>
      </trkpt>
      <trkpt lat="46.66973" lon="-1.90313">
        <ele>5</ele>
        <time>2018-03-07T04:41:15Z</time>
      </trkpt>
      <trkpt lat="46.66974" lon="-1.90312">
        <ele>5</ele>
        <time>2018-03-07T04:42:15Z</time>
      </trkpt>
      <trkpt lat="46.66975" lon="-1.90311">
        <ele>6</ele>
        <time>2018-03-07T04:43:15Z</time>
      </trkpt>
      <trkpt lat="46.66976" lon="-1.9031">
        <ele>6</ele>
        <time>2018-03-07T04:44:15Z</time>
      </trkpt>
      <trkpt lat="46.66976" lon="-1.90309">
        <ele>6</ele>
        <time>2018-03-07T04:45:15Z</time>
      </trkpt>
      <trkpt lat="46.66977" lon="-1.90309">
        <ele>6</ele>
        <time>2018-03-07T04:46:15Z</time>
      </trkpt>
      <trkpt lat="46.66978" lon="-1.90309">
        <ele>6</ele>
        <time>2018-03-07T04:47:15Z</time>
      </trkpt>
      <trkpt lat="46.66978" lon="-1.90308">
        <ele>6</ele>
        <time>2018-03-07T04:48:15Z</time>
      </trkpt>
      <trkpt lat="46.66981" lon="-1.903">
        <ele>6</ele>
        <time>2018-03-07T04:49:15Z</time>
      </trkpt>
      <trkpt lat="46.66985" lon="-1.90285">
        <ele>6</ele>
        <time>2018-03-07T04:50:15Z</time>
      </trkpt>
      <trkpt lat="46.66988" lon="-1.90274">
        <ele>6</ele>
        <time>2018-03-07T04:51:15Z</time>
      </trkpt>
      <trkpt lat="46.6699" lon="-1.90259">
        <ele>7</ele>
        <time>2018-03-07T04:52:15Z</time>
      </trkpt>
      <trkpt lat="46.66985" lon="-1.90224">
        <ele>7</ele>
        <time>2018-03-07T04:53:15Z</time>
      </trkpt>
      <trkpt lat="46.66981" lon="-1.90197">
        <ele>8</ele>
        <time>2018-03-07T04:54:15Z</time>
      </trkpt>
      <trkpt lat="46.66977" lon="-1.90166">
        <ele>8</ele>
        <time>2018-03-07T04:55:15Z</time>
      </trkpt>
      <trkpt lat="46.66972" lon="-1.9013">
        <ele>9</ele>
        <time>2018-03-07T04:56:15Z</time>
      </trkpt>
      <trkpt lat="46.66968" lon="-1.90096">
        <ele>9</ele>
        <time>2018-03-07T04:57:15Z</time>
      </trkpt>
      <trkpt lat="46.66964" lon="-1.9006">
        <ele>10</ele>
        <time>2018-03-07T04:58:15Z</time>
      </trkpt>
      <trkpt lat="46.66963" lon="-1.90055">
        <ele>10</ele>
        <time>2018-03-07T04:59:15Z</time>
      </trkpt>
      <trkpt lat="46.6696" lon="-1.90028">
        <ele>10</ele>
        <time>2018-03-07T05:00:15Z</time>
      </trkpt>
      <trkpt lat="46.66955" lon="-1.89998">
        <ele>10</ele>
        <time>2018-03-07T05:01:15Z</time>
      </trkpt>
      <trkpt lat="46.66951" lon="-1.8996">
        <ele>10</ele>
        <time>2018-03-07T05:02:15Z</time>
      </trkpt>
      <trkpt lat="46.66949" lon="-1.89948">
        <ele>11</ele>
        <time>2018-03-07T05:03:15Z</time>
      </trkpt>
      <trkpt lat="46.66944" lon="-1.89914">
        <ele>11</ele>
        <time>2018-03-07T05:04:15Z</time>
      </trkpt>
      <trkpt lat="46.6694" lon="-1.89885">
        <ele>11</ele>
        <time>2018-03-07T05:05:15Z</time>
      </trkpt>
      <trkpt lat="46.66938" lon="-1.89867">
        <ele>11</ele>
        <time>2018-03-07T05:06:15Z</time>
      </trkpt>
      <trkpt lat="46.66932" lon="-1.89826">
        <ele>11</ele>
        <time>2018-03-07T05:07:15Z</time>
      </trkpt>
      <trkpt lat="46.66931" lon="-1.8982">
        <ele>11</ele>
        <time>2018-03-07T05:08:15Z</time>
      </trkpt>
      <trkpt lat="46.66928" lon="-1.89797">
        <ele>11</ele>
        <time>2018-03-07T05:09:15Z</time>
      </trkpt>
      <trkpt lat="46.66928" lon="-1.89795">
        <ele>11</ele>
        <time>2018-03-07T05:10:15Z</time>
      </trkpt>
      <trkpt lat="46.66925" lon="-1.89768">
        <ele>11</ele>
        <time>2018-03-07T05:11:15Z</time>
      </trkpt>
      <trkpt lat="46.66922" lon="-1.89752">
        <ele>11</ele>
        <time>2018-03-07T05:12:15Z</time>
      </trkpt>
      <trkpt lat="46.6692" lon="-1.89738">
        <ele>11</ele>
        <time>2018-03-07T05:13:15Z</time>
      </trkpt>
      <trkpt lat="46.66917" lon="-1.89712">
        <ele>11</ele>
        <time>2018-03-07T05:14:15Z</time>
      </trkpt>
      <trkpt lat="46.66915" lon="-1.89697">
        <ele>12</ele>
        <time>2018-03-07T05:15:15Z</time>
      </trkpt>
      <trkpt lat="46.66911" lon="-1.89666">
        <ele>12</ele>
        <time>2018-03-07T05:16:15Z</time>
      </trkpt>
      <trkpt lat="46.66911" lon="-1.89664">
        <ele>12</ele>
        <time>2018-03-07T05:17:15Z</time>
      </trkpt>
      <trkpt lat="46.66904" lon="-1.89615">
        <ele>12</ele>
        <time>2018-03-07T05:18:15Z</time>
      </trkpt>
      <trkpt lat="46.66898" lon="-1.89575">
        <ele>13</ele>
        <time>2018-03-07T05:19:15Z</time>
      </trkpt>
      <trkpt lat="46.66897" lon="-1.89564">
        <ele>13</ele>
        <time>2018-03-07T05:20:15Z</time>
      </trkpt>
      <trkpt lat="46.66896" lon="-1.89555">
        <ele>12</ele>
        <time>2018-03-07T05:21:15Z</time>
      </trkpt>
      <trkpt lat="46.66894" lon="-1.89545">
        <ele>12</ele>
        <time>2018-03-07T05:22:15Z</time>
      </trkpt>
      <trkpt lat="46.66891" lon="-1.89517">
        <ele>12</ele>
        <time>2018-03-07T05:23:15Z</time>
      </trkpt>
      <trkpt lat="46.6689" lon="-1.89515">
        <ele>12</ele>
        <time>2018-03-07T05:24:15Z</time>
      </trkpt>
      <trkpt lat="46.66888" lon="-1.89499">
        <ele>12</ele>
        <time>2018-03-07T05:25:15Z</time>
      </trkpt>
      <trkpt lat="46.66887" lon="-1.89492">
        <ele>12</ele>
        <time>2018-03-07T05:26:15Z</time>
      </trkpt>
      <trkpt lat="46.66886" lon="-1.89484">
        <ele>12</ele>
        <time>2018-03-07T05:27:15Z</time>
      </trkpt>
      <trkpt lat="46.66886" lon="-1.89475">
        <ele>12</ele>
        <time>2018-03-07T05:28:15Z</time>
      </trkpt>
      <trkpt lat="46.66885" lon="-1.89467">
        <ele>12</ele>
        <time>2018-03-07T05:29:15Z</time>
      </trkpt>
      <trkpt lat="46.66885" lon="-1.8946">
        <ele>12</ele>
        <time>2018-03-07T05:30:15Z</time>
      </trkpt>
      <trkpt lat="46.66884" lon="-1.89451">
        <ele>12</ele>
        <time>2018-03-07T05:31:15Z</time>
      </trkpt>
      <trkpt lat="46.66884" lon="-1.89439">
        <ele>12</ele>
        <time>2018-03-07T05:32:15Z</time>
      </trkpt>
      <trkpt lat="46.66884" lon="-1.89421">
        <ele>12</ele>
        <time>2018-03-07T05:33:15Z</time>
      </trkpt>
      <trkpt lat="46.66885" lon="-1.89403">
        <ele>12</ele>
        <time>2018-03-07T05:34:15Z</time>
      </trkpt>
      <trkpt lat="46.66887" lon="-1.89385">
        <ele>12</ele>
        <time>2018-03-07T05:35:15Z</time>
      </trkpt>
      <trkpt lat="46.66889" lon="-1.89376">
        <ele>12</ele>
        <time>2018-03-07T05:36:15Z</time>
      </trkpt>
      <trkpt lat="46.66892" lon="-1.89362">
        <ele>12</ele>
        <time>2018-03-07T05:37:15Z</time>
      </trkpt>
      <trkpt lat="46.66896" lon="-1.89347">
        <ele>11</ele>
        <time>2018-03-07T05:38:15Z</time>
      </trkpt>
      <trkpt lat="46.66899" lon="-1.89335">
        <ele>11</ele>
        <time>2018-03-07T05:39:15Z</time>
      </trkpt>
      <trkpt lat="46.66901" lon="-1.89329">
        <ele>11</ele>
        <time>2018-03-07T05:40:15Z</time>
      </trkpt>
      <trkpt lat="46.66906" lon="-1.89314">
        <ele>11</ele>
        <time>2018-03-07T05:41:15Z</time>
      </trkpt>
      <trkpt lat="46.66909" lon="-1.89305">
        <ele>11</ele>
        <time>2018-03-07T05:42:15Z</time>
      </trkpt>
      <trkpt lat="46.66914" lon="-1.89286">
        <ele>11</ele>
        <time>2018-03-07T05:43:15Z</time>
      </trkpt>
      <trkpt lat="46.6691" lon="-1.89283">
        <ele>11</ele>
        <time>2018-03-07T05:44:15Z</time>
      </trkpt>
      <trkpt lat="46.66909" lon="-1.89278">
        <ele>11</ele>
        <time>2018-03-07T05:45:15Z</time>
      </trkpt>
      <trkpt lat="46.66909" lon="-1.89272">
        <ele>11</ele>
        <time>2018-03-07T05:46:15Z</time>
      </trkpt>
      <trkpt lat="46.66911" lon="-1.89267">
        <ele>11</ele>
        <time>2018-03-07T05:47:15Z</time>
      </trkpt>
      <trkpt lat="46.66914" lon="-1.89264">
        <ele>11</ele>
        <time>2018-03-07T05:48:15Z</time>
      </trkpt>
      <trkpt lat="46.66917" lon="-1.89263">
        <ele>11</ele>
        <time>2018-03-07T05:49:15Z</time>
      </trkpt>
      <trkpt lat="46.66919" lon="-1.89263">
        <ele>11</ele>
        <time>2018-03-07T05:50:15Z</time>
      </trkpt>
      <trkpt lat="46.66922" lon="-1.89264">
        <ele>11</ele>
        <time>2018-03-07T05:51:15Z</time>
      </trkpt>
      <trkpt lat="46.66926" lon="-1.89253">
        <ele>11</ele>
        <time>2018-03-07T05:52:15Z</time>
      </trkpt>
      <trkpt lat="46.66929" lon="-1.89245">
        <ele>11</ele>
        <time>2018-03-07T05:53:15Z</time>
      </trkpt>
      <trkpt lat="46.66941" lon="-1.89208">
        <ele>10</ele>
        <time>2018-03-07T05:54:15Z</time>
      </trkpt>
      <trkpt lat="46.66945" lon="-1.89198">
        <ele>10</ele>
        <time>2018-03-07T05:55:15Z</time>
      </trkpt>
      <trkpt lat="46.66954" lon="-1.89171">
        <ele>10</ele>
        <time>2018-03-07T05:56:15Z</time>
      </trkpt>
      <trkpt lat="46.66961" lon="-1.89149">
        <ele>10</ele>
        <time>2018-03-07T05:57:15Z</time>
      </trkpt>
      <trkpt lat="46.66969" lon="-1.89126">
        <ele>10</ele>
        <time>2018-03-07T05:58:15Z</time>
      </trkpt>
      <trkpt lat="46.66982" lon="-1.89082">
        <ele>9</ele>
        <time>2018-03-07T05:59:15Z</time>
      </trkpt>
      <trkpt lat="46.66985" lon="-1.89069">
        <ele>9</ele>
        <time>2018-03-07T06:00:15Z</time>
      </trkpt>
      <trkpt lat="46.66988" lon="-1.89056">
        <ele>8</ele>
        <time>2018-03-07T06:01:15Z</time>
      </trkpt>
      <trkpt lat="46.6699" lon="-1.89048">
        <ele>8</ele>
        <time>2018-03-07T06:02:15Z</time>
      </trkpt>
      <trkpt lat="46.66991" lon="-1.89041">
        <ele>8</ele>
        <time>2018-03-07T06:03:15Z</time>
      </trkpt>
      <trkpt lat="46.66993" lon="-1.89033">
        <ele>8</ele>
        <time>2018-03-07T06:04:15Z</time>
      </trkpt>
      <trkpt lat="46.66995" lon="-1.89024">
        <ele>8</ele>
        <time>2018-03-07T06:05:15Z</time>
      </trkpt>
      <trkpt lat="46.66998" lon="-1.8901">
        <ele>7</ele>
        <time>2018-03-07T06:06:15Z</time>
      </trkpt>
      <trkpt lat="46.67001" lon="-1.88998">
        <ele>7</ele>
        <time>2018-03-07T06:07:15Z</time>
      </trkpt>
      <trkpt lat="46.67003" lon="-1.88989">
        <ele>7</ele>
        <time>2018-03-07T06:08:15Z</time>
      </trkpt>
      <trkpt lat="46.67008" lon="-1.88964">
        <ele>7</ele>
        <time>2018-03-07T06:09:15Z</time>
      </trkpt>
      <trkpt lat="46.6701" lon="-1.88956">
        <ele>7</ele>
        <time>2018-03-07T06:10:15Z</time>
      </trkpt>
      <trkpt lat="46.67013" lon="-1.88939">
        <ele>8</ele>
        <time>2018-03-07T06:11:15Z</time>
      </trkpt>
      <trkpt lat="46.67016" lon="-1.88929">
        <ele>8</ele>
        <time>2018-03-07T06:12:15Z</time>
      </trkpt>
      <trkpt lat="46.67023" lon="-1.88898">
        <ele>8</ele>
        <time>2018-03-07T06:13:15Z</time>
      </trkpt>
      <trkpt lat="46.67029" lon="-1.88866">
        <ele>9</ele>
        <time>2018-03-07T06:14:15Z</time>
      </trkpt>
      <trkpt lat="46.67033" lon="-1.88851">
        <ele>10</ele>
        <time>2018-03-07T06:15:15Z</time>
      </trkpt>
      <trkpt lat="46.67039" lon="-1.88825">
        <ele>10</ele>
        <time>2018-03-07T06:16:15Z</time>
      </trkpt>
      <trkpt lat="46.67041" lon="-1.88816">
        <ele>10</ele>
        <time>2018-03-07T06:17:15Z</time>
      </trkpt>
      <trkpt lat="46.67047" lon="-1.88789">
        <ele>10</ele>
        <time>2018-03-07T06:18:15Z</time>
      </trkpt>
      <trkpt lat="46.67051" lon="-1.88769">
        <ele>11</ele>
        <time>2018-03-07T06:19:15Z</time>
      </trkpt>
      <trkpt lat="46.67056" lon="-1.88749">
        <ele>11</ele>
        <time>2018-03-07T06:20:15Z</time>
      </trkpt>
      <trkpt lat="46.67053" lon="-1.88747">
        <ele>11</ele>
        <time>2018-03-07T06:21:15Z</time>
      </trkpt>
      <trkpt lat="46.67051" lon="-1.88745">
        <ele>11</ele>
        <time>2018-03-07T06:22:15Z</time>
      </trkpt>
      <trkpt lat="46.6705" lon="-1.88741">
        <ele>11</ele>
        <time>2018-03-07T06:23:15Z</time>
      </trkpt>
      <trkpt lat="46.67049" lon="-1.88737">
        <ele>11</ele>
        <time>2018-03-07T06:24:15Z</time>
      </trkpt>
      <trkpt lat="46.67049" lon="-1.88732">
        <ele>11</ele>
        <time>2018-03-07T06:25:15Z</time>
      </trkpt>
      <trkpt lat="46.6705" lon="-1.88728">
        <ele>11</ele>
        <time>2018-03-07T06:26:15Z</time>
      </trkpt>
      <trkpt lat="46.67052" lon="-1.88726">
        <ele>11</ele>
        <time>2018-03-07T06:27:15Z</time>
      </trkpt>
      <trkpt lat="46.67054" lon="-1.88725">
        <ele>11</ele>
        <time>2018-03-07T06:28:15Z</time>
      </trkpt>
      <trkpt lat="46.67057" lon="-1.88724">
        <ele>11</ele>
        <time>2018-03-07T06:29:15Z</time>
      </trkpt>
      <trkpt lat="46.67061" lon="-1.88725">
        <ele>11</ele>
        <time>2018-03-07T06:30:15Z</time>
      </trkpt>
      <trkpt lat="46.67063" lon="-1.88716">
        <ele>11</ele>
        <time>2018-03-07T06:31:15Z</time>
      </trkpt>
      <trkpt lat="46.6708" lon="-1.88641">
        <ele>12</ele>
        <time>2018-03-07T06:32:15Z</time>
      </trkpt>
      <trkpt lat="46.67081" lon="-1.88634">
        <ele>12</ele>
        <time>2018-03-07T06:33:15Z</time>
      </trkpt>
      <trkpt lat="46.67091" lon="-1.8859">
        <ele>12</ele>
        <time>2018-03-07T06:34:15Z</time>
      </trkpt>
      <trkpt lat="46.67092" lon="-1.88586">
        <ele>12</ele>
        <time>2018-03-07T06:35:15Z</time>
      </trkpt>
      <trkpt lat="46.67103" lon="-1.88538">
        <ele>12</ele>
        <time>2018-03-07T06:36:15Z</time>
      </trkpt>
      <trkpt lat="46.67108" lon="-1.8852">
        <ele>12</ele>
        <time>2018-03-07T06:37:15Z</time>
      </trkpt>
      <trkpt lat="46.67113" lon="-1.88499">
        <ele>11</ele>
        <time>2018-03-07T06:38:15Z</time>
      </trkpt>
      <trkpt lat="46.6712" lon="-1.88468">
        <ele>11</ele>
        <time>2018-03-07T06:39:15Z</time>
      </trkpt>
      <trkpt lat="46.67128" lon="-1.88428">
        <ele>10</ele>
        <time>2018-03-07T06:40:15Z</time>
      </trkpt>
      <trkpt lat="46.67133" lon="-1.88408">
        <ele>10</ele>
        <time>2018-03-07T06:41:15Z</time>
      </trkpt>
      <trkpt lat="46.67135" lon="-1.88398">
        <ele>10</ele>
        <time>2018-03-07T06:42:15Z</time>
      </trkpt>
      <trkpt lat="46.67136" lon="-1.88388">
        <ele>10</ele>
        <time>2018-03-07T06:43:15Z</time>
      </trkpt>
      <trkpt lat="46.67138" lon="-1.88377">
        <ele>10</ele>
        <time>2018-03-07T06:44:15Z</time>
      </trkpt>
      <trkpt lat="46.67138" lon="-1.88369">
        <ele>9</ele>
        <time>2018-03-07T06:45:15Z</time>
      </trkpt>
      <trkpt lat="46.67139" lon="-1.88365">
        <ele>9</ele>
        <time>2018-03-07T06:46:15Z</time>
      </trkpt>
      <trkpt lat="46.67139" lon="-1.88356">
        <ele>9</ele>
        <time>2018-03-07T06:47:15Z</time>
      </trkpt>
      <trkpt lat="46.67139" lon="-1.88342">
        <ele>9</ele>
        <time>2018-03-07T06:48:15Z</time>
      </trkpt>
      <trkpt lat="46.67139" lon="-1.88336">
        <ele>9</ele>
        <time>2018-03-07T06:49:15Z</time>
      </trkpt>
      <trkpt lat="46.67139" lon="-1.8833">
        <ele>9</ele>
        <time>2018-03-07T06:50:15Z</time>
      </trkpt>
      <trkpt lat="46.67139" lon="-1.88324">
        <ele>9</ele>
        <time>2018-03-07T06:51:15Z</time>
      </trkpt>
      <trkpt lat="46.6714" lon="-1.88317">
        <ele>9</ele>
        <time>2018-03-07T06:52:15Z</time>
      </trkpt>
      <trkpt lat="46.67141" lon="-1.88306">
        <ele>9</ele>
        <time>2018-03-07T06:53:15Z</time>
      </trkpt>
      <trkpt lat="46.67141" lon="-1.88301">
        <ele>9</ele>
        <time>2018-03-07T06:54:15Z</time>
      </trkpt>
      <trkpt lat="46.67142" lon="-1.88295">
        <ele>9</ele>
        <time>2018-03-07T06:55:15Z</time>
      </trkpt>
      <trkpt lat="46.67143" lon="-1.88289">
        <ele>9</ele>
        <time>2018-03-07T06:56:15Z</time>
      </trkpt>
      <trkpt lat="46.67146" lon="-1.88277">
        <ele>8</ele>
        <time>2018-03-07T06:57:15Z</time>
      </trkpt>
      <trkpt lat="46.67148" lon="-1.8827">
        <ele>8</ele>
        <time>2018-03-07T06:58:15Z</time>
      </trkpt>
      <trkpt lat="46.67149" lon="-1.88266">
        <ele>8</ele>
        <time>2018-03-07T06:59:15Z</time>
      </trkpt>
      <trkpt lat="46.67152" lon="-1.88256">
        <ele>8</ele>
        <time>2018-03-07T07:00:15Z</time>
      </trkpt>
      <trkpt lat="46.67155" lon="-1.88246">
        <ele>8</ele>
        <time>2018-03-07T07:01:15Z</time>
      </trkpt>
      <trkpt lat="46.67156" lon="-1.88241">
        <ele>8</ele>
        <time>2018-03-07T07:02:15Z</time>
      </trkpt>
      <trkpt lat="46.67158" lon="-1.88235">
        <ele>8</ele>
        <time>2018-03-07T07:03:15Z</time>
      </trkpt>
      <trkpt lat="46.67159" lon="-1.8823">
        <ele>8</ele>
        <time>2018-03-07T07:04:15Z</time>
      </trkpt>
      <trkpt lat="46.67159" lon="-1.88229">
        <ele>8</ele>
        <time>2018-03-07T07:05:15Z</time>
      </trkpt>
      <trkpt lat="46.67162" lon="-1.8822">
        <ele>8</ele>
        <time>2018-03-07T07:06:15Z</time>
      </trkpt>
      <trkpt lat="46.67161" lon="-1.8822">
        <ele>8</ele>
        <time>2018-03-07T07:07:15Z</time>
      </trkpt>
      <trkpt lat="46.67161" lon="-1.88219">
        <ele>8</ele>
        <time>2018-03-07T07:08:15Z</time>
      </trkpt>
      <trkpt lat="46.6716" lon="-1.88219">
        <ele>8</ele>
        <time>2018-03-07T07:09:15Z</time>
      </trkpt>
      <trkpt lat="46.6716" lon="-1.88218">
        <ele>8</ele>
        <time>2018-03-07T07:10:15Z</time>
      </trkpt>
      <trkpt lat="46.67159" lon="-1.88218">
        <ele>8</ele>
        <time>2018-03-07T07:11:15Z</time>
      </trkpt>
      <trkpt lat="46.67159" lon="-1.88217">
        <ele>8</ele>
        <time>2018-03-07T07:12:15Z</time>
      </trkpt>
      <trkpt lat="46.67158" lon="-1.88216">
        <ele>8</ele>
        <time>2018-03-07T07:13:15Z</time>
      </trkpt>
      <trkpt lat="46.67158" lon="-1.88215">
        <ele>7</ele>
        <time>2018-03-07T07:14:15Z</time>
      </trkpt>
      <trkpt lat="46.67157" lon="-1.88215">
        <ele>7</ele>
        <time>2018-03-07T07:15:15Z</time>
      </trkpt>
      <trkpt lat="46.67157" lon="-1.88214">
        <ele>7</ele>
        <time>2018-03-07T07:16:15Z</time>
      </trkpt>
      <trkpt lat="46.67157" lon="-1.88213">
        <ele>7</ele>
        <time>2018-03-07T07:17:15Z</time>
      </trkpt>
      <trkpt lat="46.67157" lon="-1.88212">
        <ele>7</ele>
        <time>2018-03-07T07:18:15Z</time>
      </trkpt>
      <trkpt lat="46.67157" lon="-1.88211">
        <ele>7</ele>
        <time>2018-03-07T07:19:15Z</time>
      </trkpt>
      <trkpt lat="46.67156" lon="-1.8821">
        <ele>7</ele>
        <time>2018-03-07T07:20:15Z</time>
      </trkpt>
      <trkpt lat="46.67156" lon="-1.88209">
        <ele>7</ele>
        <time>2018-03-07T07:21:15Z</time>
      </trkpt>
      <trkpt lat="46.67156" lon="-1.88208">
        <ele>7</ele>
        <time>2018-03-07T07:22:15Z</time>
      </trkpt>
      <trkpt lat="46.67156" lon="-1.88207">
        <ele>7</ele>
        <time>2018-03-07T07:23:15Z</time>
      </trkpt>
      <trkpt lat="46.67156" lon="-1.88206">
        <ele>7</ele>
        <time>2018-03-07T07:24:15Z</time>
      </trkpt>
      <trkpt lat="46.67157" lon="-1.88205">
        <ele>7</ele>
        <time>2018-03-07T07:25:15Z</time>
      </trkpt>
      <trkpt lat="46.67157" lon="-1.88204">
        <ele>7</ele>
        <time>2018-03-07T07:26:15Z</time>
      </trkpt>
      <trkpt lat="46.67157" lon="-1.88203">
        <ele>7</ele>
        <time>2018-03-07T07:27:15Z</time>
      </trkpt>
      <trkpt lat="46.67157" lon="-1.88202">
        <ele>7</ele>
        <time>2018-03-07T07:28:15Z</time>
      </trkpt>
      <trkpt lat="46.67158" lon="-1.88201">
        <ele>7</ele>
        <time>2018-03-07T07:29:15Z</time>
      </trkpt>
      <trkpt lat="46.67158" lon="-1.882">
        <ele>7</ele>
        <time>2018-03-07T07:30:15Z</time>
      </trkpt>
      <trkpt lat="46.67159" lon="-1.88199">
        <ele>7</ele>
        <time>2018-03-07T07:31:15Z</time>
      </trkpt>
      <trkpt lat="46.67159" lon="-1.88198">
        <ele>7</ele>
        <time>2018-03-07T07:32:15Z</time>
      </trkpt>
      <trkpt lat="46.6716" lon="-1.88198">
        <ele>7</ele>
        <time>2018-03-07T07:33:15Z</time>
      </trkpt>
      <trkpt lat="46.6716" lon="-1.88197">
        <ele>7</ele>
        <time>2018-03-07T07:34:15Z</time>
      </trkpt>
      <trkpt lat="46.67161" lon="-1.88197">
        <ele>7</ele>
        <time>2018-03-07T07:35:15Z</time>
      </trkpt>
      <trkpt lat="46.67161" lon="-1.88196">
        <ele>7</ele>
        <time>2018-03-07T07:36:15Z</time>
      </trkpt>
      <trkpt lat="46.67162" lon="-1.88196">
        <ele>7</ele>
        <time>2018-03-07T07:37:15Z</time>
      </trkpt>
      <trkpt lat="46.67162" lon="-1.88195">
        <ele>7</ele>
        <time>2018-03-07T07:38:15Z</time>
      </trkpt>
      <trkpt lat="46.67163" lon="-1.88195">
        <ele>7</ele>
        <time>2018-03-07T07:39:15Z</time>
      </trkpt>
      <trkpt lat="46.67164" lon="-1.88195">
        <ele>7</ele>
        <time>2018-03-07T07:40:15Z</time>
      </trkpt>
      <trkpt lat="46.67165" lon="-1.88195">
        <ele>7</ele>
        <time>2018-03-07T07:41:15Z</time>
      </trkpt>
      <trkpt lat="46.67166" lon="-1.88195">
        <ele>7</ele>
        <time>2018-03-07T07:42:15Z</time>
      </trkpt>
      <trkpt lat="46.67167" lon="-1.88195">
        <ele>7</ele>
        <time>2018-03-07T07:43:15Z</time>
      </trkpt>
      <trkpt lat="46.67168" lon="-1.88195">
        <ele>7</ele>
        <time>2018-03-07T07:44:15Z</time>
      </trkpt>
      <trkpt lat="46.67172" lon="-1.88182">
        <ele>7</ele>
        <time>2018-03-07T07:45:15Z</time>
      </trkpt>
      <trkpt lat="46.67173" lon="-1.88176">
        <ele>7</ele>
        <time>2018-03-07T07:46:15Z</time>
      </trkpt>
      <trkpt lat="46.67174" lon="-1.8817">
        <ele>7</ele>
        <time>2018-03-07T07:47:15Z</time>
      </trkpt>
      <trkpt lat="46.67178" lon="-1.88145">
        <ele>8</ele>
        <time>2018-03-07T07:48:15Z</time>
      </trkpt>
      <trkpt lat="46.67183" lon="-1.88109">
        <ele>8</ele>
        <time>2018-03-07T07:49:15Z</time>
      </trkpt>
      <trkpt lat="46.67187" lon="-1.88081">
        <ele>9</ele>
        <time>2018-03-07T07:50:15Z</time>
      </trkpt>
      <trkpt lat="46.67193" lon="-1.88041">
        <ele>9</ele>
        <time>2018-03-07T07:51:15Z</time>
      </trkpt>
      <trkpt lat="46.67198" lon="-1.88006">
        <ele>10</ele>
        <time>2018-03-07T07:52:15Z</time>
      </trkpt>
      <trkpt lat="46.67202" lon="-1.87978">
        <ele>10</ele>
        <time>2018-03-07T07:53:15Z</time>
      </trkpt>
      <trkpt lat="46.67205" lon="-1.87955">
        <ele>10</ele>
        <time>2018-03-07T07:54:15Z</time>
      </trkpt>
      <trkpt lat="46.67208" lon="-1.87929">
        <ele>10</ele>
        <time>2018-03-07T07:55:15Z</time>
      </trkpt>
      <trkpt lat="46.67211" lon="-1.87909">
        <ele>10</ele>
        <time>2018-03-07T07:56:15Z</time>
      </trkpt>
      <trkpt lat="46.67213" lon="-1.87887">
        <ele>10</ele>
        <time>2018-03-07T07:57:15Z</time>
      </trkpt>
      <trkpt lat="46.67213" lon="-1.87872">
        <ele>10</ele>
        <time>2018-03-07T07:58:15Z</time>
      </trkpt>
      <trkpt lat="46.67213" lon="-1.87857">
        <ele>10</ele>
        <time>2018-03-07T07:59:15Z</time>
      </trkpt>
      <trkpt lat="46.67213" lon="-1.87839">
        <ele>10</ele>
        <time>2018-03-07T08:00:15Z</time>
      </trkpt>
      <trkpt lat="46.67213" lon="-1.87822">
        <ele>10</ele>
        <time>2018-03-07T08:01:15Z</time>
      </trkpt>
      <trkpt lat="46.67212" lon="-1.878">
        <ele>10</ele>
        <time>2018-03-07T08:02:15Z</time>
      </trkpt>
      <trkpt lat="46.67212" lon="-1.87783">
        <ele>10</ele>
        <time>2018-03-07T08:03:15Z</time>
      </trkpt>
      <trkpt lat="46.67212" lon="-1.87767">
        <ele>10</ele>
        <time>2018-03-07T08:04:15Z</time>
      </trkpt>
      <trkpt lat="46.67213" lon="-1.87744">
        <ele>10</ele>
        <time>2018-03-07T08:05:15Z</time>
      </trkpt>
      <trkpt lat="46.67214" lon="-1.87723">
        <ele>10</ele>
        <time>2018-03-07T08:06:15Z</time>
      </trkpt>
      <trkpt lat="46.67215" lon="-1.87698">
        <ele>11</ele>
        <time>2018-03-07T08:07:15Z</time>
      </trkpt>
      <trkpt lat="46.67217" lon="-1.87673">
        <ele>11</ele>
        <time>2018-03-07T08:08:15Z</time>
      </trkpt>
      <trkpt lat="46.67218" lon="-1.87652">
        <ele>11</ele>
        <time>2018-03-07T08:09:15Z</time>
      </trkpt>
      <trkpt lat="46.67219" lon="-1.87634">
        <ele>11</ele>
        <time>2018-03-07T08:10:15Z</time>
      </trkpt>
      <trkpt lat="46.67221" lon="-1.87616">
        <ele>11</ele>
        <time>2018-03-07T08:11:15Z</time>
      </trkpt>
      <trkpt lat="46.67224" lon="-1.87603">
        <ele>12</ele>
        <time>2018-03-07T08:12:15Z</time>
      </trkpt>
      <trkpt lat="46.67225" lon="-1.87591">
        <ele>12</ele>
        <time>2018-03-07T08:13:15Z</time>
      </trkpt>
      <trkpt lat="46.67226" lon="-1.8758">
        <ele>12</ele>
        <time>2018-03-07T08:14:15Z</time>
      </trkpt>
      <trkpt lat="46.6723" lon="-1.8755">
        <ele>12</ele>
        <time>2018-03-07T08:15:15Z</time>
      </trkpt>
      <trkpt lat="46.67232" lon="-1.87531">
        <ele>12</ele>
        <time>2018-03-07T08:16:15Z</time>
      </trkpt>
      <trkpt lat="46.67236" lon="-1.87498">
        <ele>12</ele>
        <time>2018-03-07T08:17:15Z</time>
      </trkpt>
      <trkpt lat="46.67243" lon="-1.87445">
        <ele>12</ele>
        <time>2018-03-07T08:18:15Z</time>
      </trkpt>
      <trkpt lat="46.67247" lon="-1.87411">
        <ele>12</ele>
        <time>2018-03-07T08:19:15Z</time>
      </trkpt>
      <trkpt lat="46.67247" lon="-1.87407">
        <ele>12</ele>
        <time>2018-03-07T08:20:15Z</time>
      </trkpt>
      <trkpt lat="46.6725" lon="-1.87377">
        <ele>12</ele>
        <time>2018-03-07T08:21:15Z</time>
      </trkpt>
      <trkpt lat="46.67251" lon="-1.87373">
        <ele>12</ele>
        <time>2018-03-07T08:22:15Z</time>
      </trkpt>
      <trkpt lat="46.67254" lon="-1.87333">
        <ele>11</ele>
        <time>2018-03-07T08:23:15Z</time>
      </trkpt>
      <trkpt lat="46.67256" lon="-1.87307">
        <ele>11</ele>
        <time>2018-03-07T08:24:15Z</time>
      </trkpt>
      <trkpt lat="46.6726" lon="-1.87256">
        <ele>10</ele>
        <time>2018-03-07T08:25:15Z</time>
      </trkpt>
      <trkpt lat="46.67261" lon="-1.87244">
        <ele>9</ele>
        <time>2018-03-07T08:26:15Z</time>
      </trkpt>
      <trkpt lat="46.67263" lon="-1.87218">
        <ele>9</ele>
        <time>2018-03-07T08:27:15Z</time>
      </trkpt>
      <trkpt lat="46.67264" lon="-1.87205">
        <ele>9</ele>
        <time>2018-03-07T08:28:15Z</time>
      </trkpt>
      <trkpt lat="46.67265" lon="-1.8718">
        <ele>8</ele>
        <time>2018-03-07T08:29:15Z</time>
      </trkpt>
      <trkpt lat="46.67267" lon="-1.87155">
        <ele>8</ele>
        <time>2018-03-07T08:30:15Z</time>
      </trkpt>
      <trkpt lat="46.67269" lon="-1.8713">
        <ele>9</ele>
        <time>2018-03-07T08:31:15Z</time>
      </trkpt>
      <trkpt lat="46.67272" lon="-1.87082">
        <ele>9</ele>
        <time>2018-03-07T08:32:15Z</time>
      </trkpt>
      <trkpt lat="46.67272" lon="-1.8707">
        <ele>9</ele>
        <time>2018-03-07T08:33:15Z</time>
      </trkpt>
      <trkpt lat="46.67273" lon="-1.87048">
        <ele>9</ele>
        <time>2018-03-07T08:34:15Z</time>
      </trkpt>
      <trkpt lat="46.67273" lon="-1.87028">
        <ele>8</ele>
        <time>2018-03-07T08:35:15Z</time>
      </trkpt>
      <trkpt lat="46.67271" lon="-1.87013">
        <ele>8</ele>
        <time>2018-03-07T08:36:15Z</time>
      </trkpt>
      <trkpt lat="46.67269" lon="-1.87004">
        <ele>7</ele>
        <time>2018-03-07T08:37:15Z</time>
      </trkpt>
      <trkpt lat="46.67267" lon="-1.86994">
        <ele>7</ele>
        <time>2018-03-07T08:38:15Z</time>
      </trkpt>
      <trkpt lat="46.67263" lon="-1.86983">
        <ele>6</ele>
        <time>2018-03-07T08:39:15Z</time>
      </trkpt>
      <trkpt lat="46.6726" lon="-1.86974">
        <ele>6</ele>
        <time>2018-03-07T08:40:15Z</time>
      </trkpt>
      <trkpt lat="46.67256" lon="-1.86965">
        <ele>5</ele>
        <time>2018-03-07T08:41:15Z</time>
      </trkpt>
      <trkpt lat="46.67251" lon="-1.86955">
        <ele>5</ele>
        <time>2018-03-07T08:42:15Z</time>
      </trkpt>
      <trkpt lat="46.67246" lon="-1.86946">
        <ele>5</ele>
        <time>2018-03-07T08:43:15Z</time>
      </trkpt>
      <trkpt lat="46.67228" lon="-1.8691">
        <ele>4</ele>
        <time>2018-03-07T08:44:15Z</time>
      </trkpt>
      <trkpt lat="46.67213" lon="-1.86883">
        <ele>3</ele>
        <time>2018-03-07T08:45:15Z</time>
      </trkpt>
      <trkpt lat="46.67209" lon="-1.86876">
        <ele>3</ele>
        <time>2018-03-07T08:46:15Z</time>
      </trkpt>
      <trkpt lat="46.67205" lon="-1.86869">
        <ele>3</ele>
        <time>2018-03-07T08:47:15Z</time>
      </trkpt>
      <trkpt lat="46.67202" lon="-1.86862">
        <ele>3</ele>
        <time>2018-03-07T08:48:15Z</time>
      </trkpt>
      <trkpt lat="46.67189" lon="-1.86841">
        <ele>3</ele>
        <time>2018-03-07T08:49:15Z</time>
      </trkpt>
      <trkpt lat="46.6718" lon="-1.86819">
        <ele>4</ele>
        <time>2018-03-07T08:50:15Z</time>
      </trkpt>
      <trkpt lat="46.67179" lon="-1.86815">
        <ele>4</ele>
        <time>2018-03-07T08:51:15Z</time>
      </trkpt>
      <trkpt lat="46.67177" lon="-1.86808">
        <ele>4</ele>
        <time>2018-03-07T08:52:15Z</time>
      </trkpt>
      <trkpt lat="46.67173" lon="-1.86797">
        <ele>4</ele>
        <time>2018-03-07T08:53:15Z</time>
      </trkpt>
      <trkpt lat="46.6717" lon="-1.86785">
        <ele>4</ele>
        <time>2018-03-07T08:54:15Z</time>
      </trkpt>
      <trkpt lat="46.67169" lon="-1.86772">
        <ele>5</ele>
        <time>2018-03-07T08:55:15Z</time>
      </trkpt>
      <trkpt lat="46.67167" lon="-1.86759">
        <ele>5</ele>
        <time>2018-03-07T08:56:15Z</time>
      </trkpt>
      <trkpt lat="46.67166" lon="-1.8675">
        <ele>5</ele>
        <time>2018-03-07T08:57:15Z</time>
      </trkpt>
      <trkpt lat="46.67166" lon="-1.86747">
        <ele>5</ele>
        <time>2018-03-07T08:58:15Z</time>
      </trkpt>
      <trkpt lat="46.67166" lon="-1.86732">
        <ele>6</ele>
        <time>2018-03-07T08:59:15Z</time>
      </trkpt>
      <trkpt lat="46.67166" lon="-1.86708">
        <ele>7</ele>
        <time>2018-03-07T09:00:15Z</time>
      </trkpt>
      <trkpt lat="46.67166" lon="-1.86704">
        <ele>7</ele>
        <time>2018-03-07T09:01:15Z</time>
      </trkpt>
      <trkpt lat="46.67166" lon="-1.86696">
        <ele>7</ele>
        <time>2018-03-07T09:02:15Z</time>
      </trkpt>
      <trkpt lat="46.67167" lon="-1.86684">
        <ele>7</ele>
        <time>2018-03-07T09:03:15Z</time>
      </trkpt>
      <trkpt lat="46.67168" lon="-1.86673">
        <ele>8</ele>
        <time>2018-03-07T09:04:15Z</time>
      </trkpt>
      <trkpt lat="46.67168" lon="-1.86671">
        <ele>8</ele>
        <time>2018-03-07T09:05:15Z</time>
      </trkpt>
      <trkpt lat="46.6717" lon="-1.86659">
        <ele>8</ele>
        <time>2018-03-07T09:06:15Z</time>
      </trkpt>
      <trkpt lat="46.67171" lon="-1.86648">
        <ele>8</ele>
        <time>2018-03-07T09:07:15Z</time>
      </trkpt>
      <trkpt lat="46.67172" lon="-1.86647">
        <ele>8</ele>
        <time>2018-03-07T09:08:15Z</time>
      </trkpt>
      <trkpt lat="46.67174" lon="-1.86635">
        <ele>8</ele>
        <time>2018-03-07T09:09:15Z</time>
      </trkpt>
      <trkpt lat="46.67176" lon="-1.86622">
        <ele>8</ele>
        <time>2018-03-07T09:10:15Z</time>
      </trkpt>
      <trkpt lat="46.67179" lon="-1.8661">
        <ele>8</ele>
        <time>2018-03-07T09:11:15Z</time>
      </trkpt>
      <trkpt lat="46.67183" lon="-1.86598">
        <ele>8</ele>
        <time>2018-03-07T09:12:15Z</time>
      </trkpt>
      <trkpt lat="46.6719" lon="-1.86574">
        <ele>8</ele>
        <time>2018-03-07T09:13:15Z</time>
      </trkpt>
      <trkpt lat="46.67196" lon="-1.86555">
        <ele>8</ele>
        <time>2018-03-07T09:14:15Z</time>
      </trkpt>
      <trkpt lat="46.67196" lon="-1.86553">
        <ele>8</ele>
        <time>2018-03-07T09:15:15Z</time>
      </trkpt>
      <trkpt lat="46.67202" lon="-1.86536">
        <ele>9</ele>
        <time>2018-03-07T09:16:15Z</time>
      </trkpt>
      <trkpt lat="46.67206" lon="-1.86523">
        <ele>9</ele>
        <time>2018-03-07T09:17:15Z</time>
      </trkpt>
      <trkpt lat="46.67214" lon="-1.86498">
        <ele>9</ele>
        <time>2018-03-07T09:18:15Z</time>
      </trkpt>
      <trkpt lat="46.67223" lon="-1.86467">
        <ele>10</ele>
        <time>2018-03-07T09:19:15Z</time>
      </trkpt>
      <trkpt lat="46.67229" lon="-1.86444">
        <ele>10</ele>
        <time>2018-03-07T09:20:15Z</time>
      </trkpt>
      <trkpt lat="46.67234" lon="-1.86421">
        <ele>10</ele>
        <time>2018-03-07T09:21:15Z</time>
      </trkpt>
      <trkpt lat="46.67235" lon="-1.86411">
        <ele>10</ele>
        <time>2018-03-07T09:22:15Z</time>
      </trkpt>
      <trkpt lat="46.67237" lon="-1.86399">
        <ele>10</ele>
        <time>2018-03-07T09:23:15Z</time>
      </trkpt>
      <trkpt lat="46.67241" lon="-1.8637">
        <ele>10</ele>
        <time>2018-03-07T09:24:15Z</time>
      </trkpt>
      <trkpt lat="46.67243" lon="-1.86336">
        <ele>10</ele>
        <time>2018-03-07T09:25:15Z</time>
      </trkpt>
      <trkpt lat="46.67245" lon="-1.863">
        <ele>10</ele>
        <time>2018-03-07T09:26:15Z</time>
      </trkpt>
      <trkpt lat="46.67246" lon="-1.86272">
        <ele>10</ele>
        <time>2018-03-07T09:27:15Z</time>
      </trkpt>
      <trkpt lat="46.67248" lon="-1.86257">
        <ele>10</ele>
        <time>2018-03-07T09:28:15Z</time>
      </trkpt>
      <trkpt lat="46.6725" lon="-1.86243">
        <ele>10</ele>
        <time>2018-03-07T09:29:15Z</time>
      </trkpt>
      <trkpt lat="46.67252" lon="-1.86237">
        <ele>11</ele>
        <time>2018-03-07T09:30:15Z</time>
      </trkpt>
      <trkpt lat="46.67255" lon="-1.86227">
        <ele>11</ele>
        <time>2018-03-07T09:31:15Z</time>
      </trkpt>
      <trkpt lat="46.67262" lon="-1.86208">
        <ele>11</ele>
        <time>2018-03-07T09:32:15Z</time>
      </trkpt>
      <trkpt lat="46.6727" lon="-1.86185">
        <ele>12</ele>
        <time>2018-03-07T09:33:15Z</time>
      </trkpt>
      <trkpt lat="46.67276" lon="-1.86168">
        <ele>12</ele>
        <time>2018-03-07T09:34:15Z</time>
      </trkpt>
      <trkpt lat="46.67277" lon="-1.86165">
        <ele>12</ele>
        <time>2018-03-07T09:35:15Z</time>
      </trkpt>
      <trkpt lat="46.67283" lon="-1.86141">
        <ele>12</ele>
        <time>2018-03-07T09:36:15Z</time>
      </trkpt>
      <trkpt lat="46.67288" lon="-1.8612">
        <ele>12</ele>
        <time>2018-03-07T09:37:15Z</time>
      </trkpt>
      <trkpt lat="46.67292" lon="-1.86098">
        <ele>12</ele>
        <time>2018-03-07T09:38:15Z</time>
      </trkpt>
      <trkpt lat="46.67295" lon="-1.86076">
        <ele>13</ele>
        <time>2018-03-07T09:39:15Z</time>
      </trkpt>
      <trkpt lat="46.67296" lon="-1.86068">
        <ele>13</ele>
        <time>2018-03-07T09:40:15Z</time>
      </trkpt>
      <trkpt lat="46.67298" lon="-1.86053">
        <ele>13</ele>
        <time>2018-03-07T09:41:15Z</time>
      </trkpt>
      <trkpt lat="46.673" lon="-1.86038">
        <ele>13</ele>
        <time>2018-03-07T09:42:15Z</time>
      </trkpt>
      <trkpt lat="46.67301" lon="-1.86022">
        <ele>14</ele>
        <time>2018-03-07T09:43:15Z</time>
      </trkpt>
      <trkpt lat="46.67305" lon="-1.85977">
        <ele>15</ele>
        <time>2018-03-07T09:44:15Z</time>
      </trkpt>
      <trkpt lat="46.67306" lon="-1.85959">
        <ele>15</ele>
        <time>2018-03-07T09:45:15Z</time>
      </trkpt>
      <trkpt lat="46.67306" lon="-1.8593">
        <ele>15</ele>
        <time>2018-03-07T09:46:15Z</time>
      </trkpt>
      <trkpt lat="46.67306" lon="-1.859">
        <ele>15</ele>
        <time>2018-03-07T09:47:15Z</time>
      </trkpt>
      <trkpt lat="46.67305" lon="-1.85869">
        <ele>16</ele>
        <time>2018-03-07T09:48:15Z</time>
      </trkpt>
      <trkpt lat="46.67304" lon="-1.8584">
        <ele>16</ele>
        <time>2018-03-07T09:49:15Z</time>
      </trkpt>
      <trkpt lat="46.67302" lon="-1.8581">
        <ele>16</ele>
        <time>2018-03-07T09:50:15Z</time>
      </trkpt>
      <trkpt lat="46.67299" lon="-1.85767">
        <ele>16</ele>
        <time>2018-03-07T09:51:15Z</time>
      </trkpt>
      <trkpt lat="46.67295" lon="-1.85721">
        <ele>15</ele>
        <time>2018-03-07T09:52:15Z</time>
      </trkpt>
      <trkpt lat="46.67291" lon="-1.85677">
        <ele>15</ele>
        <time>2018-03-07T09:53:15Z</time>
      </trkpt>
      <trkpt lat="46.67288" lon="-1.85647">
        <ele>15</ele>
        <time>2018-03-07T09:54:15Z</time>
      </trkpt>
      <trkpt lat="46.67285" lon="-1.85601">
        <ele>16</ele>
        <time>2018-03-07T09:55:15Z</time>
      </trkpt>
      <trkpt lat="46.67281" lon="-1.85556">
        <ele>17</ele>
        <time>2018-03-07T09:56:15Z</time>
      </trkpt>
      <trkpt lat="46.67279" lon="-1.85526">
        <ele>17</ele>
        <time>2018-03-07T09:57:15Z</time>
      </trkpt>
      <trkpt lat="46.67275" lon="-1.8548">
        <ele>18</ele>
        <time>2018-03-07T09:58:15Z</time>
      </trkpt>
      <trkpt lat="46.67271" lon="-1.85421">
        <ele>18</ele>
        <time>2018-03-07T09:59:15Z</time>
      </trkpt>
      <trkpt lat="46.67269" lon="-1.85388">
        <ele>19</ele>
        <time>2018-03-07T10:00:15Z</time>
      </trkpt>
      <trkpt lat="46.67266" lon="-1.85362">
        <ele>19</ele>
        <time>2018-03-07T10:01:15Z</time>
      </trkpt>
      <trkpt lat="46.67263" lon="-1.85339">
        <ele>20</ele>
        <time>2018-03-07T10:02:15Z</time>
      </trkpt>
      <trkpt lat="46.6726" lon="-1.85321">
        <ele>20</ele>
        <time>2018-03-07T10:03:15Z</time>
      </trkpt>
      <trkpt lat="46.67255" lon="-1.85296">
        <ele>19</ele>
        <time>2018-03-07T10:04:15Z</time>
      </trkpt>
      <trkpt lat="46.67248" lon="-1.85268">
        <ele>19</ele>
        <time>2018-03-07T10:05:15Z</time>
      </trkpt>
      <trkpt lat="46.67239" lon="-1.85237">
        <ele>19</ele>
        <time>2018-03-07T10:06:15Z</time>
      </trkpt>
      <trkpt lat="46.67224" lon="-1.85184">
        <ele>19</ele>
        <time>2018-03-07T10:07:15Z</time>
      </trkpt>
      <trkpt lat="46.67214" lon="-1.8515">
        <ele>19</ele>
        <time>2018-03-07T10:08:15Z</time>
      </trkpt>
      <trkpt lat="46.67201" lon="-1.85109">
        <ele>19</ele>
        <time>2018-03-07T10:09:15Z</time>
      </trkpt>
      <trkpt lat="46.6719" lon="-1.85073">
        <ele>19</ele>
        <time>2018-03-07T10:10:15Z</time>
      </trkpt>
      <trkpt lat="46.67185" lon="-1.85055">
        <ele>19</ele>
        <time>2018-03-07T10:11:15Z</time>
      </trkpt>
      <trkpt lat="46.67178" lon="-1.85027">
        <ele>19</ele>
        <time>2018-03-07T10:12:15Z</time>
      </trkpt>
      <trkpt lat="46.67175" lon="-1.85014">
        <ele>18</ele>
        <time>2018-03-07T10:13:15Z</time>
      </trkpt>
      <trkpt lat="46.67172" lon="-1.84999">
        <ele>18</ele>
        <time>2018-03-07T10:14:15Z</time>
      </trkpt>
      <trkpt lat="46.67168" lon="-1.84972">
        <ele>18</ele>
        <time>2018-03-07T10:15:15Z</time>
      </trkpt>
      <trkpt lat="46.67166" lon="-1.84956">
        <ele>18</ele>
        <time>2018-03-07T10:16:15Z</time>
      </trkpt>
      <trkpt lat="46.67165" lon="-1.84941">
        <ele>18</ele>
        <time>2018-03-07T10:17:15Z</time>
      </trkpt>
      <trkpt lat="46.67164" lon="-1.84926">
        <ele>18</ele>
        <time>2018-03-07T10:18:15Z</time>
      </trkpt>
      <trkpt lat="46.67164" lon="-1.84898">
        <ele>18</ele>
        <time>2018-03-07T10:19:15Z</time>
      </trkpt>
      <trkpt lat="46.67164" lon="-1.84883">
        <ele>18</ele>
        <time>2018-03-07T10:20:15Z</time>
      </trkpt>
      <trkpt lat="46.67165" lon="-1.84868">
        <ele>18</ele>
        <time>2018-03-07T10:21:15Z</time>
      </trkpt>
      <trkpt lat="46.67167" lon="-1.8484">
        <ele>18</ele>
        <time>2018-03-07T10:22:15Z</time>
      </trkpt>
      <trkpt lat="46.67171" lon="-1.84811">
        <ele>18</ele>
        <time>2018-03-07T10:23:15Z</time>
      </trkpt>
      <trkpt lat="46.67175" lon="-1.8478">
        <ele>19</ele>
        <time>2018-03-07T10:24:15Z</time>
      </trkpt>
      <trkpt lat="46.67175" lon="-1.84769">
        <ele>19</ele>
        <time>2018-03-07T10:25:15Z</time>
      </trkpt>
      <trkpt lat="46.67182" lon="-1.84714">
        <ele>20</ele>
        <time>2018-03-07T10:26:15Z</time>
      </trkpt>
      <trkpt lat="46.67191" lon="-1.84651">
        <ele>20</ele>
        <time>2018-03-07T10:27:15Z</time>
      </trkpt>
      <trkpt lat="46.67198" lon="-1.84599">
        <ele>20</ele>
        <time>2018-03-07T10:28:15Z</time>
      </trkpt>
      <trkpt lat="46.67205" lon="-1.84549">
        <ele>20</ele>
        <time>2018-03-07T10:29:15Z</time>
      </trkpt>
      <trkpt lat="46.67212" lon="-1.84497">
        <ele>21</ele>
        <time>2018-03-07T10:30:15Z</time>
      </trkpt>
      <trkpt lat="46.67219" lon="-1.84446">
        <ele>21</ele>
        <time>2018-03-07T10:31:15Z</time>
      </trkpt>
      <trkpt lat="46.67224" lon="-1.84411">
        <ele>21</ele>
        <time>2018-03-07T10:32:15Z</time>
      </trkpt>
      <trkpt lat="46.67226" lon="-1.84398">
        <ele>21</ele>
        <time>2018-03-07T10:33:15Z</time>
      </trkpt>
      <trkpt lat="46.6723" lon="-1.84361">
        <ele>21</ele>
        <time>2018-03-07T10:34:15Z</time>
      </trkpt>
      <trkpt lat="46.67237" lon="-1.84309">
        <ele>22</ele>
        <time>2018-03-07T10:35:15Z</time>
      </trkpt>
      <trkpt lat="46.67241" lon="-1.84276">
        <ele>22</ele>
        <time>2018-03-07T10:36:15Z</time>
      </trkpt>
      <trkpt lat="46.67245" lon="-1.84242">
        <ele>22</ele>
        <time>2018-03-07T10:37:15Z</time>
      </trkpt>
      <trkpt lat="46.67247" lon="-1.84225">
        <ele>21</ele>
        <time>2018-03-07T10:38:15Z</time>
      </trkpt>
      <trkpt lat="46.67248" lon="-1.84207">
        <ele>21</ele>
        <time>2018-03-07T10:39:15Z</time>
      </trkpt>
      <trkpt lat="46.6725" lon="-1.84185">
        <ele>20</ele>
        <time>2018-03-07T10:40:15Z</time>
      </trkpt>
      <trkpt lat="46.67251" lon="-1.84138">
        <ele>20</ele>
        <time>2018-03-07T10:41:15Z</time>
      </trkpt>
      <trkpt lat="46.67252" lon="-1.84121">
        <ele>20</ele>
        <time>2018-03-07T10:42:15Z</time>
      </trkpt>
      <trkpt lat="46.67254" lon="-1.84058">
        <ele>21</ele>
        <time>2018-03-07T10:43:15Z</time>
      </trkpt>
      <trkpt lat="46.67256" lon="-1.83985">
        <ele>22</ele>
        <time>2018-03-07T10:44:15Z</time>
      </trkpt>
      <trkpt lat="46.67257" lon="-1.83925">
        <ele>23</ele>
        <time>2018-03-07T10:45:15Z</time>
      </trkpt>
      <trkpt lat="46.67257" lon="-1.83897">
        <ele>23</ele>
        <time>2018-03-07T10:46:15Z</time>
      </trkpt>
      <trkpt lat="46.67256" lon="-1.83874">
        <ele>23</ele>
        <time>2018-03-07T10:47:15Z</time>
      </trkpt>
      <trkpt lat="46.67254" lon="-1.83845">
        <ele>23</ele>
        <time>2018-03-07T10:48:15Z</time>
      </trkpt>
      <trkpt lat="46.67252" lon="-1.83824">
        <ele>23</ele>
        <time>2018-03-07T10:49:15Z</time>
      </trkpt>
      <trkpt lat="46.67252" lon="-1.8382">
        <ele>23</ele>
        <time>2018-03-07T10:50:15Z</time>
      </trkpt>
      <trkpt lat="46.67251" lon="-1.83814">
        <ele>23</ele>
        <time>2018-03-07T10:51:15Z</time>
      </trkpt>
      <trkpt lat="46.67246" lon="-1.83765">
        <ele>23</ele>
        <time>2018-03-07T10:52:15Z</time>
      </trkpt>
      <trkpt lat="46.67241" lon="-1.83718">
        <ele>22</ele>
        <time>2018-03-07T10:53:15Z</time>
      </trkpt>
      <trkpt lat="46.67236" lon="-1.83657">
        <ele>21</ele>
        <time>2018-03-07T10:54:15Z</time>
      </trkpt>
      <trkpt lat="46.67229" lon="-1.83588">
        <ele>20</ele>
        <time>2018-03-07T10:55:15Z</time>
      </trkpt>
      <trkpt lat="46.67226" lon="-1.83557">
        <ele>20</ele>
        <time>2018-03-07T10:56:15Z</time>
      </trkpt>
      <trkpt lat="46.67223" lon="-1.8354">
        <ele>20</ele>
        <time>2018-03-07T10:57:15Z</time>
      </trkpt>
      <trkpt lat="46.67218" lon="-1.83519">
        <ele>20</ele>
        <time>2018-03-07T10:58:15Z</time>
      </trkpt>
      <trkpt lat="46.67214" lon="-1.83501">
        <ele>21</ele>
        <time>2018-03-07T10:59:15Z</time>
      </trkpt>
      <trkpt lat="46.67207" lon="-1.83477">
        <ele>21</ele>
        <time>2018-03-07T11:00:15Z</time>
      </trkpt>
      <trkpt lat="46.67201" lon="-1.83461">
        <ele>21</ele>
        <time>2018-03-07T11:01:15Z</time>
      </trkpt>
      <trkpt lat="46.67196" lon="-1.83446">
        <ele>21</ele>
        <time>2018-03-07T11:02:15Z</time>
      </trkpt>
      <trkpt lat="46.67186" lon="-1.83413">
        <ele>21</ele>
        <time>2018-03-07T11:03:15Z</time>
      </trkpt>
      <trkpt lat="46.67174" lon="-1.83374">
        <ele>22</ele>
        <time>2018-03-07T11:04:15Z</time>
      </trkpt>
      <trkpt lat="46.6716" lon="-1.83332">
        <ele>23</ele>
        <time>2018-03-07T11:05:15Z</time>
      </trkpt>
      <trkpt lat="46.67147" lon="-1.83295">
        <ele>22</ele>
        <time>2018-03-07T11:06:15Z</time>
      </trkpt>
      <trkpt lat="46.67135" lon="-1.83267">
        <ele>22</ele>
        <time>2018-03-07T11:07:15Z</time>
      </trkpt>
      <trkpt lat="46.6712" lon="-1.8323">
        <ele>22</ele>
        <time>2018-03-07T11:08:15Z</time>
      </trkpt>
      <trkpt lat="46.67104" lon="-1.83196">
        <ele>21</ele>
        <time>2018-03-07T11:09:15Z</time>
      </trkpt>
      <trkpt lat="46.67088" lon="-1.83161">
        <ele>21</ele>
        <time>2018-03-07T11:10:15Z</time>
      </trkpt>
      <trkpt lat="46.67068" lon="-1.83121">
        <ele>20</ele>
        <time>2018-03-07T11:11:15Z</time>
      </trkpt>
      <trkpt lat="46.67064" lon="-1.83112">
        <ele>20</ele>
        <time>2018-03-07T11:12:15Z</time>
      </trkpt>
      <trkpt lat="46.67063" lon="-1.83109">
        <ele>20</ele>
        <time>2018-03-07T11:13:15Z</time>
      </trkpt>
      <trkpt lat="46.67051" lon="-1.83086">
        <ele>19</ele>
        <time>2018-03-07T11:14:15Z</time>
      </trkpt>
      <trkpt lat="46.6704" lon="-1.83062">
        <ele>19</ele>
        <time>2018-03-07T11:15:15Z</time>
      </trkpt>
      <trkpt lat="46.67035" lon="-1.8305">
        <ele>18</ele>
        <time>2018-03-07T11:16:15Z</time>
      </trkpt>
      <trkpt lat="46.6703" lon="-1.83036">
        <ele>18</ele>
        <time>2018-03-07T11:17:15Z</time>
      </trkpt>
      <trkpt lat="46.67022" lon="-1.8301">
        <ele>18</ele>
        <time>2018-03-07T11:18:15Z</time>
      </trkpt>
      <trkpt lat="46.67014" lon="-1.82981">
        <ele>18</ele>
        <time>2018-03-07T11:19:15Z</time>
      </trkpt>
      <trkpt lat="46.67012" lon="-1.82975">
        <ele>18</ele>
        <time>2018-03-07T11:20:15Z</time>
      </trkpt>
      <trkpt lat="46.67012" lon="-1.82973">
        <ele>18</ele>
        <time>2018-03-07T11:21:15Z</time>
      </trkpt>
      <trkpt lat="46.67007" lon="-1.82957">
        <ele>18</ele>
        <time>2018-03-07T11:22:15Z</time>
      </trkpt>
      <trkpt lat="46.67005" lon="-1.82947">
        <ele>18</ele>
        <time>2018-03-07T11:23:15Z</time>
      </trkpt>
      <trkpt lat="46.67001" lon="-1.8293">
        <ele>18</ele>
        <time>2018-03-07T11:24:15Z</time>
      </trkpt>
      <trkpt lat="46.66997" lon="-1.82913">
        <ele>18</ele>
        <time>2018-03-07T11:25:15Z</time>
      </trkpt>
      <trkpt lat="46.66996" lon="-1.82904">
        <ele>18</ele>
        <time>2018-03-07T11:26:15Z</time>
      </trkpt>
      <trkpt lat="46.66995" lon="-1.82892">
        <ele>18</ele>
        <time>2018-03-07T11:27:15Z</time>
      </trkpt>
      <trkpt lat="46.66995" lon="-1.82876">
        <ele>18</ele>
        <time>2018-03-07T11:28:15Z</time>
      </trkpt>
      <trkpt lat="46.66995" lon="-1.82867">
        <ele>18</ele>
        <time>2018-03-07T11:29:15Z</time>
      </trkpt>
      <trkpt lat="46.66995" lon="-1.8286">
        <ele>18</ele>
        <time>2018-03-07T11:30:15Z</time>
      </trkpt>
      <trkpt lat="46.66995" lon="-1.82856">
        <ele>18</ele>
        <time>2018-03-07T11:31:15Z</time>
      </trkpt>
      <trkpt lat="46.66996" lon="-1.8285">
        <ele>18</ele>
        <time>2018-03-07T11:32:15Z</time>
      </trkpt>
      <trkpt lat="46.66997" lon="-1.82846">
        <ele>18</ele>
        <time>2018-03-07T11:33:15Z</time>
      </trkpt>
      <trkpt lat="46.67002" lon="-1.82833">
        <ele>18</ele>
        <time>2018-03-07T11:34:15Z</time>
      </trkpt>
      <trkpt lat="46.6701" lon="-1.82811">
        <ele>18</ele>
        <time>2018-03-07T11:35:15Z</time>
      </trkpt>
      <trkpt lat="46.67016" lon="-1.82794">
        <ele>18</ele>
        <time>2018-03-07T11:36:15Z</time>
      </trkpt>
      <trkpt lat="46.67021" lon="-1.82782">
        <ele>18</ele>
        <time>2018-03-07T11:37:15Z</time>
      </trkpt>
      <trkpt lat="46.67025" lon="-1.82771">
        <ele>18</ele>
        <time>2018-03-07T11:38:15Z</time>
      </trkpt>
      <trkpt lat="46.67029" lon="-1.82759">
        <ele>18</ele>
        <time>2018-03-07T11:39:15Z</time>
      </trkpt>
      <trkpt lat="46.67034" lon="-1.8274">
        <ele>19</ele>
        <time>2018-03-07T11:40:15Z</time>
      </trkpt>
      <trkpt lat="46.67039" lon="-1.82724">
        <ele>20</ele>
        <time>2018-03-07T11:41:15Z</time>
      </trkpt>
      <trkpt lat="46.67042" lon="-1.82709">
        <ele>20</ele>
        <time>2018-03-07T11:42:15Z</time>
      </trkpt>
      <trkpt lat="46.67043" lon="-1.82709">
        <ele>21</ele>
        <time>2018-03-07T11:43:15Z</time>
      </trkpt>
      <trkpt lat="46.67045" lon="-1.82699">
        <ele>21</ele>
        <time>2018-03-07T11:44:15Z</time>
      </trkpt>
      <trkpt lat="46.67045" lon="-1.82694">
        <ele>21</ele>
        <time>2018-03-07T11:45:15Z</time>
      </trkpt>
      <trkpt lat="46.67045" lon="-1.82694">
        <ele>21</ele>
        <time>2018-03-07T11:46:15Z</time>
      </trkpt>
      <trkpt lat="46.67045" lon="-1.82687">
        <ele>22</ele>
        <time>2018-03-07T11:47:15Z</time>
      </trkpt>
      <trkpt lat="46.67048" lon="-1.82684">
        <ele>22</ele>
        <time>2018-03-07T11:48:15Z</time>
      </trkpt>
      <trkpt lat="46.67059" lon="-1.82675">
        <ele>22</ele>
        <time>2018-03-07T11:49:15Z</time>
      </trkpt>
      <trkpt lat="46.67059" lon="-1.82675">
        <ele>22</ele>
        <time>2018-03-07T11:50:15Z</time>
      </trkpt>
      <trkpt lat="46.6706" lon="-1.82674">
        <ele>22</ele>
        <time>2018-03-07T11:51:15Z</time>
      </trkpt>
      <trkpt lat="46.6706" lon="-1.82673">
        <ele>22</ele>
        <time>2018-03-07T11:52:15Z</time>
      </trkpt>
      <trkpt lat="46.6706" lon="-1.82672">
        <ele>22</ele>
        <time>2018-03-07T11:53:15Z</time>
      </trkpt>
      <trkpt lat="46.6706" lon="-1.82671">
        <ele>23</ele>
        <time>2018-03-07T11:54:15Z</time>
      </trkpt>
      <trkpt lat="46.67061" lon="-1.8267">
        <ele>23</ele>
        <time>2018-03-07T11:55:15Z</time>
      </trkpt>
      <trkpt lat="46.67061" lon="-1.82669">
        <ele>23</ele>
        <time>2018-03-07T11:56:15Z</time>
      </trkpt>
      <trkpt lat="46.67061" lon="-1.82668">
        <ele>23</ele>
        <time>2018-03-07T11:57:15Z</time>
      </trkpt>
      <trkpt lat="46.67062" lon="-1.82667">
        <ele>23</ele>
        <time>2018-03-07T11:58:15Z</time>
      </trkpt>
      <trkpt lat="46.67063" lon="-1.82666">
        <ele>23</ele>
        <time>2018-03-07T11:59:15Z</time>
      </trkpt>
      <trkpt lat="46.67063" lon="-1.82665">
        <ele>23</ele>
        <time>2018-03-07T12:00:15Z</time>
      </trkpt>
      <trkpt lat="46.67064" lon="-1.82665">
        <ele>23</ele>
        <time>2018-03-07T12:01:15Z</time>
      </trkpt>
      <trkpt lat="46.67064" lon="-1.82664">
        <ele>23</ele>
        <time>2018-03-07T12:02:15Z</time>
      </trkpt>
      <trkpt lat="46.67065" lon="-1.82663">
        <ele>23</ele>
        <time>2018-03-07T12:03:15Z</time>
      </trkpt>
      <trkpt lat="46.67066" lon="-1.82663">
        <ele>23</ele>
        <time>2018-03-07T12:04:15Z</time>
      </trkpt>
      <trkpt lat="46.67067" lon="-1.82662">
        <ele>23</ele>
        <time>2018-03-07T12:05:15Z</time>
      </trkpt>
      <trkpt lat="46.67068" lon="-1.82662">
        <ele>23</ele>
        <time>2018-03-07T12:06:15Z</time>
      </trkpt>
      <trkpt lat="46.67069" lon="-1.82662">
        <ele>23</ele>
        <time>2018-03-07T12:07:15Z</time>
      </trkpt>
      <trkpt lat="46.67069" lon="-1.82661">
        <ele>23</ele>
        <time>2018-03-07T12:08:15Z</time>
      </trkpt>
      <trkpt lat="46.6707" lon="-1.82661">
        <ele>23</ele>
        <time>2018-03-07T12:09:15Z</time>
      </trkpt>
      <trkpt lat="46.67074" lon="-1.82649">
        <ele>24</ele>
        <time>2018-03-07T12:10:15Z</time>
      </trkpt>
      <trkpt lat="46.67077" lon="-1.82641">
        <ele>24</ele>
        <time>2018-03-07T12:11:15Z</time>
      </trkpt>
      <trkpt lat="46.67078" lon="-1.82634">
        <ele>25</ele>
        <time>2018-03-07T12:12:15Z</time>
      </trkpt>
      <trkpt lat="46.67079" lon="-1.82617">
        <ele>25</ele>
        <time>2018-03-07T12:13:15Z</time>
      </trkpt>
      <trkpt lat="46.6708" lon="-1.82612">
        <ele>26</ele>
        <time>2018-03-07T12:14:15Z</time>
      </trkpt>
      <trkpt lat="46.6708" lon="-1.82607">
        <ele>26</ele>
        <time>2018-03-07T12:15:15Z</time>
      </trkpt>
      <trkpt lat="46.67082" lon="-1.82601">
        <ele>26</ele>
        <time>2018-03-07T12:16:15Z</time>
      </trkpt>
      <trkpt lat="46.67084" lon="-1.82595">
        <ele>26</ele>
        <time>2018-03-07T12:17:15Z</time>
      </trkpt>
      <trkpt lat="46.67086" lon="-1.82589">
        <ele>27</ele>
        <time>2018-03-07T12:18:15Z</time>
      </trkpt>
      <trkpt lat="46.67088" lon="-1.82583">
        <ele>27</ele>
        <time>2018-03-07T12:19:15Z</time>
      </trkpt>
      <trkpt lat="46.67092" lon="-1.82577">
        <ele>27</ele>
        <time>2018-03-07T12:20:15Z</time>
      </trkpt>
      <trkpt lat="46.67098" lon="-1.82565">
        <ele>28</ele>
        <time>2018-03-07T12:21:15Z</time>
      </trkpt>
      <trkpt lat="46.67106" lon="-1.82553">
        <ele>29</ele>
        <time>2018-03-07T12:22:15Z</time>
      </trkpt>
      <trkpt lat="46.67113" lon="-1.82541">
        <ele>29</ele>
        <time>2018-03-07T12:23:15Z</time>
      </trkpt>
      <trkpt lat="46.67128" lon="-1.82518">
        <ele>30</ele>
        <time>2018-03-07T12:24:15Z</time>
      </trkpt>
      <trkpt lat="46.67136" lon="-1.82506">
        <ele>31</ele>
        <time>2018-03-07T12:25:15Z</time>
      </trkpt>
      <trkpt lat="46.67143" lon="-1.82493">
        <ele>31</ele>
        <time>2018-03-07T12:26:15Z</time>
      </trkpt>
      <trkpt lat="46.67149" lon="-1.8248">
        <ele>31</ele>
        <time>2018-03-07T12:27:15Z</time>
      </trkpt>
      <trkpt lat="46.67158" lon="-1.82461">
        <ele>31</ele>
        <time>2018-03-07T12:28:15Z</time>
      </trkpt>
      <trkpt lat="46.67172" lon="-1.82433">
        <ele>31</ele>
        <time>2018-03-07T12:29:15Z</time>
      </trkpt>
      <trkpt lat="46.67192" lon="-1.8239">
        <ele>32</ele>
        <time>2018-03-07T12:30:15Z</time>
      </trkpt>
      <trkpt lat="46.67207" lon="-1.82355">
        <ele>32</ele>
        <time>2018-03-07T12:31:15Z</time>
      </trkpt>
      <trkpt lat="46.67223" lon="-1.82319">
        <ele>32</ele>
        <time>2018-03-07T12:32:15Z</time>
      </trkpt>
      <trkpt lat="46.67229" lon="-1.82304">
        <ele>32</ele>
        <time>2018-03-07T12:33:15Z</time>
      </trkpt>
      <trkpt lat="46.67235" lon="-1.82289">
        <ele>32</ele>
        <time>2018-03-07T12:34:15Z</time>
      </trkpt>
      <trkpt lat="46.67245" lon="-1.82267">
        <ele>32</ele>
        <time>2018-03-07T12:35:15Z</time>
      </trkpt>
      <trkpt lat="46.67251" lon="-1.82252">
        <ele>32</ele>
        <time>2018-03-07T12:36:15Z</time>
      </trkpt>
      <trkpt lat="46.67261" lon="-1.8223">
        <ele>32</ele>
        <time>2018-03-07T12:37:15Z</time>
      </trkpt>
      <trkpt lat="46.6727" lon="-1.82207">
        <ele>32</ele>
        <time>2018-03-07T12:38:15Z</time>
      </trkpt>
      <trkpt lat="46.6728" lon="-1.82178">
        <ele>32</ele>
        <time>2018-03-07T12:39:15Z</time>
      </trkpt>
      <trkpt lat="46.67285" lon="-1.82162">
        <ele>32</ele>
        <time>2018-03-07T12:40:15Z</time>
      </trkpt>
      <trkpt lat="46.6729" lon="-1.82148">
        <ele>32</ele>
        <time>2018-03-07T12:41:15Z</time>
      </trkpt>
      <trkpt lat="46.67305" lon="-1.82105">
        <ele>32</ele>
        <time>2018-03-07T12:42:15Z</time>
      </trkpt>
      <trkpt lat="46.6731" lon="-1.8209">
        <ele>32</ele>
        <time>2018-03-07T12:43:15Z</time>
      </trkpt>
      <trkpt lat="46.67317" lon="-1.82062">
        <ele>33</ele>
        <time>2018-03-07T12:44:15Z</time>
      </trkpt>
      <trkpt lat="46.67327" lon="-1.82026">
        <ele>33</ele>
        <time>2018-03-07T12:45:15Z</time>
      </trkpt>
      <trkpt lat="46.6733" lon="-1.82015">
        <ele>33</ele>
        <time>2018-03-07T12:46:15Z</time>
      </trkpt>
      <trkpt lat="46.67337" lon="-1.81992">
        <ele>33</ele>
        <time>2018-03-07T12:47:15Z</time>
      </trkpt>
      <trkpt lat="46.67347" lon="-1.8196">
        <ele>33</ele>
        <time>2018-03-07T12:48:15Z</time>
      </trkpt>
      <trkpt lat="46.67353" lon="-1.81943">
        <ele>33</ele>
        <time>2018-03-07T12:49:15Z</time>
      </trkpt>
      <trkpt lat="46.67364" lon="-1.81917">
        <ele>32</ele>
        <time>2018-03-07T12:50:15Z</time>
      </trkpt>
      <trkpt lat="46.67373" lon="-1.81897">
        <ele>32</ele>
        <time>2018-03-07T12:51:15Z</time>
      </trkpt>
      <trkpt lat="46.67386" lon="-1.81865">
        <ele>32</ele>
        <time>2018-03-07T12:52:15Z</time>
      </trkpt>
      <trkpt lat="46.67391" lon="-1.81851">
        <ele>32</ele>
        <time>2018-03-07T12:53:15Z</time>
      </trkpt>
      <trkpt lat="46.67395" lon="-1.81838">
        <ele>32</ele>
        <time>2018-03-07T12:54:15Z</time>
      </trkpt>
      <trkpt lat="46.67399" lon="-1.81824">
        <ele>32</ele>
        <time>2018-03-07T12:55:15Z</time>
      </trkpt>
      <trkpt lat="46.67402" lon="-1.81808">
        <ele>32</ele>
        <time>2018-03-07T12:56:15Z</time>
      </trkpt>
      <trkpt lat="46.67406" lon="-1.81783">
        <ele>32</ele>
        <time>2018-03-07T12:57:15Z</time>
      </trkpt>
      <trkpt lat="46.6741" lon="-1.8174">
        <ele>32</ele>
        <time>2018-03-07T12:58:15Z</time>
      </trkpt>
      <trkpt lat="46.67414" lon="-1.81695">
        <ele>32</ele>
        <time>2018-03-07T12:59:15Z</time>
      </trkpt>
      <trkpt lat="46.67416" lon="-1.81674">
        <ele>32</ele>
        <time>2018-03-07T13:00:15Z</time>
      </trkpt>
      <trkpt lat="46.67418" lon="-1.81652">
        <ele>32</ele>
        <time>2018-03-07T13:01:15Z</time>
      </trkpt>
      <trkpt lat="46.67422" lon="-1.81623">
        <ele>32</ele>
        <time>2018-03-07T13:02:15Z</time>
      </trkpt>
      <trkpt lat="46.67426" lon="-1.81595">
        <ele>32</ele>
        <time>2018-03-07T13:03:15Z</time>
      </trkpt>
      <trkpt lat="46.67432" lon="-1.81568">
        <ele>33</ele>
        <time>2018-03-07T13:04:15Z</time>
      </trkpt>
      <trkpt lat="46.67442" lon="-1.81528">
        <ele>34</ele>
        <time>2018-03-07T13:05:15Z</time>
      </trkpt>
      <trkpt lat="46.67449" lon="-1.81501">
        <ele>35</ele>
        <time>2018-03-07T13:06:15Z</time>
      </trkpt>
      <trkpt lat="46.67457" lon="-1.81468">
        <ele>35</ele>
        <time>2018-03-07T13:07:15Z</time>
      </trkpt>
      <trkpt lat="46.67465" lon="-1.81438">
        <ele>35</ele>
        <time>2018-03-07T13:08:15Z</time>
      </trkpt>
      <trkpt lat="46.67471" lon="-1.8142">
        <ele>35</ele>
        <time>2018-03-07T13:09:15Z</time>
      </trkpt>
      <trkpt lat="46.67481" lon="-1.81393">
        <ele>35</ele>
        <time>2018-03-07T13:10:15Z</time>
      </trkpt>
      <trkpt lat="46.67488" lon="-1.8137">
        <ele>35</ele>
        <time>2018-03-07T13:11:15Z</time>
      </trkpt>
      <trkpt lat="46.67493" lon="-1.81347">
        <ele>35</ele>
        <time>2018-03-07T13:12:15Z</time>
      </trkpt>
      <trkpt lat="46.67498" lon="-1.81323">
        <ele>35</ele>
        <time>2018-03-07T13:13:15Z</time>
      </trkpt>
      <trkpt lat="46.67501" lon="-1.81301">
        <ele>35</ele>
        <time>2018-03-07T13:14:15Z</time>
      </trkpt>
      <trkpt lat="46.67503" lon="-1.81276">
        <ele>36</ele>
        <time>2018-03-07T13:15:15Z</time>
      </trkpt>
      <trkpt lat="46.67504" lon="-1.81254">
        <ele>36</ele>
        <time>2018-03-07T13:16:15Z</time>
      </trkpt>
      <trkpt lat="46.67504" lon="-1.81229">
        <ele>36</ele>
        <time>2018-03-07T13:17:15Z</time>
      </trkpt>
      <trkpt lat="46.67505" lon="-1.81206">
        <ele>35</ele>
        <time>2018-03-07T13:18:15Z</time>
      </trkpt>
      <trkpt lat="46.67505" lon="-1.81181">
        <ele>34</ele>
        <time>2018-03-07T13:19:15Z</time>
      </trkpt>
      <trkpt lat="46.67506" lon="-1.81156">
        <ele>34</ele>
        <time>2018-03-07T13:20:15Z</time>
      </trkpt>
      <trkpt lat="46.67506" lon="-1.81131">
        <ele>33</ele>
        <time>2018-03-07T13:21:15Z</time>
      </trkpt>
      <trkpt lat="46.67508" lon="-1.81105">
        <ele>32</ele>
        <time>2018-03-07T13:22:15Z</time>
      </trkpt>
      <trkpt lat="46.67511" lon="-1.81078">
        <ele>31</ele>
        <time>2018-03-07T13:23:15Z</time>
      </trkpt>
      <trkpt lat="46.67514" lon="-1.81053">
        <ele>32</ele>
        <time>2018-03-07T13:24:15Z</time>
      </trkpt>
      <trkpt lat="46.67518" lon="-1.81026">
        <ele>32</ele>
        <time>2018-03-07T13:25:15Z</time>
      </trkpt>
      <trkpt lat="46.67521" lon="-1.81013">
        <ele>32</ele>
        <time>2018-03-07T13:26:15Z</time>
      </trkpt>
      <trkpt lat="46.67525" lon="-1.80989">
        <ele>33</ele>
        <time>2018-03-07T13:27:15Z</time>
      </trkpt>
      <trkpt lat="46.67545" lon="-1.80903">
        <ele>35</ele>
        <time>2018-03-07T13:28:15Z</time>
      </trkpt>
      <trkpt lat="46.67555" lon="-1.80865">
        <ele>35</ele>
        <time>2018-03-07T13:29:15Z</time>
      </trkpt>
      <trkpt lat="46.67562" lon="-1.80834">
        <ele>35</ele>
        <time>2018-03-07T13:30:15Z</time>
      </trkpt>
      <trkpt lat="46.67565" lon="-1.80813">
        <ele>36</ele>
        <time>2018-03-07T13:31:15Z</time>
      </trkpt>
      <trkpt lat="46.67569" lon="-1.80785">
        <ele>36</ele>
        <time>2018-03-07T13:32:15Z</time>
      </trkpt>
      <trkpt lat="46.67571" lon="-1.80759">
        <ele>36</ele>
        <time>2018-03-07T13:33:15Z</time>
      </trkpt>
      <trkpt lat="46.67573" lon="-1.80732">
        <ele>36</ele>
        <time>2018-03-07T13:34:15Z</time>
      </trkpt>
      <trkpt lat="46.67573" lon="-1.80715">
        <ele>36</ele>
        <time>2018-03-07T13:35:15Z</time>
      </trkpt>
      <trkpt lat="46.67572" lon="-1.80697">
        <ele>37</ele>
        <time>2018-03-07T13:36:15Z</time>
      </trkpt>
      <trkpt lat="46.67571" lon="-1.80684">
        <ele>37</ele>
        <time>2018-03-07T13:37:15Z</time>
      </trkpt>
      <trkpt lat="46.6757" lon="-1.80645">
        <ele>37</ele>
        <time>2018-03-07T13:38:15Z</time>
      </trkpt>
      <trkpt lat="46.67571" lon="-1.80611">
        <ele>38</ele>
        <time>2018-03-07T13:39:15Z</time>
      </trkpt>
      <trkpt lat="46.67571" lon="-1.80579">
        <ele>38</ele>
        <time>2018-03-07T13:40:15Z</time>
      </trkpt>
      <trkpt lat="46.67572" lon="-1.80542">
        <ele>37</ele>
        <time>2018-03-07T13:41:15Z</time>
      </trkpt>
      <trkpt lat="46.67572" lon="-1.80522">
        <ele>37</ele>
        <time>2018-03-07T13:42:15Z</time>
      </trkpt>
      <trkpt lat="46.67571" lon="-1.80495">
        <ele>37</ele>
        <time>2018-03-07T13:43:15Z</time>
      </trkpt>
      <trkpt lat="46.67571" lon="-1.80464">
        <ele>37</ele>
        <time>2018-03-07T13:44:15Z</time>
      </trkpt>
      <trkpt lat="46.67571" lon="-1.80439">
        <ele>37</ele>
        <time>2018-03-07T13:45:15Z</time>
      </trkpt>
      <trkpt lat="46.6757" lon="-1.80409">
        <ele>37</ele>
        <time>2018-03-07T13:46:15Z</time>
      </trkpt>
      <trkpt lat="46.6757" lon="-1.80378">
        <ele>37</ele>
        <time>2018-03-07T13:47:15Z</time>
      </trkpt>
      <trkpt lat="46.6757" lon="-1.80352">
        <ele>37</ele>
        <time>2018-03-07T13:48:15Z</time>
      </trkpt>
      <trkpt lat="46.67569" lon="-1.80328">
        <ele>37</ele>
        <time>2018-03-07T13:49:15Z</time>
      </trkpt>
      <trkpt lat="46.67569" lon="-1.8031">
        <ele>37</ele>
        <time>2018-03-07T13:50:15Z</time>
      </trkpt>
      <trkpt lat="46.67566" lon="-1.80289">
        <ele>36</ele>
        <time>2018-03-07T13:51:15Z</time>
      </trkpt>
      <trkpt lat="46.67564" lon="-1.80267">
        <ele>36</ele>
        <time>2018-03-07T13:52:15Z</time>
      </trkpt>
      <trkpt lat="46.67559" lon="-1.80243">
        <ele>36</ele>
        <time>2018-03-07T13:53:15Z</time>
      </trkpt>
      <trkpt lat="46.67555" lon="-1.80217">
        <ele>36</ele>
        <time>2018-03-07T13:54:15Z</time>
      </trkpt>
      <trkpt lat="46.67551" lon="-1.80193">
        <ele>36</ele>
        <time>2018-03-07T13:55:15Z</time>
      </trkpt>
      <trkpt lat="46.67549" lon="-1.80168">
        <ele>37</ele>
        <time>2018-03-07T13:56:15Z</time>
      </trkpt>
      <trkpt lat="46.67548" lon="-1.8014">
        <ele>37</ele>
        <time>2018-03-07T13:57:15Z</time>
      </trkpt>
      <trkpt lat="46.67548" lon="-1.80112">
        <ele>38</ele>
        <time>2018-03-07T13:58:15Z</time>
      </trkpt>
      <trkpt lat="46.67549" lon="-1.80084">
        <ele>38</ele>
        <time>2018-03-07T13:59:15Z</time>
      </trkpt>
      <trkpt lat="46.6755" lon="-1.80059">
        <ele>38</ele>
        <time>2018-03-07T14:00:15Z</time>
      </trkpt>
      <trkpt lat="46.67553" lon="-1.80032">
        <ele>39</ele>
        <time>2018-03-07T14:01:15Z</time>
      </trkpt>
      <trkpt lat="46.67553" lon="-1.80026">
        <ele>39</ele>
        <time>2018-03-07T14:02:15Z</time>
      </trkpt>
      <trkpt lat="46.67556" lon="-1.79998">
        <ele>39</ele>
        <time>2018-03-07T14:03:15Z</time>
      </trkpt>
      <trkpt lat="46.67558" lon="-1.79986">
        <ele>39</ele>
        <time>2018-03-07T14:04:15Z</time>
      </trkpt>
      <trkpt lat="46.6756" lon="-1.79973">
        <ele>39</ele>
        <time>2018-03-07T14:05:15Z</time>
      </trkpt>
      <trkpt lat="46.67561" lon="-1.79961">
        <ele>40</ele>
        <time>2018-03-07T14:06:15Z</time>
      </trkpt>
      <trkpt lat="46.67568" lon="-1.79939">
        <ele>40</ele>
        <time>2018-03-07T14:07:15Z</time>
      </trkpt>
      <trkpt lat="46.67575" lon="-1.79917">
        <ele>41</ele>
        <time>2018-03-07T14:08:15Z</time>
      </trkpt>
      <trkpt lat="46.67579" lon="-1.79906">
        <ele>41</ele>
        <time>2018-03-07T14:09:15Z</time>
      </trkpt>
      <trkpt lat="46.67583" lon="-1.79895">
        <ele>41</ele>
        <time>2018-03-07T14:10:15Z</time>
      </trkpt>
      <trkpt lat="46.67589" lon="-1.79878">
        <ele>42</ele>
        <time>2018-03-07T14:11:15Z</time>
      </trkpt>
      <trkpt lat="46.67594" lon="-1.79861">
        <ele>42</ele>
        <time>2018-03-07T14:12:15Z</time>
      </trkpt>
      <trkpt lat="46.67597" lon="-1.79849">
        <ele>42</ele>
        <time>2018-03-07T14:13:15Z</time>
      </trkpt>
      <trkpt lat="46.67599" lon="-1.79837">
        <ele>42</ele>
        <time>2018-03-07T14:14:15Z</time>
      </trkpt>
      <trkpt lat="46.67601" lon="-1.79826">
        <ele>42</ele>
        <time>2018-03-07T14:15:15Z</time>
      </trkpt>
      <trkpt lat="46.67603" lon="-1.79809">
        <ele>42</ele>
        <time>2018-03-07T14:16:15Z</time>
      </trkpt>
      <trkpt lat="46.67604" lon="-1.79787">
        <ele>42</ele>
        <time>2018-03-07T14:17:15Z</time>
      </trkpt>
      <trkpt lat="46.67605" lon="-1.79761">
        <ele>41</ele>
        <time>2018-03-07T14:18:15Z</time>
      </trkpt>
      <trkpt lat="46.67607" lon="-1.79732">
        <ele>41</ele>
        <time>2018-03-07T14:19:15Z</time>
      </trkpt>
      <trkpt lat="46.6761" lon="-1.79707">
        <ele>41</ele>
        <time>2018-03-07T14:20:15Z</time>
      </trkpt>
      <trkpt lat="46.67613" lon="-1.79687">
        <ele>41</ele>
        <time>2018-03-07T14:21:15Z</time>
      </trkpt>
      <trkpt lat="46.6762" lon="-1.79658">
        <ele>40</ele>
        <time>2018-03-07T14:22:15Z</time>
      </trkpt>
      <trkpt lat="46.67625" lon="-1.79639">
        <ele>40</ele>
        <time>2018-03-07T14:23:15Z</time>
      </trkpt>
      <trkpt lat="46.6763" lon="-1.79615">
        <ele>40</ele>
        <time>2018-03-07T14:24:15Z</time>
      </trkpt>
      <trkpt lat="46.67633" lon="-1.79592">
        <ele>40</ele>
        <time>2018-03-07T14:25:15Z</time>
      </trkpt>
      <trkpt lat="46.67634" lon="-1.79568">
        <ele>40</ele>
        <time>2018-03-07T14:26:15Z</time>
      </trkpt>
      <trkpt lat="46.67634" lon="-1.79556">
        <ele>40</ele>
        <time>2018-03-07T14:27:15Z</time>
      </trkpt>
      <trkpt lat="46.67634" lon="-1.79544">
        <ele>40</ele>
        <time>2018-03-07T14:28:15Z</time>
      </trkpt>
      <trkpt lat="46.67631" lon="-1.79521">
        <ele>39</ele>
        <time>2018-03-07T14:29:15Z</time>
      </trkpt>
      <trkpt lat="46.67629" lon="-1.79509">
        <ele>39</ele>
        <time>2018-03-07T14:30:15Z</time>
      </trkpt>
      <trkpt lat="46.67627" lon="-1.79499">
        <ele>39</ele>
        <time>2018-03-07T14:31:15Z</time>
      </trkpt>
      <trkpt lat="46.67623" lon="-1.79488">
        <ele>40</ele>
        <time>2018-03-07T14:32:15Z</time>
      </trkpt>
      <trkpt lat="46.6762" lon="-1.79477">
        <ele>40</ele>
        <time>2018-03-07T14:33:15Z</time>
      </trkpt>
      <trkpt lat="46.67609" lon="-1.7945">
        <ele>40</ele>
        <time>2018-03-07T14:34:15Z</time>
      </trkpt>
      <trkpt lat="46.67599" lon="-1.79426">
        <ele>41</ele>
        <time>2018-03-07T14:35:15Z</time>
      </trkpt>
      <trkpt lat="46.67596" lon="-1.79417">
        <ele>41</ele>
        <time>2018-03-07T14:36:15Z</time>
      </trkpt>
      <trkpt lat="46.67593" lon="-1.79407">
        <ele>41</ele>
        <time>2018-03-07T14:37:15Z</time>
      </trkpt>
      <trkpt lat="46.6759" lon="-1.79398">
        <ele>41</ele>
        <time>2018-03-07T14:38:15Z</time>
      </trkpt>
      <trkpt lat="46.67586" lon="-1.79387">
        <ele>41</ele>
        <time>2018-03-07T14:39:15Z</time>
      </trkpt>
      <trkpt lat="46.67583" lon="-1.79372">
        <ele>42</ele>
        <time>2018-03-07T14:40:15Z</time>
      </trkpt>
      <trkpt lat="46.67581" lon="-1.79355">
        <ele>42</ele>
        <time>2018-03-07T14:41:15Z</time>
      </trkpt>
      <trkpt lat="46.6758" lon="-1.7934">
        <ele>42</ele>
        <time>2018-03-07T14:42:15Z</time>
      </trkpt>
      <trkpt lat="46.6758" lon="-1.79328">
        <ele>42</ele>
        <time>2018-03-07T14:43:15Z</time>
      </trkpt>
      <trkpt lat="46.67579" lon="-1.79279">
        <ele>43</ele>
        <time>2018-03-07T14:44:15Z</time>
      </trkpt>
      <trkpt lat="46.67578" lon="-1.79253">
        <ele>43</ele>
        <time>2018-03-07T14:45:15Z</time>
      </trkpt>
      <trkpt lat="46.67577" lon="-1.79214">
        <ele>43</ele>
        <time>2018-03-07T14:46:15Z</time>
      </trkpt>
      <trkpt lat="46.67576" lon="-1.79175">
        <ele>43</ele>
        <time>2018-03-07T14:47:15Z</time>
      </trkpt>
      <trkpt lat="46.67576" lon="-1.79159">
        <ele>43</ele>
        <time>2018-03-07T14:48:15Z</time>
      </trkpt>
      <trkpt lat="46.67576" lon="-1.79128">
        <ele>42</ele>
        <time>2018-03-07T14:49:15Z</time>
      </trkpt>
      <trkpt lat="46.67575" lon="-1.79106">
        <ele>42</ele>
        <time>2018-03-07T14:50:15Z</time>
      </trkpt>
      <trkpt lat="46.67572" lon="-1.79082">
        <ele>42</ele>
        <time>2018-03-07T14:51:15Z</time>
      </trkpt>
      <trkpt lat="46.67569" lon="-1.79056">
        <ele>41</ele>
        <time>2018-03-07T14:52:15Z</time>
      </trkpt>
      <trkpt lat="46.67565" lon="-1.79025">
        <ele>41</ele>
        <time>2018-03-07T14:53:15Z</time>
      </trkpt>
      <trkpt lat="46.67559" lon="-1.7899">
        <ele>40</ele>
        <time>2018-03-07T14:54:15Z</time>
      </trkpt>
      <trkpt lat="46.67556" lon="-1.78967">
        <ele>39</ele>
        <time>2018-03-07T14:55:15Z</time>
      </trkpt>
      <trkpt lat="46.67551" lon="-1.78936">
        <ele>37</ele>
        <time>2018-03-07T14:56:15Z</time>
      </trkpt>
      <trkpt lat="46.67545" lon="-1.78909">
        <ele>36</ele>
        <time>2018-03-07T14:57:15Z</time>
      </trkpt>
      <trkpt lat="46.6754" lon="-1.78889">
        <ele>36</ele>
        <time>2018-03-07T14:58:15Z</time>
      </trkpt>
      <trkpt lat="46.67532" lon="-1.7886">
        <ele>36</ele>
        <time>2018-03-07T14:59:15Z</time>
      </trkpt>
      <trkpt lat="46.67527" lon="-1.78838">
        <ele>36</ele>
        <time>2018-03-07T15:00:15Z</time>
      </trkpt>
      <trkpt lat="46.67523" lon="-1.78821">
        <ele>36</ele>
        <time>2018-03-07T15:01:15Z</time>
      </trkpt>
      <trkpt lat="46.67515" lon="-1.78791">
        <ele>36</ele>
        <time>2018-03-07T15:02:15Z</time>
      </trkpt>
      <trkpt lat="46.67513" lon="-1.78783">
        <ele>36</ele>
        <time>2018-03-07T15:03:15Z</time>
      </trkpt>
      <trkpt lat="46.67506" lon="-1.78755">
        <ele>36</ele>
        <time>2018-03-07T15:04:15Z</time>
      </trkpt>
      <trkpt lat="46.67499" lon="-1.78726">
        <ele>36</ele>
        <time>2018-03-07T15:05:15Z</time>
      </trkpt>
      <trkpt lat="46.67491" lon="-1.78695">
        <ele>36</ele>
        <time>2018-03-07T15:06:15Z</time>
      </trkpt>
      <trkpt lat="46.67481" lon="-1.78658">
        <ele>36</ele>
        <time>2018-03-07T15:07:15Z</time>
      </trkpt>
      <trkpt lat="46.67471" lon="-1.78619">
        <ele>35</ele>
        <time>2018-03-07T15:08:15Z</time>
      </trkpt>
      <trkpt lat="46.67465" lon="-1.78601">
        <ele>35</ele>
        <time>2018-03-07T15:09:15Z</time>
      </trkpt>
      <trkpt lat="46.67462" lon="-1.78591">
        <ele>35</ele>
        <time>2018-03-07T15:10:15Z</time>
      </trkpt>
      <trkpt lat="46.67457" lon="-1.78584">
        <ele>36</ele>
        <time>2018-03-07T15:11:15Z</time>
      </trkpt>
      <trkpt lat="46.67454" lon="-1.78576">
        <ele>36</ele>
        <time>2018-03-07T15:12:15Z</time>
      </trkpt>
      <trkpt lat="46.6745" lon="-1.7857">
        <ele>36</ele>
        <time>2018-03-07T15:13:15Z</time>
      </trkpt>
      <trkpt lat="46.67448" lon="-1.78566">
        <ele>36</ele>
        <time>2018-03-07T15:14:15Z</time>
      </trkpt>
      <trkpt lat="46.67445" lon="-1.78562">
        <ele>36</ele>
        <time>2018-03-07T15:15:15Z</time>
      </trkpt>
      <trkpt lat="46.67442" lon="-1.78559">
        <ele>36</ele>
        <time>2018-03-07T15:16:15Z</time>
      </trkpt>
      <trkpt lat="46.67435" lon="-1.78542">
        <ele>36</ele>
        <time>2018-03-07T15:17:15Z</time>
      </trkpt>
      <trkpt lat="46.67433" lon="-1.78533">
        <ele>36</ele>
        <time>2018-03-07T15:18:15Z</time>
      </trkpt>
      <trkpt lat="46.67431" lon="-1.78524">
        <ele>36</ele>
        <time>2018-03-07T15:19:15Z</time>
      </trkpt>
      <trkpt lat="46.67421" lon="-1.78499">
        <ele>36</ele>
        <time>2018-03-07T15:20:15Z</time>
      </trkpt>
      <trkpt lat="46.6741" lon="-1.78476">
        <ele>36</ele>
        <time>2018-03-07T15:21:15Z</time>
      </trkpt>
      <trkpt lat="46.67402" lon="-1.78457">
        <ele>37</ele>
        <time>2018-03-07T15:22:15Z</time>
      </trkpt>
      <trkpt lat="46.67389" lon="-1.78426">
        <ele>37</ele>
        <time>2018-03-07T15:23:15Z</time>
      </trkpt>
      <trkpt lat="46.67379" lon="-1.78401">
        <ele>37</ele>
        <time>2018-03-07T15:24:15Z</time>
      </trkpt>
      <trkpt lat="46.67373" lon="-1.78382">
        <ele>37</ele>
        <time>2018-03-07T15:25:15Z</time>
      </trkpt>
      <trkpt lat="46.67368" lon="-1.78363">
        <ele>37</ele>
        <time>2018-03-07T15:26:15Z</time>
      </trkpt>
      <trkpt lat="46.67362" lon="-1.78345">
        <ele>37</ele>
        <time>2018-03-07T15:27:15Z</time>
      </trkpt>
      <trkpt lat="46.67355" lon="-1.78325">
        <ele>37</ele>
        <time>2018-03-07T15:28:15Z</time>
      </trkpt>
      <trkpt lat="46.67351" lon="-1.78317">
        <ele>37</ele>
        <time>2018-03-07T15:29:15Z</time>
      </trkpt>
      <trkpt lat="46.67347" lon="-1.78309">
        <ele>37</ele>
        <time>2018-03-07T15:30:15Z</time>
      </trkpt>
      <trkpt lat="46.67341" lon="-1.78301">
        <ele>37</ele>
        <time>2018-03-07T15:31:15Z</time>
      </trkpt>
      <trkpt lat="46.67336" lon="-1.78294">
        <ele>37</ele>
        <time>2018-03-07T15:32:15Z</time>
      </trkpt>
      <trkpt lat="46.6733" lon="-1.78289">
        <ele>37</ele>
        <time>2018-03-07T15:33:15Z</time>
      </trkpt>
      <trkpt lat="46.67324" lon="-1.78284">
        <ele>37</ele>
        <time>2018-03-07T15:34:15Z</time>
      </trkpt>
      <trkpt lat="46.67315" lon="-1.78278">
        <ele>37</ele>
        <time>2018-03-07T15:35:15Z</time>
      </trkpt>
      <trkpt lat="46.67307" lon="-1.78274">
        <ele>37</ele>
        <time>2018-03-07T15:36:15Z</time>
      </trkpt>
      <trkpt lat="46.67273" lon="-1.78259">
        <ele>37</ele>
        <time>2018-03-07T15:37:15Z</time>
      </trkpt>
      <trkpt lat="46.67251" lon="-1.78249">
        <ele>37</ele>
        <time>2018-03-07T15:38:15Z</time>
      </trkpt>
      <trkpt lat="46.67221" lon="-1.78237">
        <ele>38</ele>
        <time>2018-03-07T15:39:15Z</time>
      </trkpt>
      <trkpt lat="46.67208" lon="-1.7823">
        <ele>38</ele>
        <time>2018-03-07T15:40:15Z</time>
      </trkpt>
      <trkpt lat="46.67201" lon="-1.78226">
        <ele>38</ele>
        <time>2018-03-07T15:41:15Z</time>
      </trkpt>
      <trkpt lat="46.67196" lon="-1.78221">
        <ele>39</ele>
        <time>2018-03-07T15:42:15Z</time>
      </trkpt>
      <trkpt lat="46.67186" lon="-1.78212">
        <ele>39</ele>
        <time>2018-03-07T15:43:15Z</time>
      </trkpt>
      <trkpt lat="46.67181" lon="-1.78202">
        <ele>39</ele>
        <time>2018-03-07T15:44:15Z</time>
      </trkpt>
      <trkpt lat="46.67176" lon="-1.78192">
        <ele>39</ele>
        <time>2018-03-07T15:45:15Z</time>
      </trkpt>
      <trkpt lat="46.67174" lon="-1.78185">
        <ele>40</ele>
        <time>2018-03-07T15:46:15Z</time>
      </trkpt>
      <trkpt lat="46.67172" lon="-1.78177">
        <ele>40</ele>
        <time>2018-03-07T15:47:15Z</time>
      </trkpt>
      <trkpt lat="46.67169" lon="-1.78158">
        <ele>40</ele>
        <time>2018-03-07T15:48:15Z</time>
      </trkpt>
      <trkpt lat="46.67165" lon="-1.78136">
        <ele>40</ele>
        <time>2018-03-07T15:49:15Z</time>
      </trkpt>
      <trkpt lat="46.67161" lon="-1.78106">
        <ele>41</ele>
        <time>2018-03-07T15:50:15Z</time>
      </trkpt>
      <trkpt lat="46.67158" lon="-1.78077">
        <ele>41</ele>
        <time>2018-03-07T15:51:15Z</time>
      </trkpt>
      <trkpt lat="46.67157" lon="-1.7806">
        <ele>41</ele>
        <time>2018-03-07T15:52:15Z</time>
      </trkpt>
      <trkpt lat="46.67155" lon="-1.78038">
        <ele>41</ele>
        <time>2018-03-07T15:53:15Z</time>
      </trkpt>
      <trkpt lat="46.67155" lon="-1.78015">
        <ele>41</ele>
        <time>2018-03-07T15:54:15Z</time>
      </trkpt>
      <trkpt lat="46.67154" lon="-1.77993">
        <ele>41</ele>
        <time>2018-03-07T15:55:15Z</time>
      </trkpt>
      <trkpt lat="46.67152" lon="-1.77971">
        <ele>42</ele>
        <time>2018-03-07T15:56:15Z</time>
      </trkpt>
      <trkpt lat="46.67147" lon="-1.77951">
        <ele>42</ele>
        <time>2018-03-07T15:57:15Z</time>
      </trkpt>
      <trkpt lat="46.6714" lon="-1.77931">
        <ele>42</ele>
        <time>2018-03-07T15:58:15Z</time>
      </trkpt>
      <trkpt lat="46.67132" lon="-1.77911">
        <ele>43</ele>
        <time>2018-03-07T15:59:15Z</time>
      </trkpt>
      <trkpt lat="46.67116" lon="-1.77878">
        <ele>43</ele>
        <time>2018-03-07T16:00:15Z</time>
      </trkpt>
      <trkpt lat="46.67095" lon="-1.77835">
        <ele>43</ele>
        <time>2018-03-07T16:01:15Z</time>
      </trkpt>
      <trkpt lat="46.67069" lon="-1.77781">
        <ele>44</ele>
        <time>2018-03-07T16:02:15Z</time>
      </trkpt>
      <trkpt lat="46.6706" lon="-1.77764">
        <ele>44</ele>
        <time>2018-03-07T16:03:15Z</time>
      </trkpt>
      <trkpt lat="46.67055" lon="-1.77752">
        <ele>44</ele>
        <time>2018-03-07T16:04:15Z</time>
      </trkpt>
      <trkpt lat="46.67054" lon="-1.7775">
        <ele>44</ele>
        <time>2018-03-07T16:05:15Z</time>
      </trkpt>
      <trkpt lat="46.67033" lon="-1.77706">
        <ele>45</ele>
        <time>2018-03-07T16:06:15Z</time>
      </trkpt>
      <trkpt lat="46.67016" lon="-1.77669">
        <ele>45</ele>
        <time>2018-03-07T16:07:15Z</time>
      </trkpt>
      <trkpt lat="46.66998" lon="-1.77631">
        <ele>45</ele>
        <time>2018-03-07T16:08:15Z</time>
      </trkpt>
      <trkpt lat="46.66984" lon="-1.77605">
        <ele>46</ele>
        <time>2018-03-07T16:09:15Z</time>
      </trkpt>
      <trkpt lat="46.66971" lon="-1.77577">
        <ele>46</ele>
        <time>2018-03-07T16:10:15Z</time>
      </trkpt>
      <trkpt lat="46.66962" lon="-1.77558">
        <ele>46</ele>
        <time>2018-03-07T16:11:15Z</time>
      </trkpt>
      <trkpt lat="46.6696" lon="-1.77551">
        <ele>46</ele>
        <time>2018-03-07T16:12:15Z</time>
      </trkpt>
      <trkpt lat="46.66959" lon="-1.77544">
        <ele>46</ele>
        <time>2018-03-07T16:13:15Z</time>
      </trkpt>
      <trkpt lat="46.66958" lon="-1.77537">
        <ele>47</ele>
        <time>2018-03-07T16:14:15Z</time>
      </trkpt>
      <trkpt lat="46.66957" lon="-1.77528">
        <ele>47</ele>
        <time>2018-03-07T16:15:15Z</time>
      </trkpt>
      <trkpt lat="46.66957" lon="-1.7752">
        <ele>47</ele>
        <time>2018-03-07T16:16:15Z</time>
      </trkpt>
      <trkpt lat="46.66957" lon="-1.77515">
        <ele>47</ele>
        <time>2018-03-07T16:17:15Z</time>
      </trkpt>
      <trkpt lat="46.66957" lon="-1.7751">
        <ele>47</ele>
        <time>2018-03-07T16:18:15Z</time>
      </trkpt>
      <trkpt lat="46.66958" lon="-1.77501">
        <ele>47</ele>
        <time>2018-03-07T16:19:15Z</time>
      </trkpt>
      <trkpt lat="46.6696" lon="-1.77493">
        <ele>47</ele>
        <time>2018-03-07T16:20:15Z</time>
      </trkpt>
      <trkpt lat="46.66962" lon="-1.77484">
        <ele>47</ele>
        <time>2018-03-07T16:21:15Z</time>
      </trkpt>
      <trkpt lat="46.66964" lon="-1.77476">
        <ele>47</ele>
        <time>2018-03-07T16:22:15Z</time>
      </trkpt>
      <trkpt lat="46.66967" lon="-1.77465">
        <ele>47</ele>
        <time>2018-03-07T16:23:15Z</time>
      </trkpt>
      <trkpt lat="46.66971" lon="-1.77451">
        <ele>47</ele>
        <time>2018-03-07T16:24:15Z</time>
      </trkpt>
      <trkpt lat="46.6698" lon="-1.77417">
        <ele>47</ele>
        <time>2018-03-07T16:25:15Z</time>
      </trkpt>
      <trkpt lat="46.66988" lon="-1.77391">
        <ele>47</ele>
        <time>2018-03-07T16:26:15Z</time>
      </trkpt>
      <trkpt lat="46.66994" lon="-1.77369">
        <ele>47</ele>
        <time>2018-03-07T16:27:15Z</time>
      </trkpt>
      <trkpt lat="46.67001" lon="-1.77341">
        <ele>48</ele>
        <time>2018-03-07T16:28:15Z</time>
      </trkpt>
      <trkpt lat="46.67005" lon="-1.77325">
        <ele>48</ele>
        <time>2018-03-07T16:29:15Z</time>
      </trkpt>
      <trkpt lat="46.67008" lon="-1.77312">
        <ele>48</ele>
        <time>2018-03-07T16:30:15Z</time>
      </trkpt>
      <trkpt lat="46.6701" lon="-1.77298">
        <ele>48</ele>
        <time>2018-03-07T16:31:15Z</time>
      </trkpt>
      <trkpt lat="46.67015" lon="-1.77269">
        <ele>49</ele>
        <time>2018-03-07T16:32:15Z</time>
      </trkpt>
      <trkpt lat="46.67021" lon="-1.77237">
        <ele>49</ele>
        <time>2018-03-07T16:33:15Z</time>
      </trkpt>
      <trkpt lat="46.6703" lon="-1.77186">
        <ele>49</ele>
        <time>2018-03-07T16:34:15Z</time>
      </trkpt>
      <trkpt lat="46.67038" lon="-1.77144">
        <ele>50</ele>
        <time>2018-03-07T16:35:15Z</time>
      </trkpt>
      <trkpt lat="46.67044" lon="-1.77105">
        <ele>50</ele>
        <time>2018-03-07T16:36:15Z</time>
      </trkpt>
      <trkpt lat="46.67048" lon="-1.77084">
        <ele>51</ele>
        <time>2018-03-07T16:37:15Z</time>
      </trkpt>
      <trkpt lat="46.6705" lon="-1.77071">
        <ele>51</ele>
        <time>2018-03-07T16:38:15Z</time>
      </trkpt>
      <trkpt lat="46.6705" lon="-1.77066">
        <ele>51</ele>
        <time>2018-03-07T16:39:15Z</time>
      </trkpt>
      <trkpt lat="46.67052" lon="-1.77057">
        <ele>51</ele>
        <time>2018-03-07T16:40:15Z</time>
      </trkpt>
      <trkpt lat="46.67053" lon="-1.77046">
        <ele>51</ele>
        <time>2018-03-07T16:41:15Z</time>
      </trkpt>
      <trkpt lat="46.67055" lon="-1.77029">
        <ele>51</ele>
        <time>2018-03-07T16:42:15Z</time>
      </trkpt>
      <trkpt lat="46.67061" lon="-1.7699">
        <ele>52</ele>
        <time>2018-03-07T16:43:15Z</time>
      </trkpt>
      <trkpt lat="46.67067" lon="-1.76944">
        <ele>52</ele>
        <time>2018-03-07T16:44:15Z</time>
      </trkpt>
      <trkpt lat="46.6707" lon="-1.76927">
        <ele>52</ele>
        <time>2018-03-07T16:45:15Z</time>
      </trkpt>
      <trkpt lat="46.67073" lon="-1.76914">
        <ele>52</ele>
        <time>2018-03-07T16:46:15Z</time>
      </trkpt>
      <trkpt lat="46.67075" lon="-1.76904">
        <ele>52</ele>
        <time>2018-03-07T16:47:15Z</time>
      </trkpt>
      <trkpt lat="46.67084" lon="-1.76857">
        <ele>52</ele>
        <time>2018-03-07T16:48:15Z</time>
      </trkpt>
      <trkpt lat="46.67095" lon="-1.76807">
        <ele>52</ele>
        <time>2018-03-07T16:49:15Z</time>
      </trkpt>
      <trkpt lat="46.67103" lon="-1.76772">
        <ele>52</ele>
        <time>2018-03-07T16:50:15Z</time>
      </trkpt>
      <trkpt lat="46.67104" lon="-1.76764">
        <ele>52</ele>
        <time>2018-03-07T16:51:15Z</time>
      </trkpt>
      <trkpt lat="46.67107" lon="-1.76753">
        <ele>52</ele>
        <time>2018-03-07T16:52:15Z</time>
      </trkpt>
      <trkpt lat="46.67108" lon="-1.76743">
        <ele>52</ele>
        <time>2018-03-07T16:53:15Z</time>
      </trkpt>
      <trkpt lat="46.67109" lon="-1.76734">
        <ele>52</ele>
        <time>2018-03-07T16:54:15Z</time>
      </trkpt>
      <trkpt lat="46.6711" lon="-1.76721">
        <ele>52</ele>
        <time>2018-03-07T16:55:15Z</time>
      </trkpt>
      <trkpt lat="46.67112" lon="-1.76704">
        <ele>52</ele>
        <time>2018-03-07T16:56:15Z</time>
      </trkpt>
      <trkpt lat="46.67114" lon="-1.76683">
        <ele>51</ele>
        <time>2018-03-07T16:57:15Z</time>
      </trkpt>
      <trkpt lat="46.67115" lon="-1.76663">
        <ele>51</ele>
        <time>2018-03-07T16:58:15Z</time>
      </trkpt>
      <trkpt lat="46.67117" lon="-1.7664">
        <ele>51</ele>
        <time>2018-03-07T16:59:15Z</time>
      </trkpt>
      <trkpt lat="46.67119" lon="-1.76618">
        <ele>51</ele>
        <time>2018-03-07T17:00:15Z</time>
      </trkpt>
      <trkpt lat="46.67121" lon="-1.76604">
        <ele>50</ele>
        <time>2018-03-07T17:01:15Z</time>
      </trkpt>
      <trkpt lat="46.67121" lon="-1.76598">
        <ele>50</ele>
        <time>2018-03-07T17:02:15Z</time>
      </trkpt>
      <trkpt lat="46.67123" lon="-1.76589">
        <ele>50</ele>
        <time>2018-03-07T17:03:15Z</time>
      </trkpt>
      <trkpt lat="46.67125" lon="-1.76581">
        <ele>50</ele>
        <time>2018-03-07T17:04:15Z</time>
      </trkpt>
      <trkpt lat="46.67126" lon="-1.76576">
        <ele>50</ele>
        <time>2018-03-07T17:05:15Z</time>
      </trkpt>
      <trkpt lat="46.6713" lon="-1.7656">
        <ele>50</ele>
        <time>2018-03-07T17:06:15Z</time>
      </trkpt>
      <trkpt lat="46.67133" lon="-1.76546">
        <ele>50</ele>
        <time>2018-03-07T17:07:15Z</time>
      </trkpt>
      <trkpt lat="46.6714" lon="-1.76523">
        <ele>50</ele>
        <time>2018-03-07T17:08:15Z</time>
      </trkpt>
      <trkpt lat="46.6715" lon="-1.76484">
        <ele>50</ele>
        <time>2018-03-07T17:09:15Z</time>
      </trkpt>
      <trkpt lat="46.67166" lon="-1.76425">
        <ele>50</ele>
        <time>2018-03-07T17:10:15Z</time>
      </trkpt>
      <trkpt lat="46.67171" lon="-1.76406">
        <ele>50</ele>
        <time>2018-03-07T17:11:15Z</time>
      </trkpt>
      <trkpt lat="46.67176" lon="-1.76389">
        <ele>51</ele>
        <time>2018-03-07T17:12:15Z</time>
      </trkpt>
      <trkpt lat="46.6718" lon="-1.7638">
        <ele>51</ele>
        <time>2018-03-07T17:13:15Z</time>
      </trkpt>
      <trkpt lat="46.67182" lon="-1.76374">
        <ele>51</ele>
        <time>2018-03-07T17:14:15Z</time>
      </trkpt>
      <trkpt lat="46.67184" lon="-1.76371">
        <ele>51</ele>
        <time>2018-03-07T17:15:15Z</time>
      </trkpt>
      <trkpt lat="46.67187" lon="-1.76364">
        <ele>51</ele>
        <time>2018-03-07T17:16:15Z</time>
      </trkpt>
      <trkpt lat="46.672" lon="-1.76338">
        <ele>51</ele>
        <time>2018-03-07T17:17:15Z</time>
      </trkpt>
      <trkpt lat="46.67207" lon="-1.76324">
        <ele>51</ele>
        <time>2018-03-07T17:18:15Z</time>
      </trkpt>
      <trkpt lat="46.67214" lon="-1.76309">
        <ele>51</ele>
        <time>2018-03-07T17:19:15Z</time>
      </trkpt>
      <trkpt lat="46.67226" lon="-1.76284">
        <ele>51</ele>
        <time>2018-03-07T17:20:15Z</time>
      </trkpt>
      <trkpt lat="46.67234" lon="-1.76268">
        <ele>51</ele>
        <time>2018-03-07T17:21:15Z</time>
      </trkpt>
      <trkpt lat="46.67244" lon="-1.76243">
        <ele>51</ele>
        <time>2018-03-07T17:22:15Z</time>
      </trkpt>
      <trkpt lat="46.67249" lon="-1.76231">
        <ele>51</ele>
        <time>2018-03-07T17:23:15Z</time>
      </trkpt>
      <trkpt lat="46.67255" lon="-1.76217">
        <ele>51</ele>
        <time>2018-03-07T17:24:15Z</time>
      </trkpt>
      <trkpt lat="46.67262" lon="-1.76199">
        <ele>52</ele>
        <time>2018-03-07T17:25:15Z</time>
      </trkpt>
      <trkpt lat="46.67267" lon="-1.76183">
        <ele>52</ele>
        <time>2018-03-07T17:26:15Z</time>
      </trkpt>
      <trkpt lat="46.67269" lon="-1.76175">
        <ele>52</ele>
        <time>2018-03-07T17:27:15Z</time>
      </trkpt>
      <trkpt lat="46.6727" lon="-1.76168">
        <ele>52</ele>
        <time>2018-03-07T17:28:15Z</time>
      </trkpt>
      <trkpt lat="46.67272" lon="-1.76156">
        <ele>52</ele>
        <time>2018-03-07T17:29:15Z</time>
      </trkpt>
      <trkpt lat="46.67274" lon="-1.76138">
        <ele>52</ele>
        <time>2018-03-07T17:30:15Z</time>
      </trkpt>
      <trkpt lat="46.67277" lon="-1.76114">
        <ele>52</ele>
        <time>2018-03-07T17:31:15Z</time>
      </trkpt>
      <trkpt lat="46.67281" lon="-1.7608">
        <ele>52</ele>
        <time>2018-03-07T17:32:15Z</time>
      </trkpt>
      <trkpt lat="46.67285" lon="-1.76045">
        <ele>52</ele>
        <time>2018-03-07T17:33:15Z</time>
      </trkpt>
      <trkpt lat="46.67289" lon="-1.76008">
        <ele>52</ele>
        <time>2018-03-07T17:34:15Z</time>
      </trkpt>
      <trkpt lat="46.67292" lon="-1.75975">
        <ele>52</ele>
        <time>2018-03-07T17:35:15Z</time>
      </trkpt>
      <trkpt lat="46.67295" lon="-1.75945">
        <ele>52</ele>
        <time>2018-03-07T17:36:15Z</time>
      </trkpt>
      <trkpt lat="46.67298" lon="-1.75924">
        <ele>52</ele>
        <time>2018-03-07T17:37:15Z</time>
      </trkpt>
      <trkpt lat="46.67296" lon="-1.75918">
        <ele>52</ele>
        <time>2018-03-07T17:38:15Z</time>
      </trkpt>
      <trkpt lat="46.67297" lon="-1.75892">
        <ele>52</ele>
        <time>2018-03-07T17:39:15Z</time>
      </trkpt>
      <trkpt lat="46.67296" lon="-1.75877">
        <ele>52</ele>
        <time>2018-03-07T17:40:15Z</time>
      </trkpt>
      <trkpt lat="46.67296" lon="-1.75873">
        <ele>52</ele>
        <time>2018-03-07T17:41:15Z</time>
      </trkpt>
      <trkpt lat="46.67296" lon="-1.75864">
        <ele>52</ele>
        <time>2018-03-07T17:42:15Z</time>
      </trkpt>
      <trkpt lat="46.67296" lon="-1.75854">
        <ele>52</ele>
        <time>2018-03-07T17:43:15Z</time>
      </trkpt>
      <trkpt lat="46.67296" lon="-1.75839">
        <ele>52</ele>
        <time>2018-03-07T17:44:15Z</time>
      </trkpt>
      <trkpt lat="46.67296" lon="-1.75835">
        <ele>52</ele>
        <time>2018-03-07T17:45:15Z</time>
      </trkpt>
      <trkpt lat="46.67292" lon="-1.75796">
        <ele>52</ele>
        <time>2018-03-07T17:46:15Z</time>
      </trkpt>
      <trkpt lat="46.67293" lon="-1.75779">
        <ele>52</ele>
        <time>2018-03-07T17:47:15Z</time>
      </trkpt>
      <trkpt lat="46.6729" lon="-1.75767">
        <ele>52</ele>
        <time>2018-03-07T17:48:15Z</time>
      </trkpt>
      <trkpt lat="46.67288" lon="-1.75759">
        <ele>52</ele>
        <time>2018-03-07T17:49:15Z</time>
      </trkpt>
      <trkpt lat="46.67286" lon="-1.75751">
        <ele>52</ele>
        <time>2018-03-07T17:50:15Z</time>
      </trkpt>
      <trkpt lat="46.67285" lon="-1.75745">
        <ele>52</ele>
        <time>2018-03-07T17:51:15Z</time>
      </trkpt>
      <trkpt lat="46.67283" lon="-1.75731">
        <ele>52</ele>
        <time>2018-03-07T17:52:15Z</time>
      </trkpt>
      <trkpt lat="46.67278" lon="-1.75703">
        <ele>51</ele>
        <time>2018-03-07T17:53:15Z</time>
      </trkpt>
      <trkpt lat="46.67273" lon="-1.75664">
        <ele>51</ele>
        <time>2018-03-07T17:54:15Z</time>
      </trkpt>
      <trkpt lat="46.67268" lon="-1.7563">
        <ele>51</ele>
        <time>2018-03-07T17:55:15Z</time>
      </trkpt>
      <trkpt lat="46.67265" lon="-1.75607">
        <ele>50</ele>
        <time>2018-03-07T17:56:15Z</time>
      </trkpt>
      <trkpt lat="46.67262" lon="-1.75584">
        <ele>50</ele>
        <time>2018-03-07T17:57:15Z</time>
      </trkpt>
      <trkpt lat="46.67258" lon="-1.75551">
        <ele>51</ele>
        <time>2018-03-07T17:58:15Z</time>
      </trkpt>
      <trkpt lat="46.67253" lon="-1.75521">
        <ele>51</ele>
        <time>2018-03-07T17:59:15Z</time>
      </trkpt>
      <trkpt lat="46.6725" lon="-1.75503">
        <ele>51</ele>
        <time>2018-03-07T18:00:15Z</time>
      </trkpt>
      <trkpt lat="46.67246" lon="-1.75487">
        <ele>51</ele>
        <time>2018-03-07T18:01:15Z</time>
      </trkpt>
      <trkpt lat="46.67244" lon="-1.75477">
        <ele>51</ele>
        <time>2018-03-07T18:02:15Z</time>
      </trkpt>
      <trkpt lat="46.67241" lon="-1.75466">
        <ele>51</ele>
        <time>2018-03-07T18:03:15Z</time>
      </trkpt>
      <trkpt lat="46.67235" lon="-1.75442">
        <ele>51</ele>
        <time>2018-03-07T18:04:15Z</time>
      </trkpt>
      <trkpt lat="46.67227" lon="-1.75411">
        <ele>51</ele>
        <time>2018-03-07T18:05:15Z</time>
      </trkpt>
      <trkpt lat="46.67226" lon="-1.75404">
        <ele>51</ele>
        <time>2018-03-07T18:06:15Z</time>
      </trkpt>
      <trkpt lat="46.67225" lon="-1.75397">
        <ele>51</ele>
        <time>2018-03-07T18:07:15Z</time>
      </trkpt>
      <trkpt lat="46.67224" lon="-1.75388">
        <ele>52</ele>
        <time>2018-03-07T18:08:15Z</time>
      </trkpt>
      <trkpt lat="46.67224" lon="-1.75382">
        <ele>52</ele>
        <time>2018-03-07T18:09:15Z</time>
      </trkpt>
      <trkpt lat="46.67223" lon="-1.75374">
        <ele>52</ele>
        <time>2018-03-07T18:10:15Z</time>
      </trkpt>
      <trkpt lat="46.67223" lon="-1.75364">
        <ele>52</ele>
        <time>2018-03-07T18:11:15Z</time>
      </trkpt>
      <trkpt lat="46.67224" lon="-1.75333">
        <ele>53</ele>
        <time>2018-03-07T18:12:15Z</time>
      </trkpt>
      <trkpt lat="46.67224" lon="-1.75307">
        <ele>54</ele>
        <time>2018-03-07T18:13:15Z</time>
      </trkpt>
      <trkpt lat="46.67225" lon="-1.75255">
        <ele>55</ele>
        <time>2018-03-07T18:14:15Z</time>
      </trkpt>
      <trkpt lat="46.67226" lon="-1.75212">
        <ele>54</ele>
        <time>2018-03-07T18:15:15Z</time>
      </trkpt>
      <trkpt lat="46.67226" lon="-1.75207">
        <ele>54</ele>
        <time>2018-03-07T18:16:15Z</time>
      </trkpt>
      <trkpt lat="46.67226" lon="-1.75202">
        <ele>54</ele>
        <time>2018-03-07T18:17:15Z</time>
      </trkpt>
      <trkpt lat="46.67227" lon="-1.75197">
        <ele>54</ele>
        <time>2018-03-07T18:18:15Z</time>
      </trkpt>
      <trkpt lat="46.67228" lon="-1.75191">
        <ele>54</ele>
        <time>2018-03-07T18:19:15Z</time>
      </trkpt>
      <trkpt lat="46.67229" lon="-1.75188">
        <ele>54</ele>
        <time>2018-03-07T18:20:15Z</time>
      </trkpt>
      <trkpt lat="46.67231" lon="-1.75183">
        <ele>54</ele>
        <time>2018-03-07T18:21:15Z</time>
      </trkpt>
      <trkpt lat="46.67233" lon="-1.75177">
        <ele>54</ele>
        <time>2018-03-07T18:22:15Z</time>
      </trkpt>
      <trkpt lat="46.67237" lon="-1.75172">
        <ele>54</ele>
        <time>2018-03-07T18:23:15Z</time>
      </trkpt>
      <trkpt lat="46.67244" lon="-1.75162">
        <ele>54</ele>
        <time>2018-03-07T18:24:15Z</time>
      </trkpt>
      <trkpt lat="46.67246" lon="-1.75157">
        <ele>54</ele>
        <time>2018-03-07T18:25:15Z</time>
      </trkpt>
      <trkpt lat="46.67253" lon="-1.75145">
        <ele>54</ele>
        <time>2018-03-07T18:26:15Z</time>
      </trkpt>
      <trkpt lat="46.67264" lon="-1.7513">
        <ele>54</ele>
        <time>2018-03-07T18:27:15Z</time>
      </trkpt>
      <trkpt lat="46.67282" lon="-1.75101">
        <ele>54</ele>
        <time>2018-03-07T18:28:15Z</time>
      </trkpt>
      <trkpt lat="46.67286" lon="-1.75095">
        <ele>54</ele>
        <time>2018-03-07T18:29:15Z</time>
      </trkpt>
      <trkpt lat="46.67293" lon="-1.75087">
        <ele>55</ele>
        <time>2018-03-07T18:30:15Z</time>
      </trkpt>
      <trkpt lat="46.67296" lon="-1.75081">
        <ele>55</ele>
        <time>2018-03-07T18:31:15Z</time>
      </trkpt>
      <trkpt lat="46.67299" lon="-1.75077">
        <ele>55</ele>
        <time>2018-03-07T18:32:15Z</time>
      </trkpt>
      <trkpt lat="46.673" lon="-1.75074">
        <ele>55</ele>
        <time>2018-03-07T18:33:15Z</time>
      </trkpt>
      <trkpt lat="46.67302" lon="-1.7507">
        <ele>55</ele>
        <time>2018-03-07T18:34:15Z</time>
      </trkpt>
      <trkpt lat="46.67305" lon="-1.75064">
        <ele>55</ele>
        <time>2018-03-07T18:35:15Z</time>
      </trkpt>
      <trkpt lat="46.67307" lon="-1.75056">
        <ele>55</ele>
        <time>2018-03-07T18:36:15Z</time>
      </trkpt>
      <trkpt lat="46.67312" lon="-1.75037">
        <ele>55</ele>
        <time>2018-03-07T18:37:15Z</time>
      </trkpt>
      <trkpt lat="46.67315" lon="-1.75025">
        <ele>55</ele>
        <time>2018-03-07T18:38:15Z</time>
      </trkpt>
      <trkpt lat="46.67317" lon="-1.75017">
        <ele>55</ele>
        <time>2018-03-07T18:39:15Z</time>
      </trkpt>
      <trkpt lat="46.67318" lon="-1.75011">
        <ele>56</ele>
        <time>2018-03-07T18:40:15Z</time>
      </trkpt>
      <trkpt lat="46.6732" lon="-1.75006">
        <ele>56</ele>
        <time>2018-03-07T18:41:15Z</time>
      </trkpt>
      <trkpt lat="46.67323" lon="-1.74998">
        <ele>56</ele>
        <time>2018-03-07T18:42:15Z</time>
      </trkpt>
      <trkpt lat="46.67329" lon="-1.74984">
        <ele>56</ele>
        <time>2018-03-07T18:43:15Z</time>
      </trkpt>
      <trkpt lat="46.6733" lon="-1.74979">
        <ele>56</ele>
        <time>2018-03-07T18:44:15Z</time>
      </trkpt>
      <trkpt lat="46.67331" lon="-1.74975">
        <ele>56</ele>
        <time>2018-03-07T18:45:15Z</time>
      </trkpt>
      <trkpt lat="46.67333" lon="-1.74969">
        <ele>56</ele>
        <time>2018-03-07T18:46:15Z</time>
      </trkpt>
      <trkpt lat="46.67334" lon="-1.74964">
        <ele>56</ele>
        <time>2018-03-07T18:47:15Z</time>
      </trkpt>
      <trkpt lat="46.67336" lon="-1.74959">
        <ele>56</ele>
        <time>2018-03-07T18:48:15Z</time>
      </trkpt>
      <trkpt lat="46.67337" lon="-1.74956">
        <ele>56</ele>
        <time>2018-03-07T18:49:15Z</time>
      </trkpt>
      <trkpt lat="46.67338" lon="-1.74952">
        <ele>56</ele>
        <time>2018-03-07T18:50:15Z</time>
      </trkpt>
      <trkpt lat="46.6734" lon="-1.74943">
        <ele>56</ele>
        <time>2018-03-07T18:51:15Z</time>
      </trkpt>
      <trkpt lat="46.67344" lon="-1.74923">
        <ele>56</ele>
        <time>2018-03-07T18:52:15Z</time>
      </trkpt>
      <trkpt lat="46.67349" lon="-1.74904">
        <ele>56</ele>
        <time>2018-03-07T18:53:15Z</time>
      </trkpt>
      <trkpt lat="46.67351" lon="-1.74898">
        <ele>56</ele>
        <time>2018-03-07T18:54:15Z</time>
      </trkpt>
      <trkpt lat="46.67353" lon="-1.7489">
        <ele>56</ele>
        <time>2018-03-07T18:55:15Z</time>
      </trkpt>
      <trkpt lat="46.67354" lon="-1.74887">
        <ele>56</ele>
        <time>2018-03-07T18:56:15Z</time>
      </trkpt>
      <trkpt lat="46.67356" lon="-1.74883">
        <ele>56</ele>
        <time>2018-03-07T18:57:15Z</time>
      </trkpt>
      <trkpt lat="46.67358" lon="-1.74879">
        <ele>56</ele>
        <time>2018-03-07T18:58:15Z</time>
      </trkpt>
      <trkpt lat="46.67367" lon="-1.7486">
        <ele>56</ele>
        <time>2018-03-07T18:59:15Z</time>
      </trkpt>
      <trkpt lat="46.6738" lon="-1.74835">
        <ele>56</ele>
        <time>2018-03-07T19:00:15Z</time>
      </trkpt>
      <trkpt lat="46.67402" lon="-1.74791">
        <ele>56</ele>
        <time>2018-03-07T19:01:15Z</time>
      </trkpt>
      <trkpt lat="46.67414" lon="-1.74767">
        <ele>57</ele>
        <time>2018-03-07T19:02:15Z</time>
      </trkpt>
      <trkpt lat="46.67419" lon="-1.74759">
        <ele>57</ele>
        <time>2018-03-07T19:03:15Z</time>
      </trkpt>
      <trkpt lat="46.67434" lon="-1.74731">
        <ele>57</ele>
        <time>2018-03-07T19:04:15Z</time>
      </trkpt>
      <trkpt lat="46.67453" lon="-1.74697">
        <ele>58</ele>
        <time>2018-03-07T19:05:15Z</time>
      </trkpt>
      <trkpt lat="46.6746" lon="-1.74685">
        <ele>58</ele>
        <time>2018-03-07T19:06:15Z</time>
      </trkpt>
      <trkpt lat="46.67464" lon="-1.74677">
        <ele>58</ele>
        <time>2018-03-07T19:07:15Z</time>
      </trkpt>
      <trkpt lat="46.6747" lon="-1.74665">
        <ele>58</ele>
        <time>2018-03-07T19:08:15Z</time>
      </trkpt>
      <trkpt lat="46.67472" lon="-1.74661">
        <ele>58</ele>
        <time>2018-03-07T19:09:15Z</time>
      </trkpt>
      <trkpt lat="46.67479" lon="-1.74645">
        <ele>58</ele>
        <time>2018-03-07T19:10:15Z</time>
      </trkpt>
      <trkpt lat="46.67483" lon="-1.74636">
        <ele>58</ele>
        <time>2018-03-07T19:11:15Z</time>
      </trkpt>
      <trkpt lat="46.67486" lon="-1.7463">
        <ele>58</ele>
        <time>2018-03-07T19:12:15Z</time>
      </trkpt>
      <trkpt lat="46.6749" lon="-1.7462">
        <ele>58</ele>
        <time>2018-03-07T19:13:15Z</time>
      </trkpt>
      <trkpt lat="46.67493" lon="-1.74612">
        <ele>58</ele>
        <time>2018-03-07T19:14:15Z</time>
      </trkpt>
      <trkpt lat="46.67496" lon="-1.74603">
        <ele>58</ele>
        <time>2018-03-07T19:15:15Z</time>
      </trkpt>
      <trkpt lat="46.675" lon="-1.74593">
        <ele>58</ele>
        <time>2018-03-07T19:16:15Z</time>
      </trkpt>
      <trkpt lat="46.67502" lon="-1.74587">
        <ele>58</ele>
        <time>2018-03-07T19:17:15Z</time>
      </trkpt>
      <trkpt lat="46.67504" lon="-1.74584">
        <ele>58</ele>
        <time>2018-03-07T19:18:15Z</time>
      </trkpt>
      <trkpt lat="46.67505" lon="-1.7458">
        <ele>58</ele>
        <time>2018-03-07T19:19:15Z</time>
      </trkpt>
      <trkpt lat="46.67508" lon="-1.74569">
        <ele>57</ele>
        <time>2018-03-07T19:20:15Z</time>
      </trkpt>
      <trkpt lat="46.67513" lon="-1.74555">
        <ele>57</ele>
        <time>2018-03-07T19:21:15Z</time>
      </trkpt>
      <trkpt lat="46.67517" lon="-1.74543">
        <ele>57</ele>
        <time>2018-03-07T19:22:15Z</time>
      </trkpt>
      <trkpt lat="46.6752" lon="-1.74532">
        <ele>56</ele>
        <time>2018-03-07T19:23:15Z</time>
      </trkpt>
      <trkpt lat="46.67523" lon="-1.7452">
        <ele>56</ele>
        <time>2018-03-07T19:24:15Z</time>
      </trkpt>
      <trkpt lat="46.67528" lon="-1.74505">
        <ele>56</ele>
        <time>2018-03-07T19:25:15Z</time>
      </trkpt>
      <trkpt lat="46.67532" lon="-1.74489">
        <ele>56</ele>
        <time>2018-03-07T19:26:15Z</time>
      </trkpt>
      <trkpt lat="46.67533" lon="-1.74483">
        <ele>56</ele>
        <time>2018-03-07T19:27:15Z</time>
      </trkpt>
      <trkpt lat="46.67535" lon="-1.74478">
        <ele>56</ele>
        <time>2018-03-07T19:28:15Z</time>
      </trkpt>
      <trkpt lat="46.67536" lon="-1.74472">
        <ele>56</ele>
        <time>2018-03-07T19:29:15Z</time>
      </trkpt>
      <trkpt lat="46.67537" lon="-1.74466">
        <ele>56</ele>
        <time>2018-03-07T19:30:15Z</time>
      </trkpt>
      <trkpt lat="46.67539" lon="-1.7445">
        <ele>56</ele>
        <time>2018-03-07T19:31:15Z</time>
      </trkpt>
      <trkpt lat="46.67541" lon="-1.7444">
        <ele>56</ele>
        <time>2018-03-07T19:32:15Z</time>
      </trkpt>
      <trkpt lat="46.67546" lon="-1.74405">
        <ele>56</ele>
        <time>2018-03-07T19:33:15Z</time>
      </trkpt>
      <trkpt lat="46.67548" lon="-1.7439">
        <ele>56</ele>
        <time>2018-03-07T19:34:15Z</time>
      </trkpt>
      <trkpt lat="46.6755" lon="-1.74375">
        <ele>56</ele>
        <time>2018-03-07T19:35:15Z</time>
      </trkpt>
      <trkpt lat="46.6755" lon="-1.74368">
        <ele>56</ele>
        <time>2018-03-07T19:36:15Z</time>
      </trkpt>
      <trkpt lat="46.67551" lon="-1.74362">
        <ele>56</ele>
        <time>2018-03-07T19:37:15Z</time>
      </trkpt>
      <trkpt lat="46.67551" lon="-1.74355">
        <ele>56</ele>
        <time>2018-03-07T19:38:15Z</time>
      </trkpt>
      <trkpt lat="46.67551" lon="-1.74348">
        <ele>55</ele>
        <time>2018-03-07T19:39:15Z</time>
      </trkpt>
      <trkpt lat="46.67551" lon="-1.74341">
        <ele>55</ele>
        <time>2018-03-07T19:40:15Z</time>
      </trkpt>
      <trkpt lat="46.67551" lon="-1.74311">
        <ele>55</ele>
        <time>2018-03-07T19:41:15Z</time>
      </trkpt>
      <trkpt lat="46.6755" lon="-1.74269">
        <ele>56</ele>
        <time>2018-03-07T19:42:15Z</time>
      </trkpt>
      <trkpt lat="46.6755" lon="-1.74219">
        <ele>56</ele>
        <time>2018-03-07T19:43:15Z</time>
      </trkpt>
      <trkpt lat="46.6755" lon="-1.74196">
        <ele>56</ele>
        <time>2018-03-07T19:44:15Z</time>
      </trkpt>
      <trkpt lat="46.67551" lon="-1.74185">
        <ele>55</ele>
        <time>2018-03-07T19:45:15Z</time>
      </trkpt>
      <trkpt lat="46.67551" lon="-1.74173">
        <ele>55</ele>
        <time>2018-03-07T19:46:15Z</time>
      </trkpt>
      <trkpt lat="46.67553" lon="-1.74134">
        <ele>56</ele>
        <time>2018-03-07T19:47:15Z</time>
      </trkpt>
      <trkpt lat="46.67554" lon="-1.74112">
        <ele>56</ele>
        <time>2018-03-07T19:48:15Z</time>
      </trkpt>
      <trkpt lat="46.67556" lon="-1.74086">
        <ele>56</ele>
        <time>2018-03-07T19:49:15Z</time>
      </trkpt>
      <trkpt lat="46.67558" lon="-1.7407">
        <ele>56</ele>
        <time>2018-03-07T19:50:15Z</time>
      </trkpt>
      <trkpt lat="46.67559" lon="-1.74058">
        <ele>56</ele>
        <time>2018-03-07T19:51:15Z</time>
      </trkpt>
      <trkpt lat="46.67561" lon="-1.74041">
        <ele>56</ele>
        <time>2018-03-07T19:52:15Z</time>
      </trkpt>
      <trkpt lat="46.67562" lon="-1.7403">
        <ele>56</ele>
        <time>2018-03-07T19:53:15Z</time>
      </trkpt>
      <trkpt lat="46.67564" lon="-1.7402">
        <ele>56</ele>
        <time>2018-03-07T19:54:15Z</time>
      </trkpt>
      <trkpt lat="46.67565" lon="-1.74013">
        <ele>56</ele>
        <time>2018-03-07T19:55:15Z</time>
      </trkpt>
      <trkpt lat="46.67567" lon="-1.74002">
        <ele>56</ele>
        <time>2018-03-07T19:56:15Z</time>
      </trkpt>
      <trkpt lat="46.6757" lon="-1.73991">
        <ele>56</ele>
        <time>2018-03-07T19:57:15Z</time>
      </trkpt>
      <trkpt lat="46.67573" lon="-1.73977">
        <ele>56</ele>
        <time>2018-03-07T19:58:15Z</time>
      </trkpt>
      <trkpt lat="46.67584" lon="-1.73933">
        <ele>57</ele>
        <time>2018-03-07T19:59:15Z</time>
      </trkpt>
      <trkpt lat="46.67588" lon="-1.73917">
        <ele>57</ele>
        <time>2018-03-07T20:00:15Z</time>
      </trkpt>
      <trkpt lat="46.676" lon="-1.7387">
        <ele>57</ele>
        <time>2018-03-07T20:01:15Z</time>
      </trkpt>
      <trkpt lat="46.67616" lon="-1.73811">
        <ele>57</ele>
        <time>2018-03-07T20:02:15Z</time>
      </trkpt>
      <trkpt lat="46.67626" lon="-1.73772">
        <ele>56</ele>
        <time>2018-03-07T20:03:15Z</time>
      </trkpt>
      <trkpt lat="46.67628" lon="-1.73767">
        <ele>56</ele>
        <time>2018-03-07T20:04:15Z</time>
      </trkpt>
      <trkpt lat="46.6763" lon="-1.7376">
        <ele>56</ele>
        <time>2018-03-07T20:05:15Z</time>
      </trkpt>
      <trkpt lat="46.67635" lon="-1.73748">
        <ele>56</ele>
        <time>2018-03-07T20:06:15Z</time>
      </trkpt>
      <trkpt lat="46.67638" lon="-1.73739">
        <ele>56</ele>
        <time>2018-03-07T20:07:15Z</time>
      </trkpt>
      <trkpt lat="46.67641" lon="-1.73732">
        <ele>56</ele>
        <time>2018-03-07T20:08:15Z</time>
      </trkpt>
      <trkpt lat="46.67646" lon="-1.73722">
        <ele>55</ele>
        <time>2018-03-07T20:09:15Z</time>
      </trkpt>
      <trkpt lat="46.67649" lon="-1.73715">
        <ele>55</ele>
        <time>2018-03-07T20:10:15Z</time>
      </trkpt>
      <trkpt lat="46.67654" lon="-1.73705">
        <ele>55</ele>
        <time>2018-03-07T20:11:15Z</time>
      </trkpt>
      <trkpt lat="46.67673" lon="-1.7367">
        <ele>55</ele>
        <time>2018-03-07T20:12:15Z</time>
      </trkpt>
      <trkpt lat="46.67688" lon="-1.73647">
        <ele>55</ele>
        <time>2018-03-07T20:13:15Z</time>
      </trkpt>
      <trkpt lat="46.67702" lon="-1.73625">
        <ele>56</ele>
        <time>2018-03-07T20:14:15Z</time>
      </trkpt>
      <trkpt lat="46.67717" lon="-1.73602">
        <ele>56</ele>
        <time>2018-03-07T20:15:15Z</time>
      </trkpt>
      <trkpt lat="46.67736" lon="-1.73571">
        <ele>56</ele>
        <time>2018-03-07T20:16:15Z</time>
      </trkpt>
      <trkpt lat="46.6776" lon="-1.73529">
        <ele>57</ele>
        <time>2018-03-07T20:17:15Z</time>
      </trkpt>
      <trkpt lat="46.6778" lon="-1.73487">
        <ele>57</ele>
        <time>2018-03-07T20:18:15Z</time>
      </trkpt>
      <trkpt lat="46.67788" lon="-1.73472">
        <ele>56</ele>
        <time>2018-03-07T20:19:15Z</time>
      </trkpt>
      <trkpt lat="46.67794" lon="-1.7346">
        <ele>56</ele>
        <time>2018-03-07T20:20:15Z</time>
      </trkpt>
      <trkpt lat="46.67807" lon="-1.73435">
        <ele>55</ele>
        <time>2018-03-07T20:21:15Z</time>
      </trkpt>
      <trkpt lat="46.67828" lon="-1.734">
        <ele>55</ele>
        <time>2018-03-07T20:22:15Z</time>
      </trkpt>
      <trkpt lat="46.67858" lon="-1.7336">
        <ele>54</ele>
        <time>2018-03-07T20:23:15Z</time>
      </trkpt>
      <trkpt lat="46.67883" lon="-1.73328">
        <ele>54</ele>
        <time>2018-03-07T20:24:15Z</time>
      </trkpt>
      <trkpt lat="46.67895" lon="-1.73314">
        <ele>54</ele>
        <time>2018-03-07T20:25:15Z</time>
      </trkpt>
      <trkpt lat="46.67918" lon="-1.73284">
        <ele>55</ele>
        <time>2018-03-07T20:26:15Z</time>
      </trkpt>
      <trkpt lat="46.67943" lon="-1.73253">
        <ele>55</ele>
        <time>2018-03-07T20:27:15Z</time>
      </trkpt>
      <trkpt lat="46.67973" lon="-1.73214">
        <ele>56</ele>
        <time>2018-03-07T20:28:15Z</time>
      </trkpt>
      <trkpt lat="46.6799" lon="-1.7319">
        <ele>56</ele>
        <time>2018-03-07T20:29:15Z</time>
      </trkpt>
      <trkpt lat="46.68017" lon="-1.73152">
        <ele>57</ele>
        <time>2018-03-07T20:30:15Z</time>
      </trkpt>
      <trkpt lat="46.6804" lon="-1.73107">
        <ele>57</ele>
        <time>2018-03-07T20:31:15Z</time>
      </trkpt>
      <trkpt lat="46.68052" lon="-1.73087">
        <ele>57</ele>
        <time>2018-03-07T20:32:15Z</time>
      </trkpt>
      <trkpt lat="46.68058" lon="-1.73071">
        <ele>57</ele>
        <time>2018-03-07T20:33:15Z</time>
      </trkpt>
      <trkpt lat="46.68075" lon="-1.73037">
        <ele>57</ele>
        <time>2018-03-07T20:34:15Z</time>
      </trkpt>
      <trkpt lat="46.68099" lon="-1.72985">
        <ele>57</ele>
        <time>2018-03-07T20:35:15Z</time>
      </trkpt>
      <trkpt lat="46.68124" lon="-1.72932">
        <ele>57</ele>
        <time>2018-03-07T20:36:15Z</time>
      </trkpt>
      <trkpt lat="46.68155" lon="-1.72862">
        <ele>57</ele>
        <time>2018-03-07T20:37:15Z</time>
      </trkpt>
      <trkpt lat="46.68164" lon="-1.72843">
        <ele>57</ele>
        <time>2018-03-07T20:38:15Z</time>
      </trkpt>
      <trkpt lat="46.68183" lon="-1.72801">
        <ele>56</ele>
        <time>2018-03-07T20:39:15Z</time>
      </trkpt>
      <trkpt lat="46.68205" lon="-1.72753">
        <ele>56</ele>
        <time>2018-03-07T20:40:15Z</time>
      </trkpt>
      <trkpt lat="46.68228" lon="-1.72705">
        <ele>56</ele>
        <time>2018-03-07T20:41:15Z</time>
      </trkpt>
      <trkpt lat="46.68252" lon="-1.72655">
        <ele>56</ele>
        <time>2018-03-07T20:42:15Z</time>
      </trkpt>
      <trkpt lat="46.68263" lon="-1.72627">
        <ele>56</ele>
        <time>2018-03-07T20:43:15Z</time>
      </trkpt>
      <trkpt lat="46.68266" lon="-1.72621">
        <ele>56</ele>
        <time>2018-03-07T20:44:15Z</time>
      </trkpt>
      <trkpt lat="46.68269" lon="-1.7261">
        <ele>56</ele>
        <time>2018-03-07T20:45:15Z</time>
      </trkpt>
      <trkpt lat="46.68278" lon="-1.72575">
        <ele>57</ele>
        <time>2018-03-07T20:46:15Z</time>
      </trkpt>
      <trkpt lat="46.68278" lon="-1.72575">
        <ele>57</ele>
        <time>2018-03-07T20:47:15Z</time>
      </trkpt>
      <trkpt lat="46.68268" lon="-1.72563">
        <ele>56</ele>
        <time>2018-03-07T20:48:15Z</time>
      </trkpt>
      <trkpt lat="46.68236" lon="-1.72517">
        <ele>56</ele>
        <time>2018-03-07T20:49:15Z</time>
      </trkpt>
      <trkpt lat="46.68214" lon="-1.72483">
        <ele>55</ele>
        <time>2018-03-07T20:50:15Z</time>
      </trkpt>
      <trkpt lat="46.68188" lon="-1.72444">
        <ele>54</ele>
        <time>2018-03-07T20:51:15Z</time>
      </trkpt>
      <trkpt lat="46.68168" lon="-1.72413">
        <ele>54</ele>
        <time>2018-03-07T20:52:15Z</time>
      </trkpt>
      <trkpt lat="46.68159" lon="-1.72389">
        <ele>53</ele>
        <time>2018-03-07T20:53:15Z</time>
      </trkpt>
      <trkpt lat="46.68158" lon="-1.72384">
        <ele>53</ele>
        <time>2018-03-07T20:54:15Z</time>
      </trkpt>
      <trkpt lat="46.68158" lon="-1.72367">
        <ele>53</ele>
        <time>2018-03-07T20:55:15Z</time>
      </trkpt>
      <trkpt lat="46.68164" lon="-1.72334">
        <ele>52</ele>
        <time>2018-03-07T20:56:15Z</time>
      </trkpt>
      <trkpt lat="46.68165" lon="-1.72324">
        <ele>52</ele>
        <time>2018-03-07T20:57:15Z</time>
      </trkpt>
      <trkpt lat="46.68172" lon="-1.72282">
        <ele>52</ele>
        <time>2018-03-07T20:58:15Z</time>
      </trkpt>
      <trkpt lat="46.6818" lon="-1.7223">
        <ele>52</ele>
        <time>2018-03-07T20:59:15Z</time>
      </trkpt>
      <trkpt lat="46.68184" lon="-1.72208">
        <ele>53</ele>
        <time>2018-03-07T21:00:15Z</time>
      </trkpt>
      <trkpt lat="46.68193" lon="-1.72148">
        <ele>53</ele>
        <time>2018-03-07T21:01:15Z</time>
      </trkpt>
      <trkpt lat="46.68196" lon="-1.72131">
        <ele>53</ele>
        <time>2018-03-07T21:02:15Z</time>
      </trkpt>
      <trkpt lat="46.68206" lon="-1.72075">
        <ele>54</ele>
        <time>2018-03-07T21:03:15Z</time>
      </trkpt>
      <trkpt lat="46.68214" lon="-1.7203">
        <ele>54</ele>
        <time>2018-03-07T21:04:15Z</time>
      </trkpt>
      <trkpt lat="46.68218" lon="-1.72009">
        <ele>54</ele>
        <time>2018-03-07T21:05:15Z</time>
      </trkpt>
      <trkpt lat="46.68225" lon="-1.71977">
        <ele>54</ele>
        <time>2018-03-07T21:06:15Z</time>
      </trkpt>
      <trkpt lat="46.68225" lon="-1.71977">
        <ele>54</ele>
        <time>2018-03-07T21:07:15Z</time>
      </trkpt>
      <trkpt lat="46.6823" lon="-1.71961">
        <ele>54</ele>
        <time>2018-03-07T21:08:15Z</time>
      </trkpt>
      <trkpt lat="46.68232" lon="-1.71954">
        <ele>54</ele>
        <time>2018-03-07T21:09:15Z</time>
      </trkpt>
      <trkpt lat="46.68238" lon="-1.71947">
        <ele>54</ele>
        <time>2018-03-07T21:10:15Z</time>
      </trkpt>
      <trkpt lat="46.6825" lon="-1.71931">
        <ele>54</ele>
        <time>2018-03-07T21:11:15Z</time>
      </trkpt>
      <trkpt lat="46.68255" lon="-1.71923">
        <ele>54</ele>
        <time>2018-03-07T21:12:15Z</time>
      </trkpt>
      <trkpt lat="46.68256" lon="-1.7192">
        <ele>54</ele>
        <time>2018-03-07T21:13:15Z</time>
      </trkpt>
      <trkpt lat="46.68257" lon="-1.71918">
        <ele>54</ele>
        <time>2018-03-07T21:14:15Z</time>
      </trkpt>
      <trkpt lat="46.68261" lon="-1.71902">
        <ele>54</ele>
        <time>2018-03-07T21:15:15Z</time>
      </trkpt>
      <trkpt lat="46.68264" lon="-1.71881">
        <ele>53</ele>
        <time>2018-03-07T21:16:15Z</time>
      </trkpt>
      <trkpt lat="46.68271" lon="-1.7184">
        <ele>51</ele>
        <time>2018-03-07T21:17:15Z</time>
      </trkpt>
      <trkpt lat="46.68279" lon="-1.71789">
        <ele>50</ele>
        <time>2018-03-07T21:18:15Z</time>
      </trkpt>
      <trkpt lat="46.68286" lon="-1.71739">
        <ele>49</ele>
        <time>2018-03-07T21:19:15Z</time>
      </trkpt>
      <trkpt lat="46.68294" lon="-1.71693">
        <ele>50</ele>
        <time>2018-03-07T21:20:15Z</time>
      </trkpt>
      <trkpt lat="46.68303" lon="-1.71634">
        <ele>49</ele>
        <time>2018-03-07T21:21:15Z</time>
      </trkpt>
      <trkpt lat="46.68311" lon="-1.71582">
        <ele>49</ele>
        <time>2018-03-07T21:22:15Z</time>
      </trkpt>
      <trkpt lat="46.68318" lon="-1.71539">
        <ele>50</ele>
        <time>2018-03-07T21:23:15Z</time>
      </trkpt>
      <trkpt lat="46.68323" lon="-1.71507">
        <ele>50</ele>
        <time>2018-03-07T21:24:15Z</time>
      </trkpt>
      <trkpt lat="46.68329" lon="-1.71466">
        <ele>51</ele>
        <time>2018-03-07T21:25:15Z</time>
      </trkpt>
      <trkpt lat="46.68337" lon="-1.71414">
        <ele>51</ele>
        <time>2018-03-07T21:26:15Z</time>
      </trkpt>
      <trkpt lat="46.68343" lon="-1.71375">
        <ele>51</ele>
        <time>2018-03-07T21:27:15Z</time>
      </trkpt>
      <trkpt lat="46.68351" lon="-1.71325">
        <ele>52</ele>
        <time>2018-03-07T21:28:15Z</time>
      </trkpt>
      <trkpt lat="46.68358" lon="-1.71278">
        <ele>53</ele>
        <time>2018-03-07T21:29:15Z</time>
      </trkpt>
      <trkpt lat="46.68365" lon="-1.71235">
        <ele>53</ele>
        <time>2018-03-07T21:30:15Z</time>
      </trkpt>
      <trkpt lat="46.68367" lon="-1.71208">
        <ele>54</ele>
        <time>2018-03-07T21:31:15Z</time>
      </trkpt>
      <trkpt lat="46.6837" lon="-1.71179">
        <ele>54</ele>
        <time>2018-03-07T21:32:15Z</time>
      </trkpt>
      <trkpt lat="46.68372" lon="-1.71141">
        <ele>54</ele>
        <time>2018-03-07T21:33:15Z</time>
      </trkpt>
      <trkpt lat="46.68374" lon="-1.71103">
        <ele>54</ele>
        <time>2018-03-07T21:34:15Z</time>
      </trkpt>
      <trkpt lat="46.68377" lon="-1.71036">
        <ele>54</ele>
        <time>2018-03-07T21:35:15Z</time>
      </trkpt>
      <trkpt lat="46.68379" lon="-1.71001">
        <ele>53</ele>
        <time>2018-03-07T21:36:15Z</time>
      </trkpt>
      <trkpt lat="46.6838" lon="-1.70975">
        <ele>53</ele>
        <time>2018-03-07T21:37:15Z</time>
      </trkpt>
      <trkpt lat="46.68381" lon="-1.70947">
        <ele>52</ele>
        <time>2018-03-07T21:38:15Z</time>
      </trkpt>
      <trkpt lat="46.6838" lon="-1.70922">
        <ele>52</ele>
        <time>2018-03-07T21:39:15Z</time>
      </trkpt>
      <trkpt lat="46.68379" lon="-1.70903">
        <ele>52</ele>
        <time>2018-03-07T21:40:15Z</time>
      </trkpt>
      <trkpt lat="46.68375" lon="-1.70873">
        <ele>51</ele>
        <time>2018-03-07T21:41:15Z</time>
      </trkpt>
      <trkpt lat="46.68368" lon="-1.70831">
        <ele>50</ele>
        <time>2018-03-07T21:42:15Z</time>
      </trkpt>
      <trkpt lat="46.68356" lon="-1.70784">
        <ele>50</ele>
        <time>2018-03-07T21:43:15Z</time>
      </trkpt>
      <trkpt lat="46.68339" lon="-1.70714">
        <ele>48</ele>
        <time>2018-03-07T21:44:15Z</time>
      </trkpt>
      <trkpt lat="46.68317" lon="-1.70631">
        <ele>47</ele>
        <time>2018-03-07T21:45:15Z</time>
      </trkpt>
      <trkpt lat="46.68299" lon="-1.70552">
        <ele>46</ele>
        <time>2018-03-07T21:46:15Z</time>
      </trkpt>
      <trkpt lat="46.68284" lon="-1.70491">
        <ele>45</ele>
        <time>2018-03-07T21:47:15Z</time>
      </trkpt>
      <trkpt lat="46.68271" lon="-1.70435">
        <ele>45</ele>
        <time>2018-03-07T21:48:15Z</time>
      </trkpt>
      <trkpt lat="46.68263" lon="-1.70381">
        <ele>43</ele>
        <time>2018-03-07T21:49:15Z</time>
      </trkpt>
      <trkpt lat="46.68259" lon="-1.70337">
        <ele>42</ele>
        <time>2018-03-07T21:50:15Z</time>
      </trkpt>
      <trkpt lat="46.68258" lon="-1.70316">
        <ele>41</ele>
        <time>2018-03-07T21:51:15Z</time>
      </trkpt>
      <trkpt lat="46.68258" lon="-1.70271">
        <ele>40</ele>
        <time>2018-03-07T21:52:15Z</time>
      </trkpt>
      <trkpt lat="46.68257" lon="-1.70221">
        <ele>38</ele>
        <time>2018-03-07T21:53:15Z</time>
      </trkpt>
      <trkpt lat="46.68257" lon="-1.70169">
        <ele>37</ele>
        <time>2018-03-07T21:54:15Z</time>
      </trkpt>
      <trkpt lat="46.68255" lon="-1.70143">
        <ele>36</ele>
        <time>2018-03-07T21:55:15Z</time>
      </trkpt>
      <trkpt lat="46.6825" lon="-1.70114">
        <ele>36</ele>
        <time>2018-03-07T21:56:15Z</time>
      </trkpt>
      <trkpt lat="46.68244" lon="-1.70092">
        <ele>35</ele>
        <time>2018-03-07T21:57:15Z</time>
      </trkpt>
      <trkpt lat="46.68238" lon="-1.70077">
        <ele>35</ele>
        <time>2018-03-07T21:58:15Z</time>
      </trkpt>
      <trkpt lat="46.68231" lon="-1.70062">
        <ele>35</ele>
        <time>2018-03-07T21:59:15Z</time>
      </trkpt>
      <trkpt lat="46.68215" lon="-1.70038">
        <ele>36</ele>
        <time>2018-03-07T22:00:15Z</time>
      </trkpt>
      <trkpt lat="46.68194" lon="-1.70014">
        <ele>37</ele>
        <time>2018-03-07T22:01:15Z</time>
      </trkpt>
      <trkpt lat="46.68177" lon="-1.69992">
        <ele>37</ele>
        <time>2018-03-07T22:02:15Z</time>
      </trkpt>
      <trkpt lat="46.68163" lon="-1.69978">
        <ele>38</ele>
        <time>2018-03-07T22:03:15Z</time>
      </trkpt>
      <trkpt lat="46.68148" lon="-1.69959">
        <ele>37</ele>
        <time>2018-03-07T22:04:15Z</time>
      </trkpt>
      <trkpt lat="46.68136" lon="-1.69944">
        <ele>36</ele>
        <time>2018-03-07T22:05:15Z</time>
      </trkpt>
      <trkpt lat="46.68128" lon="-1.69931">
        <ele>35</ele>
        <time>2018-03-07T22:06:15Z</time>
      </trkpt>
      <trkpt lat="46.68121" lon="-1.69918">
        <ele>35</ele>
        <time>2018-03-07T22:07:15Z</time>
      </trkpt>
      <trkpt lat="46.6811" lon="-1.69893">
        <ele>34</ele>
        <time>2018-03-07T22:08:15Z</time>
      </trkpt>
      <trkpt lat="46.681" lon="-1.69864">
        <ele>34</ele>
        <time>2018-03-07T22:09:15Z</time>
      </trkpt>
      <trkpt lat="46.68096" lon="-1.69846">
        <ele>34</ele>
        <time>2018-03-07T22:10:15Z</time>
      </trkpt>
      <trkpt lat="46.68071" lon="-1.69728">
        <ele>29</ele>
        <time>2018-03-07T22:11:15Z</time>
      </trkpt>
      <trkpt lat="46.68064" lon="-1.69679">
        <ele>27</ele>
        <time>2018-03-07T22:12:15Z</time>
      </trkpt>
      <trkpt lat="46.68058" lon="-1.69624">
        <ele>25</ele>
        <time>2018-03-07T22:13:15Z</time>
      </trkpt>
      <trkpt lat="46.68055" lon="-1.69572">
        <ele>24</ele>
        <time>2018-03-07T22:14:15Z</time>
      </trkpt>
      <trkpt lat="46.68054" lon="-1.69532">
        <ele>24</ele>
        <time>2018-03-07T22:15:15Z</time>
      </trkpt>
      <trkpt lat="46.68053" lon="-1.69491">
        <ele>24</ele>
        <time>2018-03-07T22:16:15Z</time>
      </trkpt>
      <trkpt lat="46.68051" lon="-1.69451">
        <ele>24</ele>
        <time>2018-03-07T22:17:15Z</time>
      </trkpt>
      <trkpt lat="46.6805" lon="-1.69409">
        <ele>24</ele>
        <time>2018-03-07T22:18:15Z</time>
      </trkpt>
      <trkpt lat="46.68048" lon="-1.69369">
        <ele>25</ele>
        <time>2018-03-07T22:19:15Z</time>
      </trkpt>
      <trkpt lat="46.68047" lon="-1.69326">
        <ele>26</ele>
        <time>2018-03-07T22:20:15Z</time>
      </trkpt>
      <trkpt lat="46.68047" lon="-1.69306">
        <ele>26</ele>
        <time>2018-03-07T22:21:15Z</time>
      </trkpt>
      <trkpt lat="46.68046" lon="-1.69285">
        <ele>26</ele>
        <time>2018-03-07T22:22:15Z</time>
      </trkpt>
      <trkpt lat="46.68044" lon="-1.69245">
        <ele>26</ele>
        <time>2018-03-07T22:23:15Z</time>
      </trkpt>
      <trkpt lat="46.68043" lon="-1.69141">
        <ele>25</ele>
        <time>2018-03-07T22:24:15Z</time>
      </trkpt>
      <trkpt lat="46.68044" lon="-1.69117">
        <ele>26</ele>
        <time>2018-03-07T22:25:15Z</time>
      </trkpt>
      <trkpt lat="46.68046" lon="-1.69093">
        <ele>26</ele>
        <time>2018-03-07T22:26:15Z</time>
      </trkpt>
      <trkpt lat="46.68054" lon="-1.69036">
        <ele>27</ele>
        <time>2018-03-07T22:27:15Z</time>
      </trkpt>
      <trkpt lat="46.68056" lon="-1.69016">
        <ele>27</ele>
        <time>2018-03-07T22:28:15Z</time>
      </trkpt>
      <trkpt lat="46.68058" lon="-1.68992">
        <ele>27</ele>
        <time>2018-03-07T22:29:15Z</time>
      </trkpt>
      <trkpt lat="46.68061" lon="-1.68962">
        <ele>27</ele>
        <time>2018-03-07T22:30:15Z</time>
      </trkpt>
      <trkpt lat="46.68064" lon="-1.68919">
        <ele>27</ele>
        <time>2018-03-07T22:31:15Z</time>
      </trkpt>
      <trkpt lat="46.68066" lon="-1.68888">
        <ele>26</ele>
        <time>2018-03-07T22:32:15Z</time>
      </trkpt>
      <trkpt lat="46.68066" lon="-1.6887">
        <ele>26</ele>
        <time>2018-03-07T22:33:15Z</time>
      </trkpt>
      <trkpt lat="46.68064" lon="-1.6885">
        <ele>25</ele>
        <time>2018-03-07T22:34:15Z</time>
      </trkpt>
      <trkpt lat="46.68062" lon="-1.68838">
        <ele>25</ele>
        <time>2018-03-07T22:35:15Z</time>
      </trkpt>
      <trkpt lat="46.68058" lon="-1.68823">
        <ele>24</ele>
        <time>2018-03-07T22:36:15Z</time>
      </trkpt>
      <trkpt lat="46.68052" lon="-1.68809">
        <ele>23</ele>
        <time>2018-03-07T22:37:15Z</time>
      </trkpt>
      <trkpt lat="46.68046" lon="-1.68801">
        <ele>23</ele>
        <time>2018-03-07T22:38:15Z</time>
      </trkpt>
      <trkpt lat="46.68042" lon="-1.68796">
        <ele>23</ele>
        <time>2018-03-07T22:39:15Z</time>
      </trkpt>
      <trkpt lat="46.68036" lon="-1.68789">
        <ele>22</ele>
        <time>2018-03-07T22:40:15Z</time>
      </trkpt>
      <trkpt lat="46.68028" lon="-1.68784">
        <ele>22</ele>
        <time>2018-03-07T22:41:15Z</time>
      </trkpt>
      <trkpt lat="46.68022" lon="-1.68779">
        <ele>22</ele>
        <time>2018-03-07T22:42:15Z</time>
      </trkpt>
      <trkpt lat="46.68014" lon="-1.68775">
        <ele>21</ele>
        <time>2018-03-07T22:43:15Z</time>
      </trkpt>
      <trkpt lat="46.68001" lon="-1.68769">
        <ele>21</ele>
        <time>2018-03-07T22:44:15Z</time>
      </trkpt>
      <trkpt lat="46.67982" lon="-1.6876">
        <ele>21</ele>
        <time>2018-03-07T22:45:15Z</time>
      </trkpt>
      <trkpt lat="46.67963" lon="-1.68751">
        <ele>22</ele>
        <time>2018-03-07T22:46:15Z</time>
      </trkpt>
      <trkpt lat="46.67957" lon="-1.68748">
        <ele>22</ele>
        <time>2018-03-07T22:47:15Z</time>
      </trkpt>
      <trkpt lat="46.6795" lon="-1.68744">
        <ele>22</ele>
        <time>2018-03-07T22:48:15Z</time>
      </trkpt>
      <trkpt lat="46.67943" lon="-1.68741">
        <ele>23</ele>
        <time>2018-03-07T22:49:15Z</time>
      </trkpt>
      <trkpt lat="46.67937" lon="-1.68738">
        <ele>23</ele>
        <time>2018-03-07T22:50:15Z</time>
      </trkpt>
      <trkpt lat="46.67931" lon="-1.68735">
        <ele>23</ele>
        <time>2018-03-07T22:51:15Z</time>
      </trkpt>
      <trkpt lat="46.67918" lon="-1.68729">
        <ele>23</ele>
        <time>2018-03-07T22:52:15Z</time>
      </trkpt>
      <trkpt lat="46.67899" lon="-1.68719">
        <ele>24</ele>
        <time>2018-03-07T22:53:15Z</time>
      </trkpt>
      <trkpt lat="46.67881" lon="-1.68709">
        <ele>24</ele>
        <time>2018-03-07T22:54:15Z</time>
      </trkpt>
      <trkpt lat="46.67864" lon="-1.687">
        <ele>25</ele>
        <time>2018-03-07T22:55:15Z</time>
      </trkpt>
      <trkpt lat="46.67848" lon="-1.68691">
        <ele>25</ele>
        <time>2018-03-07T22:56:15Z</time>
      </trkpt>
      <trkpt lat="46.67833" lon="-1.68682">
        <ele>25</ele>
        <time>2018-03-07T22:57:15Z</time>
      </trkpt>
      <trkpt lat="46.67827" lon="-1.68677">
        <ele>26</ele>
        <time>2018-03-07T22:58:15Z</time>
      </trkpt>
      <trkpt lat="46.6782" lon="-1.68671">
        <ele>26</ele>
        <time>2018-03-07T22:59:15Z</time>
      </trkpt>
      <trkpt lat="46.67814" lon="-1.68665">
        <ele>26</ele>
        <time>2018-03-07T23:00:15Z</time>
      </trkpt>
      <trkpt lat="46.67808" lon="-1.68657">
        <ele>26</ele>
        <time>2018-03-07T23:01:15Z</time>
      </trkpt>
      <trkpt lat="46.67802" lon="-1.68648">
        <ele>26</ele>
        <time>2018-03-07T23:02:15Z</time>
      </trkpt>
      <trkpt lat="46.67796" lon="-1.68635">
        <ele>26</ele>
        <time>2018-03-07T23:03:15Z</time>
      </trkpt>
      <trkpt lat="46.67794" lon="-1.6863">
        <ele>26</ele>
        <time>2018-03-07T23:04:15Z</time>
      </trkpt>
      <trkpt lat="46.67791" lon="-1.68624">
        <ele>26</ele>
        <time>2018-03-07T23:05:15Z</time>
      </trkpt>
      <trkpt lat="46.67787" lon="-1.68611">
        <ele>26</ele>
        <time>2018-03-07T23:06:15Z</time>
      </trkpt>
      <trkpt lat="46.67783" lon="-1.68599">
        <ele>26</ele>
        <time>2018-03-07T23:07:15Z</time>
      </trkpt>
      <trkpt lat="46.6778" lon="-1.68583">
        <ele>27</ele>
        <time>2018-03-07T23:08:15Z</time>
      </trkpt>
      <trkpt lat="46.67772" lon="-1.68539">
        <ele>26</ele>
        <time>2018-03-07T23:09:15Z</time>
      </trkpt>
      <trkpt lat="46.67766" lon="-1.685">
        <ele>26</ele>
        <time>2018-03-07T23:10:15Z</time>
      </trkpt>
      <trkpt lat="46.67765" lon="-1.68493">
        <ele>26</ele>
        <time>2018-03-07T23:11:15Z</time>
      </trkpt>
      <trkpt lat="46.67762" lon="-1.6848">
        <ele>25</ele>
        <time>2018-03-07T23:12:15Z</time>
      </trkpt>
      <trkpt lat="46.6776" lon="-1.68469">
        <ele>25</ele>
        <time>2018-03-07T23:13:15Z</time>
      </trkpt>
      <trkpt lat="46.6776" lon="-1.68466">
        <ele>25</ele>
        <time>2018-03-07T23:14:15Z</time>
      </trkpt>
      <trkpt lat="46.67756" lon="-1.68448">
        <ele>25</ele>
        <time>2018-03-07T23:15:15Z</time>
      </trkpt>
      <trkpt lat="46.67753" lon="-1.68427">
        <ele>25</ele>
        <time>2018-03-07T23:16:15Z</time>
      </trkpt>
      <trkpt lat="46.67749" lon="-1.68409">
        <ele>25</ele>
        <time>2018-03-07T23:17:15Z</time>
      </trkpt>
      <trkpt lat="46.67746" lon="-1.68391">
        <ele>25</ele>
        <time>2018-03-07T23:18:15Z</time>
      </trkpt>
      <trkpt lat="46.67742" lon="-1.68373">
        <ele>24</ele>
        <time>2018-03-07T23:19:15Z</time>
      </trkpt>
      <trkpt lat="46.67737" lon="-1.68347">
        <ele>24</ele>
        <time>2018-03-07T23:20:15Z</time>
      </trkpt>
      <trkpt lat="46.67733" lon="-1.68322">
        <ele>24</ele>
        <time>2018-03-07T23:21:15Z</time>
      </trkpt>
      <trkpt lat="46.67728" lon="-1.68296">
        <ele>24</ele>
        <time>2018-03-07T23:22:15Z</time>
      </trkpt>
      <trkpt lat="46.67724" lon="-1.68273">
        <ele>25</ele>
        <time>2018-03-07T23:23:15Z</time>
      </trkpt>
      <trkpt lat="46.6772" lon="-1.68252">
        <ele>25</ele>
        <time>2018-03-07T23:24:15Z</time>
      </trkpt>
      <trkpt lat="46.67717" lon="-1.6824">
        <ele>25</ele>
        <time>2018-03-07T23:25:15Z</time>
      </trkpt>
      <trkpt lat="46.67711" lon="-1.68208">
        <ele>26</ele>
        <time>2018-03-07T23:26:15Z</time>
      </trkpt>
      <trkpt lat="46.67707" lon="-1.68183">
        <ele>26</ele>
        <time>2018-03-07T23:27:15Z</time>
      </trkpt>
      <trkpt lat="46.67706" lon="-1.68176">
        <ele>27</ele>
        <time>2018-03-07T23:28:15Z</time>
      </trkpt>
      <trkpt lat="46.67706" lon="-1.68173">
        <ele>27</ele>
        <time>2018-03-07T23:29:15Z</time>
      </trkpt>
      <trkpt lat="46.67703" lon="-1.68151">
        <ele>27</ele>
        <time>2018-03-07T23:30:15Z</time>
      </trkpt>
      <trkpt lat="46.67701" lon="-1.68136">
        <ele>28</ele>
        <time>2018-03-07T23:31:15Z</time>
      </trkpt>
      <trkpt lat="46.677" lon="-1.68132">
        <ele>28</ele>
        <time>2018-03-07T23:32:15Z</time>
      </trkpt>
      <trkpt lat="46.67699" lon="-1.68128">
        <ele>28</ele>
        <time>2018-03-07T23:33:15Z</time>
      </trkpt>
      <trkpt lat="46.67697" lon="-1.68121">
        <ele>29</ele>
        <time>2018-03-07T23:34:15Z</time>
      </trkpt>
      <trkpt lat="46.67694" lon="-1.68112">
        <ele>29</ele>
        <time>2018-03-07T23:35:15Z</time>
      </trkpt>
      <trkpt lat="46.67691" lon="-1.68099">
        <ele>30</ele>
        <time>2018-03-07T23:36:15Z</time>
      </trkpt>
      <trkpt lat="46.67682" lon="-1.6806">
        <ele>31</ele>
        <time>2018-03-07T23:37:15Z</time>
      </trkpt>
      <trkpt lat="46.67673" lon="-1.68018">
        <ele>33</ele>
        <time>2018-03-07T23:38:15Z</time>
      </trkpt>
      <trkpt lat="46.67665" lon="-1.67984">
        <ele>33</ele>
        <time>2018-03-07T23:39:15Z</time>
      </trkpt>
      <trkpt lat="46.67656" lon="-1.67946">
        <ele>34</ele>
        <time>2018-03-07T23:40:15Z</time>
      </trkpt>
      <trkpt lat="46.6764" lon="-1.67875">
        <ele>36</ele>
        <time>2018-03-07T23:41:15Z</time>
      </trkpt>
      <trkpt lat="46.67636" lon="-1.67849">
        <ele>36</ele>
        <time>2018-03-07T23:42:15Z</time>
      </trkpt>
      <trkpt lat="46.67634" lon="-1.67839">
        <ele>36</ele>
        <time>2018-03-07T23:43:15Z</time>
      </trkpt>
      <trkpt lat="46.67634" lon="-1.67839">
        <ele>36</ele>
        <time>2018-03-07T23:44:15Z</time>
      </trkpt>
      <trkpt lat="46.67658" lon="-1.67827">
        <ele>35</ele>
        <time>2018-03-07T23:45:15Z</time>
      </trkpt>
      <trkpt lat="46.67673" lon="-1.67819">
        <ele>34</ele>
        <time>2018-03-07T23:46:15Z</time>
      </trkpt>
      <trkpt lat="46.6769" lon="-1.67816">
        <ele>33</ele>
        <time>2018-03-07T23:47:15Z</time>
      </trkpt>
      <trkpt lat="46.67707" lon="-1.67815">
        <ele>33</ele>
        <time>2018-03-07T23:48:15Z</time>
      </trkpt>
      <trkpt lat="46.67729" lon="-1.67816">
        <ele>32</ele>
        <time>2018-03-07T23:49:15Z</time>
      </trkpt>
      <trkpt lat="46.67754" lon="-1.67816">
        <ele>32</ele>
        <time>2018-03-07T23:50:15Z</time>
      </trkpt>
      <trkpt lat="46.67773" lon="-1.67815">
        <ele>32</ele>
        <time>2018-03-07T23:51:15Z</time>
      </trkpt>
      <trkpt lat="46.67778" lon="-1.67815">
        <ele>32</ele>
        <time>2018-03-07T23:52:15Z</time>
      </trkpt>
      <trkpt lat="46.67789" lon="-1.67812">
        <ele>32</ele>
        <time>2018-03-07T23:53:15Z</time>
      </trkpt>
      <trkpt lat="46.67807" lon="-1.67808">
        <ele>32</ele>
        <time>2018-03-07T23:54:15Z</time>
      </trkpt>
      <trkpt lat="46.67834" lon="-1.67801">
        <ele>32</ele>
        <time>2018-03-07T23:55:15Z</time>
      </trkpt>
      <trkpt lat="46.67846" lon="-1.67799">
        <ele>32</ele>
        <time>2018-03-07T23:56:15Z</time>
      </trkpt>
      <trkpt lat="46.67864" lon="-1.67797">
        <ele>31</ele>
        <time>2018-03-07T23:57:15Z</time>
      </trkpt>
      <trkpt lat="46.67876" lon="-1.67799">
        <ele>31</ele>
        <time>2018-03-07T23:58:15Z</time>
      </trkpt>
      <trkpt lat="46.67889" lon="-1.67801">
        <ele>31</ele>
        <time>2018-03-07T23:59:15Z</time>
      </trkpt>
      <trkpt lat="46.67907" lon="-1.67808">
        <ele>30</ele>
        <time>2018-03-08T00:00:15Z</time>
      </trkpt>
      <trkpt lat="46.67925" lon="-1.67815">
        <ele>30</ele>
        <time>2018-03-08T00:01:15Z</time>
      </trkpt>
      <trkpt lat="46.67943" lon="-1.67824">
        <ele>30</ele>
        <time>2018-03-08T00:02:15Z</time>
      </trkpt>
      <trkpt lat="46.67954" lon="-1.6783">
        <ele>30</ele>
        <time>2018-03-08T00:03:15Z</time>
      </trkpt>
      <trkpt lat="46.67959" lon="-1.67833">
        <ele>31</ele>
        <time>2018-03-08T00:04:15Z</time>
      </trkpt>
      <trkpt lat="46.67982" lon="-1.67844">
        <ele>31</ele>
        <time>2018-03-08T00:05:15Z</time>
      </trkpt>
      <trkpt lat="46.68012" lon="-1.67859">
        <ele>30</ele>
        <time>2018-03-08T00:06:15Z</time>
      </trkpt>
      <trkpt lat="46.68036" lon="-1.6787">
        <ele>29</ele>
        <time>2018-03-08T00:07:15Z</time>
      </trkpt>
      <trkpt lat="46.68062" lon="-1.67881">
        <ele>28</ele>
        <time>2018-03-08T00:08:15Z</time>
      </trkpt>
      <trkpt lat="46.6808" lon="-1.67885">
        <ele>27</ele>
        <time>2018-03-08T00:09:15Z</time>
      </trkpt>
      <trkpt lat="46.68097" lon="-1.67885">
        <ele>27</ele>
        <time>2018-03-08T00:10:15Z</time>
      </trkpt>
      <trkpt lat="46.68107" lon="-1.67883">
        <ele>26</ele>
        <time>2018-03-08T00:11:15Z</time>
      </trkpt>
      <trkpt lat="46.6811" lon="-1.67882">
        <ele>26</ele>
        <time>2018-03-08T00:12:15Z</time>
      </trkpt>
      <trkpt lat="46.68121" lon="-1.67872">
        <ele>26</ele>
        <time>2018-03-08T00:13:15Z</time>
      </trkpt>
      <trkpt lat="46.68123" lon="-1.67867">
        <ele>26</ele>
        <time>2018-03-08T00:14:15Z</time>
      </trkpt>
      <trkpt lat="46.68126" lon="-1.67861">
        <ele>26</ele>
        <time>2018-03-08T00:15:15Z</time>
      </trkpt>
      <trkpt lat="46.68129" lon="-1.67854">
        <ele>26</ele>
        <time>2018-03-08T00:16:15Z</time>
      </trkpt>
      <trkpt lat="46.6813" lon="-1.67846">
        <ele>25</ele>
        <time>2018-03-08T00:17:15Z</time>
      </trkpt>
      <trkpt lat="46.68132" lon="-1.67837">
        <ele>25</ele>
        <time>2018-03-08T00:18:15Z</time>
      </trkpt>
      <trkpt lat="46.68135" lon="-1.67818">
        <ele>25</ele>
        <time>2018-03-08T00:19:15Z</time>
      </trkpt>
      <trkpt lat="46.6814" lon="-1.67777">
        <ele>25</ele>
        <time>2018-03-08T00:20:15Z</time>
      </trkpt>
      <trkpt lat="46.68146" lon="-1.67733">
        <ele>25</ele>
        <time>2018-03-08T00:21:15Z</time>
      </trkpt>
      <trkpt lat="46.68152" lon="-1.67687">
        <ele>24</ele>
        <time>2018-03-08T00:22:15Z</time>
      </trkpt>
      <trkpt lat="46.68157" lon="-1.67644">
        <ele>25</ele>
        <time>2018-03-08T00:23:15Z</time>
      </trkpt>
      <trkpt lat="46.6816" lon="-1.67623">
        <ele>26</ele>
        <time>2018-03-08T00:24:15Z</time>
      </trkpt>
      <trkpt lat="46.68165" lon="-1.67591">
        <ele>27</ele>
        <time>2018-03-08T00:25:15Z</time>
      </trkpt>
      <trkpt lat="46.68168" lon="-1.67571">
        <ele>27</ele>
        <time>2018-03-08T00:26:15Z</time>
      </trkpt>
      <trkpt lat="46.68172" lon="-1.67539">
        <ele>29</ele>
        <time>2018-03-08T00:27:15Z</time>
      </trkpt>
      <trkpt lat="46.68176" lon="-1.67509">
        <ele>30</ele>
        <time>2018-03-08T00:28:15Z</time>
      </trkpt>
      <trkpt lat="46.68178" lon="-1.67489">
        <ele>31</ele>
        <time>2018-03-08T00:29:15Z</time>
      </trkpt>
      <trkpt lat="46.6818" lon="-1.6748">
        <ele>31</ele>
        <time>2018-03-08T00:30:15Z</time>
      </trkpt>
      <trkpt lat="46.68181" lon="-1.67469">
        <ele>32</ele>
        <time>2018-03-08T00:31:15Z</time>
      </trkpt>
      <trkpt lat="46.68184" lon="-1.67443">
        <ele>33</ele>
        <time>2018-03-08T00:32:15Z</time>
      </trkpt>
      <trkpt lat="46.68187" lon="-1.67433">
        <ele>33</ele>
        <time>2018-03-08T00:33:15Z</time>
      </trkpt>
      <trkpt lat="46.68189" lon="-1.67422">
        <ele>34</ele>
        <time>2018-03-08T00:34:15Z</time>
      </trkpt>
      <trkpt lat="46.68194" lon="-1.67405">
        <ele>34</ele>
        <time>2018-03-08T00:35:15Z</time>
      </trkpt>
      <trkpt lat="46.68196" lon="-1.67396">
        <ele>34</ele>
        <time>2018-03-08T00:36:15Z</time>
      </trkpt>
      <trkpt lat="46.682" lon="-1.67388">
        <ele>34</ele>
        <time>2018-03-08T00:37:15Z</time>
      </trkpt>
      <trkpt lat="46.68203" lon="-1.67379">
        <ele>34</ele>
        <time>2018-03-08T00:38:15Z</time>
      </trkpt>
      <trkpt lat="46.68207" lon="-1.67371">
        <ele>34</ele>
        <time>2018-03-08T00:39:15Z</time>
      </trkpt>
      <trkpt lat="46.68215" lon="-1.67355">
        <ele>35</ele>
        <time>2018-03-08T00:40:15Z</time>
      </trkpt>
      <trkpt lat="46.68233" lon="-1.67323">
        <ele>35</ele>
        <time>2018-03-08T00:41:15Z</time>
      </trkpt>
      <trkpt lat="46.68242" lon="-1.67308">
        <ele>35</ele>
        <time>2018-03-08T00:42:15Z</time>
      </trkpt>
      <trkpt lat="46.68251" lon="-1.67292">
        <ele>35</ele>
        <time>2018-03-08T00:43:15Z</time>
      </trkpt>
      <trkpt lat="46.68256" lon="-1.67284">
        <ele>35</ele>
        <time>2018-03-08T00:44:15Z</time>
      </trkpt>
      <trkpt lat="46.68265" lon="-1.67269">
        <ele>35</ele>
        <time>2018-03-08T00:45:15Z</time>
      </trkpt>
      <trkpt lat="46.68275" lon="-1.67253">
        <ele>35</ele>
        <time>2018-03-08T00:46:15Z</time>
      </trkpt>
      <trkpt lat="46.6829" lon="-1.67229">
        <ele>36</ele>
        <time>2018-03-08T00:47:15Z</time>
      </trkpt>
      <trkpt lat="46.68305" lon="-1.67205">
        <ele>36</ele>
        <time>2018-03-08T00:48:15Z</time>
      </trkpt>
      <trkpt lat="46.68314" lon="-1.67188">
        <ele>37</ele>
        <time>2018-03-08T00:49:15Z</time>
      </trkpt>
      <trkpt lat="46.68324" lon="-1.67172">
        <ele>37</ele>
        <time>2018-03-08T00:50:15Z</time>
      </trkpt>
      <trkpt lat="46.68339" lon="-1.67147">
        <ele>37</ele>
        <time>2018-03-08T00:51:15Z</time>
      </trkpt>
      <trkpt lat="46.68354" lon="-1.67122">
        <ele>36</ele>
        <time>2018-03-08T00:52:15Z</time>
      </trkpt>
      <trkpt lat="46.68373" lon="-1.67091">
        <ele>36</ele>
        <time>2018-03-08T00:53:15Z</time>
      </trkpt>
      <trkpt lat="46.68387" lon="-1.67066">
        <ele>35</ele>
        <time>2018-03-08T00:54:15Z</time>
      </trkpt>
      <trkpt lat="46.68406" lon="-1.67034">
        <ele>34</ele>
        <time>2018-03-08T00:55:15Z</time>
      </trkpt>
      <trkpt lat="46.68426" lon="-1.67002">
        <ele>33</ele>
        <time>2018-03-08T00:56:15Z</time>
      </trkpt>
      <trkpt lat="46.68442" lon="-1.66981">
        <ele>34</ele>
        <time>2018-03-08T00:57:15Z</time>
      </trkpt>
      <trkpt lat="46.68459" lon="-1.66965">
        <ele>34</ele>
        <time>2018-03-08T00:58:15Z</time>
      </trkpt>
      <trkpt lat="46.68471" lon="-1.66954">
        <ele>34</ele>
        <time>2018-03-08T00:59:15Z</time>
      </trkpt>
      <trkpt lat="46.68512" lon="-1.66921">
        <ele>36</ele>
        <time>2018-03-08T01:00:15Z</time>
      </trkpt>
      <trkpt lat="46.68538" lon="-1.66901">
        <ele>35</ele>
        <time>2018-03-08T01:01:15Z</time>
      </trkpt>
      <trkpt lat="46.68563" lon="-1.66881">
        <ele>35</ele>
        <time>2018-03-08T01:02:15Z</time>
      </trkpt>
      <trkpt lat="46.68577" lon="-1.66869">
        <ele>35</ele>
        <time>2018-03-08T01:03:15Z</time>
      </trkpt>
      <trkpt lat="46.68582" lon="-1.66862">
        <ele>35</ele>
        <time>2018-03-08T01:04:15Z</time>
      </trkpt>
      <trkpt lat="46.68584" lon="-1.66854">
        <ele>35</ele>
        <time>2018-03-08T01:05:15Z</time>
      </trkpt>
      <trkpt lat="46.68638" lon="-1.66814">
        <ele>35</ele>
        <time>2018-03-08T01:06:15Z</time>
      </trkpt>
      <trkpt lat="46.68655" lon="-1.66801">
        <ele>35</ele>
        <time>2018-03-08T01:07:15Z</time>
      </trkpt>
      <trkpt lat="46.6871" lon="-1.66756">
        <ele>35</ele>
        <time>2018-03-08T01:08:15Z</time>
      </trkpt>
      <trkpt lat="46.68781" lon="-1.66699">
        <ele>32</ele>
        <time>2018-03-08T01:09:15Z</time>
      </trkpt>
      <trkpt lat="46.68799" lon="-1.66684">
        <ele>31</ele>
        <time>2018-03-08T01:10:15Z</time>
      </trkpt>
      <trkpt lat="46.68854" lon="-1.66642">
        <ele>29</ele>
        <time>2018-03-08T01:11:15Z</time>
      </trkpt>
      <trkpt lat="46.68865" lon="-1.66633">
        <ele>28</ele>
        <time>2018-03-08T01:12:15Z</time>
      </trkpt>
      <trkpt lat="46.6887" lon="-1.66628">
        <ele>28</ele>
        <time>2018-03-08T01:13:15Z</time>
      </trkpt>
      <trkpt lat="46.68873" lon="-1.66626">
        <ele>28</ele>
        <time>2018-03-08T01:14:15Z</time>
      </trkpt>
      <trkpt lat="46.68881" lon="-1.66618">
        <ele>27</ele>
        <time>2018-03-08T01:15:15Z</time>
      </trkpt>
      <trkpt lat="46.68889" lon="-1.6661">
        <ele>27</ele>
        <time>2018-03-08T01:16:15Z</time>
      </trkpt>
      <trkpt lat="46.68896" lon="-1.66602">
        <ele>26</ele>
        <time>2018-03-08T01:17:15Z</time>
      </trkpt>
      <trkpt lat="46.68903" lon="-1.66593">
        <ele>26</ele>
        <time>2018-03-08T01:18:15Z</time>
      </trkpt>
      <trkpt lat="46.68912" lon="-1.6658">
        <ele>25</ele>
        <time>2018-03-08T01:19:15Z</time>
      </trkpt>
      <trkpt lat="46.68918" lon="-1.66569">
        <ele>25</ele>
        <time>2018-03-08T01:20:15Z</time>
      </trkpt>
      <trkpt lat="46.68925" lon="-1.66556">
        <ele>24</ele>
        <time>2018-03-08T01:21:15Z</time>
      </trkpt>
      <trkpt lat="46.68931" lon="-1.66545">
        <ele>24</ele>
        <time>2018-03-08T01:22:15Z</time>
      </trkpt>
      <trkpt lat="46.6894" lon="-1.66523">
        <ele>24</ele>
        <time>2018-03-08T01:23:15Z</time>
      </trkpt>
      <trkpt lat="46.68952" lon="-1.66497">
        <ele>23</ele>
        <time>2018-03-08T01:24:15Z</time>
      </trkpt>
      <trkpt lat="46.68965" lon="-1.66464">
        <ele>23</ele>
        <time>2018-03-08T01:25:15Z</time>
      </trkpt>
      <trkpt lat="46.68988" lon="-1.66413">
        <ele>23</ele>
        <time>2018-03-08T01:26:15Z</time>
      </trkpt>
      <trkpt lat="46.68991" lon="-1.66405">
        <ele>22</ele>
        <time>2018-03-08T01:27:15Z</time>
      </trkpt>
      <trkpt lat="46.69004" lon="-1.66378">
        <ele>22</ele>
        <time>2018-03-08T01:28:15Z</time>
      </trkpt>
      <trkpt lat="46.69008" lon="-1.66371">
        <ele>22</ele>
        <time>2018-03-08T01:29:15Z</time>
      </trkpt>
      <trkpt lat="46.69013" lon="-1.66362">
        <ele>22</ele>
        <time>2018-03-08T01:30:15Z</time>
      </trkpt>
      <trkpt lat="46.69019" lon="-1.66353">
        <ele>22</ele>
        <time>2018-03-08T01:31:15Z</time>
      </trkpt>
      <trkpt lat="46.69024" lon="-1.66348">
        <ele>22</ele>
        <time>2018-03-08T01:32:15Z</time>
      </trkpt>
      <trkpt lat="46.69027" lon="-1.66346">
        <ele>22</ele>
        <time>2018-03-08T01:33:15Z</time>
      </trkpt>
      <trkpt lat="46.69042" lon="-1.66336">
        <ele>22</ele>
        <time>2018-03-08T01:34:15Z</time>
      </trkpt>
      <trkpt lat="46.69053" lon="-1.6633">
        <ele>22</ele>
        <time>2018-03-08T01:35:15Z</time>
      </trkpt>
      <trkpt lat="46.69067" lon="-1.66323">
        <ele>22</ele>
        <time>2018-03-08T01:36:15Z</time>
      </trkpt>
      <trkpt lat="46.6907" lon="-1.66322">
        <ele>22</ele>
        <time>2018-03-08T01:37:15Z</time>
      </trkpt>
      <trkpt lat="46.69083" lon="-1.66317">
        <ele>22</ele>
        <time>2018-03-08T01:38:15Z</time>
      </trkpt>
      <trkpt lat="46.69094" lon="-1.66312">
        <ele>23</ele>
        <time>2018-03-08T01:39:15Z</time>
      </trkpt>
      <trkpt lat="46.69103" lon="-1.6631">
        <ele>23</ele>
        <time>2018-03-08T01:40:15Z</time>
      </trkpt>
      <trkpt lat="46.69113" lon="-1.66309">
        <ele>24</ele>
        <time>2018-03-08T01:41:15Z</time>
      </trkpt>
      <trkpt lat="46.69123" lon="-1.66309">
        <ele>25</ele>
        <time>2018-03-08T01:42:15Z</time>
      </trkpt>
      <trkpt lat="46.69131" lon="-1.6631">
        <ele>25</ele>
        <time>2018-03-08T01:43:15Z</time>
      </trkpt>
      <trkpt lat="46.69139" lon="-1.66313">
        <ele>26</ele>
        <time>2018-03-08T01:44:15Z</time>
      </trkpt>
      <trkpt lat="46.69151" lon="-1.6632">
        <ele>27</ele>
        <time>2018-03-08T01:45:15Z</time>
      </trkpt>
      <trkpt lat="46.6917" lon="-1.66333">
        <ele>28</ele>
        <time>2018-03-08T01:46:15Z</time>
      </trkpt>
      <trkpt lat="46.69209" lon="-1.66362">
        <ele>29</ele>
        <time>2018-03-08T01:47:15Z</time>
      </trkpt>
      <trkpt lat="46.69225" lon="-1.66373">
        <ele>30</ele>
        <time>2018-03-08T01:48:15Z</time>
      </trkpt>
      <trkpt lat="46.69233" lon="-1.66377">
        <ele>30</ele>
        <time>2018-03-08T01:49:15Z</time>
      </trkpt>
      <trkpt lat="46.69241" lon="-1.6638">
        <ele>30</ele>
        <time>2018-03-08T01:50:15Z</time>
      </trkpt>
      <trkpt lat="46.69248" lon="-1.66383">
        <ele>30</ele>
        <time>2018-03-08T01:51:15Z</time>
      </trkpt>
      <trkpt lat="46.69257" lon="-1.66385">
        <ele>31</ele>
        <time>2018-03-08T01:52:15Z</time>
      </trkpt>
      <trkpt lat="46.69267" lon="-1.66387">
        <ele>31</ele>
        <time>2018-03-08T01:53:15Z</time>
      </trkpt>
      <trkpt lat="46.69276" lon="-1.66388">
        <ele>31</ele>
        <time>2018-03-08T01:54:15Z</time>
      </trkpt>
      <trkpt lat="46.69284" lon="-1.66389">
        <ele>32</ele>
        <time>2018-03-08T01:55:15Z</time>
      </trkpt>
      <trkpt lat="46.69294" lon="-1.66388">
        <ele>32</ele>
        <time>2018-03-08T01:56:15Z</time>
      </trkpt>
      <trkpt lat="46.69305" lon="-1.66387">
        <ele>32</ele>
        <time>2018-03-08T01:57:15Z</time>
      </trkpt>
      <trkpt lat="46.69315" lon="-1.66386">
        <ele>33</ele>
        <time>2018-03-08T01:58:15Z</time>
      </trkpt>
      <trkpt lat="46.69333" lon="-1.66382">
        <ele>33</ele>
        <time>2018-03-08T01:59:15Z</time>
      </trkpt>
      <trkpt lat="46.69348" lon="-1.66378">
        <ele>33</ele>
        <time>2018-03-08T02:00:15Z</time>
      </trkpt>
      <trkpt lat="46.69357" lon="-1.66377">
        <ele>34</ele>
        <time>2018-03-08T02:01:15Z</time>
      </trkpt>
      <trkpt lat="46.69367" lon="-1.66375">
        <ele>34</ele>
        <time>2018-03-08T02:02:15Z</time>
      </trkpt>
      <trkpt lat="46.69376" lon="-1.66375">
        <ele>34</ele>
        <time>2018-03-08T02:03:15Z</time>
      </trkpt>
      <trkpt lat="46.69387" lon="-1.66374">
        <ele>34</ele>
        <time>2018-03-08T02:04:15Z</time>
      </trkpt>
      <trkpt lat="46.69391" lon="-1.66375">
        <ele>34</ele>
        <time>2018-03-08T02:05:15Z</time>
      </trkpt>
      <trkpt lat="46.69405" lon="-1.66375">
        <ele>35</ele>
        <time>2018-03-08T02:06:15Z</time>
      </trkpt>
      <trkpt lat="46.69468" lon="-1.66378">
        <ele>35</ele>
        <time>2018-03-08T02:07:15Z</time>
      </trkpt>
      <trkpt lat="46.69514" lon="-1.6638">
        <ele>36</ele>
        <time>2018-03-08T02:08:15Z</time>
      </trkpt>
      <trkpt lat="46.69542" lon="-1.66382">
        <ele>37</ele>
        <time>2018-03-08T02:09:15Z</time>
      </trkpt>
      <trkpt lat="46.69563" lon="-1.66383">
        <ele>37</ele>
        <time>2018-03-08T02:10:15Z</time>
      </trkpt>
      <trkpt lat="46.6958" lon="-1.66384">
        <ele>38</ele>
        <time>2018-03-08T02:11:15Z</time>
      </trkpt>
      <trkpt lat="46.69587" lon="-1.66383">
        <ele>38</ele>
        <time>2018-03-08T02:12:15Z</time>
      </trkpt>
      <trkpt lat="46.69594" lon="-1.66382">
        <ele>38</ele>
        <time>2018-03-08T02:13:15Z</time>
      </trkpt>
      <trkpt lat="46.69601" lon="-1.66381">
        <ele>39</ele>
        <time>2018-03-08T02:14:15Z</time>
      </trkpt>
      <trkpt lat="46.69606" lon="-1.66378">
        <ele>39</ele>
        <time>2018-03-08T02:15:15Z</time>
      </trkpt>
      <trkpt lat="46.69613" lon="-1.66375">
        <ele>40</ele>
        <time>2018-03-08T02:16:15Z</time>
      </trkpt>
      <trkpt lat="46.69617" lon="-1.66372">
        <ele>40</ele>
        <time>2018-03-08T02:17:15Z</time>
      </trkpt>
      <trkpt lat="46.6962" lon="-1.6637">
        <ele>40</ele>
        <time>2018-03-08T02:18:15Z</time>
      </trkpt>
      <trkpt lat="46.69629" lon="-1.66364">
        <ele>41</ele>
        <time>2018-03-08T02:19:15Z</time>
      </trkpt>
      <trkpt lat="46.69648" lon="-1.66343">
        <ele>42</ele>
        <time>2018-03-08T02:20:15Z</time>
      </trkpt>
      <trkpt lat="46.69666" lon="-1.66322">
        <ele>43</ele>
        <time>2018-03-08T02:21:15Z</time>
      </trkpt>
      <trkpt lat="46.69686" lon="-1.66298">
        <ele>43</ele>
        <time>2018-03-08T02:22:15Z</time>
      </trkpt>
      <trkpt lat="46.69699" lon="-1.66282">
        <ele>43</ele>
        <time>2018-03-08T02:23:15Z</time>
      </trkpt>
      <trkpt lat="46.69707" lon="-1.66273">
        <ele>43</ele>
        <time>2018-03-08T02:24:15Z</time>
      </trkpt>
      <trkpt lat="46.69714" lon="-1.66264">
        <ele>43</ele>
        <time>2018-03-08T02:25:15Z</time>
      </trkpt>
      <trkpt lat="46.69729" lon="-1.66247">
        <ele>43</ele>
        <time>2018-03-08T02:26:15Z</time>
      </trkpt>
      <trkpt lat="46.69743" lon="-1.6623">
        <ele>44</ele>
        <time>2018-03-08T02:27:15Z</time>
      </trkpt>
      <trkpt lat="46.69765" lon="-1.66204">
        <ele>44</ele>
        <time>2018-03-08T02:28:15Z</time>
      </trkpt>
      <trkpt lat="46.69779" lon="-1.66187">
        <ele>45</ele>
        <time>2018-03-08T02:29:15Z</time>
      </trkpt>
      <trkpt lat="46.69801" lon="-1.66161">
        <ele>45</ele>
        <time>2018-03-08T02:30:15Z</time>
      </trkpt>
      <trkpt lat="46.69812" lon="-1.66148">
        <ele>46</ele>
        <time>2018-03-08T02:31:15Z</time>
      </trkpt>
      <trkpt lat="46.69823" lon="-1.66135">
        <ele>46</ele>
        <time>2018-03-08T02:32:15Z</time>
      </trkpt>
      <trkpt lat="46.69844" lon="-1.6611">
        <ele>46</ele>
        <time>2018-03-08T02:33:15Z</time>
      </trkpt>
      <trkpt lat="46.69867" lon="-1.66083">
        <ele>46</ele>
        <time>2018-03-08T02:34:15Z</time>
      </trkpt>
      <trkpt lat="46.69889" lon="-1.66056">
        <ele>46</ele>
        <time>2018-03-08T02:35:15Z</time>
      </trkpt>
      <trkpt lat="46.69903" lon="-1.66039">
        <ele>46</ele>
        <time>2018-03-08T02:36:15Z</time>
      </trkpt>
      <trkpt lat="46.69909" lon="-1.66031">
        <ele>46</ele>
        <time>2018-03-08T02:37:15Z</time>
      </trkpt>
      <trkpt lat="46.69925" lon="-1.66014">
        <ele>46</ele>
        <time>2018-03-08T02:38:15Z</time>
      </trkpt>
      <trkpt lat="46.69952" lon="-1.65981">
        <ele>46</ele>
        <time>2018-03-08T02:39:15Z</time>
      </trkpt>
      <trkpt lat="46.69972" lon="-1.65957">
        <ele>46</ele>
        <time>2018-03-08T02:40:15Z</time>
      </trkpt>
      <trkpt lat="46.69991" lon="-1.65934">
        <ele>47</ele>
        <time>2018-03-08T02:41:15Z</time>
      </trkpt>
      <trkpt lat="46.70004" lon="-1.6592">
        <ele>47</ele>
        <time>2018-03-08T02:42:15Z</time>
      </trkpt>
      <trkpt lat="46.70022" lon="-1.65898">
        <ele>47</ele>
        <time>2018-03-08T02:43:15Z</time>
      </trkpt>
      <trkpt lat="46.7004" lon="-1.65877">
        <ele>47</ele>
        <time>2018-03-08T02:44:15Z</time>
      </trkpt>
      <trkpt lat="46.70057" lon="-1.65856">
        <ele>46</ele>
        <time>2018-03-08T02:45:15Z</time>
      </trkpt>
      <trkpt lat="46.70068" lon="-1.65843">
        <ele>46</ele>
        <time>2018-03-08T02:46:15Z</time>
      </trkpt>
      <trkpt lat="46.70078" lon="-1.65831">
        <ele>46</ele>
        <time>2018-03-08T02:47:15Z</time>
      </trkpt>
      <trkpt lat="46.70088" lon="-1.6582">
        <ele>46</ele>
        <time>2018-03-08T02:48:15Z</time>
      </trkpt>
      <trkpt lat="46.70102" lon="-1.65803">
        <ele>45</ele>
        <time>2018-03-08T02:49:15Z</time>
      </trkpt>
      <trkpt lat="46.70114" lon="-1.65788">
        <ele>45</ele>
        <time>2018-03-08T02:50:15Z</time>
      </trkpt>
      <trkpt lat="46.70127" lon="-1.65773">
        <ele>44</ele>
        <time>2018-03-08T02:51:15Z</time>
      </trkpt>
      <trkpt lat="46.70137" lon="-1.65761">
        <ele>44</ele>
        <time>2018-03-08T02:52:15Z</time>
      </trkpt>
      <trkpt lat="46.70147" lon="-1.6575">
        <ele>43</ele>
        <time>2018-03-08T02:53:15Z</time>
      </trkpt>
      <trkpt lat="46.70153" lon="-1.65742">
        <ele>43</ele>
        <time>2018-03-08T02:54:15Z</time>
      </trkpt>
      <trkpt lat="46.70157" lon="-1.65738">
        <ele>43</ele>
        <time>2018-03-08T02:55:15Z</time>
      </trkpt>
      <trkpt lat="46.70157" lon="-1.65738">
        <ele>43</ele>
        <time>2018-03-08T02:56:15Z</time>
      </trkpt>
      <trkpt lat="46.70167" lon="-1.65751">
        <ele>43</ele>
        <time>2018-03-08T02:57:15Z</time>
      </trkpt>
      <trkpt lat="46.70188" lon="-1.65785">
        <ele>43</ele>
        <time>2018-03-08T02:58:15Z</time>
      </trkpt>
      <trkpt lat="46.7019" lon="-1.65788">
        <ele>43</ele>
        <time>2018-03-08T02:59:15Z</time>
      </trkpt>
      <trkpt lat="46.7019" lon="-1.65788">
        <ele>43</ele>
        <time>2018-03-08T03:00:15Z</time>
      </trkpt>
      <trkpt lat="46.7021" lon="-1.6582">
        <ele>42</ele>
        <time>2018-03-08T03:01:15Z</time>
      </trkpt>
      <trkpt lat="46.70218" lon="-1.65832">
        <ele>42</ele>
        <time>2018-03-08T03:02:15Z</time>
      </trkpt>
      <trkpt lat="46.70226" lon="-1.65845">
        <ele>41</ele>
        <time>2018-03-08T03:03:15Z</time>
      </trkpt>
      <trkpt lat="46.70241" lon="-1.65868">
        <ele>41</ele>
        <time>2018-03-08T03:04:15Z</time>
      </trkpt>
      <trkpt lat="46.70256" lon="-1.65892">
        <ele>40</ele>
        <time>2018-03-08T03:05:15Z</time>
      </trkpt>
      <trkpt lat="46.7028" lon="-1.65929">
        <ele>39</ele>
        <time>2018-03-08T03:06:15Z</time>
      </trkpt>
      <trkpt lat="46.70296" lon="-1.65955">
        <ele>38</ele>
        <time>2018-03-08T03:07:15Z</time>
      </trkpt>
      <trkpt lat="46.70319" lon="-1.65993">
        <ele>38</ele>
        <time>2018-03-08T03:08:15Z</time>
      </trkpt>
      <trkpt lat="46.70343" lon="-1.66031">
        <ele>38</ele>
        <time>2018-03-08T03:09:15Z</time>
      </trkpt>
      <trkpt lat="46.7039" lon="-1.66107">
        <ele>38</ele>
        <time>2018-03-08T03:10:15Z</time>
      </trkpt>
      <trkpt lat="46.70413" lon="-1.66146">
        <ele>39</ele>
        <time>2018-03-08T03:11:15Z</time>
      </trkpt>
      <trkpt lat="46.70436" lon="-1.66182">
        <ele>39</ele>
        <time>2018-03-08T03:12:15Z</time>
      </trkpt>
      <trkpt lat="46.70444" lon="-1.66194">
        <ele>40</ele>
        <time>2018-03-08T03:13:15Z</time>
      </trkpt>
      <trkpt lat="46.70459" lon="-1.66216">
        <ele>40</ele>
        <time>2018-03-08T03:14:15Z</time>
      </trkpt>
      <trkpt lat="46.70474" lon="-1.66237">
        <ele>41</ele>
        <time>2018-03-08T03:15:15Z</time>
      </trkpt>
      <trkpt lat="46.70498" lon="-1.66268">
        <ele>41</ele>
        <time>2018-03-08T03:16:15Z</time>
      </trkpt>
      <trkpt lat="46.70514" lon="-1.66287">
        <ele>42</ele>
        <time>2018-03-08T03:17:15Z</time>
      </trkpt>
      <trkpt lat="46.70523" lon="-1.66298">
        <ele>42</ele>
        <time>2018-03-08T03:18:15Z</time>
      </trkpt>
      <trkpt lat="46.70549" lon="-1.6632">
        <ele>43</ele>
        <time>2018-03-08T03:19:15Z</time>
      </trkpt>
      <trkpt lat="46.70567" lon="-1.66333">
        <ele>43</ele>
        <time>2018-03-08T03:20:15Z</time>
      </trkpt>
      <trkpt lat="46.70596" lon="-1.66354">
        <ele>42</ele>
        <time>2018-03-08T03:21:15Z</time>
      </trkpt>
      <trkpt lat="46.70625" lon="-1.66376">
        <ele>42</ele>
        <time>2018-03-08T03:22:15Z</time>
      </trkpt>
      <trkpt lat="46.70635" lon="-1.66383">
        <ele>42</ele>
        <time>2018-03-08T03:23:15Z</time>
      </trkpt>
      <trkpt lat="46.70868" lon="-1.6656">
        <ele>40</ele>
        <time>2018-03-08T03:24:15Z</time>
      </trkpt>
      <trkpt lat="46.70886" lon="-1.66574">
        <ele>40</ele>
        <time>2018-03-08T03:25:15Z</time>
      </trkpt>
      <trkpt lat="46.70898" lon="-1.66583">
        <ele>40</ele>
        <time>2018-03-08T03:26:15Z</time>
      </trkpt>
      <trkpt lat="46.70928" lon="-1.66607">
        <ele>39</ele>
        <time>2018-03-08T03:27:15Z</time>
      </trkpt>
      <trkpt lat="46.70957" lon="-1.6663">
        <ele>39</ele>
        <time>2018-03-08T03:28:15Z</time>
      </trkpt>
      <trkpt lat="46.71007" lon="-1.6667">
        <ele>39</ele>
        <time>2018-03-08T03:29:15Z</time>
      </trkpt>
      <trkpt lat="46.71149" lon="-1.66785">
        <ele>40</ele>
        <time>2018-03-08T03:30:15Z</time>
      </trkpt>
      <trkpt lat="46.71163" lon="-1.66796">
        <ele>40</ele>
        <time>2018-03-08T03:31:15Z</time>
      </trkpt>
      <trkpt lat="46.7118" lon="-1.6681">
        <ele>40</ele>
        <time>2018-03-08T03:32:15Z</time>
      </trkpt>
      <trkpt lat="46.71204" lon="-1.66829">
        <ele>41</ele>
        <time>2018-03-08T03:33:15Z</time>
      </trkpt>
      <trkpt lat="46.71233" lon="-1.66852">
        <ele>42</ele>
        <time>2018-03-08T03:34:15Z</time>
      </trkpt>
      <trkpt lat="46.71314" lon="-1.66917">
        <ele>46</ele>
        <time>2018-03-08T03:35:15Z</time>
      </trkpt>
      <trkpt lat="46.71373" lon="-1.66964">
        <ele>49</ele>
        <time>2018-03-08T03:36:15Z</time>
      </trkpt>
      <trkpt lat="46.71455" lon="-1.67031">
        <ele>51</ele>
        <time>2018-03-08T03:37:15Z</time>
      </trkpt>
      <trkpt lat="46.71475" lon="-1.67048">
        <ele>51</ele>
        <time>2018-03-08T03:38:15Z</time>
      </trkpt>
      <trkpt lat="46.715" lon="-1.67068">
        <ele>50</ele>
        <time>2018-03-08T03:39:15Z</time>
      </trkpt>
      <trkpt lat="46.71535" lon="-1.67099">
        <ele>50</ele>
        <time>2018-03-08T03:40:15Z</time>
      </trkpt>
      <trkpt lat="46.71571" lon="-1.67129">
        <ele>49</ele>
        <time>2018-03-08T03:41:15Z</time>
      </trkpt>
      <trkpt lat="46.71607" lon="-1.67162">
        <ele>48</ele>
        <time>2018-03-08T03:42:15Z</time>
      </trkpt>
      <trkpt lat="46.71636" lon="-1.67187">
        <ele>47</ele>
        <time>2018-03-08T03:43:15Z</time>
      </trkpt>
      <trkpt lat="46.71655" lon="-1.67203">
        <ele>47</ele>
        <time>2018-03-08T03:44:15Z</time>
      </trkpt>
      <trkpt lat="46.71693" lon="-1.67236">
        <ele>47</ele>
        <time>2018-03-08T03:45:15Z</time>
      </trkpt>
      <trkpt lat="46.7173" lon="-1.67268">
        <ele>49</ele>
        <time>2018-03-08T03:46:15Z</time>
      </trkpt>
      <trkpt lat="46.71774" lon="-1.67307">
        <ele>51</ele>
        <time>2018-03-08T03:47:15Z</time>
      </trkpt>
      <trkpt lat="46.71806" lon="-1.67335">
        <ele>53</ele>
        <time>2018-03-08T03:48:15Z</time>
      </trkpt>
      <trkpt lat="46.71834" lon="-1.6736">
        <ele>54</ele>
        <time>2018-03-08T03:49:15Z</time>
      </trkpt>
      <trkpt lat="46.71866" lon="-1.67389">
        <ele>53</ele>
        <time>2018-03-08T03:50:15Z</time>
      </trkpt>
      <trkpt lat="46.71887" lon="-1.67407">
        <ele>52</ele>
        <time>2018-03-08T03:51:15Z</time>
      </trkpt>
      <trkpt lat="46.71893" lon="-1.67412">
        <ele>52</ele>
        <time>2018-03-08T03:52:15Z</time>
      </trkpt>
      <trkpt lat="46.71891" lon="-1.6742">
        <ele>52</ele>
        <time>2018-03-08T03:53:15Z</time>
      </trkpt>
      <trkpt lat="46.71909" lon="-1.6744">
        <ele>52</ele>
        <time>2018-03-08T03:54:15Z</time>
      </trkpt>
      <trkpt lat="46.71922" lon="-1.67463">
        <ele>52</ele>
        <time>2018-03-08T03:55:15Z</time>
      </trkpt>
      <trkpt lat="46.71938" lon="-1.67492">
        <ele>51</ele>
        <time>2018-03-08T03:56:15Z</time>
      </trkpt>
      <trkpt lat="46.71966" lon="-1.67541">
        <ele>51</ele>
        <time>2018-03-08T03:57:15Z</time>
      </trkpt>
      <trkpt lat="46.71981" lon="-1.67568">
        <ele>50</ele>
        <time>2018-03-08T03:58:15Z</time>
      </trkpt>
      <trkpt lat="46.72058" lon="-1.67702">
        <ele>50</ele>
        <time>2018-03-08T03:59:15Z</time>
      </trkpt>
      <trkpt lat="46.72089" lon="-1.67756">
        <ele>50</ele>
        <time>2018-03-08T04:00:15Z</time>
      </trkpt>
      <trkpt lat="46.72122" lon="-1.67813">
        <ele>50</ele>
        <time>2018-03-08T04:01:15Z</time>
      </trkpt>
      <trkpt lat="46.7214" lon="-1.67846">
        <ele>49</ele>
        <time>2018-03-08T04:02:15Z</time>
      </trkpt>
      <trkpt lat="46.72154" lon="-1.67871">
        <ele>49</ele>
        <time>2018-03-08T04:03:15Z</time>
      </trkpt>
      <trkpt lat="46.722" lon="-1.67951">
        <ele>49</ele>
        <time>2018-03-08T04:04:15Z</time>
      </trkpt>
      <trkpt lat="46.72226" lon="-1.67998">
        <ele>49</ele>
        <time>2018-03-08T04:05:15Z</time>
      </trkpt>
      <trkpt lat="46.72246" lon="-1.68033">
        <ele>49</ele>
        <time>2018-03-08T04:06:15Z</time>
      </trkpt>
      <trkpt lat="46.72303" lon="-1.68134">
        <ele>49</ele>
        <time>2018-03-08T04:07:15Z</time>
      </trkpt>
      <trkpt lat="46.72329" lon="-1.6818">
        <ele>49</ele>
        <time>2018-03-08T04:08:15Z</time>
      </trkpt>
      <trkpt lat="46.72336" lon="-1.68189">
        <ele>50</ele>
        <time>2018-03-08T04:09:15Z</time>
      </trkpt>
      <trkpt lat="46.72341" lon="-1.68197">
        <ele>50</ele>
        <time>2018-03-08T04:10:15Z</time>
      </trkpt>
      <trkpt lat="46.7236" lon="-1.68216">
        <ele>51</ele>
        <time>2018-03-08T04:11:15Z</time>
      </trkpt>
      <trkpt lat="46.72369" lon="-1.68222">
        <ele>51</ele>
        <time>2018-03-08T04:12:15Z</time>
      </trkpt>
      <trkpt lat="46.72377" lon="-1.68227">
        <ele>51</ele>
        <time>2018-03-08T04:13:15Z</time>
      </trkpt>
      <trkpt lat="46.72386" lon="-1.68231">
        <ele>51</ele>
        <time>2018-03-08T04:14:15Z</time>
      </trkpt>
      <trkpt lat="46.72395" lon="-1.68233">
        <ele>51</ele>
        <time>2018-03-08T04:15:15Z</time>
      </trkpt>
      <trkpt lat="46.72403" lon="-1.68234">
        <ele>52</ele>
        <time>2018-03-08T04:16:15Z</time>
      </trkpt>
      <trkpt lat="46.72413" lon="-1.68234">
        <ele>52</ele>
        <time>2018-03-08T04:17:15Z</time>
      </trkpt>
      <trkpt lat="46.72452" lon="-1.68234">
        <ele>51</ele>
        <time>2018-03-08T04:18:15Z</time>
      </trkpt>
      <trkpt lat="46.72481" lon="-1.68234">
        <ele>50</ele>
        <time>2018-03-08T04:19:15Z</time>
      </trkpt>
      <trkpt lat="46.72532" lon="-1.68236">
        <ele>50</ele>
        <time>2018-03-08T04:20:15Z</time>
      </trkpt>
      <trkpt lat="46.72562" lon="-1.68242">
        <ele>49</ele>
        <time>2018-03-08T04:21:15Z</time>
      </trkpt>
      <trkpt lat="46.72594" lon="-1.68252">
        <ele>49</ele>
        <time>2018-03-08T04:22:15Z</time>
      </trkpt>
      <trkpt lat="46.72626" lon="-1.68263">
        <ele>48</ele>
        <time>2018-03-08T04:23:15Z</time>
      </trkpt>
      <trkpt lat="46.72658" lon="-1.68275">
        <ele>48</ele>
        <time>2018-03-08T04:24:15Z</time>
      </trkpt>
      <trkpt lat="46.7269" lon="-1.68287">
        <ele>47</ele>
        <time>2018-03-08T04:25:15Z</time>
      </trkpt>
      <trkpt lat="46.72722" lon="-1.68299">
        <ele>47</ele>
        <time>2018-03-08T04:26:15Z</time>
      </trkpt>
      <trkpt lat="46.72755" lon="-1.68311">
        <ele>47</ele>
        <time>2018-03-08T04:27:15Z</time>
      </trkpt>
      <trkpt lat="46.72773" lon="-1.68318">
        <ele>48</ele>
        <time>2018-03-08T04:28:15Z</time>
      </trkpt>
      <trkpt lat="46.72787" lon="-1.68323">
        <ele>48</ele>
        <time>2018-03-08T04:29:15Z</time>
      </trkpt>
      <trkpt lat="46.72809" lon="-1.6833">
        <ele>48</ele>
        <time>2018-03-08T04:30:15Z</time>
      </trkpt>
      <trkpt lat="46.7282" lon="-1.68333">
        <ele>48</ele>
        <time>2018-03-08T04:31:15Z</time>
      </trkpt>
      <trkpt lat="46.72832" lon="-1.68335">
        <ele>48</ele>
        <time>2018-03-08T04:32:15Z</time>
      </trkpt>
      <trkpt lat="46.72839" lon="-1.68336">
        <ele>48</ele>
        <time>2018-03-08T04:33:15Z</time>
      </trkpt>
      <trkpt lat="46.72865" lon="-1.68337">
        <ele>48</ele>
        <time>2018-03-08T04:34:15Z</time>
      </trkpt>
      <trkpt lat="46.72875" lon="-1.68336">
        <ele>48</ele>
        <time>2018-03-08T04:35:15Z</time>
      </trkpt>
      <trkpt lat="46.72886" lon="-1.68335">
        <ele>48</ele>
        <time>2018-03-08T04:36:15Z</time>
      </trkpt>
      <trkpt lat="46.72897" lon="-1.68334">
        <ele>48</ele>
        <time>2018-03-08T04:37:15Z</time>
      </trkpt>
      <trkpt lat="46.72918" lon="-1.6833">
        <ele>48</ele>
        <time>2018-03-08T04:38:15Z</time>
      </trkpt>
      <trkpt lat="46.7294" lon="-1.68326">
        <ele>48</ele>
        <time>2018-03-08T04:39:15Z</time>
      </trkpt>
      <trkpt lat="46.72962" lon="-1.68322">
        <ele>47</ele>
        <time>2018-03-08T04:40:15Z</time>
      </trkpt>
      <trkpt lat="46.72979" lon="-1.68318">
        <ele>47</ele>
        <time>2018-03-08T04:41:15Z</time>
      </trkpt>
      <trkpt lat="46.73012" lon="-1.68311">
        <ele>47</ele>
        <time>2018-03-08T04:42:15Z</time>
      </trkpt>
      <trkpt lat="46.73029" lon="-1.68308">
        <ele>47</ele>
        <time>2018-03-08T04:43:15Z</time>
      </trkpt>
      <trkpt lat="46.73051" lon="-1.68303">
        <ele>47</ele>
        <time>2018-03-08T04:44:15Z</time>
      </trkpt>
      <trkpt lat="46.73074" lon="-1.68298">
        <ele>47</ele>
        <time>2018-03-08T04:45:15Z</time>
      </trkpt>
      <trkpt lat="46.73084" lon="-1.68295">
        <ele>47</ele>
        <time>2018-03-08T04:46:15Z</time>
      </trkpt>
      <trkpt lat="46.73095" lon="-1.68293">
        <ele>47</ele>
        <time>2018-03-08T04:47:15Z</time>
      </trkpt>
      <trkpt lat="46.73117" lon="-1.68289">
        <ele>47</ele>
        <time>2018-03-08T04:48:15Z</time>
      </trkpt>
      <trkpt lat="46.73129" lon="-1.68288">
        <ele>47</ele>
        <time>2018-03-08T04:49:15Z</time>
      </trkpt>
      <trkpt lat="46.73138" lon="-1.68287">
        <ele>47</ele>
        <time>2018-03-08T04:50:15Z</time>
      </trkpt>
      <trkpt lat="46.73151" lon="-1.68286">
        <ele>46</ele>
        <time>2018-03-08T04:51:15Z</time>
      </trkpt>
      <trkpt lat="46.73162" lon="-1.68286">
        <ele>46</ele>
        <time>2018-03-08T04:52:15Z</time>
      </trkpt>
      <trkpt lat="46.73197" lon="-1.68285">
        <ele>45</ele>
        <time>2018-03-08T04:53:15Z</time>
      </trkpt>
      <trkpt lat="46.7322" lon="-1.68286">
        <ele>45</ele>
        <time>2018-03-08T04:54:15Z</time>
      </trkpt>
      <trkpt lat="46.73266" lon="-1.68286">
        <ele>44</ele>
        <time>2018-03-08T04:55:15Z</time>
      </trkpt>
      <trkpt lat="46.73313" lon="-1.68287">
        <ele>43</ele>
        <time>2018-03-08T04:56:15Z</time>
      </trkpt>
      <trkpt lat="46.73336" lon="-1.68287">
        <ele>43</ele>
        <time>2018-03-08T04:57:15Z</time>
      </trkpt>
      <trkpt lat="46.73383" lon="-1.68288">
        <ele>42</ele>
        <time>2018-03-08T04:58:15Z</time>
      </trkpt>
      <trkpt lat="46.73418" lon="-1.68289">
        <ele>40</ele>
        <time>2018-03-08T04:59:15Z</time>
      </trkpt>
      <trkpt lat="46.73464" lon="-1.6829">
        <ele>39</ele>
        <time>2018-03-08T05:00:15Z</time>
      </trkpt>
      <trkpt lat="46.73482" lon="-1.68291">
        <ele>39</ele>
        <time>2018-03-08T05:01:15Z</time>
      </trkpt>
      <trkpt lat="46.73534" lon="-1.6829">
        <ele>39</ele>
        <time>2018-03-08T05:02:15Z</time>
      </trkpt>
      <trkpt lat="46.73557" lon="-1.68288">
        <ele>40</ele>
        <time>2018-03-08T05:03:15Z</time>
      </trkpt>
      <trkpt lat="46.73591" lon="-1.68281">
        <ele>40</ele>
        <time>2018-03-08T05:04:15Z</time>
      </trkpt>
      <trkpt lat="46.73637" lon="-1.68263">
        <ele>39</ele>
        <time>2018-03-08T05:05:15Z</time>
      </trkpt>
      <trkpt lat="46.73698" lon="-1.68238">
        <ele>38</ele>
        <time>2018-03-08T05:06:15Z</time>
      </trkpt>
      <trkpt lat="46.73765" lon="-1.68211">
        <ele>38</ele>
        <time>2018-03-08T05:07:15Z</time>
      </trkpt>
      <trkpt lat="46.73786" lon="-1.682">
        <ele>38</ele>
        <time>2018-03-08T05:08:15Z</time>
      </trkpt>
      <trkpt lat="46.73829" lon="-1.68183">
        <ele>37</ele>
        <time>2018-03-08T05:09:15Z</time>
      </trkpt>
      <trkpt lat="46.73847" lon="-1.68176">
        <ele>37</ele>
        <time>2018-03-08T05:10:15Z</time>
      </trkpt>
      <trkpt lat="46.73857" lon="-1.68173">
        <ele>37</ele>
        <time>2018-03-08T05:11:15Z</time>
      </trkpt>
      <trkpt lat="46.73866" lon="-1.68171">
        <ele>37</ele>
        <time>2018-03-08T05:12:15Z</time>
      </trkpt>
      <trkpt lat="46.73876" lon="-1.68171">
        <ele>37</ele>
        <time>2018-03-08T05:13:15Z</time>
      </trkpt>
      <trkpt lat="46.73885" lon="-1.6817">
        <ele>36</ele>
        <time>2018-03-08T05:14:15Z</time>
      </trkpt>
      <trkpt lat="46.73896" lon="-1.68172">
        <ele>36</ele>
        <time>2018-03-08T05:15:15Z</time>
      </trkpt>
      <trkpt lat="46.73919" lon="-1.68176">
        <ele>36</ele>
        <time>2018-03-08T05:16:15Z</time>
      </trkpt>
      <trkpt lat="46.73949" lon="-1.68185">
        <ele>36</ele>
        <time>2018-03-08T05:17:15Z</time>
      </trkpt>
      <trkpt lat="46.74024" lon="-1.68209">
        <ele>35</ele>
        <time>2018-03-08T05:18:15Z</time>
      </trkpt>
      <trkpt lat="46.7404" lon="-1.68214">
        <ele>35</ele>
        <time>2018-03-08T05:19:15Z</time>
      </trkpt>
      <trkpt lat="46.74068" lon="-1.68219">
        <ele>34</ele>
        <time>2018-03-08T05:20:15Z</time>
      </trkpt>
      <trkpt lat="46.74091" lon="-1.6822">
        <ele>34</ele>
        <time>2018-03-08T05:21:15Z</time>
      </trkpt>
      <trkpt lat="46.74121" lon="-1.68218">
        <ele>33</ele>
        <time>2018-03-08T05:22:15Z</time>
      </trkpt>
      <trkpt lat="46.74138" lon="-1.68215">
        <ele>33</ele>
        <time>2018-03-08T05:23:15Z</time>
      </trkpt>
      <trkpt lat="46.74214" lon="-1.682">
        <ele>32</ele>
        <time>2018-03-08T05:24:15Z</time>
      </trkpt>
      <trkpt lat="46.74263" lon="-1.6819">
        <ele>32</ele>
        <time>2018-03-08T05:25:15Z</time>
      </trkpt>
      <trkpt lat="46.74288" lon="-1.68185">
        <ele>32</ele>
        <time>2018-03-08T05:26:15Z</time>
      </trkpt>
      <trkpt lat="46.74297" lon="-1.68183">
        <ele>32</ele>
        <time>2018-03-08T05:27:15Z</time>
      </trkpt>
      <trkpt lat="46.74307" lon="-1.68179">
        <ele>32</ele>
        <time>2018-03-08T05:28:15Z</time>
      </trkpt>
      <trkpt lat="46.74315" lon="-1.68175">
        <ele>32</ele>
        <time>2018-03-08T05:29:15Z</time>
      </trkpt>
      <trkpt lat="46.74321" lon="-1.68171">
        <ele>32</ele>
        <time>2018-03-08T05:30:15Z</time>
      </trkpt>
      <trkpt lat="46.74325" lon="-1.68168">
        <ele>32</ele>
        <time>2018-03-08T05:31:15Z</time>
      </trkpt>
      <trkpt lat="46.7434" lon="-1.68147">
        <ele>32</ele>
        <time>2018-03-08T05:32:15Z</time>
      </trkpt>
      <trkpt lat="46.74346" lon="-1.68135">
        <ele>32</ele>
        <time>2018-03-08T05:33:15Z</time>
      </trkpt>
      <trkpt lat="46.74352" lon="-1.68119">
        <ele>32</ele>
        <time>2018-03-08T05:34:15Z</time>
      </trkpt>
      <trkpt lat="46.74366" lon="-1.68079">
        <ele>31</ele>
        <time>2018-03-08T05:35:15Z</time>
      </trkpt>
      <trkpt lat="46.7438" lon="-1.68043">
        <ele>31</ele>
        <time>2018-03-08T05:36:15Z</time>
      </trkpt>
      <trkpt lat="46.74387" lon="-1.68026">
        <ele>31</ele>
        <time>2018-03-08T05:37:15Z</time>
      </trkpt>
      <trkpt lat="46.74394" lon="-1.68011">
        <ele>30</ele>
        <time>2018-03-08T05:38:15Z</time>
      </trkpt>
      <trkpt lat="46.74403" lon="-1.67996">
        <ele>30</ele>
        <time>2018-03-08T05:39:15Z</time>
      </trkpt>
      <trkpt lat="46.74429" lon="-1.67954">
        <ele>29</ele>
        <time>2018-03-08T05:40:15Z</time>
      </trkpt>
      <trkpt lat="46.74454" lon="-1.67917">
        <ele>29</ele>
        <time>2018-03-08T05:41:15Z</time>
      </trkpt>
      <trkpt lat="46.74487" lon="-1.67865">
        <ele>26</ele>
        <time>2018-03-08T05:42:15Z</time>
      </trkpt>
      <trkpt lat="46.74521" lon="-1.67814">
        <ele>24</ele>
        <time>2018-03-08T05:43:15Z</time>
      </trkpt>
      <trkpt lat="46.74554" lon="-1.67763">
        <ele>21</ele>
        <time>2018-03-08T05:44:15Z</time>
      </trkpt>
      <trkpt lat="46.74562" lon="-1.67752">
        <ele>21</ele>
        <time>2018-03-08T05:45:15Z</time>
      </trkpt>
      <trkpt lat="46.74569" lon="-1.67742">
        <ele>20</ele>
        <time>2018-03-08T05:46:15Z</time>
      </trkpt>
      <trkpt lat="46.74576" lon="-1.67732">
        <ele>20</ele>
        <time>2018-03-08T05:47:15Z</time>
      </trkpt>
      <trkpt lat="46.74584" lon="-1.67724">
        <ele>20</ele>
        <time>2018-03-08T05:48:15Z</time>
      </trkpt>
      <trkpt lat="46.74591" lon="-1.67716">
        <ele>21</ele>
        <time>2018-03-08T05:49:15Z</time>
      </trkpt>
      <trkpt lat="46.74597" lon="-1.67709">
        <ele>21</ele>
        <time>2018-03-08T05:50:15Z</time>
      </trkpt>
      <trkpt lat="46.74606" lon="-1.67702">
        <ele>21</ele>
        <time>2018-03-08T05:51:15Z</time>
      </trkpt>
      <trkpt lat="46.74628" lon="-1.67685">
        <ele>22</ele>
        <time>2018-03-08T05:52:15Z</time>
      </trkpt>
      <trkpt lat="46.74655" lon="-1.67665">
        <ele>22</ele>
        <time>2018-03-08T05:53:15Z</time>
      </trkpt>
      <trkpt lat="46.74679" lon="-1.6765">
        <ele>22</ele>
        <time>2018-03-08T05:54:15Z</time>
      </trkpt>
      <trkpt lat="46.74695" lon="-1.6764">
        <ele>21</ele>
        <time>2018-03-08T05:55:15Z</time>
      </trkpt>
      <trkpt lat="46.74734" lon="-1.67614">
        <ele>20</ele>
        <time>2018-03-08T05:56:15Z</time>
      </trkpt>
      <trkpt lat="46.7476" lon="-1.67596">
        <ele>19</ele>
        <time>2018-03-08T05:57:15Z</time>
      </trkpt>
      <trkpt lat="46.74789" lon="-1.67577">
        <ele>18</ele>
        <time>2018-03-08T05:58:15Z</time>
      </trkpt>
      <trkpt lat="46.74809" lon="-1.67564">
        <ele>17</ele>
        <time>2018-03-08T05:59:15Z</time>
      </trkpt>
      <trkpt lat="46.74832" lon="-1.67548">
        <ele>16</ele>
        <time>2018-03-08T06:00:15Z</time>
      </trkpt>
      <trkpt lat="46.74866" lon="-1.67527">
        <ele>18</ele>
        <time>2018-03-08T06:01:15Z</time>
      </trkpt>
      <trkpt lat="46.74868" lon="-1.67525">
        <ele>18</ele>
        <time>2018-03-08T06:02:15Z</time>
      </trkpt>
      <trkpt lat="46.7487" lon="-1.67524">
        <ele>18</ele>
        <time>2018-03-08T06:03:15Z</time>
      </trkpt>
      <trkpt lat="46.7489" lon="-1.67511">
        <ele>19</ele>
        <time>2018-03-08T06:04:15Z</time>
      </trkpt>
      <trkpt lat="46.74936" lon="-1.6748">
        <ele>20</ele>
        <time>2018-03-08T06:05:15Z</time>
      </trkpt>
      <trkpt lat="46.74987" lon="-1.67446">
        <ele>21</ele>
        <time>2018-03-08T06:06:15Z</time>
      </trkpt>
      <trkpt lat="46.75041" lon="-1.6741">
        <ele>23</ele>
        <time>2018-03-08T06:07:15Z</time>
      </trkpt>
      <trkpt lat="46.75086" lon="-1.6738">
        <ele>23</ele>
        <time>2018-03-08T06:08:15Z</time>
      </trkpt>
      <trkpt lat="46.75094" lon="-1.67376">
        <ele>23</ele>
        <time>2018-03-08T06:09:15Z</time>
      </trkpt>
      <trkpt lat="46.751" lon="-1.67373">
        <ele>24</ele>
        <time>2018-03-08T06:10:15Z</time>
      </trkpt>
      <trkpt lat="46.75106" lon="-1.6737">
        <ele>24</ele>
        <time>2018-03-08T06:11:15Z</time>
      </trkpt>
      <trkpt lat="46.75114" lon="-1.67369">
        <ele>24</ele>
        <time>2018-03-08T06:12:15Z</time>
      </trkpt>
      <trkpt lat="46.75122" lon="-1.67368">
        <ele>24</ele>
        <time>2018-03-08T06:13:15Z</time>
      </trkpt>
      <trkpt lat="46.75132" lon="-1.67367">
        <ele>24</ele>
        <time>2018-03-08T06:14:15Z</time>
      </trkpt>
      <trkpt lat="46.75142" lon="-1.67368">
        <ele>24</ele>
        <time>2018-03-08T06:15:15Z</time>
      </trkpt>
      <trkpt lat="46.75152" lon="-1.6737">
        <ele>24</ele>
        <time>2018-03-08T06:16:15Z</time>
      </trkpt>
      <trkpt lat="46.75163" lon="-1.67374">
        <ele>24</ele>
        <time>2018-03-08T06:17:15Z</time>
      </trkpt>
      <trkpt lat="46.75173" lon="-1.6738">
        <ele>23</ele>
        <time>2018-03-08T06:18:15Z</time>
      </trkpt>
      <trkpt lat="46.75185" lon="-1.67387">
        <ele>23</ele>
        <time>2018-03-08T06:19:15Z</time>
      </trkpt>
      <trkpt lat="46.75192" lon="-1.67393">
        <ele>23</ele>
        <time>2018-03-08T06:20:15Z</time>
      </trkpt>
      <trkpt lat="46.75202" lon="-1.67403">
        <ele>22</ele>
        <time>2018-03-08T06:21:15Z</time>
      </trkpt>
      <trkpt lat="46.75215" lon="-1.6742">
        <ele>22</ele>
        <time>2018-03-08T06:22:15Z</time>
      </trkpt>
      <trkpt lat="46.75228" lon="-1.67441">
        <ele>20</ele>
        <time>2018-03-08T06:23:15Z</time>
      </trkpt>
      <trkpt lat="46.75237" lon="-1.67456">
        <ele>19</ele>
        <time>2018-03-08T06:24:15Z</time>
      </trkpt>
      <trkpt lat="46.75254" lon="-1.67489">
        <ele>16</ele>
        <time>2018-03-08T06:25:15Z</time>
      </trkpt>
      <trkpt lat="46.75261" lon="-1.67501">
        <ele>14</ele>
        <time>2018-03-08T06:26:15Z</time>
      </trkpt>
      <trkpt lat="46.75265" lon="-1.67509">
        <ele>14</ele>
        <time>2018-03-08T06:27:15Z</time>
      </trkpt>
      <trkpt lat="46.75277" lon="-1.6753">
        <ele>12</ele>
        <time>2018-03-08T06:28:15Z</time>
      </trkpt>
      <trkpt lat="46.7528" lon="-1.67536">
        <ele>12</ele>
        <time>2018-03-08T06:29:15Z</time>
      </trkpt>
      <trkpt lat="46.75288" lon="-1.6755">
        <ele>11</ele>
        <time>2018-03-08T06:30:15Z</time>
      </trkpt>
      <trkpt lat="46.75295" lon="-1.67562">
        <ele>11</ele>
        <time>2018-03-08T06:31:15Z</time>
      </trkpt>
      <trkpt lat="46.75297" lon="-1.67566">
        <ele>11</ele>
        <time>2018-03-08T06:32:15Z</time>
      </trkpt>
      <trkpt lat="46.75302" lon="-1.67575">
        <ele>10</ele>
        <time>2018-03-08T06:33:15Z</time>
      </trkpt>
      <trkpt lat="46.75308" lon="-1.67585">
        <ele>10</ele>
        <time>2018-03-08T06:34:15Z</time>
      </trkpt>
      <trkpt lat="46.7531" lon="-1.67589">
        <ele>10</ele>
        <time>2018-03-08T06:35:15Z</time>
      </trkpt>
      <trkpt lat="46.75326" lon="-1.67619">
        <ele>10</ele>
        <time>2018-03-08T06:36:15Z</time>
      </trkpt>
      <trkpt lat="46.75346" lon="-1.67654">
        <ele>11</ele>
        <time>2018-03-08T06:37:15Z</time>
      </trkpt>
      <trkpt lat="46.75358" lon="-1.67678">
        <ele>13</ele>
        <time>2018-03-08T06:38:15Z</time>
      </trkpt>
      <trkpt lat="46.75364" lon="-1.67692">
        <ele>14</ele>
        <time>2018-03-08T06:39:15Z</time>
      </trkpt>
      <trkpt lat="46.75365" lon="-1.67695">
        <ele>14</ele>
        <time>2018-03-08T06:40:15Z</time>
      </trkpt>
      <trkpt lat="46.75374" lon="-1.67717">
        <ele>16</ele>
        <time>2018-03-08T06:41:15Z</time>
      </trkpt>
      <trkpt lat="46.75384" lon="-1.67745">
        <ele>18</ele>
        <time>2018-03-08T06:42:15Z</time>
      </trkpt>
      <trkpt lat="46.75391" lon="-1.67772">
        <ele>19</ele>
        <time>2018-03-08T06:43:15Z</time>
      </trkpt>
      <trkpt lat="46.75396" lon="-1.67797">
        <ele>21</ele>
        <time>2018-03-08T06:44:15Z</time>
      </trkpt>
      <trkpt lat="46.75398" lon="-1.67808">
        <ele>21</ele>
        <time>2018-03-08T06:45:15Z</time>
      </trkpt>
      <trkpt lat="46.75404" lon="-1.67846">
        <ele>23</ele>
        <time>2018-03-08T06:46:15Z</time>
      </trkpt>
      <trkpt lat="46.75411" lon="-1.67909">
        <ele>26</ele>
        <time>2018-03-08T06:47:15Z</time>
      </trkpt>
      <trkpt lat="46.7542" lon="-1.67975">
        <ele>28</ele>
        <time>2018-03-08T06:48:15Z</time>
      </trkpt>
      <trkpt lat="46.75433" lon="-1.68059">
        <ele>29</ele>
        <time>2018-03-08T06:49:15Z</time>
      </trkpt>
      <trkpt lat="46.75436" lon="-1.68087">
        <ele>30</ele>
        <time>2018-03-08T06:50:15Z</time>
      </trkpt>
      <trkpt lat="46.7544" lon="-1.68116">
        <ele>30</ele>
        <time>2018-03-08T06:51:15Z</time>
      </trkpt>
      <trkpt lat="46.75444" lon="-1.68144">
        <ele>31</ele>
        <time>2018-03-08T06:52:15Z</time>
      </trkpt>
      <trkpt lat="46.7545" lon="-1.68188">
        <ele>33</ele>
        <time>2018-03-08T06:53:15Z</time>
      </trkpt>
      <trkpt lat="46.75459" lon="-1.6825">
        <ele>36</ele>
        <time>2018-03-08T06:54:15Z</time>
      </trkpt>
      <trkpt lat="46.7546" lon="-1.68262">
        <ele>36</ele>
        <time>2018-03-08T06:55:15Z</time>
      </trkpt>
      <trkpt lat="46.75468" lon="-1.68322">
        <ele>37</ele>
        <time>2018-03-08T06:56:15Z</time>
      </trkpt>
      <trkpt lat="46.75476" lon="-1.68381">
        <ele>38</ele>
        <time>2018-03-08T06:57:15Z</time>
      </trkpt>
      <trkpt lat="46.75481" lon="-1.6842">
        <ele>39</ele>
        <time>2018-03-08T06:58:15Z</time>
      </trkpt>
      <trkpt lat="46.75489" lon="-1.68483">
        <ele>41</ele>
        <time>2018-03-08T06:59:15Z</time>
      </trkpt>
      <trkpt lat="46.75496" lon="-1.68539">
        <ele>42</ele>
        <time>2018-03-08T07:00:15Z</time>
      </trkpt>
      <trkpt lat="46.75501" lon="-1.68572">
        <ele>42</ele>
        <time>2018-03-08T07:01:15Z</time>
      </trkpt>
      <trkpt lat="46.75501" lon="-1.68572">
        <ele>42</ele>
        <time>2018-03-08T07:02:15Z</time>
      </trkpt>
      <trkpt lat="46.75505" lon="-1.68605">
        <ele>42</ele>
        <time>2018-03-08T07:03:15Z</time>
      </trkpt>
      <trkpt lat="46.7551" lon="-1.68638">
        <ele>42</ele>
        <time>2018-03-08T07:04:15Z</time>
      </trkpt>
      <trkpt lat="46.75513" lon="-1.6865">
        <ele>42</ele>
        <time>2018-03-08T07:05:15Z</time>
      </trkpt>
      <trkpt lat="46.75516" lon="-1.68659">
        <ele>43</ele>
        <time>2018-03-08T07:06:15Z</time>
      </trkpt>
      <trkpt lat="46.7552" lon="-1.68666">
        <ele>43</ele>
        <time>2018-03-08T07:07:15Z</time>
      </trkpt>
      <trkpt lat="46.7552" lon="-1.68666">
        <ele>43</ele>
        <time>2018-03-08T07:08:15Z</time>
      </trkpt>
      <trkpt lat="46.75526" lon="-1.68671">
        <ele>42</ele>
        <time>2018-03-08T07:09:15Z</time>
      </trkpt>
      <trkpt lat="46.75531" lon="-1.68674">
        <ele>42</ele>
        <time>2018-03-08T07:10:15Z</time>
      </trkpt>
      <trkpt lat="46.75539" lon="-1.6868">
        <ele>42</ele>
        <time>2018-03-08T07:11:15Z</time>
      </trkpt>
      <trkpt lat="46.75546" lon="-1.68684">
        <ele>42</ele>
        <time>2018-03-08T07:12:15Z</time>
      </trkpt>
      <trkpt lat="46.75552" lon="-1.68689">
        <ele>42</ele>
        <time>2018-03-08T07:13:15Z</time>
      </trkpt>
      <trkpt lat="46.75557" lon="-1.68695">
        <ele>42</ele>
        <time>2018-03-08T07:14:15Z</time>
      </trkpt>
      <trkpt lat="46.75564" lon="-1.68705">
        <ele>42</ele>
        <time>2018-03-08T07:15:15Z</time>
      </trkpt>
      <trkpt lat="46.75577" lon="-1.68726">
        <ele>43</ele>
        <time>2018-03-08T07:16:15Z</time>
      </trkpt>
      <trkpt lat="46.7559" lon="-1.68748">
        <ele>43</ele>
        <time>2018-03-08T07:17:15Z</time>
      </trkpt>
      <trkpt lat="46.75609" lon="-1.68781">
        <ele>43</ele>
        <time>2018-03-08T07:18:15Z</time>
      </trkpt>
      <trkpt lat="46.75622" lon="-1.68801">
        <ele>44</ele>
        <time>2018-03-08T07:19:15Z</time>
      </trkpt>
      <trkpt lat="46.75635" lon="-1.68818">
        <ele>44</ele>
        <time>2018-03-08T07:20:15Z</time>
      </trkpt>
      <trkpt lat="46.7565" lon="-1.68832">
        <ele>44</ele>
        <time>2018-03-08T07:21:15Z</time>
      </trkpt>
      <trkpt lat="46.75661" lon="-1.6884">
        <ele>44</ele>
        <time>2018-03-08T07:22:15Z</time>
      </trkpt>
      <trkpt lat="46.75679" lon="-1.68854">
        <ele>44</ele>
        <time>2018-03-08T07:23:15Z</time>
      </trkpt>
      <trkpt lat="46.75701" lon="-1.68873">
        <ele>44</ele>
        <time>2018-03-08T07:24:15Z</time>
      </trkpt>
      <trkpt lat="46.75724" lon="-1.68893">
        <ele>44</ele>
        <time>2018-03-08T07:25:15Z</time>
      </trkpt>
      <trkpt lat="46.7574" lon="-1.68909">
        <ele>44</ele>
        <time>2018-03-08T07:26:15Z</time>
      </trkpt>
      <trkpt lat="46.75752" lon="-1.68923">
        <ele>44</ele>
        <time>2018-03-08T07:27:15Z</time>
      </trkpt>
      <trkpt lat="46.7576" lon="-1.68938">
        <ele>44</ele>
        <time>2018-03-08T07:28:15Z</time>
      </trkpt>
      <trkpt lat="46.75765" lon="-1.68944">
        <ele>44</ele>
        <time>2018-03-08T07:29:15Z</time>
      </trkpt>
      <trkpt lat="46.75768" lon="-1.68948">
        <ele>44</ele>
        <time>2018-03-08T07:30:15Z</time>
      </trkpt>
      <trkpt lat="46.75772" lon="-1.68954">
        <ele>44</ele>
        <time>2018-03-08T07:31:15Z</time>
      </trkpt>
      <trkpt lat="46.75778" lon="-1.68957">
        <ele>44</ele>
        <time>2018-03-08T07:32:15Z</time>
      </trkpt>
      <trkpt lat="46.75788" lon="-1.68962">
        <ele>44</ele>
        <time>2018-03-08T07:33:15Z</time>
      </trkpt>
      <trkpt lat="46.75802" lon="-1.68966">
        <ele>44</ele>
        <time>2018-03-08T07:34:15Z</time>
      </trkpt>
      <trkpt lat="46.75809" lon="-1.68969">
        <ele>44</ele>
        <time>2018-03-08T07:35:15Z</time>
      </trkpt>
      <trkpt lat="46.75814" lon="-1.68971">
        <ele>44</ele>
        <time>2018-03-08T07:36:15Z</time>
      </trkpt>
      <trkpt lat="46.75821" lon="-1.68976">
        <ele>44</ele>
        <time>2018-03-08T07:37:15Z</time>
      </trkpt>
      <trkpt lat="46.75833" lon="-1.68986">
        <ele>44</ele>
        <time>2018-03-08T07:38:15Z</time>
      </trkpt>
      <trkpt lat="46.75848" lon="-1.69004">
        <ele>45</ele>
        <time>2018-03-08T07:39:15Z</time>
      </trkpt>
      <trkpt lat="46.75871" lon="-1.69036">
        <ele>46</ele>
        <time>2018-03-08T07:40:15Z</time>
      </trkpt>
      <trkpt lat="46.75891" lon="-1.69061">
        <ele>48</ele>
        <time>2018-03-08T07:41:15Z</time>
      </trkpt>
      <trkpt lat="46.75903" lon="-1.69074">
        <ele>48</ele>
        <time>2018-03-08T07:42:15Z</time>
      </trkpt>
      <trkpt lat="46.75916" lon="-1.69085">
        <ele>48</ele>
        <time>2018-03-08T07:43:15Z</time>
      </trkpt>
      <trkpt lat="46.75927" lon="-1.69091">
        <ele>48</ele>
        <time>2018-03-08T07:44:15Z</time>
      </trkpt>
      <trkpt lat="46.75937" lon="-1.69095">
        <ele>48</ele>
        <time>2018-03-08T07:45:15Z</time>
      </trkpt>
      <trkpt lat="46.75945" lon="-1.69097">
        <ele>48</ele>
        <time>2018-03-08T07:46:15Z</time>
      </trkpt>
      <trkpt lat="46.75958" lon="-1.69101">
        <ele>48</ele>
        <time>2018-03-08T07:47:15Z</time>
      </trkpt>
      <trkpt lat="46.75971" lon="-1.69103">
        <ele>48</ele>
        <time>2018-03-08T07:48:15Z</time>
      </trkpt>
      <trkpt lat="46.76003" lon="-1.69106">
        <ele>49</ele>
        <time>2018-03-08T07:49:15Z</time>
      </trkpt>
      <trkpt lat="46.7601" lon="-1.69106">
        <ele>49</ele>
        <time>2018-03-08T07:50:15Z</time>
      </trkpt>
      <trkpt lat="46.76033" lon="-1.69109">
        <ele>49</ele>
        <time>2018-03-08T07:51:15Z</time>
      </trkpt>
      <trkpt lat="46.76063" lon="-1.69111">
        <ele>49</ele>
        <time>2018-03-08T07:52:15Z</time>
      </trkpt>
      <trkpt lat="46.76094" lon="-1.69113">
        <ele>49</ele>
        <time>2018-03-08T07:53:15Z</time>
      </trkpt>
      <trkpt lat="46.76117" lon="-1.69115">
        <ele>49</ele>
        <time>2018-03-08T07:54:15Z</time>
      </trkpt>
      <trkpt lat="46.76134" lon="-1.69117">
        <ele>49</ele>
        <time>2018-03-08T07:55:15Z</time>
      </trkpt>
      <trkpt lat="46.76141" lon="-1.69119">
        <ele>49</ele>
        <time>2018-03-08T07:56:15Z</time>
      </trkpt>
      <trkpt lat="46.76158" lon="-1.69125">
        <ele>49</ele>
        <time>2018-03-08T07:57:15Z</time>
      </trkpt>
      <trkpt lat="46.76176" lon="-1.69133">
        <ele>49</ele>
        <time>2018-03-08T07:58:15Z</time>
      </trkpt>
      <trkpt lat="46.76201" lon="-1.69145">
        <ele>49</ele>
        <time>2018-03-08T07:59:15Z</time>
      </trkpt>
      <trkpt lat="46.7622" lon="-1.69156">
        <ele>48</ele>
        <time>2018-03-08T08:00:15Z</time>
      </trkpt>
      <trkpt lat="46.76237" lon="-1.69167">
        <ele>47</ele>
        <time>2018-03-08T08:01:15Z</time>
      </trkpt>
      <trkpt lat="46.76259" lon="-1.69184">
        <ele>47</ele>
        <time>2018-03-08T08:02:15Z</time>
      </trkpt>
      <trkpt lat="46.76276" lon="-1.69196">
        <ele>47</ele>
        <time>2018-03-08T08:03:15Z</time>
      </trkpt>
      <trkpt lat="46.76292" lon="-1.69206">
        <ele>47</ele>
        <time>2018-03-08T08:04:15Z</time>
      </trkpt>
      <trkpt lat="46.76302" lon="-1.69211">
        <ele>47</ele>
        <time>2018-03-08T08:05:15Z</time>
      </trkpt>
      <trkpt lat="46.76312" lon="-1.69216">
        <ele>47</ele>
        <time>2018-03-08T08:06:15Z</time>
      </trkpt>
      <trkpt lat="46.76336" lon="-1.69224">
        <ele>47</ele>
        <time>2018-03-08T08:07:15Z</time>
      </trkpt>
      <trkpt lat="46.76361" lon="-1.69233">
        <ele>48</ele>
        <time>2018-03-08T08:08:15Z</time>
      </trkpt>
      <trkpt lat="46.76361" lon="-1.69233">
        <ele>48</ele>
        <time>2018-03-08T08:09:15Z</time>
      </trkpt>
      <trkpt lat="46.76376" lon="-1.69241">
        <ele>48</ele>
        <time>2018-03-08T08:10:15Z</time>
      </trkpt>
      <trkpt lat="46.76387" lon="-1.69251">
        <ele>48</ele>
        <time>2018-03-08T08:11:15Z</time>
      </trkpt>
      <trkpt lat="46.76399" lon="-1.69265">
        <ele>49</ele>
        <time>2018-03-08T08:12:15Z</time>
      </trkpt>
      <trkpt lat="46.76405" lon="-1.69277">
        <ele>49</ele>
        <time>2018-03-08T08:13:15Z</time>
      </trkpt>
      <trkpt lat="46.76414" lon="-1.69294">
        <ele>49</ele>
        <time>2018-03-08T08:14:15Z</time>
      </trkpt>
      <trkpt lat="46.7644" lon="-1.69357">
        <ele>49</ele>
        <time>2018-03-08T08:15:15Z</time>
      </trkpt>
      <trkpt lat="46.7645" lon="-1.69384">
        <ele>49</ele>
        <time>2018-03-08T08:16:15Z</time>
      </trkpt>
      <trkpt lat="46.76473" lon="-1.69442">
        <ele>49</ele>
        <time>2018-03-08T08:17:15Z</time>
      </trkpt>
      <trkpt lat="46.76494" lon="-1.69491">
        <ele>49</ele>
        <time>2018-03-08T08:18:15Z</time>
      </trkpt>
      <trkpt lat="46.76509" lon="-1.69531">
        <ele>49</ele>
        <time>2018-03-08T08:19:15Z</time>
      </trkpt>
      <trkpt lat="46.76523" lon="-1.69574">
        <ele>50</ele>
        <time>2018-03-08T08:20:15Z</time>
      </trkpt>
      <trkpt lat="46.76541" lon="-1.69615">
        <ele>50</ele>
        <time>2018-03-08T08:21:15Z</time>
      </trkpt>
      <trkpt lat="46.76556" lon="-1.6965">
        <ele>50</ele>
        <time>2018-03-08T08:22:15Z</time>
      </trkpt>
      <trkpt lat="46.76568" lon="-1.69675">
        <ele>50</ele>
        <time>2018-03-08T08:23:15Z</time>
      </trkpt>
      <trkpt lat="46.76568" lon="-1.69675">
        <ele>50</ele>
        <time>2018-03-08T08:24:15Z</time>
      </trkpt>
      <trkpt lat="46.76575" lon="-1.69689">
        <ele>50</ele>
        <time>2018-03-08T08:25:15Z</time>
      </trkpt>
      <trkpt lat="46.76586" lon="-1.69706">
        <ele>50</ele>
        <time>2018-03-08T08:26:15Z</time>
      </trkpt>
      <trkpt lat="46.76606" lon="-1.6973">
        <ele>49</ele>
        <time>2018-03-08T08:27:15Z</time>
      </trkpt>
      <trkpt lat="46.76631" lon="-1.6976">
        <ele>49</ele>
        <time>2018-03-08T08:28:15Z</time>
      </trkpt>
      <trkpt lat="46.76652" lon="-1.69783">
        <ele>49</ele>
        <time>2018-03-08T08:29:15Z</time>
      </trkpt>
      <trkpt lat="46.76673" lon="-1.69808">
        <ele>48</ele>
        <time>2018-03-08T08:30:15Z</time>
      </trkpt>
      <trkpt lat="46.76686" lon="-1.69826">
        <ele>48</ele>
        <time>2018-03-08T08:31:15Z</time>
      </trkpt>
      <trkpt lat="46.76699" lon="-1.69853">
        <ele>47</ele>
        <time>2018-03-08T08:32:15Z</time>
      </trkpt>
      <trkpt lat="46.76709" lon="-1.69874">
        <ele>46</ele>
        <time>2018-03-08T08:33:15Z</time>
      </trkpt>
      <trkpt lat="46.76721" lon="-1.69888">
        <ele>46</ele>
        <time>2018-03-08T08:34:15Z</time>
      </trkpt>
      <trkpt lat="46.76742" lon="-1.69906">
        <ele>45</ele>
        <time>2018-03-08T08:35:15Z</time>
      </trkpt>
      <trkpt lat="46.76767" lon="-1.69923">
        <ele>43</ele>
        <time>2018-03-08T08:36:15Z</time>
      </trkpt>
      <trkpt lat="46.76791" lon="-1.69943">
        <ele>41</ele>
        <time>2018-03-08T08:37:15Z</time>
      </trkpt>
      <trkpt lat="46.76813" lon="-1.69964">
        <ele>40</ele>
        <time>2018-03-08T08:38:15Z</time>
      </trkpt>
      <trkpt lat="46.76826" lon="-1.69979">
        <ele>39</ele>
        <time>2018-03-08T08:39:15Z</time>
      </trkpt>
      <trkpt lat="46.76837" lon="-1.69998">
        <ele>38</ele>
        <time>2018-03-08T08:40:15Z</time>
      </trkpt>
      <trkpt lat="46.76844" lon="-1.70011">
        <ele>37</ele>
        <time>2018-03-08T08:41:15Z</time>
      </trkpt>
      <trkpt lat="46.76852" lon="-1.7003">
        <ele>37</ele>
        <time>2018-03-08T08:42:15Z</time>
      </trkpt>
      <trkpt lat="46.76852" lon="-1.70032">
        <ele>37</ele>
        <time>2018-03-08T08:43:15Z</time>
      </trkpt>
      <trkpt lat="46.76865" lon="-1.70059">
        <ele>36</ele>
        <time>2018-03-08T08:44:15Z</time>
      </trkpt>
      <trkpt lat="46.76881" lon="-1.70101">
        <ele>34</ele>
        <time>2018-03-08T08:45:15Z</time>
      </trkpt>
      <trkpt lat="46.76889" lon="-1.7012">
        <ele>34</ele>
        <time>2018-03-08T08:46:15Z</time>
      </trkpt>
      <trkpt lat="46.76898" lon="-1.70139">
        <ele>33</ele>
        <time>2018-03-08T08:47:15Z</time>
      </trkpt>
      <trkpt lat="46.76907" lon="-1.70157">
        <ele>32</ele>
        <time>2018-03-08T08:48:15Z</time>
      </trkpt>
      <trkpt lat="46.76917" lon="-1.70174">
        <ele>32</ele>
        <time>2018-03-08T08:49:15Z</time>
      </trkpt>
      <trkpt lat="46.76928" lon="-1.7019">
        <ele>33</ele>
        <time>2018-03-08T08:50:15Z</time>
      </trkpt>
      <trkpt lat="46.76946" lon="-1.70215">
        <ele>34</ele>
        <time>2018-03-08T08:51:15Z</time>
      </trkpt>
      <trkpt lat="46.76959" lon="-1.70235">
        <ele>34</ele>
        <time>2018-03-08T08:52:15Z</time>
      </trkpt>
      <trkpt lat="46.76976" lon="-1.70258">
        <ele>34</ele>
        <time>2018-03-08T08:53:15Z</time>
      </trkpt>
      <trkpt lat="46.76998" lon="-1.7029">
        <ele>33</ele>
        <time>2018-03-08T08:54:15Z</time>
      </trkpt>
      <trkpt lat="46.77025" lon="-1.70328">
        <ele>33</ele>
        <time>2018-03-08T08:55:15Z</time>
      </trkpt>
      <trkpt lat="46.77029" lon="-1.70336">
        <ele>33</ele>
        <time>2018-03-08T08:56:15Z</time>
      </trkpt>
      <trkpt lat="46.77048" lon="-1.70363">
        <ele>33</ele>
        <time>2018-03-08T08:57:15Z</time>
      </trkpt>
      <trkpt lat="46.77066" lon="-1.70392">
        <ele>33</ele>
        <time>2018-03-08T08:58:15Z</time>
      </trkpt>
      <trkpt lat="46.77095" lon="-1.70436">
        <ele>34</ele>
        <time>2018-03-08T08:59:15Z</time>
      </trkpt>
      <trkpt lat="46.77128" lon="-1.70486">
        <ele>36</ele>
        <time>2018-03-08T09:00:15Z</time>
      </trkpt>
      <trkpt lat="46.77143" lon="-1.70511">
        <ele>37</ele>
        <time>2018-03-08T09:01:15Z</time>
      </trkpt>
      <trkpt lat="46.77155" lon="-1.70536">
        <ele>39</ele>
        <time>2018-03-08T09:02:15Z</time>
      </trkpt>
      <trkpt lat="46.77168" lon="-1.70566">
        <ele>40</ele>
        <time>2018-03-08T09:03:15Z</time>
      </trkpt>
      <trkpt lat="46.77176" lon="-1.70585">
        <ele>40</ele>
        <time>2018-03-08T09:04:15Z</time>
      </trkpt>
      <trkpt lat="46.77176" lon="-1.70585">
        <ele>40</ele>
        <time>2018-03-08T09:05:15Z</time>
      </trkpt>
      <trkpt lat="46.77182" lon="-1.70603">
        <ele>41</ele>
        <time>2018-03-08T09:06:15Z</time>
      </trkpt>
      <trkpt lat="46.77198" lon="-1.70647">
        <ele>42</ele>
        <time>2018-03-08T09:07:15Z</time>
      </trkpt>
      <trkpt lat="46.77209" lon="-1.7068">
        <ele>43</ele>
        <time>2018-03-08T09:08:15Z</time>
      </trkpt>
      <trkpt lat="46.77214" lon="-1.70697">
        <ele>44</ele>
        <time>2018-03-08T09:09:15Z</time>
      </trkpt>
      <trkpt lat="46.77219" lon="-1.70708">
        <ele>44</ele>
        <time>2018-03-08T09:10:15Z</time>
      </trkpt>
      <trkpt lat="46.77226" lon="-1.70725">
        <ele>44</ele>
        <time>2018-03-08T09:11:15Z</time>
      </trkpt>
      <trkpt lat="46.77237" lon="-1.70741">
        <ele>45</ele>
        <time>2018-03-08T09:12:15Z</time>
      </trkpt>
      <trkpt lat="46.77259" lon="-1.70774">
        <ele>46</ele>
        <time>2018-03-08T09:13:15Z</time>
      </trkpt>
      <trkpt lat="46.77312" lon="-1.70853">
        <ele>49</ele>
        <time>2018-03-08T09:14:15Z</time>
      </trkpt>
      <trkpt lat="46.77332" lon="-1.70884">
        <ele>50</ele>
        <time>2018-03-08T09:15:15Z</time>
      </trkpt>
      <trkpt lat="46.77345" lon="-1.70904">
        <ele>50</ele>
        <time>2018-03-08T09:16:15Z</time>
      </trkpt>
      <trkpt lat="46.77357" lon="-1.70925">
        <ele>50</ele>
        <time>2018-03-08T09:17:15Z</time>
      </trkpt>
      <trkpt lat="46.77374" lon="-1.70959">
        <ele>50</ele>
        <time>2018-03-08T09:18:15Z</time>
      </trkpt>
      <trkpt lat="46.77398" lon="-1.7102">
        <ele>51</ele>
        <time>2018-03-08T09:19:15Z</time>
      </trkpt>
      <trkpt lat="46.77422" lon="-1.71077">
        <ele>52</ele>
        <time>2018-03-08T09:20:15Z</time>
      </trkpt>
      <trkpt lat="46.77431" lon="-1.71098">
        <ele>52</ele>
        <time>2018-03-08T09:21:15Z</time>
      </trkpt>
      <trkpt lat="46.77439" lon="-1.71114">
        <ele>53</ele>
        <time>2018-03-08T09:22:15Z</time>
      </trkpt>
      <trkpt lat="46.77444" lon="-1.71126">
        <ele>53</ele>
        <time>2018-03-08T09:23:15Z</time>
      </trkpt>
      <trkpt lat="46.77458" lon="-1.71149">
        <ele>54</ele>
        <time>2018-03-08T09:24:15Z</time>
      </trkpt>
      <trkpt lat="46.77467" lon="-1.71165">
        <ele>54</ele>
        <time>2018-03-08T09:25:15Z</time>
      </trkpt>
      <trkpt lat="46.77467" lon="-1.71165">
        <ele>54</ele>
        <time>2018-03-08T09:26:15Z</time>
      </trkpt>
      <trkpt lat="46.7748" lon="-1.71185">
        <ele>54</ele>
        <time>2018-03-08T09:27:15Z</time>
      </trkpt>
      <trkpt lat="46.77487" lon="-1.71194">
        <ele>54</ele>
        <time>2018-03-08T09:28:15Z</time>
      </trkpt>
      <trkpt lat="46.77494" lon="-1.71204">
        <ele>54</ele>
        <time>2018-03-08T09:29:15Z</time>
      </trkpt>
      <trkpt lat="46.775" lon="-1.71213">
        <ele>55</ele>
        <time>2018-03-08T09:30:15Z</time>
      </trkpt>
      <trkpt lat="46.77514" lon="-1.7123">
        <ele>55</ele>
        <time>2018-03-08T09:31:15Z</time>
      </trkpt>
      <trkpt lat="46.77535" lon="-1.71255">
        <ele>54</ele>
        <time>2018-03-08T09:32:15Z</time>
      </trkpt>
      <trkpt lat="46.77563" lon="-1.71289">
        <ele>53</ele>
        <time>2018-03-08T09:33:15Z</time>
      </trkpt>
      <trkpt lat="46.7759" lon="-1.71321">
        <ele>52</ele>
        <time>2018-03-08T09:34:15Z</time>
      </trkpt>
      <trkpt lat="46.77606" lon="-1.7134">
        <ele>52</ele>
        <time>2018-03-08T09:35:15Z</time>
      </trkpt>
      <trkpt lat="46.77627" lon="-1.71365">
        <ele>52</ele>
        <time>2018-03-08T09:36:15Z</time>
      </trkpt>
      <trkpt lat="46.77646" lon="-1.71391">
        <ele>52</ele>
        <time>2018-03-08T09:37:15Z</time>
      </trkpt>
      <trkpt lat="46.77658" lon="-1.71408">
        <ele>52</ele>
        <time>2018-03-08T09:38:15Z</time>
      </trkpt>
      <trkpt lat="46.77675" lon="-1.71434">
        <ele>52</ele>
        <time>2018-03-08T09:39:15Z</time>
      </trkpt>
      <trkpt lat="46.77685" lon="-1.71452">
        <ele>52</ele>
        <time>2018-03-08T09:40:15Z</time>
      </trkpt>
      <trkpt lat="46.77695" lon="-1.71471">
        <ele>52</ele>
        <time>2018-03-08T09:41:15Z</time>
      </trkpt>
      <trkpt lat="46.77707" lon="-1.71499">
        <ele>52</ele>
        <time>2018-03-08T09:42:15Z</time>
      </trkpt>
      <trkpt lat="46.77707" lon="-1.71499">
        <ele>52</ele>
        <time>2018-03-08T09:43:15Z</time>
      </trkpt>
      <trkpt lat="46.77715" lon="-1.71518">
        <ele>52</ele>
        <time>2018-03-08T09:44:15Z</time>
      </trkpt>
      <trkpt lat="46.77735" lon="-1.71574">
        <ele>52</ele>
        <time>2018-03-08T09:45:15Z</time>
      </trkpt>
      <trkpt lat="46.77747" lon="-1.716">
        <ele>52</ele>
        <time>2018-03-08T09:46:15Z</time>
      </trkpt>
      <trkpt lat="46.77755" lon="-1.71617">
        <ele>51</ele>
        <time>2018-03-08T09:47:15Z</time>
      </trkpt>
      <trkpt lat="46.77769" lon="-1.71642">
        <ele>50</ele>
        <time>2018-03-08T09:48:15Z</time>
      </trkpt>
      <trkpt lat="46.77793" lon="-1.71682">
        <ele>48</ele>
        <time>2018-03-08T09:49:15Z</time>
      </trkpt>
      <trkpt lat="46.77813" lon="-1.71715">
        <ele>47</ele>
        <time>2018-03-08T09:50:15Z</time>
      </trkpt>
      <trkpt lat="46.77829" lon="-1.71739">
        <ele>46</ele>
        <time>2018-03-08T09:51:15Z</time>
      </trkpt>
      <trkpt lat="46.77842" lon="-1.71759">
        <ele>46</ele>
        <time>2018-03-08T09:52:15Z</time>
      </trkpt>
      <trkpt lat="46.77848" lon="-1.71768">
        <ele>45</ele>
        <time>2018-03-08T09:53:15Z</time>
      </trkpt>
      <trkpt lat="46.77855" lon="-1.7178">
        <ele>45</ele>
        <time>2018-03-08T09:54:15Z</time>
      </trkpt>
      <trkpt lat="46.77902" lon="-1.71851">
        <ele>45</ele>
        <time>2018-03-08T09:55:15Z</time>
      </trkpt>
      <trkpt lat="46.7791" lon="-1.71862">
        <ele>45</ele>
        <time>2018-03-08T09:56:15Z</time>
      </trkpt>
      <trkpt lat="46.77916" lon="-1.7187">
        <ele>45</ele>
        <time>2018-03-08T09:57:15Z</time>
      </trkpt>
      <trkpt lat="46.77919" lon="-1.71874">
        <ele>45</ele>
        <time>2018-03-08T09:58:15Z</time>
      </trkpt>
      <trkpt lat="46.77922" lon="-1.71877">
        <ele>46</ele>
        <time>2018-03-08T09:59:15Z</time>
      </trkpt>
      <trkpt lat="46.77926" lon="-1.71878">
        <ele>46</ele>
        <time>2018-03-08T10:00:15Z</time>
      </trkpt>
      <trkpt lat="46.7793" lon="-1.71879">
        <ele>46</ele>
        <time>2018-03-08T10:01:15Z</time>
      </trkpt>
      <trkpt lat="46.77932" lon="-1.71879">
        <ele>46</ele>
        <time>2018-03-08T10:02:15Z</time>
      </trkpt>
      <trkpt lat="46.77936" lon="-1.71878">
        <ele>46</ele>
        <time>2018-03-08T10:03:15Z</time>
      </trkpt>
      <trkpt lat="46.7794" lon="-1.71876">
        <ele>46</ele>
        <time>2018-03-08T10:04:15Z</time>
      </trkpt>
      <trkpt lat="46.77956" lon="-1.71862">
        <ele>46</ele>
        <time>2018-03-08T10:05:15Z</time>
      </trkpt>
      <trkpt lat="46.77966" lon="-1.71851">
        <ele>45</ele>
        <time>2018-03-08T10:06:15Z</time>
      </trkpt>
      <trkpt lat="46.77979" lon="-1.71836">
        <ele>45</ele>
        <time>2018-03-08T10:07:15Z</time>
      </trkpt>
      <trkpt lat="46.77989" lon="-1.71824">
        <ele>45</ele>
        <time>2018-03-08T10:08:15Z</time>
      </trkpt>
      <trkpt lat="46.78002" lon="-1.71803">
        <ele>44</ele>
        <time>2018-03-08T10:09:15Z</time>
      </trkpt>
      <trkpt lat="46.78014" lon="-1.71779">
        <ele>44</ele>
        <time>2018-03-08T10:10:15Z</time>
      </trkpt>
      <trkpt lat="46.78014" lon="-1.71779">
        <ele>44</ele>
        <time>2018-03-08T10:11:15Z</time>
      </trkpt>
      <trkpt lat="46.78032" lon="-1.71743">
        <ele>43</ele>
        <time>2018-03-08T10:12:15Z</time>
      </trkpt>
      <trkpt lat="46.7804" lon="-1.7173">
        <ele>43</ele>
        <time>2018-03-08T10:13:15Z</time>
      </trkpt>
      <trkpt lat="46.78048" lon="-1.71716">
        <ele>43</ele>
        <time>2018-03-08T10:14:15Z</time>
      </trkpt>
      <trkpt lat="46.78058" lon="-1.71705">
        <ele>42</ele>
        <time>2018-03-08T10:15:15Z</time>
      </trkpt>
      <trkpt lat="46.78069" lon="-1.71695">
        <ele>42</ele>
        <time>2018-03-08T10:16:15Z</time>
      </trkpt>
      <trkpt lat="46.7808" lon="-1.71686">
        <ele>42</ele>
        <time>2018-03-08T10:17:15Z</time>
      </trkpt>
      <trkpt lat="46.78099" lon="-1.71673">
        <ele>41</ele>
        <time>2018-03-08T10:18:15Z</time>
      </trkpt>
      <trkpt lat="46.78124" lon="-1.71656">
        <ele>41</ele>
        <time>2018-03-08T10:19:15Z</time>
      </trkpt>
      <trkpt lat="46.78137" lon="-1.71646">
        <ele>41</ele>
        <time>2018-03-08T10:20:15Z</time>
      </trkpt>
      <trkpt lat="46.78142" lon="-1.7164">
        <ele>41</ele>
        <time>2018-03-08T10:21:15Z</time>
      </trkpt>
      <trkpt lat="46.78148" lon="-1.71634">
        <ele>41</ele>
        <time>2018-03-08T10:22:15Z</time>
      </trkpt>
      <trkpt lat="46.78153" lon="-1.71628">
        <ele>41</ele>
        <time>2018-03-08T10:23:15Z</time>
      </trkpt>
      <trkpt lat="46.78166" lon="-1.71606">
        <ele>40</ele>
        <time>2018-03-08T10:24:15Z</time>
      </trkpt>
      <trkpt lat="46.78171" lon="-1.71599">
        <ele>40</ele>
        <time>2018-03-08T10:25:15Z</time>
      </trkpt>
      <trkpt lat="46.78177" lon="-1.71592">
        <ele>40</ele>
        <time>2018-03-08T10:26:15Z</time>
      </trkpt>
      <trkpt lat="46.78182" lon="-1.71585">
        <ele>40</ele>
        <time>2018-03-08T10:27:15Z</time>
      </trkpt>
      <trkpt lat="46.78188" lon="-1.7158">
        <ele>40</ele>
        <time>2018-03-08T10:28:15Z</time>
      </trkpt>
      <trkpt lat="46.78195" lon="-1.71574">
        <ele>40</ele>
        <time>2018-03-08T10:29:15Z</time>
      </trkpt>
      <trkpt lat="46.78207" lon="-1.71565">
        <ele>39</ele>
        <time>2018-03-08T10:30:15Z</time>
      </trkpt>
      <trkpt lat="46.78214" lon="-1.71561">
        <ele>39</ele>
        <time>2018-03-08T10:31:15Z</time>
      </trkpt>
      <trkpt lat="46.78226" lon="-1.71556">
        <ele>39</ele>
        <time>2018-03-08T10:32:15Z</time>
      </trkpt>
      <trkpt lat="46.78235" lon="-1.71555">
        <ele>39</ele>
        <time>2018-03-08T10:33:15Z</time>
      </trkpt>
      <trkpt lat="46.78242" lon="-1.71554">
        <ele>39</ele>
        <time>2018-03-08T10:34:15Z</time>
      </trkpt>
      <trkpt lat="46.7825" lon="-1.71555">
        <ele>39</ele>
        <time>2018-03-08T10:35:15Z</time>
      </trkpt>
      <trkpt lat="46.78264" lon="-1.71558">
        <ele>39</ele>
        <time>2018-03-08T10:36:15Z</time>
      </trkpt>
      <trkpt lat="46.78286" lon="-1.71569">
        <ele>40</ele>
        <time>2018-03-08T10:37:15Z</time>
      </trkpt>
      <trkpt lat="46.78329" lon="-1.71596">
        <ele>43</ele>
        <time>2018-03-08T10:38:15Z</time>
      </trkpt>
      <trkpt lat="46.78343" lon="-1.71604">
        <ele>43</ele>
        <time>2018-03-08T10:39:15Z</time>
      </trkpt>
      <trkpt lat="46.78394" lon="-1.71635">
        <ele>44</ele>
        <time>2018-03-08T10:40:15Z</time>
      </trkpt>
      <trkpt lat="46.78417" lon="-1.71651">
        <ele>45</ele>
        <time>2018-03-08T10:41:15Z</time>
      </trkpt>
      <trkpt lat="46.78461" lon="-1.71683">
        <ele>46</ele>
        <time>2018-03-08T10:42:15Z</time>
      </trkpt>
      <trkpt lat="46.78496" lon="-1.71709">
        <ele>47</ele>
        <time>2018-03-08T10:43:15Z</time>
      </trkpt>
      <trkpt lat="46.78506" lon="-1.71714">
        <ele>47</ele>
        <time>2018-03-08T10:44:15Z</time>
      </trkpt>
      <trkpt lat="46.78524" lon="-1.71722">
        <ele>47</ele>
        <time>2018-03-08T10:45:15Z</time>
      </trkpt>
      <trkpt lat="46.78548" lon="-1.7173">
        <ele>48</ele>
        <time>2018-03-08T10:46:15Z</time>
      </trkpt>
      <trkpt lat="46.78589" lon="-1.71744">
        <ele>48</ele>
        <time>2018-03-08T10:47:15Z</time>
      </trkpt>
      <trkpt lat="46.78646" lon="-1.71762">
        <ele>47</ele>
        <time>2018-03-08T10:48:15Z</time>
      </trkpt>
      <trkpt lat="46.78646" lon="-1.71762">
        <ele>47</ele>
        <time>2018-03-08T10:49:15Z</time>
      </trkpt>
      <trkpt lat="46.78631" lon="-1.71864">
        <ele>48</ele>
        <time>2018-03-08T10:50:15Z</time>
      </trkpt>
      <trkpt lat="46.78613" lon="-1.71983">
        <ele>49</ele>
        <time>2018-03-08T10:51:15Z</time>
      </trkpt>
      <trkpt lat="46.78608" lon="-1.7203">
        <ele>49</ele>
        <time>2018-03-08T10:52:15Z</time>
      </trkpt>
      <trkpt lat="46.78605" lon="-1.72056">
        <ele>49</ele>
        <time>2018-03-08T10:53:15Z</time>
      </trkpt>
      <trkpt lat="46.78603" lon="-1.72087">
        <ele>50</ele>
        <time>2018-03-08T10:54:15Z</time>
      </trkpt>
      <trkpt lat="46.78599" lon="-1.72138">
        <ele>49</ele>
        <time>2018-03-08T10:55:15Z</time>
      </trkpt>
      <trkpt lat="46.78597" lon="-1.72175">
        <ele>49</ele>
        <time>2018-03-08T10:56:15Z</time>
      </trkpt>
      <trkpt lat="46.78591" lon="-1.72291">
        <ele>49</ele>
        <time>2018-03-08T10:57:15Z</time>
      </trkpt>
      <trkpt lat="46.78586" lon="-1.72381">
        <ele>49</ele>
        <time>2018-03-08T10:58:15Z</time>
      </trkpt>
      <trkpt lat="46.7858" lon="-1.72481">
        <ele>49</ele>
        <time>2018-03-08T10:59:15Z</time>
      </trkpt>
      <trkpt lat="46.78576" lon="-1.72562">
        <ele>49</ele>
        <time>2018-03-08T11:00:15Z</time>
      </trkpt>
      <trkpt lat="46.78571" lon="-1.72641">
        <ele>49</ele>
        <time>2018-03-08T11:01:15Z</time>
      </trkpt>
      <trkpt lat="46.7857" lon="-1.72658">
        <ele>49</ele>
        <time>2018-03-08T11:02:15Z</time>
      </trkpt>
      <trkpt lat="46.78569" lon="-1.72677">
        <ele>49</ele>
        <time>2018-03-08T11:03:15Z</time>
      </trkpt>
      <trkpt lat="46.78569" lon="-1.7268">
        <ele>49</ele>
        <time>2018-03-08T11:04:15Z</time>
      </trkpt>
      <trkpt lat="46.78567" lon="-1.72701">
        <ele>49</ele>
        <time>2018-03-08T11:05:15Z</time>
      </trkpt>
      <trkpt lat="46.78566" lon="-1.72721">
        <ele>49</ele>
        <time>2018-03-08T11:06:15Z</time>
      </trkpt>
      <trkpt lat="46.78564" lon="-1.72735">
        <ele>49</ele>
        <time>2018-03-08T11:07:15Z</time>
      </trkpt>
      <trkpt lat="46.78563" lon="-1.72748">
        <ele>49</ele>
        <time>2018-03-08T11:08:15Z</time>
      </trkpt>
      <trkpt lat="46.78561" lon="-1.72761">
        <ele>49</ele>
        <time>2018-03-08T11:09:15Z</time>
      </trkpt>
      <trkpt lat="46.78559" lon="-1.72776">
        <ele>49</ele>
        <time>2018-03-08T11:10:15Z</time>
      </trkpt>
      <trkpt lat="46.78556" lon="-1.72797">
        <ele>49</ele>
        <time>2018-03-08T11:11:15Z</time>
      </trkpt>
      <trkpt lat="46.78551" lon="-1.72824">
        <ele>49</ele>
        <time>2018-03-08T11:12:15Z</time>
      </trkpt>
      <trkpt lat="46.78548" lon="-1.72842">
        <ele>49</ele>
        <time>2018-03-08T11:13:15Z</time>
      </trkpt>
      <trkpt lat="46.78545" lon="-1.72862">
        <ele>50</ele>
        <time>2018-03-08T11:14:15Z</time>
      </trkpt>
      <trkpt lat="46.78526" lon="-1.7299">
        <ele>51</ele>
        <time>2018-03-08T11:15:15Z</time>
      </trkpt>
      <trkpt lat="46.78509" lon="-1.73095">
        <ele>51</ele>
        <time>2018-03-08T11:16:15Z</time>
      </trkpt>
      <trkpt lat="46.78498" lon="-1.73169">
        <ele>51</ele>
        <time>2018-03-08T11:17:15Z</time>
      </trkpt>
      <trkpt lat="46.78488" lon="-1.73237">
        <ele>50</ele>
        <time>2018-03-08T11:18:15Z</time>
      </trkpt>
      <trkpt lat="46.78485" lon="-1.73259">
        <ele>50</ele>
        <time>2018-03-08T11:19:15Z</time>
      </trkpt>
      <trkpt lat="46.78484" lon="-1.73268">
        <ele>51</ele>
        <time>2018-03-08T11:20:15Z</time>
      </trkpt>
      <trkpt lat="46.78482" lon="-1.73279">
        <ele>51</ele>
        <time>2018-03-08T11:21:15Z</time>
      </trkpt>
      <trkpt lat="46.78482" lon="-1.73291">
        <ele>51</ele>
        <time>2018-03-08T11:22:15Z</time>
      </trkpt>
      <trkpt lat="46.78481" lon="-1.73304">
        <ele>51</ele>
        <time>2018-03-08T11:23:15Z</time>
      </trkpt>
      <trkpt lat="46.78479" lon="-1.73343">
        <ele>52</ele>
        <time>2018-03-08T11:24:15Z</time>
      </trkpt>
      <trkpt lat="46.78477" lon="-1.73414">
        <ele>52</ele>
        <time>2018-03-08T11:25:15Z</time>
      </trkpt>
      <trkpt lat="46.78476" lon="-1.73484">
        <ele>52</ele>
        <time>2018-03-08T11:26:15Z</time>
      </trkpt>
      <trkpt lat="46.78475" lon="-1.7354">
        <ele>52</ele>
        <time>2018-03-08T11:27:15Z</time>
      </trkpt>
      <trkpt lat="46.78475" lon="-1.73641">
        <ele>52</ele>
        <time>2018-03-08T11:28:15Z</time>
      </trkpt>
      <trkpt lat="46.78475" lon="-1.73703">
        <ele>52</ele>
        <time>2018-03-08T11:29:15Z</time>
      </trkpt>
      <trkpt lat="46.78474" lon="-1.73757">
        <ele>52</ele>
        <time>2018-03-08T11:30:15Z</time>
      </trkpt>
      <trkpt lat="46.78474" lon="-1.73793">
        <ele>52</ele>
        <time>2018-03-08T11:31:15Z</time>
      </trkpt>
      <trkpt lat="46.78475" lon="-1.73816">
        <ele>52</ele>
        <time>2018-03-08T11:32:15Z</time>
      </trkpt>
      <trkpt lat="46.78477" lon="-1.73831">
        <ele>52</ele>
        <time>2018-03-08T11:33:15Z</time>
      </trkpt>
      <trkpt lat="46.78481" lon="-1.73888">
        <ele>52</ele>
        <time>2018-03-08T11:34:15Z</time>
      </trkpt>
      <trkpt lat="46.78489" lon="-1.73967">
        <ele>51</ele>
        <time>2018-03-08T11:35:15Z</time>
      </trkpt>
      <trkpt lat="46.78504" lon="-1.74108">
        <ele>52</ele>
        <time>2018-03-08T11:36:15Z</time>
      </trkpt>
      <trkpt lat="46.78516" lon="-1.74225">
        <ele>52</ele>
        <time>2018-03-08T11:37:15Z</time>
      </trkpt>
      <trkpt lat="46.78528" lon="-1.74334">
        <ele>53</ele>
        <time>2018-03-08T11:38:15Z</time>
      </trkpt>
      <trkpt lat="46.78532" lon="-1.74373">
        <ele>53</ele>
        <time>2018-03-08T11:39:15Z</time>
      </trkpt>
      <trkpt lat="46.78547" lon="-1.74518">
        <ele>53</ele>
        <time>2018-03-08T11:40:15Z</time>
      </trkpt>
      <trkpt lat="46.78554" lon="-1.7458">
        <ele>51</ele>
        <time>2018-03-08T11:41:15Z</time>
      </trkpt>
      <trkpt lat="46.7856" lon="-1.74634">
        <ele>51</ele>
        <time>2018-03-08T11:42:15Z</time>
      </trkpt>
      <trkpt lat="46.78568" lon="-1.74709">
        <ele>51</ele>
        <time>2018-03-08T11:43:15Z</time>
      </trkpt>
      <trkpt lat="46.78574" lon="-1.7477">
        <ele>51</ele>
        <time>2018-03-08T11:44:15Z</time>
      </trkpt>
      <trkpt lat="46.78576" lon="-1.74794">
        <ele>51</ele>
        <time>2018-03-08T11:45:15Z</time>
      </trkpt>
      <trkpt lat="46.78577" lon="-1.74814">
        <ele>50</ele>
        <time>2018-03-08T11:46:15Z</time>
      </trkpt>
      <trkpt lat="46.78577" lon="-1.74832">
        <ele>50</ele>
        <time>2018-03-08T11:47:15Z</time>
      </trkpt>
      <trkpt lat="46.78578" lon="-1.74838">
        <ele>50</ele>
        <time>2018-03-08T11:48:15Z</time>
      </trkpt>
      <trkpt lat="46.78577" lon="-1.74847">
        <ele>50</ele>
        <time>2018-03-08T11:49:15Z</time>
      </trkpt>
      <trkpt lat="46.78577" lon="-1.74855">
        <ele>50</ele>
        <time>2018-03-08T11:50:15Z</time>
      </trkpt>
      <trkpt lat="46.78576" lon="-1.74865">
        <ele>50</ele>
        <time>2018-03-08T11:51:15Z</time>
      </trkpt>
      <trkpt lat="46.78575" lon="-1.74872">
        <ele>50</ele>
        <time>2018-03-08T11:52:15Z</time>
      </trkpt>
      <trkpt lat="46.78573" lon="-1.74882">
        <ele>50</ele>
        <time>2018-03-08T11:53:15Z</time>
      </trkpt>
      <trkpt lat="46.78566" lon="-1.74925">
        <ele>50</ele>
        <time>2018-03-08T11:54:15Z</time>
      </trkpt>
      <trkpt lat="46.7855" lon="-1.75001">
        <ele>49</ele>
        <time>2018-03-08T11:55:15Z</time>
      </trkpt>
      <trkpt lat="46.78547" lon="-1.7502">
        <ele>49</ele>
        <time>2018-03-08T11:56:15Z</time>
      </trkpt>
      <trkpt lat="46.78532" lon="-1.7509">
        <ele>49</ele>
        <time>2018-03-08T11:57:15Z</time>
      </trkpt>
      <trkpt lat="46.78528" lon="-1.75115">
        <ele>48</ele>
        <time>2018-03-08T11:58:15Z</time>
      </trkpt>
      <trkpt lat="46.78511" lon="-1.75198">
        <ele>48</ele>
        <time>2018-03-08T11:59:15Z</time>
      </trkpt>
      <trkpt lat="46.78505" lon="-1.7523">
        <ele>49</ele>
        <time>2018-03-08T12:00:15Z</time>
      </trkpt>
      <trkpt lat="46.7848" lon="-1.75352">
        <ele>49</ele>
        <time>2018-03-08T12:01:15Z</time>
      </trkpt>
      <trkpt lat="46.78473" lon="-1.75387">
        <ele>49</ele>
        <time>2018-03-08T12:02:15Z</time>
      </trkpt>
      <trkpt lat="46.78459" lon="-1.75455">
        <ele>48</ele>
        <time>2018-03-08T12:03:15Z</time>
      </trkpt>
      <trkpt lat="46.78448" lon="-1.75511">
        <ele>48</ele>
        <time>2018-03-08T12:04:15Z</time>
      </trkpt>
      <trkpt lat="46.7844" lon="-1.75543">
        <ele>47</ele>
        <time>2018-03-08T12:05:15Z</time>
      </trkpt>
      <trkpt lat="46.78435" lon="-1.7556">
        <ele>47</ele>
        <time>2018-03-08T12:06:15Z</time>
      </trkpt>
      <trkpt lat="46.78429" lon="-1.75576">
        <ele>46</ele>
        <time>2018-03-08T12:07:15Z</time>
      </trkpt>
      <trkpt lat="46.78416" lon="-1.75611">
        <ele>46</ele>
        <time>2018-03-08T12:08:15Z</time>
      </trkpt>
      <trkpt lat="46.78404" lon="-1.75639">
        <ele>45</ele>
        <time>2018-03-08T12:09:15Z</time>
      </trkpt>
      <trkpt lat="46.7839" lon="-1.75668">
        <ele>45</ele>
        <time>2018-03-08T12:10:15Z</time>
      </trkpt>
      <trkpt lat="46.78386" lon="-1.75677">
        <ele>45</ele>
        <time>2018-03-08T12:11:15Z</time>
      </trkpt>
      <trkpt lat="46.78375" lon="-1.757">
        <ele>46</ele>
        <time>2018-03-08T12:12:15Z</time>
      </trkpt>
      <trkpt lat="46.78364" lon="-1.75725">
        <ele>46</ele>
        <time>2018-03-08T12:13:15Z</time>
      </trkpt>
      <trkpt lat="46.78345" lon="-1.75763">
        <ele>47</ele>
        <time>2018-03-08T12:14:15Z</time>
      </trkpt>
      <trkpt lat="46.78322" lon="-1.75813">
        <ele>47</ele>
        <time>2018-03-08T12:15:15Z</time>
      </trkpt>
      <trkpt lat="46.78305" lon="-1.75849">
        <ele>46</ele>
        <time>2018-03-08T12:16:15Z</time>
      </trkpt>
      <trkpt lat="46.78287" lon="-1.75884">
        <ele>46</ele>
        <time>2018-03-08T12:17:15Z</time>
      </trkpt>
      <trkpt lat="46.78266" lon="-1.7593">
        <ele>45</ele>
        <time>2018-03-08T12:18:15Z</time>
      </trkpt>
      <trkpt lat="46.7825" lon="-1.75964">
        <ele>45</ele>
        <time>2018-03-08T12:19:15Z</time>
      </trkpt>
      <trkpt lat="46.78249" lon="-1.75965">
        <ele>45</ele>
        <time>2018-03-08T12:20:15Z</time>
      </trkpt>
      <trkpt lat="46.78239" lon="-1.75987">
        <ele>45</ele>
        <time>2018-03-08T12:21:15Z</time>
      </trkpt>
      <trkpt lat="46.78228" lon="-1.7601">
        <ele>45</ele>
        <time>2018-03-08T12:22:15Z</time>
      </trkpt>
      <trkpt lat="46.7821" lon="-1.76048">
        <ele>46</ele>
        <time>2018-03-08T12:23:15Z</time>
      </trkpt>
      <trkpt lat="46.782" lon="-1.76071">
        <ele>47</ele>
        <time>2018-03-08T12:24:15Z</time>
      </trkpt>
      <trkpt lat="46.78187" lon="-1.76098">
        <ele>47</ele>
        <time>2018-03-08T12:25:15Z</time>
      </trkpt>
      <trkpt lat="46.7816" lon="-1.76152">
        <ele>47</ele>
        <time>2018-03-08T12:26:15Z</time>
      </trkpt>
      <trkpt lat="46.78153" lon="-1.76167">
        <ele>47</ele>
        <time>2018-03-08T12:27:15Z</time>
      </trkpt>
      <trkpt lat="46.78144" lon="-1.76183">
        <ele>47</ele>
        <time>2018-03-08T12:28:15Z</time>
      </trkpt>
      <trkpt lat="46.78128" lon="-1.76204">
        <ele>47</ele>
        <time>2018-03-08T12:29:15Z</time>
      </trkpt>
      <trkpt lat="46.78109" lon="-1.76231">
        <ele>47</ele>
        <time>2018-03-08T12:30:15Z</time>
      </trkpt>
      <trkpt lat="46.7809" lon="-1.76255">
        <ele>47</ele>
        <time>2018-03-08T12:31:15Z</time>
      </trkpt>
      <trkpt lat="46.78078" lon="-1.76268">
        <ele>47</ele>
        <time>2018-03-08T12:32:15Z</time>
      </trkpt>
      <trkpt lat="46.78055" lon="-1.76297">
        <ele>48</ele>
        <time>2018-03-08T12:33:15Z</time>
      </trkpt>
      <trkpt lat="46.78027" lon="-1.76332">
        <ele>50</ele>
        <time>2018-03-08T12:34:15Z</time>
      </trkpt>
      <trkpt lat="46.78008" lon="-1.76355">
        <ele>50</ele>
        <time>2018-03-08T12:35:15Z</time>
      </trkpt>
      <trkpt lat="46.77988" lon="-1.7638">
        <ele>50</ele>
        <time>2018-03-08T12:36:15Z</time>
      </trkpt>
      <trkpt lat="46.77967" lon="-1.76407">
        <ele>50</ele>
        <time>2018-03-08T12:37:15Z</time>
      </trkpt>
      <trkpt lat="46.77951" lon="-1.76427">
        <ele>50</ele>
        <time>2018-03-08T12:38:15Z</time>
      </trkpt>
      <trkpt lat="46.77928" lon="-1.76455">
        <ele>50</ele>
        <time>2018-03-08T12:39:15Z</time>
      </trkpt>
      <trkpt lat="46.77913" lon="-1.76474">
        <ele>50</ele>
        <time>2018-03-08T12:40:15Z</time>
      </trkpt>
      <trkpt lat="46.77883" lon="-1.76512">
        <ele>51</ele>
        <time>2018-03-08T12:41:15Z</time>
      </trkpt>
      <trkpt lat="46.77854" lon="-1.76548">
        <ele>52</ele>
        <time>2018-03-08T12:42:15Z</time>
      </trkpt>
      <trkpt lat="46.77845" lon="-1.76559">
        <ele>52</ele>
        <time>2018-03-08T12:43:15Z</time>
      </trkpt>
      <trkpt lat="46.77826" lon="-1.76584">
        <ele>52</ele>
        <time>2018-03-08T12:44:15Z</time>
      </trkpt>
      <trkpt lat="46.77822" lon="-1.76589">
        <ele>52</ele>
        <time>2018-03-08T12:45:15Z</time>
      </trkpt>
      <trkpt lat="46.7779" lon="-1.76628">
        <ele>52</ele>
        <time>2018-03-08T12:46:15Z</time>
      </trkpt>
      <trkpt lat="46.77786" lon="-1.76634">
        <ele>52</ele>
        <time>2018-03-08T12:47:15Z</time>
      </trkpt>
      <trkpt lat="46.77743" lon="-1.76686">
        <ele>53</ele>
        <time>2018-03-08T12:48:15Z</time>
      </trkpt>
      <trkpt lat="46.7773" lon="-1.76703">
        <ele>52</ele>
        <time>2018-03-08T12:49:15Z</time>
      </trkpt>
      <trkpt lat="46.77721" lon="-1.76715">
        <ele>52</ele>
        <time>2018-03-08T12:50:15Z</time>
      </trkpt>
      <trkpt lat="46.77712" lon="-1.7673">
        <ele>52</ele>
        <time>2018-03-08T12:51:15Z</time>
      </trkpt>
      <trkpt lat="46.77712" lon="-1.7673">
        <ele>52</ele>
        <time>2018-03-08T12:52:15Z</time>
      </trkpt>
      <trkpt lat="46.77665" lon="-1.76719">
        <ele>53</ele>
        <time>2018-03-08T12:53:15Z</time>
      </trkpt>
      <trkpt lat="46.77665" lon="-1.76719">
        <ele>53</ele>
        <time>2018-03-08T12:54:15Z</time>
      </trkpt>
      <trkpt lat="46.77662" lon="-1.76729">
        <ele>53</ele>
        <time>2018-03-08T12:55:15Z</time>
      </trkpt>
      <trkpt lat="46.77659" lon="-1.76736">
        <ele>53</ele>
        <time>2018-03-08T12:56:15Z</time>
      </trkpt>
      <trkpt lat="46.77658" lon="-1.76739">
        <ele>53</ele>
        <time>2018-03-08T12:57:15Z</time>
      </trkpt>
      <trkpt lat="46.77656" lon="-1.76741">
        <ele>53</ele>
        <time>2018-03-08T12:58:15Z</time>
      </trkpt>
      <trkpt lat="46.77652" lon="-1.76746">
        <ele>53</ele>
        <time>2018-03-08T12:59:15Z</time>
      </trkpt>
      <trkpt lat="46.77646" lon="-1.76753">
        <ele>53</ele>
        <time>2018-03-08T13:00:15Z</time>
      </trkpt>
      <trkpt lat="46.77642" lon="-1.7676">
        <ele>53</ele>
        <time>2018-03-08T13:01:15Z</time>
      </trkpt>
      <trkpt lat="46.77617" lon="-1.76807">
        <ele>53</ele>
        <time>2018-03-08T13:02:15Z</time>
      </trkpt>
      <trkpt lat="46.77597" lon="-1.76842">
        <ele>53</ele>
        <time>2018-03-08T13:03:15Z</time>
      </trkpt>
      <trkpt lat="46.77592" lon="-1.76851">
        <ele>53</ele>
        <time>2018-03-08T13:04:15Z</time>
      </trkpt>
      <trkpt lat="46.77554" lon="-1.76921">
        <ele>53</ele>
        <time>2018-03-08T13:05:15Z</time>
      </trkpt>
      <trkpt lat="46.77511" lon="-1.77001">
        <ele>53</ele>
        <time>2018-03-08T13:06:15Z</time>
      </trkpt>
      <trkpt lat="46.77469" lon="-1.77081">
        <ele>52</ele>
        <time>2018-03-08T13:07:15Z</time>
      </trkpt>
      <trkpt lat="46.77427" lon="-1.77158">
        <ele>51</ele>
        <time>2018-03-08T13:08:15Z</time>
      </trkpt>
      <trkpt lat="46.77389" lon="-1.77229">
        <ele>51</ele>
        <time>2018-03-08T13:09:15Z</time>
      </trkpt>
      <trkpt lat="46.7736" lon="-1.77283">
        <ele>51</ele>
        <time>2018-03-08T13:10:15Z</time>
      </trkpt>
      <trkpt lat="46.77331" lon="-1.77337">
        <ele>50</ele>
        <time>2018-03-08T13:11:15Z</time>
      </trkpt>
      <trkpt lat="46.77301" lon="-1.77393">
        <ele>50</ele>
        <time>2018-03-08T13:12:15Z</time>
      </trkpt>
      <trkpt lat="46.77282" lon="-1.77428">
        <ele>50</ele>
        <time>2018-03-08T13:13:15Z</time>
      </trkpt>
      <trkpt lat="46.77263" lon="-1.77462">
        <ele>51</ele>
        <time>2018-03-08T13:14:15Z</time>
      </trkpt>
      <trkpt lat="46.77259" lon="-1.77471">
        <ele>51</ele>
        <time>2018-03-08T13:15:15Z</time>
      </trkpt>
      <trkpt lat="46.77255" lon="-1.7748">
        <ele>51</ele>
        <time>2018-03-08T13:16:15Z</time>
      </trkpt>
      <trkpt lat="46.7725" lon="-1.77491">
        <ele>51</ele>
        <time>2018-03-08T13:17:15Z</time>
      </trkpt>
      <trkpt lat="46.77246" lon="-1.77501">
        <ele>51</ele>
        <time>2018-03-08T13:18:15Z</time>
      </trkpt>
      <trkpt lat="46.77243" lon="-1.77511">
        <ele>51</ele>
        <time>2018-03-08T13:19:15Z</time>
      </trkpt>
      <trkpt lat="46.7724" lon="-1.77522">
        <ele>51</ele>
        <time>2018-03-08T13:20:15Z</time>
      </trkpt>
      <trkpt lat="46.77237" lon="-1.77534">
        <ele>52</ele>
        <time>2018-03-08T13:21:15Z</time>
      </trkpt>
      <trkpt lat="46.77233" lon="-1.77556">
        <ele>52</ele>
        <time>2018-03-08T13:22:15Z</time>
      </trkpt>
      <trkpt lat="46.77229" lon="-1.7758">
        <ele>52</ele>
        <time>2018-03-08T13:23:15Z</time>
      </trkpt>
      <trkpt lat="46.77225" lon="-1.77615">
        <ele>51</ele>
        <time>2018-03-08T13:24:15Z</time>
      </trkpt>
      <trkpt lat="46.77219" lon="-1.77662">
        <ele>50</ele>
        <time>2018-03-08T13:25:15Z</time>
      </trkpt>
      <trkpt lat="46.77218" lon="-1.77677">
        <ele>50</ele>
        <time>2018-03-08T13:26:15Z</time>
      </trkpt>
      <trkpt lat="46.77213" lon="-1.77717">
        <ele>51</ele>
        <time>2018-03-08T13:27:15Z</time>
      </trkpt>
      <trkpt lat="46.77213" lon="-1.7772">
        <ele>51</ele>
        <time>2018-03-08T13:28:15Z</time>
      </trkpt>
      <trkpt lat="46.77207" lon="-1.77775">
        <ele>51</ele>
        <time>2018-03-08T13:29:15Z</time>
      </trkpt>
      <trkpt lat="46.77204" lon="-1.77804">
        <ele>52</ele>
        <time>2018-03-08T13:30:15Z</time>
      </trkpt>
      <trkpt lat="46.772" lon="-1.77827">
        <ele>52</ele>
        <time>2018-03-08T13:31:15Z</time>
      </trkpt>
      <trkpt lat="46.77195" lon="-1.77866">
        <ele>52</ele>
        <time>2018-03-08T13:32:15Z</time>
      </trkpt>
      <trkpt lat="46.77189" lon="-1.779">
        <ele>52</ele>
        <time>2018-03-08T13:33:15Z</time>
      </trkpt>
      <trkpt lat="46.77184" lon="-1.77931">
        <ele>52</ele>
        <time>2018-03-08T13:34:15Z</time>
      </trkpt>
      <trkpt lat="46.77175" lon="-1.77979">
        <ele>52</ele>
        <time>2018-03-08T13:35:15Z</time>
      </trkpt>
      <trkpt lat="46.77163" lon="-1.78044">
        <ele>52</ele>
        <time>2018-03-08T13:36:15Z</time>
      </trkpt>
      <trkpt lat="46.77153" lon="-1.781">
        <ele>53</ele>
        <time>2018-03-08T13:37:15Z</time>
      </trkpt>
      <trkpt lat="46.77145" lon="-1.78146">
        <ele>52</ele>
        <time>2018-03-08T13:38:15Z</time>
      </trkpt>
      <trkpt lat="46.77139" lon="-1.7818">
        <ele>52</ele>
        <time>2018-03-08T13:39:15Z</time>
      </trkpt>
      <trkpt lat="46.77136" lon="-1.78202">
        <ele>52</ele>
        <time>2018-03-08T13:40:15Z</time>
      </trkpt>
      <trkpt lat="46.77132" lon="-1.78246">
        <ele>51</ele>
        <time>2018-03-08T13:41:15Z</time>
      </trkpt>
      <trkpt lat="46.77127" lon="-1.78292">
        <ele>52</ele>
        <time>2018-03-08T13:42:15Z</time>
      </trkpt>
      <trkpt lat="46.77121" lon="-1.78352">
        <ele>52</ele>
        <time>2018-03-08T13:43:15Z</time>
      </trkpt>
      <trkpt lat="46.77117" lon="-1.78396">
        <ele>53</ele>
        <time>2018-03-08T13:44:15Z</time>
      </trkpt>
      <trkpt lat="46.77115" lon="-1.7842">
        <ele>54</ele>
        <time>2018-03-08T13:45:15Z</time>
      </trkpt>
      <trkpt lat="46.77114" lon="-1.78433">
        <ele>54</ele>
        <time>2018-03-08T13:46:15Z</time>
      </trkpt>
      <trkpt lat="46.77111" lon="-1.78462">
        <ele>53</ele>
        <time>2018-03-08T13:47:15Z</time>
      </trkpt>
      <trkpt lat="46.77109" lon="-1.78483">
        <ele>53</ele>
        <time>2018-03-08T13:48:15Z</time>
      </trkpt>
      <trkpt lat="46.77106" lon="-1.785">
        <ele>53</ele>
        <time>2018-03-08T13:49:15Z</time>
      </trkpt>
      <trkpt lat="46.771" lon="-1.78527">
        <ele>53</ele>
        <time>2018-03-08T13:50:15Z</time>
      </trkpt>
      <trkpt lat="46.77093" lon="-1.78567">
        <ele>52</ele>
        <time>2018-03-08T13:51:15Z</time>
      </trkpt>
      <trkpt lat="46.77081" lon="-1.78624">
        <ele>52</ele>
        <time>2018-03-08T13:52:15Z</time>
      </trkpt>
      <trkpt lat="46.7707" lon="-1.78684">
        <ele>52</ele>
        <time>2018-03-08T13:53:15Z</time>
      </trkpt>
      <trkpt lat="46.77059" lon="-1.78738">
        <ele>52</ele>
        <time>2018-03-08T13:54:15Z</time>
      </trkpt>
      <trkpt lat="46.77043" lon="-1.7882">
        <ele>51</ele>
        <time>2018-03-08T13:55:15Z</time>
      </trkpt>
      <trkpt lat="46.77033" lon="-1.78869">
        <ele>51</ele>
        <time>2018-03-08T13:56:15Z</time>
      </trkpt>
      <trkpt lat="46.77026" lon="-1.78906">
        <ele>52</ele>
        <time>2018-03-08T13:57:15Z</time>
      </trkpt>
      <trkpt lat="46.77019" lon="-1.78939">
        <ele>52</ele>
        <time>2018-03-08T13:58:15Z</time>
      </trkpt>
      <trkpt lat="46.77009" lon="-1.78988">
        <ele>53</ele>
        <time>2018-03-08T13:59:15Z</time>
      </trkpt>
      <trkpt lat="46.77009" lon="-1.78991">
        <ele>53</ele>
        <time>2018-03-08T14:00:15Z</time>
      </trkpt>
      <trkpt lat="46.77002" lon="-1.79024">
        <ele>53</ele>
        <time>2018-03-08T14:01:15Z</time>
      </trkpt>
      <trkpt lat="46.76996" lon="-1.79055">
        <ele>52</ele>
        <time>2018-03-08T14:02:15Z</time>
      </trkpt>
      <trkpt lat="46.7699" lon="-1.79087">
        <ele>52</ele>
        <time>2018-03-08T14:03:15Z</time>
      </trkpt>
      <trkpt lat="46.76986" lon="-1.79106">
        <ele>52</ele>
        <time>2018-03-08T14:04:15Z</time>
      </trkpt>
      <trkpt lat="46.76981" lon="-1.79129">
        <ele>52</ele>
        <time>2018-03-08T14:05:15Z</time>
      </trkpt>
      <trkpt lat="46.76978" lon="-1.79146">
        <ele>52</ele>
        <time>2018-03-08T14:06:15Z</time>
      </trkpt>
      <trkpt lat="46.76972" lon="-1.79166">
        <ele>52</ele>
        <time>2018-03-08T14:07:15Z</time>
      </trkpt>
      <trkpt lat="46.76968" lon="-1.79183">
        <ele>52</ele>
        <time>2018-03-08T14:08:15Z</time>
      </trkpt>
      <trkpt lat="46.76965" lon="-1.79196">
        <ele>52</ele>
        <time>2018-03-08T14:09:15Z</time>
      </trkpt>
      <trkpt lat="46.76962" lon="-1.79204">
        <ele>52</ele>
        <time>2018-03-08T14:10:15Z</time>
      </trkpt>
      <trkpt lat="46.76946" lon="-1.79245">
        <ele>53</ele>
        <time>2018-03-08T14:11:15Z</time>
      </trkpt>
      <trkpt lat="46.7692" lon="-1.79305">
        <ele>52</ele>
        <time>2018-03-08T14:12:15Z</time>
      </trkpt>
      <trkpt lat="46.76896" lon="-1.79363">
        <ele>50</ele>
        <time>2018-03-08T14:13:15Z</time>
      </trkpt>
      <trkpt lat="46.7688" lon="-1.794">
        <ele>50</ele>
        <time>2018-03-08T14:14:15Z</time>
      </trkpt>
      <trkpt lat="46.76868" lon="-1.79427">
        <ele>49</ele>
        <time>2018-03-08T14:15:15Z</time>
      </trkpt>
      <trkpt lat="46.76857" lon="-1.79454">
        <ele>49</ele>
        <time>2018-03-08T14:16:15Z</time>
      </trkpt>
      <trkpt lat="46.76823" lon="-1.79529">
        <ele>49</ele>
        <time>2018-03-08T14:17:15Z</time>
      </trkpt>
      <trkpt lat="46.76818" lon="-1.79542">
        <ele>49</ele>
        <time>2018-03-08T14:18:15Z</time>
      </trkpt>
      <trkpt lat="46.76813" lon="-1.79556">
        <ele>48</ele>
        <time>2018-03-08T14:19:15Z</time>
      </trkpt>
      <trkpt lat="46.76809" lon="-1.79569">
        <ele>48</ele>
        <time>2018-03-08T14:20:15Z</time>
      </trkpt>
      <trkpt lat="46.76806" lon="-1.79583">
        <ele>48</ele>
        <time>2018-03-08T14:21:15Z</time>
      </trkpt>
      <trkpt lat="46.76803" lon="-1.79599">
        <ele>48</ele>
        <time>2018-03-08T14:22:15Z</time>
      </trkpt>
      <trkpt lat="46.76801" lon="-1.79619">
        <ele>48</ele>
        <time>2018-03-08T14:23:15Z</time>
      </trkpt>
      <trkpt lat="46.76796" lon="-1.79658">
        <ele>47</ele>
        <time>2018-03-08T14:24:15Z</time>
      </trkpt>
      <trkpt lat="46.7679" lon="-1.79712">
        <ele>47</ele>
        <time>2018-03-08T14:25:15Z</time>
      </trkpt>
      <trkpt lat="46.76784" lon="-1.79768">
        <ele>46</ele>
        <time>2018-03-08T14:26:15Z</time>
      </trkpt>
      <trkpt lat="46.76782" lon="-1.79789">
        <ele>46</ele>
        <time>2018-03-08T14:27:15Z</time>
      </trkpt>
      <trkpt lat="46.76772" lon="-1.79876">
        <ele>45</ele>
        <time>2018-03-08T14:28:15Z</time>
      </trkpt>
      <trkpt lat="46.76767" lon="-1.7992">
        <ele>44</ele>
        <time>2018-03-08T14:29:15Z</time>
      </trkpt>
      <trkpt lat="46.76766" lon="-1.79937">
        <ele>44</ele>
        <time>2018-03-08T14:30:15Z</time>
      </trkpt>
      <trkpt lat="46.76765" lon="-1.79951">
        <ele>45</ele>
        <time>2018-03-08T14:31:15Z</time>
      </trkpt>
      <trkpt lat="46.76764" lon="-1.79968">
        <ele>45</ele>
        <time>2018-03-08T14:32:15Z</time>
      </trkpt>
      <trkpt lat="46.76763" lon="-1.79983">
        <ele>45</ele>
        <time>2018-03-08T14:33:15Z</time>
      </trkpt>
      <trkpt lat="46.76763" lon="-1.80004">
        <ele>45</ele>
        <time>2018-03-08T14:34:15Z</time>
      </trkpt>
      <trkpt lat="46.76762" lon="-1.80082">
        <ele>46</ele>
        <time>2018-03-08T14:35:15Z</time>
      </trkpt>
      <trkpt lat="46.76762" lon="-1.80113">
        <ele>46</ele>
        <time>2018-03-08T14:36:15Z</time>
      </trkpt>
      <trkpt lat="46.7676" lon="-1.80199">
        <ele>46</ele>
        <time>2018-03-08T14:37:15Z</time>
      </trkpt>
      <trkpt lat="46.7676" lon="-1.80236">
        <ele>46</ele>
        <time>2018-03-08T14:38:15Z</time>
      </trkpt>
      <trkpt lat="46.76762" lon="-1.80251">
        <ele>46</ele>
        <time>2018-03-08T14:39:15Z</time>
      </trkpt>
      <trkpt lat="46.76763" lon="-1.80264">
        <ele>45</ele>
        <time>2018-03-08T14:40:15Z</time>
      </trkpt>
      <trkpt lat="46.76765" lon="-1.80274">
        <ele>45</ele>
        <time>2018-03-08T14:41:15Z</time>
      </trkpt>
      <trkpt lat="46.76769" lon="-1.80289">
        <ele>45</ele>
        <time>2018-03-08T14:42:15Z</time>
      </trkpt>
      <trkpt lat="46.76775" lon="-1.80307">
        <ele>44</ele>
        <time>2018-03-08T14:43:15Z</time>
      </trkpt>
      <trkpt lat="46.7678" lon="-1.80318">
        <ele>44</ele>
        <time>2018-03-08T14:44:15Z</time>
      </trkpt>
      <trkpt lat="46.76791" lon="-1.8034">
        <ele>44</ele>
        <time>2018-03-08T14:45:15Z</time>
      </trkpt>
      <trkpt lat="46.76809" lon="-1.80371">
        <ele>44</ele>
        <time>2018-03-08T14:46:15Z</time>
      </trkpt>
      <trkpt lat="46.76836" lon="-1.80414">
        <ele>45</ele>
        <time>2018-03-08T14:47:15Z</time>
      </trkpt>
      <trkpt lat="46.76846" lon="-1.80429">
        <ele>44</ele>
        <time>2018-03-08T14:48:15Z</time>
      </trkpt>
      <trkpt lat="46.76876" lon="-1.80476">
        <ele>43</ele>
        <time>2018-03-08T14:49:15Z</time>
      </trkpt>
      <trkpt lat="46.76895" lon="-1.80508">
        <ele>42</ele>
        <time>2018-03-08T14:50:15Z</time>
      </trkpt>
      <trkpt lat="46.76899" lon="-1.80517">
        <ele>42</ele>
        <time>2018-03-08T14:51:15Z</time>
      </trkpt>
      <trkpt lat="46.76903" lon="-1.80527">
        <ele>42</ele>
        <time>2018-03-08T14:52:15Z</time>
      </trkpt>
      <trkpt lat="46.76908" lon="-1.8054">
        <ele>41</ele>
        <time>2018-03-08T14:53:15Z</time>
      </trkpt>
      <trkpt lat="46.76912" lon="-1.80556">
        <ele>41</ele>
        <time>2018-03-08T14:54:15Z</time>
      </trkpt>
      <trkpt lat="46.76915" lon="-1.80568">
        <ele>40</ele>
        <time>2018-03-08T14:55:15Z</time>
      </trkpt>
      <trkpt lat="46.7692" lon="-1.80593">
        <ele>40</ele>
        <time>2018-03-08T14:56:15Z</time>
      </trkpt>
      <trkpt lat="46.76925" lon="-1.80619">
        <ele>40</ele>
        <time>2018-03-08T14:57:15Z</time>
      </trkpt>
      <trkpt lat="46.76928" lon="-1.80639">
        <ele>41</ele>
        <time>2018-03-08T14:58:15Z</time>
      </trkpt>
      <trkpt lat="46.76939" lon="-1.80697">
        <ele>41</ele>
        <time>2018-03-08T14:59:15Z</time>
      </trkpt>
      <trkpt lat="46.76944" lon="-1.80723">
        <ele>42</ele>
        <time>2018-03-08T15:00:15Z</time>
      </trkpt>
      <trkpt lat="46.76948" lon="-1.80753">
        <ele>42</ele>
        <time>2018-03-08T15:01:15Z</time>
      </trkpt>
      <trkpt lat="46.7695" lon="-1.80771">
        <ele>42</ele>
        <time>2018-03-08T15:02:15Z</time>
      </trkpt>
      <trkpt lat="46.76951" lon="-1.8078">
        <ele>42</ele>
        <time>2018-03-08T15:03:15Z</time>
      </trkpt>
      <trkpt lat="46.76952" lon="-1.80797">
        <ele>42</ele>
        <time>2018-03-08T15:04:15Z</time>
      </trkpt>
      <trkpt lat="46.76952" lon="-1.80816">
        <ele>42</ele>
        <time>2018-03-08T15:05:15Z</time>
      </trkpt>
      <trkpt lat="46.76952" lon="-1.80838">
        <ele>42</ele>
        <time>2018-03-08T15:06:15Z</time>
      </trkpt>
      <trkpt lat="46.76952" lon="-1.80868">
        <ele>41</ele>
        <time>2018-03-08T15:07:15Z</time>
      </trkpt>
      <trkpt lat="46.7695" lon="-1.80898">
        <ele>41</ele>
        <time>2018-03-08T15:08:15Z</time>
      </trkpt>
      <trkpt lat="46.76949" lon="-1.80917">
        <ele>41</ele>
        <time>2018-03-08T15:09:15Z</time>
      </trkpt>
      <trkpt lat="46.76947" lon="-1.80957">
        <ele>41</ele>
        <time>2018-03-08T15:10:15Z</time>
      </trkpt>
      <trkpt lat="46.76944" lon="-1.81016">
        <ele>42</ele>
        <time>2018-03-08T15:11:15Z</time>
      </trkpt>
      <trkpt lat="46.76941" lon="-1.81066">
        <ele>42</ele>
        <time>2018-03-08T15:12:15Z</time>
      </trkpt>
      <trkpt lat="46.76939" lon="-1.81095">
        <ele>42</ele>
        <time>2018-03-08T15:13:15Z</time>
      </trkpt>
      <trkpt lat="46.76938" lon="-1.81121">
        <ele>43</ele>
        <time>2018-03-08T15:14:15Z</time>
      </trkpt>
      <trkpt lat="46.76936" lon="-1.81139">
        <ele>43</ele>
        <time>2018-03-08T15:15:15Z</time>
      </trkpt>
      <trkpt lat="46.76933" lon="-1.81162">
        <ele>43</ele>
        <time>2018-03-08T15:16:15Z</time>
      </trkpt>
      <trkpt lat="46.76932" lon="-1.81175">
        <ele>43</ele>
        <time>2018-03-08T15:17:15Z</time>
      </trkpt>
      <trkpt lat="46.76928" lon="-1.81204">
        <ele>43</ele>
        <time>2018-03-08T15:18:15Z</time>
      </trkpt>
      <trkpt lat="46.76924" lon="-1.81233">
        <ele>42</ele>
        <time>2018-03-08T15:19:15Z</time>
      </trkpt>
      <trkpt lat="46.76917" lon="-1.81283">
        <ele>41</ele>
        <time>2018-03-08T15:20:15Z</time>
      </trkpt>
      <trkpt lat="46.76908" lon="-1.8134">
        <ele>40</ele>
        <time>2018-03-08T15:21:15Z</time>
      </trkpt>
      <trkpt lat="46.76899" lon="-1.81398">
        <ele>39</ele>
        <time>2018-03-08T15:22:15Z</time>
      </trkpt>
      <trkpt lat="46.76894" lon="-1.81436">
        <ele>38</ele>
        <time>2018-03-08T15:23:15Z</time>
      </trkpt>
      <trkpt lat="46.76887" lon="-1.81484">
        <ele>38</ele>
        <time>2018-03-08T15:24:15Z</time>
      </trkpt>
      <trkpt lat="46.76881" lon="-1.81521">
        <ele>38</ele>
        <time>2018-03-08T15:25:15Z</time>
      </trkpt>
      <trkpt lat="46.76873" lon="-1.81549">
        <ele>37</ele>
        <time>2018-03-08T15:26:15Z</time>
      </trkpt>
      <trkpt lat="46.76864" lon="-1.81578">
        <ele>36</ele>
        <time>2018-03-08T15:27:15Z</time>
      </trkpt>
      <trkpt lat="46.76854" lon="-1.816">
        <ele>35</ele>
        <time>2018-03-08T15:28:15Z</time>
      </trkpt>
      <trkpt lat="46.76846" lon="-1.81617">
        <ele>35</ele>
        <time>2018-03-08T15:29:15Z</time>
      </trkpt>
      <trkpt lat="46.76837" lon="-1.81636">
        <ele>34</ele>
        <time>2018-03-08T15:30:15Z</time>
      </trkpt>
      <trkpt lat="46.76826" lon="-1.81652">
        <ele>34</ele>
        <time>2018-03-08T15:31:15Z</time>
      </trkpt>
      <trkpt lat="46.76805" lon="-1.81679">
        <ele>33</ele>
        <time>2018-03-08T15:32:15Z</time>
      </trkpt>
      <trkpt lat="46.76768" lon="-1.81726">
        <ele>30</ele>
        <time>2018-03-08T15:33:15Z</time>
      </trkpt>
      <trkpt lat="46.7673" lon="-1.81773">
        <ele>28</ele>
        <time>2018-03-08T15:34:15Z</time>
      </trkpt>
      <trkpt lat="46.76685" lon="-1.8183">
        <ele>25</ele>
        <time>2018-03-08T15:35:15Z</time>
      </trkpt>
      <trkpt lat="46.76638" lon="-1.8189">
        <ele>22</ele>
        <time>2018-03-08T15:36:15Z</time>
      </trkpt>
      <trkpt lat="46.76596" lon="-1.81943">
        <ele>19</ele>
        <time>2018-03-08T15:37:15Z</time>
      </trkpt>
      <trkpt lat="46.76572" lon="-1.81972">
        <ele>18</ele>
        <time>2018-03-08T15:38:15Z</time>
      </trkpt>
      <trkpt lat="46.76563" lon="-1.81987">
        <ele>17</ele>
        <time>2018-03-08T15:39:15Z</time>
      </trkpt>
      <trkpt lat="46.76557" lon="-1.81999">
        <ele>17</ele>
        <time>2018-03-08T15:40:15Z</time>
      </trkpt>
      <trkpt lat="46.76553" lon="-1.8201">
        <ele>17</ele>
        <time>2018-03-08T15:41:15Z</time>
      </trkpt>
      <trkpt lat="46.76549" lon="-1.82023">
        <ele>17</ele>
        <time>2018-03-08T15:42:15Z</time>
      </trkpt>
      <trkpt lat="46.76545" lon="-1.82037">
        <ele>17</ele>
        <time>2018-03-08T15:43:15Z</time>
      </trkpt>
      <trkpt lat="46.76543" lon="-1.82051">
        <ele>18</ele>
        <time>2018-03-08T15:44:15Z</time>
      </trkpt>
      <trkpt lat="46.76541" lon="-1.82067">
        <ele>18</ele>
        <time>2018-03-08T15:45:15Z</time>
      </trkpt>
      <trkpt lat="46.76541" lon="-1.82087">
        <ele>18</ele>
        <time>2018-03-08T15:46:15Z</time>
      </trkpt>
      <trkpt lat="46.76544" lon="-1.82133">
        <ele>18</ele>
        <time>2018-03-08T15:47:15Z</time>
      </trkpt>
      <trkpt lat="46.76546" lon="-1.82166">
        <ele>18</ele>
        <time>2018-03-08T15:48:15Z</time>
      </trkpt>
      <trkpt lat="46.76551" lon="-1.82255">
        <ele>17</ele>
        <time>2018-03-08T15:49:15Z</time>
      </trkpt>
      <trkpt lat="46.76553" lon="-1.82282">
        <ele>17</ele>
        <time>2018-03-08T15:50:15Z</time>
      </trkpt>
      <trkpt lat="46.76555" lon="-1.82311">
        <ele>17</ele>
        <time>2018-03-08T15:51:15Z</time>
      </trkpt>
      <trkpt lat="46.76556" lon="-1.82325">
        <ele>17</ele>
        <time>2018-03-08T15:52:15Z</time>
      </trkpt>
      <trkpt lat="46.76558" lon="-1.82338">
        <ele>17</ele>
        <time>2018-03-08T15:53:15Z</time>
      </trkpt>
      <trkpt lat="46.76561" lon="-1.82349">
        <ele>17</ele>
        <time>2018-03-08T15:54:15Z</time>
      </trkpt>
      <trkpt lat="46.76561" lon="-1.8235">
        <ele>17</ele>
        <time>2018-03-08T15:55:15Z</time>
      </trkpt>
      <trkpt lat="46.76565" lon="-1.82358">
        <ele>17</ele>
        <time>2018-03-08T15:56:15Z</time>
      </trkpt>
      <trkpt lat="46.7657" lon="-1.82369">
        <ele>17</ele>
        <time>2018-03-08T15:57:15Z</time>
      </trkpt>
      <trkpt lat="46.76579" lon="-1.82388">
        <ele>17</ele>
        <time>2018-03-08T15:58:15Z</time>
      </trkpt>
      <trkpt lat="46.76596" lon="-1.82418">
        <ele>17</ele>
        <time>2018-03-08T15:59:15Z</time>
      </trkpt>
      <trkpt lat="46.76621" lon="-1.82458">
        <ele>17</ele>
        <time>2018-03-08T16:00:15Z</time>
      </trkpt>
      <trkpt lat="46.76638" lon="-1.82487">
        <ele>17</ele>
        <time>2018-03-08T16:01:15Z</time>
      </trkpt>
      <trkpt lat="46.76645" lon="-1.82502">
        <ele>16</ele>
        <time>2018-03-08T16:02:15Z</time>
      </trkpt>
      <trkpt lat="46.76652" lon="-1.82516">
        <ele>17</ele>
        <time>2018-03-08T16:03:15Z</time>
      </trkpt>
      <trkpt lat="46.76656" lon="-1.8253">
        <ele>17</ele>
        <time>2018-03-08T16:04:15Z</time>
      </trkpt>
      <trkpt lat="46.76661" lon="-1.82545">
        <ele>17</ele>
        <time>2018-03-08T16:05:15Z</time>
      </trkpt>
      <trkpt lat="46.76666" lon="-1.82566">
        <ele>17</ele>
        <time>2018-03-08T16:06:15Z</time>
      </trkpt>
      <trkpt lat="46.76669" lon="-1.82585">
        <ele>17</ele>
        <time>2018-03-08T16:07:15Z</time>
      </trkpt>
      <trkpt lat="46.76673" lon="-1.82609">
        <ele>17</ele>
        <time>2018-03-08T16:08:15Z</time>
      </trkpt>
      <trkpt lat="46.76679" lon="-1.82648">
        <ele>17</ele>
        <time>2018-03-08T16:09:15Z</time>
      </trkpt>
      <trkpt lat="46.76683" lon="-1.82666">
        <ele>17</ele>
        <time>2018-03-08T16:10:15Z</time>
      </trkpt>
      <trkpt lat="46.76688" lon="-1.82689">
        <ele>17</ele>
        <time>2018-03-08T16:11:15Z</time>
      </trkpt>
      <trkpt lat="46.76692" lon="-1.82703">
        <ele>17</ele>
        <time>2018-03-08T16:12:15Z</time>
      </trkpt>
      <trkpt lat="46.76694" lon="-1.82713">
        <ele>17</ele>
        <time>2018-03-08T16:13:15Z</time>
      </trkpt>
      <trkpt lat="46.76699" lon="-1.82724">
        <ele>17</ele>
        <time>2018-03-08T16:14:15Z</time>
      </trkpt>
      <trkpt lat="46.76704" lon="-1.82738">
        <ele>17</ele>
        <time>2018-03-08T16:15:15Z</time>
      </trkpt>
      <trkpt lat="46.76714" lon="-1.8276">
        <ele>18</ele>
        <time>2018-03-08T16:16:15Z</time>
      </trkpt>
      <trkpt lat="46.76727" lon="-1.8279">
        <ele>18</ele>
        <time>2018-03-08T16:17:15Z</time>
      </trkpt>
      <trkpt lat="46.76741" lon="-1.82822">
        <ele>19</ele>
        <time>2018-03-08T16:18:15Z</time>
      </trkpt>
      <trkpt lat="46.76751" lon="-1.82845">
        <ele>19</ele>
        <time>2018-03-08T16:19:15Z</time>
      </trkpt>
      <trkpt lat="46.76758" lon="-1.82858">
        <ele>19</ele>
        <time>2018-03-08T16:20:15Z</time>
      </trkpt>
      <trkpt lat="46.76763" lon="-1.82868">
        <ele>19</ele>
        <time>2018-03-08T16:21:15Z</time>
      </trkpt>
      <trkpt lat="46.76769" lon="-1.82877">
        <ele>19</ele>
        <time>2018-03-08T16:22:15Z</time>
      </trkpt>
      <trkpt lat="46.76776" lon="-1.82887">
        <ele>18</ele>
        <time>2018-03-08T16:23:15Z</time>
      </trkpt>
      <trkpt lat="46.76784" lon="-1.82898">
        <ele>18</ele>
        <time>2018-03-08T16:24:15Z</time>
      </trkpt>
      <trkpt lat="46.76791" lon="-1.82906">
        <ele>18</ele>
        <time>2018-03-08T16:25:15Z</time>
      </trkpt>
      <trkpt lat="46.76799" lon="-1.82915">
        <ele>18</ele>
        <time>2018-03-08T16:26:15Z</time>
      </trkpt>
      <trkpt lat="46.76807" lon="-1.82924">
        <ele>18</ele>
        <time>2018-03-08T16:27:15Z</time>
      </trkpt>
      <trkpt lat="46.76814" lon="-1.82932">
        <ele>18</ele>
        <time>2018-03-08T16:28:15Z</time>
      </trkpt>
      <trkpt lat="46.76821" lon="-1.82937">
        <ele>18</ele>
        <time>2018-03-08T16:29:15Z</time>
      </trkpt>
      <trkpt lat="46.76824" lon="-1.8294">
        <ele>18</ele>
        <time>2018-03-08T16:30:15Z</time>
      </trkpt>
      <trkpt lat="46.76831" lon="-1.82946">
        <ele>18</ele>
        <time>2018-03-08T16:31:15Z</time>
      </trkpt>
      <trkpt lat="46.76856" lon="-1.82965">
        <ele>19</ele>
        <time>2018-03-08T16:32:15Z</time>
      </trkpt>
      <trkpt lat="46.7688" lon="-1.82984">
        <ele>20</ele>
        <time>2018-03-08T16:33:15Z</time>
      </trkpt>
      <trkpt lat="46.7688" lon="-1.82984">
        <ele>20</ele>
        <time>2018-03-08T16:34:15Z</time>
      </trkpt>
      <trkpt lat="46.76867" lon="-1.83007">
        <ele>19</ele>
        <time>2018-03-08T16:35:15Z</time>
      </trkpt>
      <trkpt lat="46.76857" lon="-1.83027">
        <ele>18</ele>
        <time>2018-03-08T16:36:15Z</time>
      </trkpt>
      <trkpt lat="46.76846" lon="-1.83047">
        <ele>18</ele>
        <time>2018-03-08T16:37:15Z</time>
      </trkpt>
      <trkpt lat="46.76838" lon="-1.83065">
        <ele>17</ele>
        <time>2018-03-08T16:38:15Z</time>
      </trkpt>
      <trkpt lat="46.76831" lon="-1.83082">
        <ele>17</ele>
        <time>2018-03-08T16:39:15Z</time>
      </trkpt>
      <trkpt lat="46.76824" lon="-1.83101">
        <ele>17</ele>
        <time>2018-03-08T16:40:15Z</time>
      </trkpt>
      <trkpt lat="46.76818" lon="-1.83118">
        <ele>18</ele>
        <time>2018-03-08T16:41:15Z</time>
      </trkpt>
      <trkpt lat="46.76813" lon="-1.83135">
        <ele>18</ele>
        <time>2018-03-08T16:42:15Z</time>
      </trkpt>
      <trkpt lat="46.76802" lon="-1.83166">
        <ele>19</ele>
        <time>2018-03-08T16:43:15Z</time>
      </trkpt>
      <trkpt lat="46.76797" lon="-1.83181">
        <ele>19</ele>
        <time>2018-03-08T16:44:15Z</time>
      </trkpt>
      <trkpt lat="46.76792" lon="-1.83201">
        <ele>19</ele>
        <time>2018-03-08T16:45:15Z</time>
      </trkpt>
      <trkpt lat="46.76787" lon="-1.83216">
        <ele>19</ele>
        <time>2018-03-08T16:46:15Z</time>
      </trkpt>
      <trkpt lat="46.76784" lon="-1.83221">
        <ele>19</ele>
        <time>2018-03-08T16:47:15Z</time>
      </trkpt>
      <trkpt lat="46.76777" lon="-1.83239">
        <ele>19</ele>
        <time>2018-03-08T16:48:15Z</time>
      </trkpt>
      <trkpt lat="46.76766" lon="-1.8326">
        <ele>19</ele>
        <time>2018-03-08T16:49:15Z</time>
      </trkpt>
      <trkpt lat="46.76761" lon="-1.83269">
        <ele>19</ele>
        <time>2018-03-08T16:50:15Z</time>
      </trkpt>
      <trkpt lat="46.76753" lon="-1.83287">
        <ele>19</ele>
        <time>2018-03-08T16:51:15Z</time>
      </trkpt>
      <trkpt lat="46.76738" lon="-1.83315">
        <ele>19</ele>
        <time>2018-03-08T16:52:15Z</time>
      </trkpt>
      <trkpt lat="46.76723" lon="-1.83342">
        <ele>19</ele>
        <time>2018-03-08T16:53:15Z</time>
      </trkpt>
      <trkpt lat="46.76715" lon="-1.83354">
        <ele>19</ele>
        <time>2018-03-08T16:54:15Z</time>
      </trkpt>
      <trkpt lat="46.76707" lon="-1.83368">
        <ele>19</ele>
        <time>2018-03-08T16:55:15Z</time>
      </trkpt>
      <trkpt lat="46.76704" lon="-1.83374">
        <ele>19</ele>
        <time>2018-03-08T16:56:15Z</time>
      </trkpt>
      <trkpt lat="46.76697" lon="-1.83383">
        <ele>19</ele>
        <time>2018-03-08T16:57:15Z</time>
      </trkpt>
      <trkpt lat="46.76689" lon="-1.83393">
        <ele>19</ele>
        <time>2018-03-08T16:58:15Z</time>
      </trkpt>
      <trkpt lat="46.76689" lon="-1.83393">
        <ele>19</ele>
        <time>2018-03-08T16:59:15Z</time>
      </trkpt>
      <trkpt lat="46.7669" lon="-1.83414">
        <ele>19</ele>
        <time>2018-03-08T17:00:15Z</time>
      </trkpt>
      <trkpt lat="46.76689" lon="-1.83431">
        <ele>19</ele>
        <time>2018-03-08T17:01:15Z</time>
      </trkpt>
      <trkpt lat="46.76687" lon="-1.83454">
        <ele>19</ele>
        <time>2018-03-08T17:02:15Z</time>
      </trkpt>
      <trkpt lat="46.76683" lon="-1.83473">
        <ele>20</ele>
        <time>2018-03-08T17:03:15Z</time>
      </trkpt>
      <trkpt lat="46.76678" lon="-1.83493">
        <ele>20</ele>
        <time>2018-03-08T17:04:15Z</time>
      </trkpt>
      <trkpt lat="46.7667" lon="-1.83519">
        <ele>20</ele>
        <time>2018-03-08T17:05:15Z</time>
      </trkpt>
      <trkpt lat="46.76662" lon="-1.83541">
        <ele>20</ele>
        <time>2018-03-08T17:06:15Z</time>
      </trkpt>
      <trkpt lat="46.7665" lon="-1.83571">
        <ele>20</ele>
        <time>2018-03-08T17:07:15Z</time>
      </trkpt>
      <trkpt lat="46.76645" lon="-1.83582">
        <ele>19</ele>
        <time>2018-03-08T17:08:15Z</time>
      </trkpt>
      <trkpt lat="46.76644" lon="-1.83592">
        <ele>20</ele>
        <time>2018-03-08T17:09:15Z</time>
      </trkpt>
      <trkpt lat="46.76645" lon="-1.83602">
        <ele>20</ele>
        <time>2018-03-08T17:10:15Z</time>
      </trkpt>
      <trkpt lat="46.76648" lon="-1.83614">
        <ele>20</ele>
        <time>2018-03-08T17:11:15Z</time>
      </trkpt>
      <trkpt lat="46.76654" lon="-1.83626">
        <ele>20</ele>
        <time>2018-03-08T17:12:15Z</time>
      </trkpt>
      <trkpt lat="46.76662" lon="-1.8364">
        <ele>20</ele>
        <time>2018-03-08T17:13:15Z</time>
      </trkpt>
      <trkpt lat="46.76662" lon="-1.8364">
        <ele>20</ele>
        <time>2018-03-08T17:14:15Z</time>
      </trkpt>
      <trkpt lat="46.76659" lon="-1.83649">
        <ele>20</ele>
        <time>2018-03-08T17:15:15Z</time>
      </trkpt>
      <trkpt lat="46.76656" lon="-1.83657">
        <ele>20</ele>
        <time>2018-03-08T17:16:15Z</time>
      </trkpt>
      <trkpt lat="46.76649" lon="-1.83676">
        <ele>20</ele>
        <time>2018-03-08T17:17:15Z</time>
      </trkpt>
      <trkpt lat="46.76646" lon="-1.83691">
        <ele>20</ele>
        <time>2018-03-08T17:18:15Z</time>
      </trkpt>
      <trkpt lat="46.76645" lon="-1.83701">
        <ele>20</ele>
        <time>2018-03-08T17:19:15Z</time>
      </trkpt>
      <trkpt lat="46.76645" lon="-1.83718">
        <ele>20</ele>
        <time>2018-03-08T17:20:15Z</time>
      </trkpt>
      <trkpt lat="46.76646" lon="-1.83742">
        <ele>20</ele>
        <time>2018-03-08T17:21:15Z</time>
      </trkpt>
      <trkpt lat="46.76648" lon="-1.83781">
        <ele>20</ele>
        <time>2018-03-08T17:22:15Z</time>
      </trkpt>
      <trkpt lat="46.76648" lon="-1.838">
        <ele>20</ele>
        <time>2018-03-08T17:23:15Z</time>
      </trkpt>
      <trkpt lat="46.76647" lon="-1.83815">
        <ele>20</ele>
        <time>2018-03-08T17:24:15Z</time>
      </trkpt>
      <trkpt lat="46.76644" lon="-1.83826">
        <ele>20</ele>
        <time>2018-03-08T17:25:15Z</time>
      </trkpt>
      <trkpt lat="46.7664" lon="-1.83836">
        <ele>20</ele>
        <time>2018-03-08T17:26:15Z</time>
      </trkpt>
      <trkpt lat="46.76634" lon="-1.83845">
        <ele>20</ele>
        <time>2018-03-08T17:27:15Z</time>
      </trkpt>
      <trkpt lat="46.76627" lon="-1.83851">
        <ele>20</ele>
        <time>2018-03-08T17:28:15Z</time>
      </trkpt>
      <trkpt lat="46.76617" lon="-1.83853">
        <ele>20</ele>
        <time>2018-03-08T17:29:15Z</time>
      </trkpt>
      <trkpt lat="46.76616" lon="-1.83853">
        <ele>20</ele>
        <time>2018-03-08T17:30:15Z</time>
      </trkpt>
      <trkpt lat="46.76592" lon="-1.83864">
        <ele>20</ele>
        <time>2018-03-08T17:31:15Z</time>
      </trkpt>
      <trkpt lat="46.7658" lon="-1.83871">
        <ele>20</ele>
        <time>2018-03-08T17:32:15Z</time>
      </trkpt>
      <trkpt lat="46.76574" lon="-1.83877">
        <ele>20</ele>
        <time>2018-03-08T17:33:15Z</time>
      </trkpt>
      <trkpt lat="46.76571" lon="-1.83881">
        <ele>20</ele>
        <time>2018-03-08T17:34:15Z</time>
      </trkpt>
      <trkpt lat="46.76566" lon="-1.8389">
        <ele>20</ele>
        <time>2018-03-08T17:35:15Z</time>
      </trkpt>
      <trkpt lat="46.76566" lon="-1.8389">
        <ele>20</ele>
        <time>2018-03-08T17:36:15Z</time>
      </trkpt>
      <trkpt lat="46.76573" lon="-1.83897">
        <ele>21</ele>
        <time>2018-03-08T17:37:15Z</time>
      </trkpt>
      <trkpt lat="46.76577" lon="-1.83903">
        <ele>21</ele>
        <time>2018-03-08T17:38:15Z</time>
      </trkpt>
      <trkpt lat="46.7658" lon="-1.83907">
        <ele>21</ele>
        <time>2018-03-08T17:39:15Z</time>
      </trkpt>
      <trkpt lat="46.76584" lon="-1.83912">
        <ele>21</ele>
        <time>2018-03-08T17:40:15Z</time>
      </trkpt>
      <trkpt lat="46.76588" lon="-1.8392">
        <ele>21</ele>
        <time>2018-03-08T17:41:15Z</time>
      </trkpt>
      <trkpt lat="46.76591" lon="-1.83927">
        <ele>21</ele>
        <time>2018-03-08T17:42:15Z</time>
      </trkpt>
      <trkpt lat="46.76613" lon="-1.8398">
        <ele>21</ele>
        <time>2018-03-08T17:43:15Z</time>
      </trkpt>
      <trkpt lat="46.76649" lon="-1.84071">
        <ele>20</ele>
        <time>2018-03-08T17:44:15Z</time>
      </trkpt>
      <trkpt lat="46.7665" lon="-1.84074">
        <ele>20</ele>
        <time>2018-03-08T17:45:15Z</time>
      </trkpt>
      <trkpt lat="46.7666" lon="-1.841">
        <ele>20</ele>
        <time>2018-03-08T17:46:15Z</time>
      </trkpt>
      <trkpt lat="46.76682" lon="-1.84155">
        <ele>20</ele>
        <time>2018-03-08T17:47:15Z</time>
      </trkpt>
      <trkpt lat="46.76687" lon="-1.84167">
        <ele>20</ele>
        <time>2018-03-08T17:48:15Z</time>
      </trkpt>
      <trkpt lat="46.76693" lon="-1.84184">
        <ele>20</ele>
        <time>2018-03-08T17:49:15Z</time>
      </trkpt>
      <trkpt lat="46.76698" lon="-1.84199">
        <ele>20</ele>
        <time>2018-03-08T17:50:15Z</time>
      </trkpt>
      <trkpt lat="46.76702" lon="-1.84212">
        <ele>20</ele>
        <time>2018-03-08T17:51:15Z</time>
      </trkpt>
      <trkpt lat="46.76705" lon="-1.84226">
        <ele>20</ele>
        <time>2018-03-08T17:52:15Z</time>
      </trkpt>
      <trkpt lat="46.76707" lon="-1.84237">
        <ele>20</ele>
        <time>2018-03-08T17:53:15Z</time>
      </trkpt>
      <trkpt lat="46.7671" lon="-1.84253">
        <ele>19</ele>
        <time>2018-03-08T17:54:15Z</time>
      </trkpt>
      <trkpt lat="46.76712" lon="-1.84267">
        <ele>19</ele>
        <time>2018-03-08T17:55:15Z</time>
      </trkpt>
      <trkpt lat="46.76713" lon="-1.84291">
        <ele>19</ele>
        <time>2018-03-08T17:56:15Z</time>
      </trkpt>
      <trkpt lat="46.76714" lon="-1.84317">
        <ele>19</ele>
        <time>2018-03-08T17:57:15Z</time>
      </trkpt>
      <trkpt lat="46.76714" lon="-1.84361">
        <ele>19</ele>
        <time>2018-03-08T17:58:15Z</time>
      </trkpt>
      <trkpt lat="46.76714" lon="-1.84368">
        <ele>19</ele>
        <time>2018-03-08T17:59:15Z</time>
      </trkpt>
      <trkpt lat="46.76714" lon="-1.84385">
        <ele>19</ele>
        <time>2018-03-08T18:00:15Z</time>
      </trkpt>
      <trkpt lat="46.76716" lon="-1.84404">
        <ele>18</ele>
        <time>2018-03-08T18:01:15Z</time>
      </trkpt>
      <trkpt lat="46.76718" lon="-1.84424">
        <ele>18</ele>
        <time>2018-03-08T18:02:15Z</time>
      </trkpt>
      <trkpt lat="46.7672" lon="-1.84438">
        <ele>18</ele>
        <time>2018-03-08T18:03:15Z</time>
      </trkpt>
      <trkpt lat="46.76724" lon="-1.84468">
        <ele>18</ele>
        <time>2018-03-08T18:04:15Z</time>
      </trkpt>
      <trkpt lat="46.7673" lon="-1.84503">
        <ele>18</ele>
        <time>2018-03-08T18:05:15Z</time>
      </trkpt>
      <trkpt lat="46.76737" lon="-1.84537">
        <ele>18</ele>
        <time>2018-03-08T18:06:15Z</time>
      </trkpt>
      <trkpt lat="46.7674" lon="-1.84558">
        <ele>18</ele>
        <time>2018-03-08T18:07:15Z</time>
      </trkpt>
      <trkpt lat="46.76749" lon="-1.84613">
        <ele>18</ele>
        <time>2018-03-08T18:08:15Z</time>
      </trkpt>
      <trkpt lat="46.76751" lon="-1.84624">
        <ele>17</ele>
        <time>2018-03-08T18:09:15Z</time>
      </trkpt>
      <trkpt lat="46.76765" lon="-1.84703">
        <ele>17</ele>
        <time>2018-03-08T18:10:15Z</time>
      </trkpt>
      <trkpt lat="46.76777" lon="-1.84769">
        <ele>16</ele>
        <time>2018-03-08T18:11:15Z</time>
      </trkpt>
      <trkpt lat="46.7679" lon="-1.84848">
        <ele>15</ele>
        <time>2018-03-08T18:12:15Z</time>
      </trkpt>
      <trkpt lat="46.76799" lon="-1.84895">
        <ele>15</ele>
        <time>2018-03-08T18:13:15Z</time>
      </trkpt>
      <trkpt lat="46.76802" lon="-1.84914">
        <ele>15</ele>
        <time>2018-03-08T18:14:15Z</time>
      </trkpt>
      <trkpt lat="46.76809" lon="-1.8495">
        <ele>15</ele>
        <time>2018-03-08T18:15:15Z</time>
      </trkpt>
      <trkpt lat="46.76812" lon="-1.84973">
        <ele>15</ele>
        <time>2018-03-08T18:16:15Z</time>
      </trkpt>
      <trkpt lat="46.76814" lon="-1.84994">
        <ele>15</ele>
        <time>2018-03-08T18:17:15Z</time>
      </trkpt>
      <trkpt lat="46.76815" lon="-1.85012">
        <ele>15</ele>
        <time>2018-03-08T18:18:15Z</time>
      </trkpt>
      <trkpt lat="46.76816" lon="-1.85032">
        <ele>15</ele>
        <time>2018-03-08T18:19:15Z</time>
      </trkpt>
      <trkpt lat="46.76817" lon="-1.85053">
        <ele>15</ele>
        <time>2018-03-08T18:20:15Z</time>
      </trkpt>
      <trkpt lat="46.76817" lon="-1.8509">
        <ele>15</ele>
        <time>2018-03-08T18:21:15Z</time>
      </trkpt>
      <trkpt lat="46.76815" lon="-1.85142">
        <ele>14</ele>
        <time>2018-03-08T18:22:15Z</time>
      </trkpt>
      <trkpt lat="46.76815" lon="-1.85176">
        <ele>13</ele>
        <time>2018-03-08T18:23:15Z</time>
      </trkpt>
      <trkpt lat="46.76815" lon="-1.85199">
        <ele>13</ele>
        <time>2018-03-08T18:24:15Z</time>
      </trkpt>
      <trkpt lat="46.76816" lon="-1.85221">
        <ele>13</ele>
        <time>2018-03-08T18:25:15Z</time>
      </trkpt>
      <trkpt lat="46.76818" lon="-1.85241">
        <ele>13</ele>
        <time>2018-03-08T18:26:15Z</time>
      </trkpt>
      <trkpt lat="46.76818" lon="-1.85242">
        <ele>13</ele>
        <time>2018-03-08T18:27:15Z</time>
      </trkpt>
      <trkpt lat="46.76822" lon="-1.85266">
        <ele>13</ele>
        <time>2018-03-08T18:28:15Z</time>
      </trkpt>
      <trkpt lat="46.76828" lon="-1.85291">
        <ele>13</ele>
        <time>2018-03-08T18:29:15Z</time>
      </trkpt>
      <trkpt lat="46.76835" lon="-1.85316">
        <ele>13</ele>
        <time>2018-03-08T18:30:15Z</time>
      </trkpt>
      <trkpt lat="46.76851" lon="-1.85366">
        <ele>13</ele>
        <time>2018-03-08T18:31:15Z</time>
      </trkpt>
      <trkpt lat="46.76857" lon="-1.85383">
        <ele>13</ele>
        <time>2018-03-08T18:32:15Z</time>
      </trkpt>
      <trkpt lat="46.76866" lon="-1.85412">
        <ele>14</ele>
        <time>2018-03-08T18:33:15Z</time>
      </trkpt>
      <trkpt lat="46.76874" lon="-1.85433">
        <ele>14</ele>
        <time>2018-03-08T18:34:15Z</time>
      </trkpt>
      <trkpt lat="46.76894" lon="-1.85495">
        <ele>14</ele>
        <time>2018-03-08T18:35:15Z</time>
      </trkpt>
      <trkpt lat="46.76902" lon="-1.85518">
        <ele>14</ele>
        <time>2018-03-08T18:36:15Z</time>
      </trkpt>
      <trkpt lat="46.76909" lon="-1.85537">
        <ele>14</ele>
        <time>2018-03-08T18:37:15Z</time>
      </trkpt>
      <trkpt lat="46.76915" lon="-1.85553">
        <ele>13</ele>
        <time>2018-03-08T18:38:15Z</time>
      </trkpt>
      <trkpt lat="46.76922" lon="-1.8557">
        <ele>13</ele>
        <time>2018-03-08T18:39:15Z</time>
      </trkpt>
      <trkpt lat="46.76928" lon="-1.85584">
        <ele>13</ele>
        <time>2018-03-08T18:40:15Z</time>
      </trkpt>
      <trkpt lat="46.76932" lon="-1.85591">
        <ele>13</ele>
        <time>2018-03-08T18:41:15Z</time>
      </trkpt>
      <trkpt lat="46.76936" lon="-1.856">
        <ele>12</ele>
        <time>2018-03-08T18:42:15Z</time>
      </trkpt>
      <trkpt lat="46.76961" lon="-1.85652">
        <ele>12</ele>
        <time>2018-03-08T18:43:15Z</time>
      </trkpt>
      <trkpt lat="46.76963" lon="-1.85656">
        <ele>12</ele>
        <time>2018-03-08T18:44:15Z</time>
      </trkpt>
      <trkpt lat="46.76981" lon="-1.8569">
        <ele>12</ele>
        <time>2018-03-08T18:45:15Z</time>
      </trkpt>
      <trkpt lat="46.77" lon="-1.85725">
        <ele>12</ele>
        <time>2018-03-08T18:46:15Z</time>
      </trkpt>
      <trkpt lat="46.7701" lon="-1.85744">
        <ele>13</ele>
        <time>2018-03-08T18:47:15Z</time>
      </trkpt>
      <trkpt lat="46.7702" lon="-1.85765">
        <ele>13</ele>
        <time>2018-03-08T18:48:15Z</time>
      </trkpt>
      <trkpt lat="46.77025" lon="-1.85775">
        <ele>12</ele>
        <time>2018-03-08T18:49:15Z</time>
      </trkpt>
      <trkpt lat="46.77037" lon="-1.85796">
        <ele>12</ele>
        <time>2018-03-08T18:50:15Z</time>
      </trkpt>
      <trkpt lat="46.77069" lon="-1.85859">
        <ele>12</ele>
        <time>2018-03-08T18:51:15Z</time>
      </trkpt>
      <trkpt lat="46.77097" lon="-1.85912">
        <ele>12</ele>
        <time>2018-03-08T18:52:15Z</time>
      </trkpt>
      <trkpt lat="46.77146" lon="-1.86007">
        <ele>9</ele>
        <time>2018-03-08T18:53:15Z</time>
      </trkpt>
      <trkpt lat="46.77179" lon="-1.86071">
        <ele>9</ele>
        <time>2018-03-08T18:54:15Z</time>
      </trkpt>
      <trkpt lat="46.77215" lon="-1.8614">
        <ele>9</ele>
        <time>2018-03-08T18:55:15Z</time>
      </trkpt>
      <trkpt lat="46.77242" lon="-1.86193">
        <ele>9</ele>
        <time>2018-03-08T18:56:15Z</time>
      </trkpt>
      <trkpt lat="46.77248" lon="-1.86204">
        <ele>9</ele>
        <time>2018-03-08T18:57:15Z</time>
      </trkpt>
      <trkpt lat="46.77255" lon="-1.86217">
        <ele>9</ele>
        <time>2018-03-08T18:58:15Z</time>
      </trkpt>
      <trkpt lat="46.77263" lon="-1.86232">
        <ele>9</ele>
        <time>2018-03-08T18:59:15Z</time>
      </trkpt>
      <trkpt lat="46.7727" lon="-1.86244">
        <ele>9</ele>
        <time>2018-03-08T19:00:15Z</time>
      </trkpt>
      <trkpt lat="46.77277" lon="-1.86254">
        <ele>9</ele>
        <time>2018-03-08T19:01:15Z</time>
      </trkpt>
      <trkpt lat="46.77284" lon="-1.86265">
        <ele>9</ele>
        <time>2018-03-08T19:02:15Z</time>
      </trkpt>
      <trkpt lat="46.7729" lon="-1.86274">
        <ele>9</ele>
        <time>2018-03-08T19:03:15Z</time>
      </trkpt>
      <trkpt lat="46.77298" lon="-1.86284">
        <ele>9</ele>
        <time>2018-03-08T19:04:15Z</time>
      </trkpt>
      <trkpt lat="46.77305" lon="-1.86293">
        <ele>8</ele>
        <time>2018-03-08T19:05:15Z</time>
      </trkpt>
      <trkpt lat="46.77314" lon="-1.86303">
        <ele>8</ele>
        <time>2018-03-08T19:06:15Z</time>
      </trkpt>
      <trkpt lat="46.77318" lon="-1.86308">
        <ele>8</ele>
        <time>2018-03-08T19:07:15Z</time>
      </trkpt>
      <trkpt lat="46.77327" lon="-1.86318">
        <ele>8</ele>
        <time>2018-03-08T19:08:15Z</time>
      </trkpt>
      <trkpt lat="46.7742" lon="-1.86419">
        <ele>8</ele>
        <time>2018-03-08T19:09:15Z</time>
      </trkpt>
      <trkpt lat="46.77481" lon="-1.86487">
        <ele>7</ele>
        <time>2018-03-08T19:10:15Z</time>
      </trkpt>
      <trkpt lat="46.77537" lon="-1.86549">
        <ele>7</ele>
        <time>2018-03-08T19:11:15Z</time>
      </trkpt>
      <trkpt lat="46.77568" lon="-1.86583">
        <ele>7</ele>
        <time>2018-03-08T19:12:15Z</time>
      </trkpt>
      <trkpt lat="46.77578" lon="-1.86596">
        <ele>7</ele>
        <time>2018-03-08T19:13:15Z</time>
      </trkpt>
      <trkpt lat="46.77587" lon="-1.86608">
        <ele>7</ele>
        <time>2018-03-08T19:14:15Z</time>
      </trkpt>
      <trkpt lat="46.77594" lon="-1.86622">
        <ele>7</ele>
        <time>2018-03-08T19:15:15Z</time>
      </trkpt>
      <trkpt lat="46.77599" lon="-1.86633">
        <ele>7</ele>
        <time>2018-03-08T19:16:15Z</time>
      </trkpt>
      <trkpt lat="46.77604" lon="-1.86646">
        <ele>7</ele>
        <time>2018-03-08T19:17:15Z</time>
      </trkpt>
      <trkpt lat="46.77609" lon="-1.8666">
        <ele>7</ele>
        <time>2018-03-08T19:18:15Z</time>
      </trkpt>
      <trkpt lat="46.77614" lon="-1.86675">
        <ele>7</ele>
        <time>2018-03-08T19:19:15Z</time>
      </trkpt>
      <trkpt lat="46.77618" lon="-1.86688">
        <ele>7</ele>
        <time>2018-03-08T19:20:15Z</time>
      </trkpt>
      <trkpt lat="46.77622" lon="-1.86702">
        <ele>7</ele>
        <time>2018-03-08T19:21:15Z</time>
      </trkpt>
      <trkpt lat="46.77625" lon="-1.86715">
        <ele>7</ele>
        <time>2018-03-08T19:22:15Z</time>
      </trkpt>
      <trkpt lat="46.77628" lon="-1.86731">
        <ele>7</ele>
        <time>2018-03-08T19:23:15Z</time>
      </trkpt>
      <trkpt lat="46.77632" lon="-1.86756">
        <ele>7</ele>
        <time>2018-03-08T19:24:15Z</time>
      </trkpt>
      <trkpt lat="46.77641" lon="-1.86822">
        <ele>7</ele>
        <time>2018-03-08T19:25:15Z</time>
      </trkpt>
      <trkpt lat="46.7765" lon="-1.86891">
        <ele>7</ele>
        <time>2018-03-08T19:26:15Z</time>
      </trkpt>
      <trkpt lat="46.7766" lon="-1.86961">
        <ele>6</ele>
        <time>2018-03-08T19:27:15Z</time>
      </trkpt>
      <trkpt lat="46.77673" lon="-1.87067">
        <ele>5</ele>
        <time>2018-03-08T19:28:15Z</time>
      </trkpt>
      <trkpt lat="46.77686" lon="-1.87156">
        <ele>5</ele>
        <time>2018-03-08T19:29:15Z</time>
      </trkpt>
      <trkpt lat="46.77691" lon="-1.87204">
        <ele>5</ele>
        <time>2018-03-08T19:30:15Z</time>
      </trkpt>
      <trkpt lat="46.77696" lon="-1.8724">
        <ele>4</ele>
        <time>2018-03-08T19:31:15Z</time>
      </trkpt>
      <trkpt lat="46.77696" lon="-1.87244">
        <ele>4</ele>
        <time>2018-03-08T19:32:15Z</time>
      </trkpt>
      <trkpt lat="46.77705" lon="-1.87303">
        <ele>4</ele>
        <time>2018-03-08T19:33:15Z</time>
      </trkpt>
      <trkpt lat="46.77716" lon="-1.87374">
        <ele>5</ele>
        <time>2018-03-08T19:34:15Z</time>
      </trkpt>
      <trkpt lat="46.77731" lon="-1.87481">
        <ele>5</ele>
        <time>2018-03-08T19:35:15Z</time>
      </trkpt>
      <trkpt lat="46.77739" lon="-1.87534">
        <ele>4</ele>
        <time>2018-03-08T19:36:15Z</time>
      </trkpt>
      <trkpt lat="46.7775" lon="-1.87601">
        <ele>5</ele>
        <time>2018-03-08T19:37:15Z</time>
      </trkpt>
      <trkpt lat="46.77752" lon="-1.87616">
        <ele>5</ele>
        <time>2018-03-08T19:38:15Z</time>
      </trkpt>
      <trkpt lat="46.77758" lon="-1.87653">
        <ele>4</ele>
        <time>2018-03-08T19:39:15Z</time>
      </trkpt>
      <trkpt lat="46.77758" lon="-1.87653">
        <ele>4</ele>
        <time>2018-03-08T19:40:15Z</time>
      </trkpt>
      <trkpt lat="46.77759" lon="-1.87655">
        <ele>4</ele>
        <time>2018-03-08T19:41:15Z</time>
      </trkpt>
      <trkpt lat="46.7776" lon="-1.87656">
        <ele>4</ele>
        <time>2018-03-08T19:42:15Z</time>
      </trkpt>
      <trkpt lat="46.77761" lon="-1.87657">
        <ele>4</ele>
        <time>2018-03-08T19:43:15Z</time>
      </trkpt>
      <trkpt lat="46.77762" lon="-1.87658">
        <ele>4</ele>
        <time>2018-03-08T19:44:15Z</time>
      </trkpt>
      <trkpt lat="46.77763" lon="-1.8766">
        <ele>4</ele>
        <time>2018-03-08T19:45:15Z</time>
      </trkpt>
      <trkpt lat="46.77763" lon="-1.87661">
        <ele>4</ele>
        <time>2018-03-08T19:46:15Z</time>
      </trkpt>
      <trkpt lat="46.77764" lon="-1.87663">
        <ele>4</ele>
        <time>2018-03-08T19:47:15Z</time>
      </trkpt>
      <trkpt lat="46.77765" lon="-1.87665">
        <ele>4</ele>
        <time>2018-03-08T19:48:15Z</time>
      </trkpt>
      <trkpt lat="46.77765" lon="-1.87667">
        <ele>4</ele>
        <time>2018-03-08T19:49:15Z</time>
      </trkpt>
      <trkpt lat="46.77765" lon="-1.87668">
        <ele>4</ele>
        <time>2018-03-08T19:50:15Z</time>
      </trkpt>
      <trkpt lat="46.77766" lon="-1.8767">
        <ele>4</ele>
        <time>2018-03-08T19:51:15Z</time>
      </trkpt>
      <trkpt lat="46.77766" lon="-1.87672">
        <ele>4</ele>
        <time>2018-03-08T19:52:15Z</time>
      </trkpt>
      <trkpt lat="46.77777" lon="-1.8768">
        <ele>4</ele>
        <time>2018-03-08T19:53:15Z</time>
      </trkpt>
      <trkpt lat="46.77791" lon="-1.87691">
        <ele>4</ele>
        <time>2018-03-08T19:54:15Z</time>
      </trkpt>
      <trkpt lat="46.77856" lon="-1.87714">
        <ele>4</ele>
        <time>2018-03-08T19:55:15Z</time>
      </trkpt>
      <trkpt lat="46.77865" lon="-1.87718">
        <ele>4</ele>
        <time>2018-03-08T19:56:15Z</time>
      </trkpt>
      <trkpt lat="46.77912" lon="-1.87736">
        <ele>5</ele>
        <time>2018-03-08T19:57:15Z</time>
      </trkpt>
      <trkpt lat="46.77967" lon="-1.87758">
        <ele>3</ele>
        <time>2018-03-08T19:58:15Z</time>
      </trkpt>
      <trkpt lat="46.77999" lon="-1.87771">
        <ele>2</ele>
        <time>2018-03-08T19:59:15Z</time>
      </trkpt>
      <trkpt lat="46.78034" lon="-1.87785">
        <ele>3</ele>
        <time>2018-03-08T20:00:15Z</time>
      </trkpt>
      <trkpt lat="46.78059" lon="-1.87794">
        <ele>4</ele>
        <time>2018-03-08T20:01:15Z</time>
      </trkpt>
      <trkpt lat="46.78068" lon="-1.87799">
        <ele>4</ele>
        <time>2018-03-08T20:02:15Z</time>
      </trkpt>
      <trkpt lat="46.78082" lon="-1.87805">
        <ele>4</ele>
        <time>2018-03-08T20:03:15Z</time>
      </trkpt>
      <trkpt lat="46.78107" lon="-1.87813">
        <ele>5</ele>
        <time>2018-03-08T20:04:15Z</time>
      </trkpt>
      <trkpt lat="46.78109" lon="-1.87813">
        <ele>5</ele>
        <time>2018-03-08T20:05:15Z</time>
      </trkpt>
      <trkpt lat="46.78184" lon="-1.87842">
        <ele>6</ele>
        <time>2018-03-08T20:06:15Z</time>
      </trkpt>
      <trkpt lat="46.78246" lon="-1.87865">
        <ele>5</ele>
        <time>2018-03-08T20:07:15Z</time>
      </trkpt>
      <trkpt lat="46.7826" lon="-1.8787">
        <ele>5</ele>
        <time>2018-03-08T20:08:15Z</time>
      </trkpt>
      <trkpt lat="46.78302" lon="-1.87884">
        <ele>5</ele>
        <time>2018-03-08T20:09:15Z</time>
      </trkpt>
      <trkpt lat="46.7831" lon="-1.87887">
        <ele>5</ele>
        <time>2018-03-08T20:10:15Z</time>
      </trkpt>
      <trkpt lat="46.78367" lon="-1.87908">
        <ele>6</ele>
        <time>2018-03-08T20:11:15Z</time>
      </trkpt>
      <trkpt lat="46.78401" lon="-1.87921">
        <ele>7</ele>
        <time>2018-03-08T20:12:15Z</time>
      </trkpt>
      <trkpt lat="46.78421" lon="-1.87928">
        <ele>8</ele>
        <time>2018-03-08T20:13:15Z</time>
      </trkpt>
      <trkpt lat="46.78475" lon="-1.87947">
        <ele>6</ele>
        <time>2018-03-08T20:14:15Z</time>
      </trkpt>
      <trkpt lat="46.78501" lon="-1.87957">
        <ele>6</ele>
        <time>2018-03-08T20:15:15Z</time>
      </trkpt>
      <trkpt lat="46.78526" lon="-1.87967">
        <ele>6</ele>
        <time>2018-03-08T20:16:15Z</time>
      </trkpt>
      <trkpt lat="46.78582" lon="-1.8799">
        <ele>6</ele>
        <time>2018-03-08T20:17:15Z</time>
      </trkpt>
      <trkpt lat="46.786" lon="-1.87996">
        <ele>6</ele>
        <time>2018-03-08T20:18:15Z</time>
      </trkpt>
      <trkpt lat="46.78669" lon="-1.88024">
        <ele>5</ele>
        <time>2018-03-08T20:19:15Z</time>
      </trkpt>
      <trkpt lat="46.78706" lon="-1.88037">
        <ele>4</ele>
        <time>2018-03-08T20:20:15Z</time>
      </trkpt>
      <trkpt lat="46.78733" lon="-1.88048">
        <ele>4</ele>
        <time>2018-03-08T20:21:15Z</time>
      </trkpt>
      <trkpt lat="46.78741" lon="-1.88051">
        <ele>4</ele>
        <time>2018-03-08T20:22:15Z</time>
      </trkpt>
      <trkpt lat="46.78749" lon="-1.88056">
        <ele>4</ele>
        <time>2018-03-08T20:23:15Z</time>
      </trkpt>
      <trkpt lat="46.78757" lon="-1.88061">
        <ele>5</ele>
        <time>2018-03-08T20:24:15Z</time>
      </trkpt>
      <trkpt lat="46.78764" lon="-1.88068">
        <ele>5</ele>
        <time>2018-03-08T20:25:15Z</time>
      </trkpt>
      <trkpt lat="46.78771" lon="-1.88075">
        <ele>5</ele>
        <time>2018-03-08T20:26:15Z</time>
      </trkpt>
      <trkpt lat="46.7878" lon="-1.88085">
        <ele>5</ele>
        <time>2018-03-08T20:27:15Z</time>
      </trkpt>
      <trkpt lat="46.78798" lon="-1.88106">
        <ele>5</ele>
        <time>2018-03-08T20:28:15Z</time>
      </trkpt>
      <trkpt lat="46.78808" lon="-1.88119">
        <ele>5</ele>
        <time>2018-03-08T20:29:15Z</time>
      </trkpt>
      <trkpt lat="46.78821" lon="-1.88134">
        <ele>4</ele>
        <time>2018-03-08T20:30:15Z</time>
      </trkpt>
      <trkpt lat="46.78834" lon="-1.88145">
        <ele>4</ele>
        <time>2018-03-08T20:31:15Z</time>
      </trkpt>
      <trkpt lat="46.78857" lon="-1.88171">
        <ele>4</ele>
        <time>2018-03-08T20:32:15Z</time>
      </trkpt>
      <trkpt lat="46.78868" lon="-1.88183">
        <ele>3</ele>
        <time>2018-03-08T20:33:15Z</time>
      </trkpt>
      <trkpt lat="46.78871" lon="-1.88186">
        <ele>3</ele>
        <time>2018-03-08T20:34:15Z</time>
      </trkpt>
      <trkpt lat="46.78876" lon="-1.8819">
        <ele>3</ele>
        <time>2018-03-08T20:35:15Z</time>
      </trkpt>
      <trkpt lat="46.78881" lon="-1.88194">
        <ele>3</ele>
        <time>2018-03-08T20:36:15Z</time>
      </trkpt>
      <trkpt lat="46.78882" lon="-1.88196">
        <ele>3</ele>
        <time>2018-03-08T20:37:15Z</time>
      </trkpt>
      <trkpt lat="46.78889" lon="-1.882">
        <ele>3</ele>
        <time>2018-03-08T20:38:15Z</time>
      </trkpt>
      <trkpt lat="46.78895" lon="-1.88203">
        <ele>3</ele>
        <time>2018-03-08T20:39:15Z</time>
      </trkpt>
      <trkpt lat="46.78895" lon="-1.88203">
        <ele>3</ele>
        <time>2018-03-08T20:40:15Z</time>
      </trkpt>
      <trkpt lat="46.78894" lon="-1.88211">
        <ele>3</ele>
        <time>2018-03-08T20:41:15Z</time>
      </trkpt>
      <trkpt lat="46.78894" lon="-1.88213">
        <ele>3</ele>
        <time>2018-03-08T20:42:15Z</time>
      </trkpt>
      <trkpt lat="46.78893" lon="-1.88216">
        <ele>3</ele>
        <time>2018-03-08T20:43:15Z</time>
      </trkpt>
      <trkpt lat="46.78894" lon="-1.88219">
        <ele>3</ele>
        <time>2018-03-08T20:44:15Z</time>
      </trkpt>
      <trkpt lat="46.78894" lon="-1.88219">
        <ele>3</ele>
        <time>2018-03-08T20:45:15Z</time>
      </trkpt>
      <trkpt lat="46.78889" lon="-1.88226">
        <ele>3</ele>
        <time>2018-03-08T20:46:15Z</time>
      </trkpt>
      <trkpt lat="46.78884" lon="-1.88234">
        <ele>3</ele>
        <time>2018-03-08T20:47:15Z</time>
      </trkpt>
      <trkpt lat="46.78865" lon="-1.88258">
        <ele>3</ele>
        <time>2018-03-08T20:48:15Z</time>
      </trkpt>
      <trkpt lat="46.78838" lon="-1.88294">
        <ele>2</ele>
        <time>2018-03-08T20:49:15Z</time>
      </trkpt>
      <trkpt lat="46.78817" lon="-1.88319">
        <ele>2</ele>
        <time>2018-03-08T20:50:15Z</time>
      </trkpt>
      <trkpt lat="46.78764" lon="-1.8838">
        <ele>3</ele>
        <time>2018-03-08T20:51:15Z</time>
      </trkpt>
      <trkpt lat="46.78732" lon="-1.88414">
        <ele>3</ele>
        <time>2018-03-08T20:52:15Z</time>
      </trkpt>
      <trkpt lat="46.78686" lon="-1.88466">
        <ele>1</ele>
        <time>2018-03-08T20:53:15Z</time>
      </trkpt>
      <trkpt lat="46.78658" lon="-1.88498">
        <ele>1</ele>
        <time>2018-03-08T20:54:15Z</time>
      </trkpt>
      <trkpt lat="46.78633" lon="-1.88525">
        <ele>2</ele>
        <time>2018-03-08T20:55:15Z</time>
      </trkpt>
      <trkpt lat="46.78608" lon="-1.88554">
        <ele>2</ele>
        <time>2018-03-08T20:56:15Z</time>
      </trkpt>
      <trkpt lat="46.78595" lon="-1.88569">
        <ele>2</ele>
        <time>2018-03-08T20:57:15Z</time>
      </trkpt>
      <trkpt lat="46.78592" lon="-1.88573">
        <ele>2</ele>
        <time>2018-03-08T20:58:15Z</time>
      </trkpt>
      <trkpt lat="46.7859" lon="-1.88577">
        <ele>2</ele>
        <time>2018-03-08T20:59:15Z</time>
      </trkpt>
      <trkpt lat="46.78589" lon="-1.88578">
        <ele>2</ele>
        <time>2018-03-08T21:00:15Z</time>
      </trkpt>
      <trkpt lat="46.78584" lon="-1.88586">
        <ele>2</ele>
        <time>2018-03-08T21:01:15Z</time>
      </trkpt>
      <trkpt lat="46.78576" lon="-1.88602">
        <ele>2</ele>
        <time>2018-03-08T21:02:15Z</time>
      </trkpt>
      <trkpt lat="46.78568" lon="-1.88617">
        <ele>2</ele>
        <time>2018-03-08T21:03:15Z</time>
      </trkpt>
      <trkpt lat="46.78562" lon="-1.8863">
        <ele>2</ele>
        <time>2018-03-08T21:04:15Z</time>
      </trkpt>
      <trkpt lat="46.78555" lon="-1.88647">
        <ele>2</ele>
        <time>2018-03-08T21:05:15Z</time>
      </trkpt>
      <trkpt lat="46.78545" lon="-1.88678">
        <ele>2</ele>
        <time>2018-03-08T21:06:15Z</time>
      </trkpt>
      <trkpt lat="46.78532" lon="-1.88717">
        <ele>2</ele>
        <time>2018-03-08T21:07:15Z</time>
      </trkpt>
      <trkpt lat="46.78523" lon="-1.88746">
        <ele>2</ele>
        <time>2018-03-08T21:08:15Z</time>
      </trkpt>
      <trkpt lat="46.78515" lon="-1.88771">
        <ele>2</ele>
        <time>2018-03-08T21:09:15Z</time>
      </trkpt>
      <trkpt lat="46.78507" lon="-1.88793">
        <ele>2</ele>
        <time>2018-03-08T21:10:15Z</time>
      </trkpt>
      <trkpt lat="46.78495" lon="-1.88821">
        <ele>3</ele>
        <time>2018-03-08T21:11:15Z</time>
      </trkpt>
      <trkpt lat="46.78483" lon="-1.88853">
        <ele>3</ele>
        <time>2018-03-08T21:12:15Z</time>
      </trkpt>
      <trkpt lat="46.78466" lon="-1.88893">
        <ele>3</ele>
        <time>2018-03-08T21:13:15Z</time>
      </trkpt>
      <trkpt lat="46.78462" lon="-1.88905">
        <ele>3</ele>
        <time>2018-03-08T21:14:15Z</time>
      </trkpt>
      <trkpt lat="46.78452" lon="-1.88928">
        <ele>3</ele>
        <time>2018-03-08T21:15:15Z</time>
      </trkpt>
      <trkpt lat="46.78443" lon="-1.8895">
        <ele>3</ele>
        <time>2018-03-08T21:16:15Z</time>
      </trkpt>
      <trkpt lat="46.78434" lon="-1.88969">
        <ele>3</ele>
        <time>2018-03-08T21:17:15Z</time>
      </trkpt>
      <trkpt lat="46.78422" lon="-1.88993">
        <ele>4</ele>
        <time>2018-03-08T21:18:15Z</time>
      </trkpt>
      <trkpt lat="46.78404" lon="-1.89031">
        <ele>4</ele>
        <time>2018-03-08T21:19:15Z</time>
      </trkpt>
      <trkpt lat="46.7839" lon="-1.89056">
        <ele>4</ele>
        <time>2018-03-08T21:20:15Z</time>
      </trkpt>
      <trkpt lat="46.78381" lon="-1.89077">
        <ele>4</ele>
        <time>2018-03-08T21:21:15Z</time>
      </trkpt>
      <trkpt lat="46.78373" lon="-1.89097">
        <ele>3</ele>
        <time>2018-03-08T21:22:15Z</time>
      </trkpt>
      <trkpt lat="46.78366" lon="-1.89116">
        <ele>3</ele>
        <time>2018-03-08T21:23:15Z</time>
      </trkpt>
      <trkpt lat="46.78356" lon="-1.89145">
        <ele>3</ele>
        <time>2018-03-08T21:24:15Z</time>
      </trkpt>
      <trkpt lat="46.78345" lon="-1.8918">
        <ele>3</ele>
        <time>2018-03-08T21:25:15Z</time>
      </trkpt>
      <trkpt lat="46.78333" lon="-1.89225">
        <ele>4</ele>
        <time>2018-03-08T21:26:15Z</time>
      </trkpt>
      <trkpt lat="46.78315" lon="-1.89291">
        <ele>4</ele>
        <time>2018-03-08T21:27:15Z</time>
      </trkpt>
      <trkpt lat="46.78299" lon="-1.89349">
        <ele>3</ele>
        <time>2018-03-08T21:28:15Z</time>
      </trkpt>
      <trkpt lat="46.78286" lon="-1.89397">
        <ele>3</ele>
        <time>2018-03-08T21:29:15Z</time>
      </trkpt>
      <trkpt lat="46.78278" lon="-1.89427">
        <ele>2</ele>
        <time>2018-03-08T21:30:15Z</time>
      </trkpt>
      <trkpt lat="46.7827" lon="-1.89461">
        <ele>3</ele>
        <time>2018-03-08T21:31:15Z</time>
      </trkpt>
      <trkpt lat="46.78262" lon="-1.895">
        <ele>3</ele>
        <time>2018-03-08T21:32:15Z</time>
      </trkpt>
      <trkpt lat="46.78256" lon="-1.8953">
        <ele>3</ele>
        <time>2018-03-08T21:33:15Z</time>
      </trkpt>
      <trkpt lat="46.78251" lon="-1.89558">
        <ele>3</ele>
        <time>2018-03-08T21:34:15Z</time>
      </trkpt>
      <trkpt lat="46.78244" lon="-1.8961">
        <ele>3</ele>
        <time>2018-03-08T21:35:15Z</time>
      </trkpt>
      <trkpt lat="46.7824" lon="-1.89638">
        <ele>2</ele>
        <time>2018-03-08T21:36:15Z</time>
      </trkpt>
      <trkpt lat="46.7824" lon="-1.89638">
        <ele>2</ele>
        <time>2018-03-08T21:37:15Z</time>
      </trkpt>
      <trkpt lat="46.78237" lon="-1.89663">
        <ele>2</ele>
        <time>2018-03-08T21:38:15Z</time>
      </trkpt>
      <trkpt lat="46.78232" lon="-1.89698">
        <ele>2</ele>
        <time>2018-03-08T21:39:15Z</time>
      </trkpt>
      <trkpt lat="46.78225" lon="-1.89735">
        <ele>1</ele>
        <time>2018-03-08T21:40:15Z</time>
      </trkpt>
      <trkpt lat="46.78216" lon="-1.89782">
        <ele>2</ele>
        <time>2018-03-08T21:41:15Z</time>
      </trkpt>
      <trkpt lat="46.78212" lon="-1.89809">
        <ele>2</ele>
        <time>2018-03-08T21:42:15Z</time>
      </trkpt>
      <trkpt lat="46.78212" lon="-1.89809">
        <ele>2</ele>
        <time>2018-03-08T21:43:15Z</time>
      </trkpt>
      <trkpt lat="46.78209" lon="-1.8982">
        <ele>2</ele>
        <time>2018-03-08T21:44:15Z</time>
      </trkpt>
      <trkpt lat="46.78195" lon="-1.89855">
        <ele>3</ele>
        <time>2018-03-08T21:45:15Z</time>
      </trkpt>
      <trkpt lat="46.78183" lon="-1.89888">
        <ele>3</ele>
        <time>2018-03-08T21:46:15Z</time>
      </trkpt>
      <trkpt lat="46.78177" lon="-1.89898">
        <ele>3</ele>
        <time>2018-03-08T21:47:15Z</time>
      </trkpt>
      <trkpt lat="46.78172" lon="-1.8991">
        <ele>3</ele>
        <time>2018-03-08T21:48:15Z</time>
      </trkpt>
      <trkpt lat="46.78164" lon="-1.89923">
        <ele>3</ele>
        <time>2018-03-08T21:49:15Z</time>
      </trkpt>
      <trkpt lat="46.78154" lon="-1.89938">
        <ele>3</ele>
        <time>2018-03-08T21:50:15Z</time>
      </trkpt>
      <trkpt lat="46.78142" lon="-1.89952">
        <ele>2</ele>
        <time>2018-03-08T21:51:15Z</time>
      </trkpt>
      <trkpt lat="46.78129" lon="-1.89964">
        <ele>2</ele>
        <time>2018-03-08T21:52:15Z</time>
      </trkpt>
      <trkpt lat="46.78114" lon="-1.89976">
        <ele>2</ele>
        <time>2018-03-08T21:53:15Z</time>
      </trkpt>
      <trkpt lat="46.78096" lon="-1.8999">
        <ele>3</ele>
        <time>2018-03-08T21:54:15Z</time>
      </trkpt>
      <trkpt lat="46.78061" lon="-1.90015">
        <ele>3</ele>
        <time>2018-03-08T21:55:15Z</time>
      </trkpt>
      <trkpt lat="46.78029" lon="-1.90039">
        <ele>4</ele>
        <time>2018-03-08T21:56:15Z</time>
      </trkpt>
      <trkpt lat="46.78019" lon="-1.90047">
        <ele>4</ele>
        <time>2018-03-08T21:57:15Z</time>
      </trkpt>
      <trkpt lat="46.77996" lon="-1.90067">
        <ele>5</ele>
        <time>2018-03-08T21:58:15Z</time>
      </trkpt>
      <trkpt lat="46.77973" lon="-1.90088">
        <ele>4</ele>
        <time>2018-03-08T21:59:15Z</time>
      </trkpt>
      <trkpt lat="46.77963" lon="-1.90099">
        <ele>4</ele>
        <time>2018-03-08T22:00:15Z</time>
      </trkpt>
      <trkpt lat="46.77948" lon="-1.90114">
        <ele>4</ele>
        <time>2018-03-08T22:01:15Z</time>
      </trkpt>
      <trkpt lat="46.77935" lon="-1.9013">
        <ele>4</ele>
        <time>2018-03-08T22:02:15Z</time>
      </trkpt>
      <trkpt lat="46.7791" lon="-1.90162">
        <ele>4</ele>
        <time>2018-03-08T22:03:15Z</time>
      </trkpt>
      <trkpt lat="46.77876" lon="-1.90207">
        <ele>4</ele>
        <time>2018-03-08T22:04:15Z</time>
      </trkpt>
      <trkpt lat="46.77849" lon="-1.90242">
        <ele>3</ele>
        <time>2018-03-08T22:05:15Z</time>
      </trkpt>
      <trkpt lat="46.77832" lon="-1.90264">
        <ele>3</ele>
        <time>2018-03-08T22:06:15Z</time>
      </trkpt>
      <trkpt lat="46.77818" lon="-1.90288">
        <ele>2</ele>
        <time>2018-03-08T22:07:15Z</time>
      </trkpt>
      <trkpt lat="46.7781" lon="-1.903">
        <ele>2</ele>
        <time>2018-03-08T22:08:15Z</time>
      </trkpt>
      <trkpt lat="46.77802" lon="-1.90315">
        <ele>2</ele>
        <time>2018-03-08T22:09:15Z</time>
      </trkpt>
      <trkpt lat="46.77794" lon="-1.90331">
        <ele>2</ele>
        <time>2018-03-08T22:10:15Z</time>
      </trkpt>
      <trkpt lat="46.77785" lon="-1.90349">
        <ele>2</ele>
        <time>2018-03-08T22:11:15Z</time>
      </trkpt>
      <trkpt lat="46.77777" lon="-1.90368">
        <ele>3</ele>
        <time>2018-03-08T22:12:15Z</time>
      </trkpt>
      <trkpt lat="46.77764" lon="-1.904">
        <ele>3</ele>
        <time>2018-03-08T22:13:15Z</time>
      </trkpt>
      <trkpt lat="46.77744" lon="-1.90454">
        <ele>4</ele>
        <time>2018-03-08T22:14:15Z</time>
      </trkpt>
      <trkpt lat="46.77737" lon="-1.9047">
        <ele>4</ele>
        <time>2018-03-08T22:15:15Z</time>
      </trkpt>
      <trkpt lat="46.7773" lon="-1.90479">
        <ele>4</ele>
        <time>2018-03-08T22:16:15Z</time>
      </trkpt>
      <trkpt lat="46.77722" lon="-1.90488">
        <ele>4</ele>
        <time>2018-03-08T22:17:15Z</time>
      </trkpt>
      <trkpt lat="46.77702" lon="-1.90506">
        <ele>3</ele>
        <time>2018-03-08T22:18:15Z</time>
      </trkpt>
      <trkpt lat="46.77675" lon="-1.90526">
        <ele>3</ele>
        <time>2018-03-08T22:19:15Z</time>
      </trkpt>
      <trkpt lat="46.77658" lon="-1.9054">
        <ele>3</ele>
        <time>2018-03-08T22:20:15Z</time>
      </trkpt>
      <trkpt lat="46.77646" lon="-1.90552">
        <ele>3</ele>
        <time>2018-03-08T22:21:15Z</time>
      </trkpt>
      <trkpt lat="46.77634" lon="-1.90564">
        <ele>3</ele>
        <time>2018-03-08T22:22:15Z</time>
      </trkpt>
      <trkpt lat="46.77614" lon="-1.90588">
        <ele>4</ele>
        <time>2018-03-08T22:23:15Z</time>
      </trkpt>
      <trkpt lat="46.77569" lon="-1.90642">
        <ele>4</ele>
        <time>2018-03-08T22:24:15Z</time>
      </trkpt>
      <trkpt lat="46.77536" lon="-1.9068">
        <ele>4</ele>
        <time>2018-03-08T22:25:15Z</time>
      </trkpt>
      <trkpt lat="46.77501" lon="-1.90719">
        <ele>4</ele>
        <time>2018-03-08T22:26:15Z</time>
      </trkpt>
      <trkpt lat="46.77474" lon="-1.90748">
        <ele>4</ele>
        <time>2018-03-08T22:27:15Z</time>
      </trkpt>
      <trkpt lat="46.77459" lon="-1.90766">
        <ele>4</ele>
        <time>2018-03-08T22:28:15Z</time>
      </trkpt>
      <trkpt lat="46.77448" lon="-1.90781">
        <ele>5</ele>
        <time>2018-03-08T22:29:15Z</time>
      </trkpt>
      <trkpt lat="46.77438" lon="-1.90798">
        <ele>4</ele>
        <time>2018-03-08T22:30:15Z</time>
      </trkpt>
      <trkpt lat="46.77429" lon="-1.90815">
        <ele>4</ele>
        <time>2018-03-08T22:31:15Z</time>
      </trkpt>
      <trkpt lat="46.7742" lon="-1.90838">
        <ele>4</ele>
        <time>2018-03-08T22:32:15Z</time>
      </trkpt>
      <trkpt lat="46.77409" lon="-1.90868">
        <ele>3</ele>
        <time>2018-03-08T22:33:15Z</time>
      </trkpt>
      <trkpt lat="46.77402" lon="-1.90889">
        <ele>3</ele>
        <time>2018-03-08T22:34:15Z</time>
      </trkpt>
      <trkpt lat="46.77392" lon="-1.90911">
        <ele>2</ele>
        <time>2018-03-08T22:35:15Z</time>
      </trkpt>
      <trkpt lat="46.7738" lon="-1.90934">
        <ele>3</ele>
        <time>2018-03-08T22:36:15Z</time>
      </trkpt>
      <trkpt lat="46.77369" lon="-1.90952">
        <ele>3</ele>
        <time>2018-03-08T22:37:15Z</time>
      </trkpt>
      <trkpt lat="46.77358" lon="-1.90969">
        <ele>3</ele>
        <time>2018-03-08T22:38:15Z</time>
      </trkpt>
      <trkpt lat="46.77347" lon="-1.90983">
        <ele>3</ele>
        <time>2018-03-08T22:39:15Z</time>
      </trkpt>
      <trkpt lat="46.77337" lon="-1.90994">
        <ele>3</ele>
        <time>2018-03-08T22:40:15Z</time>
      </trkpt>
      <trkpt lat="46.77325" lon="-1.91005">
        <ele>3</ele>
        <time>2018-03-08T22:41:15Z</time>
      </trkpt>
      <trkpt lat="46.77306" lon="-1.91022">
        <ele>3</ele>
        <time>2018-03-08T22:42:15Z</time>
      </trkpt>
      <trkpt lat="46.77281" lon="-1.91041">
        <ele>4</ele>
        <time>2018-03-08T22:43:15Z</time>
      </trkpt>
      <trkpt lat="46.77261" lon="-1.91055">
        <ele>4</ele>
        <time>2018-03-08T22:44:15Z</time>
      </trkpt>
      <trkpt lat="46.77231" lon="-1.91077">
        <ele>5</ele>
        <time>2018-03-08T22:45:15Z</time>
      </trkpt>
      <trkpt lat="46.77196" lon="-1.91103">
        <ele>5</ele>
        <time>2018-03-08T22:46:15Z</time>
      </trkpt>
      <trkpt lat="46.77173" lon="-1.9112">
        <ele>5</ele>
        <time>2018-03-08T22:47:15Z</time>
      </trkpt>
      <trkpt lat="46.77134" lon="-1.91148">
        <ele>5</ele>
        <time>2018-03-08T22:48:15Z</time>
      </trkpt>
      <trkpt lat="46.77104" lon="-1.9117">
        <ele>4</ele>
        <time>2018-03-08T22:49:15Z</time>
      </trkpt>
      <trkpt lat="46.77074" lon="-1.91192">
        <ele>4</ele>
        <time>2018-03-08T22:50:15Z</time>
      </trkpt>
      <trkpt lat="46.77049" lon="-1.9121">
        <ele>4</ele>
        <time>2018-03-08T22:51:15Z</time>
      </trkpt>
      <trkpt lat="46.77012" lon="-1.91233">
        <ele>3</ele>
        <time>2018-03-08T22:52:15Z</time>
      </trkpt>
      <trkpt lat="46.76959" lon="-1.91266">
        <ele>3</ele>
        <time>2018-03-08T22:53:15Z</time>
      </trkpt>
      <trkpt lat="46.76918" lon="-1.91292">
        <ele>4</ele>
        <time>2018-03-08T22:54:15Z</time>
      </trkpt>
      <trkpt lat="46.76902" lon="-1.91306">
        <ele>4</ele>
        <time>2018-03-08T22:55:15Z</time>
      </trkpt>
      <trkpt lat="46.76893" lon="-1.91316">
        <ele>5</ele>
        <time>2018-03-08T22:56:15Z</time>
      </trkpt>
      <trkpt lat="46.76888" lon="-1.91326">
        <ele>5</ele>
        <time>2018-03-08T22:57:15Z</time>
      </trkpt>
      <trkpt lat="46.76885" lon="-1.91336">
        <ele>5</ele>
        <time>2018-03-08T22:58:15Z</time>
      </trkpt>
      <trkpt lat="46.76881" lon="-1.91349">
        <ele>5</ele>
        <time>2018-03-08T22:59:15Z</time>
      </trkpt>
      <trkpt lat="46.76877" lon="-1.91367">
        <ele>5</ele>
        <time>2018-03-08T23:00:15Z</time>
      </trkpt>
      <trkpt lat="46.76875" lon="-1.91389">
        <ele>5</ele>
        <time>2018-03-08T23:01:15Z</time>
      </trkpt>
      <trkpt lat="46.76874" lon="-1.91408">
        <ele>5</ele>
        <time>2018-03-08T23:02:15Z</time>
      </trkpt>
      <trkpt lat="46.76874" lon="-1.9143">
        <ele>5</ele>
        <time>2018-03-08T23:03:15Z</time>
      </trkpt>
      <trkpt lat="46.76874" lon="-1.91446">
        <ele>5</ele>
        <time>2018-03-08T23:04:15Z</time>
      </trkpt>
      <trkpt lat="46.76875" lon="-1.91461">
        <ele>5</ele>
        <time>2018-03-08T23:05:15Z</time>
      </trkpt>
      <trkpt lat="46.76876" lon="-1.91476">
        <ele>4</ele>
        <time>2018-03-08T23:06:15Z</time>
      </trkpt>
      <trkpt lat="46.76878" lon="-1.91493">
        <ele>4</ele>
        <time>2018-03-08T23:07:15Z</time>
      </trkpt>
      <trkpt lat="46.76883" lon="-1.91511">
        <ele>4</ele>
        <time>2018-03-08T23:08:15Z</time>
      </trkpt>
      <trkpt lat="46.76898" lon="-1.91574">
        <ele>4</ele>
        <time>2018-03-08T23:09:15Z</time>
      </trkpt>
      <trkpt lat="46.76907" lon="-1.91609">
        <ele>3</ele>
        <time>2018-03-08T23:10:15Z</time>
      </trkpt>
      <trkpt lat="46.76914" lon="-1.91641">
        <ele>4</ele>
        <time>2018-03-08T23:11:15Z</time>
      </trkpt>
      <trkpt lat="46.7692" lon="-1.91667">
        <ele>4</ele>
        <time>2018-03-08T23:12:15Z</time>
      </trkpt>
      <trkpt lat="46.76925" lon="-1.91685">
        <ele>4</ele>
        <time>2018-03-08T23:13:15Z</time>
      </trkpt>
      <trkpt lat="46.76929" lon="-1.91698">
        <ele>4</ele>
        <time>2018-03-08T23:14:15Z</time>
      </trkpt>
      <trkpt lat="46.76935" lon="-1.91713">
        <ele>4</ele>
        <time>2018-03-08T23:15:15Z</time>
      </trkpt>
      <trkpt lat="46.76943" lon="-1.91732">
        <ele>4</ele>
        <time>2018-03-08T23:16:15Z</time>
      </trkpt>
      <trkpt lat="46.76956" lon="-1.91761">
        <ele>4</ele>
        <time>2018-03-08T23:17:15Z</time>
      </trkpt>
      <trkpt lat="46.76972" lon="-1.91795">
        <ele>4</ele>
        <time>2018-03-08T23:18:15Z</time>
      </trkpt>
      <trkpt lat="46.76975" lon="-1.91802">
        <ele>4</ele>
        <time>2018-03-08T23:19:15Z</time>
      </trkpt>
      <trkpt lat="46.76988" lon="-1.91828">
        <ele>4</ele>
        <time>2018-03-08T23:20:15Z</time>
      </trkpt>
      <trkpt lat="46.77018" lon="-1.91892">
        <ele>3</ele>
        <time>2018-03-08T23:21:15Z</time>
      </trkpt>
      <trkpt lat="46.77085" lon="-1.92027">
        <ele>3</ele>
        <time>2018-03-08T23:22:15Z</time>
      </trkpt>
      <trkpt lat="46.77111" lon="-1.92066">
        <ele>2</ele>
        <time>2018-03-08T23:23:15Z</time>
      </trkpt>
      <trkpt lat="46.77122" lon="-1.92082">
        <ele>2</ele>
        <time>2018-03-08T23:24:15Z</time>
      </trkpt>
      <trkpt lat="46.77129" lon="-1.92096">
        <ele>2</ele>
        <time>2018-03-08T23:25:15Z</time>
      </trkpt>
      <trkpt lat="46.77138" lon="-1.92117">
        <ele>2</ele>
        <time>2018-03-08T23:26:15Z</time>
      </trkpt>
      <trkpt lat="46.77153" lon="-1.92151">
        <ele>2</ele>
        <time>2018-03-08T23:27:15Z</time>
      </trkpt>
      <trkpt lat="46.77172" lon="-1.92192">
        <ele>1.8</ele>
        <time>2018-03-08T23:28:15Z</time>
      </trkpt>
      <trkpt lat="46.77194" lon="-1.92243">
        <ele>2</ele>
        <time>2018-03-08T23:29:15Z</time>
      </trkpt>
      <trkpt lat="46.77207" lon="-1.9227">
        <ele>1.3</ele>
        <time>2018-03-08T23:30:15Z</time>
      </trkpt>
      <trkpt lat="46.7721" lon="-1.92277">
        <ele>1</ele>
        <time>2018-03-08T23:31:15Z</time>
      </trkpt>
      <trkpt lat="46.77213" lon="-1.92284">
        <ele>1.1</ele>
        <time>2018-03-08T23:32:15Z</time>
      </trkpt>
      <trkpt lat="46.77218" lon="-1.92292">
        <ele>1.4</ele>
        <time>2018-03-08T23:33:15Z</time>
      </trkpt>
      <trkpt lat="46.77226" lon="-1.92306">
        <ele>2</ele>
        <time>2018-03-08T23:34:15Z</time>
      </trkpt>
      <trkpt lat="46.77243" lon="-1.92333">
        <ele>1.8</ele>
        <time>2018-03-08T23:35:15Z</time>
      </trkpt>
      <trkpt lat="46.7726" lon="-1.9236">
        <ele>1</ele>
        <time>2018-03-08T23:36:15Z</time>
      </trkpt>
      <trkpt lat="46.77288" lon="-1.92406">
        <ele>1</ele>
        <time>2018-03-08T23:37:15Z</time>
      </trkpt>
      <trkpt lat="46.77321" lon="-1.9246">
        <ele>1</ele>
        <time>2018-03-08T23:38:15Z</time>
      </trkpt>
      <trkpt lat="46.77356" lon="-1.9252">
        <ele>1</ele>
        <time>2018-03-08T23:39:15Z</time>
      </trkpt>
      <trkpt lat="46.77363" lon="-1.9253">
        <ele>1</ele>
        <time>2018-03-08T23:40:15Z</time>
      </trkpt>
      <trkpt lat="46.77379" lon="-1.92553">
        <ele>2</ele>
        <time>2018-03-08T23:41:15Z</time>
      </trkpt>
      <trkpt lat="46.77389" lon="-1.9257">
        <ele>2</ele>
        <time>2018-03-08T23:42:15Z</time>
      </trkpt>
      <trkpt lat="46.77398" lon="-1.92583">
        <ele>2</ele>
        <time>2018-03-08T23:43:15Z</time>
      </trkpt>
      <trkpt lat="46.77402" lon="-1.9259">
        <ele>1.9</ele>
        <time>2018-03-08T23:44:15Z</time>
      </trkpt>
      <trkpt lat="46.77406" lon="-1.92597">
        <ele>1.8</ele>
        <time>2018-03-08T23:45:15Z</time>
      </trkpt>
      <trkpt lat="46.77406" lon="-1.92597">
        <ele>1.8</ele>
        <time>2018-03-08T23:46:15Z</time>
      </trkpt>
      <trkpt lat="46.77416" lon="-1.92615">
        <ele>2</ele>
        <time>2018-03-08T23:47:15Z</time>
      </trkpt>
      <trkpt lat="46.77431" lon="-1.92646">
        <ele>1.5</ele>
        <time>2018-03-08T23:48:15Z</time>
      </trkpt>
      <trkpt lat="46.77449" lon="-1.92685">
        <ele>2</ele>
        <time>2018-03-08T23:49:15Z</time>
      </trkpt>
      <trkpt lat="46.7746" lon="-1.92707">
        <ele>1.8</ele>
        <time>2018-03-08T23:50:15Z</time>
      </trkpt>
      <trkpt lat="46.77468" lon="-1.92722">
        <ele>1.8</ele>
        <time>2018-03-08T23:51:15Z</time>
      </trkpt>
      <trkpt lat="46.77475" lon="-1.92735">
        <ele>1.5</ele>
        <time>2018-03-08T23:52:15Z</time>
      </trkpt>
      <trkpt lat="46.77486" lon="-1.92752">
        <ele>1.5</ele>
        <time>2018-03-08T23:53:15Z</time>
      </trkpt>
      <trkpt lat="46.77502" lon="-1.92776">
        <ele>2</ele>
        <time>2018-03-08T23:54:15Z</time>
      </trkpt>
      <trkpt lat="46.77536" lon="-1.92827">
        <ele>1.2</ele>
        <time>2018-03-08T23:55:15Z</time>
      </trkpt>
      <trkpt lat="46.77563" lon="-1.92869">
        <ele>2</ele>
        <time>2018-03-08T23:56:15Z</time>
      </trkpt>
      <trkpt lat="46.77572" lon="-1.92884">
        <ele>2</ele>
        <time>2018-03-08T23:57:15Z</time>
      </trkpt>
      <trkpt lat="46.77579" lon="-1.92897">
        <ele>2</ele>
        <time>2018-03-08T23:58:15Z</time>
      </trkpt>
      <trkpt lat="46.77585" lon="-1.9291">
        <ele>1.9</ele>
        <time>2018-03-08T23:59:15Z</time>
      </trkpt>
      <trkpt lat="46.77592" lon="-1.92926">
        <ele>1.5</ele>
        <time>2018-03-09T00:00:15Z</time>
      </trkpt>
      <trkpt lat="46.776" lon="-1.92948">
        <ele>1.1</ele>
        <time>2018-03-09T00:01:15Z</time>
      </trkpt>
      <trkpt lat="46.77611" lon="-1.92978">
        <ele>2</ele>
        <time>2018-03-09T00:02:15Z</time>
      </trkpt>
      <trkpt lat="46.7763" lon="-1.9303">
        <ele>2</ele>
        <time>2018-03-09T00:03:15Z</time>
      </trkpt>
      <trkpt lat="46.77645" lon="-1.93069">
        <ele>2</ele>
        <time>2018-03-09T00:04:15Z</time>
      </trkpt>
      <trkpt lat="46.77649" lon="-1.93082">
        <ele>2</ele>
        <time>2018-03-09T00:05:15Z</time>
      </trkpt>
      <trkpt lat="46.77652" lon="-1.93098">
        <ele>2</ele>
        <time>2018-03-09T00:06:15Z</time>
      </trkpt>
      <trkpt lat="46.77655" lon="-1.93113">
        <ele>2</ele>
        <time>2018-03-09T00:07:15Z</time>
      </trkpt>
      <trkpt lat="46.77657" lon="-1.9313">
        <ele>2</ele>
        <time>2018-03-09T00:08:15Z</time>
      </trkpt>
      <trkpt lat="46.77659" lon="-1.93152">
        <ele>2</ele>
        <time>2018-03-09T00:09:15Z</time>
      </trkpt>
      <trkpt lat="46.77659" lon="-1.93171">
        <ele>2</ele>
        <time>2018-03-09T00:10:15Z</time>
      </trkpt>
      <trkpt lat="46.77659" lon="-1.93187">
        <ele>2</ele>
        <time>2018-03-09T00:11:15Z</time>
      </trkpt>
      <trkpt lat="46.77658" lon="-1.93198">
        <ele>2</ele>
        <time>2018-03-09T00:12:15Z</time>
      </trkpt>
      <trkpt lat="46.77657" lon="-1.93208">
        <ele>2</ele>
        <time>2018-03-09T00:13:15Z</time>
      </trkpt>
      <trkpt lat="46.77653" lon="-1.93225">
        <ele>2</ele>
        <time>2018-03-09T00:14:15Z</time>
      </trkpt>
      <trkpt lat="46.77652" lon="-1.93228">
        <ele>2</ele>
        <time>2018-03-09T00:15:15Z</time>
      </trkpt>
      <trkpt lat="46.77649" lon="-1.93241">
        <ele>2</ele>
        <time>2018-03-09T00:16:15Z</time>
      </trkpt>
      <trkpt lat="46.77642" lon="-1.93256">
        <ele>2</ele>
        <time>2018-03-09T00:17:15Z</time>
      </trkpt>
      <trkpt lat="46.77634" lon="-1.93272">
        <ele>2</ele>
        <time>2018-03-09T00:18:15Z</time>
      </trkpt>
      <trkpt lat="46.77625" lon="-1.93294">
        <ele>1</ele>
        <time>2018-03-09T00:19:15Z</time>
      </trkpt>
      <trkpt lat="46.77617" lon="-1.93315">
        <ele>1</ele>
        <time>2018-03-09T00:20:15Z</time>
      </trkpt>
      <trkpt lat="46.77611" lon="-1.93335">
        <ele>1</ele>
        <time>2018-03-09T00:21:15Z</time>
      </trkpt>
      <trkpt lat="46.77605" lon="-1.93359">
        <ele>1</ele>
        <time>2018-03-09T00:22:15Z</time>
      </trkpt>
      <trkpt lat="46.776" lon="-1.93379">
        <ele>1</ele>
        <time>2018-03-09T00:23:15Z</time>
      </trkpt>
      <trkpt lat="46.77598" lon="-1.93397">
        <ele>1</ele>
        <time>2018-03-09T00:24:15Z</time>
      </trkpt>
      <trkpt lat="46.77596" lon="-1.93424">
        <ele>1</ele>
        <time>2018-03-09T00:25:15Z</time>
      </trkpt>
      <trkpt lat="46.77597" lon="-1.93444">
        <ele>1</ele>
        <time>2018-03-09T00:26:15Z</time>
      </trkpt>
      <trkpt lat="46.77598" lon="-1.93472">
        <ele>1</ele>
        <time>2018-03-09T00:27:15Z</time>
      </trkpt>
      <trkpt lat="46.776" lon="-1.93506">
        <ele>1.7</ele>
        <time>2018-03-09T00:28:15Z</time>
      </trkpt>
      <trkpt lat="46.77601" lon="-1.93534">
        <ele>1.9</ele>
        <time>2018-03-09T00:29:15Z</time>
      </trkpt>
      <trkpt lat="46.776" lon="-1.93572">
        <ele>1.8</ele>
        <time>2018-03-09T00:30:15Z</time>
      </trkpt>
      <trkpt lat="46.77596" lon="-1.93602">
        <ele>2</ele>
        <time>2018-03-09T00:31:15Z</time>
      </trkpt>
      <trkpt lat="46.7759" lon="-1.93627">
        <ele>2</ele>
        <time>2018-03-09T00:32:15Z</time>
      </trkpt>
      <trkpt lat="46.77582" lon="-1.93652">
        <ele>1</ele>
        <time>2018-03-09T00:33:15Z</time>
      </trkpt>
      <trkpt lat="46.7757" lon="-1.93682">
        <ele>1</ele>
        <time>2018-03-09T00:34:15Z</time>
      </trkpt>
      <trkpt lat="46.7756" lon="-1.93709">
        <ele>1</ele>
        <time>2018-03-09T00:35:15Z</time>
      </trkpt>
      <trkpt lat="46.77556" lon="-1.93719">
        <ele>1</ele>
        <time>2018-03-09T00:36:15Z</time>
      </trkpt>
      <trkpt lat="46.77544" lon="-1.93752">
        <ele>1</ele>
        <time>2018-03-09T00:37:15Z</time>
      </trkpt>
      <trkpt lat="46.77525" lon="-1.93803">
        <ele>1</ele>
        <time>2018-03-09T00:38:15Z</time>
      </trkpt>
      <trkpt lat="46.77511" lon="-1.93837">
        <ele>1</ele>
        <time>2018-03-09T00:39:15Z</time>
      </trkpt>
      <trkpt lat="46.77501" lon="-1.93865">
        <ele>1</ele>
        <time>2018-03-09T00:40:15Z</time>
      </trkpt>
      <trkpt lat="46.77494" lon="-1.93891">
        <ele>1</ele>
        <time>2018-03-09T00:41:15Z</time>
      </trkpt>
      <trkpt lat="46.77489" lon="-1.93912">
        <ele>1</ele>
        <time>2018-03-09T00:42:15Z</time>
      </trkpt>
      <trkpt lat="46.77485" lon="-1.93938">
        <ele>2</ele>
        <time>2018-03-09T00:43:15Z</time>
      </trkpt>
      <trkpt lat="46.77484" lon="-1.93972">
        <ele>1.4</ele>
        <time>2018-03-09T00:44:15Z</time>
      </trkpt>
      <trkpt lat="46.77484" lon="-1.94019">
        <ele>2</ele>
        <time>2018-03-09T00:45:15Z</time>
      </trkpt>
      <trkpt lat="46.77481" lon="-1.94071">
        <ele>2</ele>
        <time>2018-03-09T00:46:15Z</time>
      </trkpt>
      <trkpt lat="46.7748" lon="-1.94096">
        <ele>2</ele>
        <time>2018-03-09T00:47:15Z</time>
      </trkpt>
      <trkpt lat="46.7748" lon="-1.94096">
        <ele>2</ele>
        <time>2018-03-09T00:48:15Z</time>
      </trkpt>
      <trkpt lat="46.77479" lon="-1.94129">
        <ele>2</ele>
        <time>2018-03-09T00:49:15Z</time>
      </trkpt>
      <trkpt lat="46.77479" lon="-1.94142">
        <ele>2</ele>
        <time>2018-03-09T00:50:15Z</time>
      </trkpt>
      <trkpt lat="46.77478" lon="-1.94161">
        <ele>2</ele>
        <time>2018-03-09T00:51:15Z</time>
      </trkpt>
      <trkpt lat="46.77478" lon="-1.94175">
        <ele>2</ele>
        <time>2018-03-09T00:52:15Z</time>
      </trkpt>
      <trkpt lat="46.77475" lon="-1.94245">
        <ele>2</ele>
        <time>2018-03-09T00:53:15Z</time>
      </trkpt>
      <trkpt lat="46.77473" lon="-1.94321">
        <ele>2</ele>
        <time>2018-03-09T00:54:15Z</time>
      </trkpt>
      <trkpt lat="46.77472" lon="-1.94371">
        <ele>1</ele>
        <time>2018-03-09T00:55:15Z</time>
      </trkpt>
      <trkpt lat="46.77468" lon="-1.94454">
        <ele>1</ele>
        <time>2018-03-09T00:56:15Z</time>
      </trkpt>
      <trkpt lat="46.77468" lon="-1.94485">
        <ele>1.9</ele>
        <time>2018-03-09T00:57:15Z</time>
      </trkpt>
      <trkpt lat="46.7747" lon="-1.94505">
        <ele>1.9</ele>
        <time>2018-03-09T00:58:15Z</time>
      </trkpt>
      <trkpt lat="46.77473" lon="-1.94522">
        <ele>2</ele>
        <time>2018-03-09T00:59:15Z</time>
      </trkpt>
      <trkpt lat="46.77477" lon="-1.94534">
        <ele>1.6</ele>
        <time>2018-03-09T01:00:15Z</time>
      </trkpt>
      <trkpt lat="46.77482" lon="-1.94559">
        <ele>1</ele>
        <time>2018-03-09T01:01:15Z</time>
      </trkpt>
      <trkpt lat="46.77496" lon="-1.94606">
        <ele>1</ele>
        <time>2018-03-09T01:02:15Z</time>
      </trkpt>
      <trkpt lat="46.77506" lon="-1.94654">
        <ele>1</ele>
        <time>2018-03-09T01:03:15Z</time>
      </trkpt>
      <trkpt lat="46.77515" lon="-1.94683">
        <ele>1</ele>
        <time>2018-03-09T01:04:15Z</time>
      </trkpt>
      <trkpt lat="46.77524" lon="-1.94724">
        <ele>1</ele>
        <time>2018-03-09T01:05:15Z</time>
      </trkpt>
      <trkpt lat="46.77534" lon="-1.94768">
        <ele>1</ele>
        <time>2018-03-09T01:06:15Z</time>
      </trkpt>
      <trkpt lat="46.77539" lon="-1.94814">
        <ele>1</ele>
        <time>2018-03-09T01:07:15Z</time>
      </trkpt>
      <trkpt lat="46.77542" lon="-1.9484">
        <ele>1</ele>
        <time>2018-03-09T01:08:15Z</time>
      </trkpt>
      <trkpt lat="46.77544" lon="-1.94863">
        <ele>1</ele>
        <time>2018-03-09T01:09:15Z</time>
      </trkpt>
      <trkpt lat="46.77548" lon="-1.949">
        <ele>1</ele>
        <time>2018-03-09T01:10:15Z</time>
      </trkpt>
      <trkpt lat="46.77554" lon="-1.94962">
        <ele>1</ele>
        <time>2018-03-09T01:11:15Z</time>
      </trkpt>
      <trkpt lat="46.77562" lon="-1.95021">
        <ele>1.2</ele>
        <time>2018-03-09T01:12:15Z</time>
      </trkpt>
      <trkpt lat="46.77568" lon="-1.95059">
        <ele>1.9</ele>
        <time>2018-03-09T01:13:15Z</time>
      </trkpt>
      <trkpt lat="46.77574" lon="-1.95083">
        <ele>1.3</ele>
        <time>2018-03-09T01:14:15Z</time>
      </trkpt>
      <trkpt lat="46.7759" lon="-1.9513">
        <ele>2</ele>
        <time>2018-03-09T01:15:15Z</time>
      </trkpt>
      <trkpt lat="46.77602" lon="-1.95167">
        <ele>2</ele>
        <time>2018-03-09T01:16:15Z</time>
      </trkpt>
      <trkpt lat="46.77613" lon="-1.95199">
        <ele>1.8</ele>
        <time>2018-03-09T01:17:15Z</time>
      </trkpt>
      <trkpt lat="46.77626" lon="-1.9524">
        <ele>1.5</ele>
        <time>2018-03-09T01:18:15Z</time>
      </trkpt>
      <trkpt lat="46.77628" lon="-1.9525">
        <ele>1.4</ele>
        <time>2018-03-09T01:19:15Z</time>
      </trkpt>
      <trkpt lat="46.77633" lon="-1.95282">
        <ele>2</ele>
        <time>2018-03-09T01:20:15Z</time>
      </trkpt>
      <trkpt lat="46.77638" lon="-1.95362">
        <ele>2</ele>
        <time>2018-03-09T01:21:15Z</time>
      </trkpt>
      <trkpt lat="46.7764" lon="-1.95413">
        <ele>2</ele>
        <time>2018-03-09T01:22:15Z</time>
      </trkpt>
      <trkpt lat="46.77641" lon="-1.95442">
        <ele>2</ele>
        <time>2018-03-09T01:23:15Z</time>
      </trkpt>
      <trkpt lat="46.77639" lon="-1.95477">
        <ele>2</ele>
        <time>2018-03-09T01:24:15Z</time>
      </trkpt>
      <trkpt lat="46.77635" lon="-1.95511">
        <ele>2</ele>
        <time>2018-03-09T01:25:15Z</time>
      </trkpt>
      <trkpt lat="46.77629" lon="-1.95553">
        <ele>2</ele>
        <time>2018-03-09T01:26:15Z</time>
      </trkpt>
      <trkpt lat="46.77619" lon="-1.95615">
        <ele>2</ele>
        <time>2018-03-09T01:27:15Z</time>
      </trkpt>
      <trkpt lat="46.77605" lon="-1.957">
        <ele>2</ele>
        <time>2018-03-09T01:28:15Z</time>
      </trkpt>
      <trkpt lat="46.77594" lon="-1.95768">
        <ele>1</ele>
        <time>2018-03-09T01:29:15Z</time>
      </trkpt>
      <trkpt lat="46.7758" lon="-1.95846">
        <ele>2</ele>
        <time>2018-03-09T01:30:15Z</time>
      </trkpt>
      <trkpt lat="46.77564" lon="-1.95923">
        <ele>1</ele>
        <time>2018-03-09T01:31:15Z</time>
      </trkpt>
      <trkpt lat="46.77544" lon="-1.96015">
        <ele>1</ele>
        <time>2018-03-09T01:32:15Z</time>
      </trkpt>
      <trkpt lat="46.7753" lon="-1.96083">
        <ele>1</ele>
        <time>2018-03-09T01:33:15Z</time>
      </trkpt>
      <trkpt lat="46.77525" lon="-1.96108">
        <ele>1</ele>
        <time>2018-03-09T01:34:15Z</time>
      </trkpt>
      <trkpt lat="46.77514" lon="-1.96145">
        <ele>1</ele>
        <time>2018-03-09T01:35:15Z</time>
      </trkpt>
      <trkpt lat="46.77508" lon="-1.96161">
        <ele>2</ele>
        <time>2018-03-09T01:36:15Z</time>
      </trkpt>
      <trkpt lat="46.775" lon="-1.96175">
        <ele>2</ele>
        <time>2018-03-09T01:37:15Z</time>
      </trkpt>
      <trkpt lat="46.77477" lon="-1.96207">
        <ele>3</ele>
        <time>2018-03-09T01:38:15Z</time>
      </trkpt>
      <trkpt lat="46.77465" lon="-1.96231">
        <ele>3</ele>
        <time>2018-03-09T01:39:15Z</time>
      </trkpt>
      <trkpt lat="46.77456" lon="-1.96256">
        <ele>3</ele>
        <time>2018-03-09T01:40:15Z</time>
      </trkpt>
      <trkpt lat="46.77453" lon="-1.96273">
        <ele>3</ele>
        <time>2018-03-09T01:41:15Z</time>
      </trkpt>
      <trkpt lat="46.77452" lon="-1.96292">
        <ele>4</ele>
        <time>2018-03-09T01:42:15Z</time>
      </trkpt>
      <trkpt lat="46.77455" lon="-1.96306">
        <ele>4</ele>
        <time>2018-03-09T01:43:15Z</time>
      </trkpt>
      <trkpt lat="46.77459" lon="-1.96318">
        <ele>4</ele>
        <time>2018-03-09T01:44:15Z</time>
      </trkpt>
      <trkpt lat="46.77469" lon="-1.96333">
        <ele>4</ele>
        <time>2018-03-09T01:45:15Z</time>
      </trkpt>
      <trkpt lat="46.77485" lon="-1.96348">
        <ele>4</ele>
        <time>2018-03-09T01:46:15Z</time>
      </trkpt>
      <trkpt lat="46.77509" lon="-1.96369">
        <ele>5</ele>
        <time>2018-03-09T01:47:15Z</time>
      </trkpt>
      <trkpt lat="46.77536" lon="-1.96391">
        <ele>6</ele>
        <time>2018-03-09T01:48:15Z</time>
      </trkpt>
      <trkpt lat="46.77536" lon="-1.96391">
        <ele>6</ele>
        <time>2018-03-09T01:49:15Z</time>
      </trkpt>
      <trkpt lat="46.77518" lon="-1.96452">
        <ele>7</ele>
        <time>2018-03-09T01:50:15Z</time>
      </trkpt>
      <trkpt lat="46.77502" lon="-1.96498">
        <ele>6</ele>
        <time>2018-03-09T01:51:15Z</time>
      </trkpt>
      <trkpt lat="46.77468" lon="-1.9659">
        <ele>6</ele>
        <time>2018-03-09T01:52:15Z</time>
      </trkpt>
      <trkpt lat="46.77468" lon="-1.9659">
        <ele>6</ele>
        <time>2018-03-09T01:53:15Z</time>
      </trkpt>
      <trkpt lat="46.77467" lon="-1.96589">
        <ele>6</ele>
        <time>2018-03-09T01:54:15Z</time>
      </trkpt>
      <trkpt lat="46.77365" lon="-1.96485">
        <ele>4</ele>
        <time>2018-03-09T01:55:15Z</time>
      </trkpt>
      <trkpt lat="46.77363" lon="-1.96484">
        <ele>4</ele>
        <time>2018-03-09T01:56:15Z</time>
      </trkpt>
      <trkpt lat="46.77306" lon="-1.96428">
        <ele>5</ele>
        <time>2018-03-09T01:57:15Z</time>
      </trkpt>
      <trkpt lat="46.77281" lon="-1.96404">
        <ele>5</ele>
        <time>2018-03-09T01:58:15Z</time>
      </trkpt>
      <trkpt lat="46.77263" lon="-1.96387">
        <ele>4</ele>
        <time>2018-03-09T01:59:15Z</time>
      </trkpt>
      <trkpt lat="46.77211" lon="-1.96338">
        <ele>5</ele>
        <time>2018-03-09T02:00:15Z</time>
      </trkpt>
      <trkpt lat="46.77186" lon="-1.9632">
        <ele>6</ele>
        <time>2018-03-09T02:01:15Z</time>
      </trkpt>
      <trkpt lat="46.77166" lon="-1.96314">
        <ele>7</ele>
        <time>2018-03-09T02:02:15Z</time>
      </trkpt>
      <trkpt lat="46.77166" lon="-1.96319">
        <ele>7</ele>
        <time>2018-03-09T02:03:15Z</time>
      </trkpt>
      <trkpt lat="46.77166" lon="-1.96322">
        <ele>7</ele>
        <time>2018-03-09T02:04:15Z</time>
      </trkpt>
      <trkpt lat="46.77165" lon="-1.96324">
        <ele>7</ele>
        <time>2018-03-09T02:05:15Z</time>
      </trkpt>
      <trkpt lat="46.77164" lon="-1.96327">
        <ele>7</ele>
        <time>2018-03-09T02:06:15Z</time>
      </trkpt>
      <trkpt lat="46.77162" lon="-1.96328">
        <ele>7</ele>
        <time>2018-03-09T02:07:15Z</time>
      </trkpt>
      <trkpt lat="46.7716" lon="-1.9633">
        <ele>7</ele>
        <time>2018-03-09T02:08:15Z</time>
      </trkpt>
      <trkpt lat="46.77158" lon="-1.9633">
        <ele>7</ele>
        <time>2018-03-09T02:09:15Z</time>
      </trkpt>
      <trkpt lat="46.77156" lon="-1.96329">
        <ele>7</ele>
        <time>2018-03-09T02:10:15Z</time>
      </trkpt>
      <trkpt lat="46.77154" lon="-1.96328">
        <ele>7</ele>
        <time>2018-03-09T02:11:15Z</time>
      </trkpt>
      <trkpt lat="46.77153" lon="-1.96326">
        <ele>7</ele>
        <time>2018-03-09T02:12:15Z</time>
      </trkpt>
      <trkpt lat="46.77152" lon="-1.96324">
        <ele>7</ele>
        <time>2018-03-09T02:13:15Z</time>
      </trkpt>
      <trkpt lat="46.77151" lon="-1.9632">
        <ele>7</ele>
        <time>2018-03-09T02:14:15Z</time>
      </trkpt>
      <trkpt lat="46.77151" lon="-1.96317">
        <ele>6</ele>
        <time>2018-03-09T02:15:15Z</time>
      </trkpt>
      <trkpt lat="46.77151" lon="-1.96315">
        <ele>6</ele>
        <time>2018-03-09T02:16:15Z</time>
      </trkpt>
      <trkpt lat="46.77132" lon="-1.96302">
        <ele>6</ele>
        <time>2018-03-09T02:17:15Z</time>
      </trkpt>
      <trkpt lat="46.77103" lon="-1.96298">
        <ele>6</ele>
        <time>2018-03-09T02:18:15Z</time>
      </trkpt>
      <trkpt lat="46.77029" lon="-1.96289">
        <ele>4</ele>
        <time>2018-03-09T02:19:15Z</time>
      </trkpt>
      <trkpt lat="46.77023" lon="-1.96289">
        <ele>3</ele>
        <time>2018-03-09T02:20:15Z</time>
      </trkpt>
      <trkpt lat="46.76955" lon="-1.96283">
        <ele>3</ele>
        <time>2018-03-09T02:21:15Z</time>
      </trkpt>
      <trkpt lat="46.76928" lon="-1.96281">
        <ele>3</ele>
        <time>2018-03-09T02:22:15Z</time>
      </trkpt>
      <trkpt lat="46.76887" lon="-1.96274">
        <ele>4</ele>
        <time>2018-03-09T02:23:15Z</time>
      </trkpt>
      <trkpt lat="46.76872" lon="-1.96271">
        <ele>3</ele>
        <time>2018-03-09T02:24:15Z</time>
      </trkpt>
      <trkpt lat="46.76817" lon="-1.96263">
        <ele>3</ele>
        <time>2018-03-09T02:25:15Z</time>
      </trkpt>
      <trkpt lat="46.76785" lon="-1.96253">
        <ele>3</ele>
        <time>2018-03-09T02:26:15Z</time>
      </trkpt>
      <trkpt lat="46.76722" lon="-1.9623">
        <ele>3</ele>
        <time>2018-03-09T02:27:15Z</time>
      </trkpt>
      <trkpt lat="46.76618" lon="-1.96189">
        <ele>4</ele>
        <time>2018-03-09T02:28:15Z</time>
      </trkpt>
      <trkpt lat="46.76539" lon="-1.9616">
        <ele>3</ele>
        <time>2018-03-09T02:29:15Z</time>
      </trkpt>
      <trkpt lat="46.76513" lon="-1.9615">
        <ele>3</ele>
        <time>2018-03-09T02:30:15Z</time>
      </trkpt>
      <trkpt lat="46.76485" lon="-1.96139">
        <ele>2</ele>
        <time>2018-03-09T02:31:15Z</time>
      </trkpt>
      <trkpt lat="46.76435" lon="-1.96123">
        <ele>2</ele>
        <time>2018-03-09T02:32:15Z</time>
      </trkpt>
      <trkpt lat="46.76431" lon="-1.96121">
        <ele>2</ele>
        <time>2018-03-09T02:33:15Z</time>
      </trkpt>
      <trkpt lat="46.76411" lon="-1.96114">
        <ele>2</ele>
        <time>2018-03-09T02:34:15Z</time>
      </trkpt>
      <trkpt lat="46.76383" lon="-1.96105">
        <ele>2</ele>
        <time>2018-03-09T02:35:15Z</time>
      </trkpt>
      <trkpt lat="46.76353" lon="-1.96093">
        <ele>3</ele>
        <time>2018-03-09T02:36:15Z</time>
      </trkpt>
      <trkpt lat="46.76325" lon="-1.9608">
        <ele>3</ele>
        <time>2018-03-09T02:37:15Z</time>
      </trkpt>
      <trkpt lat="46.76318" lon="-1.96076">
        <ele>3</ele>
        <time>2018-03-09T02:38:15Z</time>
      </trkpt>
      <trkpt lat="46.76308" lon="-1.9607">
        <ele>3</ele>
        <time>2018-03-09T02:39:15Z</time>
      </trkpt>
      <trkpt lat="46.76286" lon="-1.96055">
        <ele>3</ele>
        <time>2018-03-09T02:40:15Z</time>
      </trkpt>
      <trkpt lat="46.76249" lon="-1.96029">
        <ele>4</ele>
        <time>2018-03-09T02:41:15Z</time>
      </trkpt>
      <trkpt lat="46.76226" lon="-1.96014">
        <ele>4</ele>
        <time>2018-03-09T02:42:15Z</time>
      </trkpt>
      <trkpt lat="46.76203" lon="-1.96002">
        <ele>4</ele>
        <time>2018-03-09T02:43:15Z</time>
      </trkpt>
      <trkpt lat="46.76153" lon="-1.95979">
        <ele>3</ele>
        <time>2018-03-09T02:44:15Z</time>
      </trkpt>
      <trkpt lat="46.76101" lon="-1.95956">
        <ele>4</ele>
        <time>2018-03-09T02:45:15Z</time>
      </trkpt>
      <trkpt lat="46.76057" lon="-1.95938">
        <ele>5</ele>
        <time>2018-03-09T02:46:15Z</time>
      </trkpt>
      <trkpt lat="46.7605" lon="-1.95936">
        <ele>5</ele>
        <time>2018-03-09T02:47:15Z</time>
      </trkpt>
      <trkpt lat="46.76034" lon="-1.95931">
        <ele>5</ele>
        <time>2018-03-09T02:48:15Z</time>
      </trkpt>
      <trkpt lat="46.7602" lon="-1.95927">
        <ele>5</ele>
        <time>2018-03-09T02:49:15Z</time>
      </trkpt>
      <trkpt lat="46.76002" lon="-1.95925">
        <ele>6</ele>
        <time>2018-03-09T02:50:15Z</time>
      </trkpt>
      <trkpt lat="46.75982" lon="-1.95923">
        <ele>5</ele>
        <time>2018-03-09T02:51:15Z</time>
      </trkpt>
      <trkpt lat="46.75927" lon="-1.9592">
        <ele>4</ele>
        <time>2018-03-09T02:52:15Z</time>
      </trkpt>
      <trkpt lat="46.75927" lon="-1.9592">
        <ele>4</ele>
        <time>2018-03-09T02:53:15Z</time>
      </trkpt>
      <trkpt lat="46.75913" lon="-1.95901">
        <ele>4</ele>
        <time>2018-03-09T02:54:15Z</time>
      </trkpt>
      <trkpt lat="46.75913" lon="-1.95901">
        <ele>4</ele>
        <time>2018-03-09T02:55:15Z</time>
      </trkpt>
      <trkpt lat="46.75906" lon="-1.9592">
        <ele>4</ele>
        <time>2018-03-09T02:56:15Z</time>
      </trkpt>
      <trkpt lat="46.75906" lon="-1.9592">
        <ele>4</ele>
        <time>2018-03-09T02:57:15Z</time>
      </trkpt>
      <trkpt lat="46.75903" lon="-1.9592">
        <ele>4</ele>
        <time>2018-03-09T02:58:15Z</time>
      </trkpt>
      <trkpt lat="46.75857" lon="-1.95917">
        <ele>3</ele>
        <time>2018-03-09T02:59:15Z</time>
      </trkpt>
      <trkpt lat="46.75855" lon="-1.95917">
        <ele>3</ele>
        <time>2018-03-09T03:00:15Z</time>
      </trkpt>
      <trkpt lat="46.75766" lon="-1.95913">
        <ele>2</ele>
        <time>2018-03-09T03:01:15Z</time>
      </trkpt>
      <trkpt lat="46.75724" lon="-1.95909">
        <ele>3</ele>
        <time>2018-03-09T03:02:15Z</time>
      </trkpt>
      <trkpt lat="46.75696" lon="-1.95905">
        <ele>3</ele>
        <time>2018-03-09T03:03:15Z</time>
      </trkpt>
      <trkpt lat="46.75657" lon="-1.95895">
        <ele>3</ele>
        <time>2018-03-09T03:04:15Z</time>
      </trkpt>
      <trkpt lat="46.75612" lon="-1.95882">
        <ele>2</ele>
        <time>2018-03-09T03:05:15Z</time>
      </trkpt>
      <trkpt lat="46.75565" lon="-1.95868">
        <ele>1</ele>
        <time>2018-03-09T03:06:15Z</time>
      </trkpt>
      <trkpt lat="46.75564" lon="-1.95868">
        <ele>1</ele>
        <time>2018-03-09T03:07:15Z</time>
      </trkpt>
      <trkpt lat="46.7553" lon="-1.95855">
        <ele>2</ele>
        <time>2018-03-09T03:08:15Z</time>
      </trkpt>
      <trkpt lat="46.75522" lon="-1.95849">
        <ele>2</ele>
        <time>2018-03-09T03:09:15Z</time>
      </trkpt>
      <trkpt lat="46.75506" lon="-1.9584">
        <ele>3</ele>
        <time>2018-03-09T03:10:15Z</time>
      </trkpt>
      <trkpt lat="46.75477" lon="-1.95826">
        <ele>2</ele>
        <time>2018-03-09T03:11:15Z</time>
      </trkpt>
      <trkpt lat="46.75427" lon="-1.95799">
        <ele>2</ele>
        <time>2018-03-09T03:12:15Z</time>
      </trkpt>
      <trkpt lat="46.75367" lon="-1.95767">
        <ele>1</ele>
        <time>2018-03-09T03:13:15Z</time>
      </trkpt>
      <trkpt lat="46.75348" lon="-1.95757">
        <ele>1</ele>
        <time>2018-03-09T03:14:15Z</time>
      </trkpt>
      <trkpt lat="46.7531" lon="-1.95737">
        <ele>1</ele>
        <time>2018-03-09T03:15:15Z</time>
      </trkpt>
      <trkpt lat="46.75274" lon="-1.9572">
        <ele>1</ele>
        <time>2018-03-09T03:16:15Z</time>
      </trkpt>
      <trkpt lat="46.75243" lon="-1.95711">
        <ele>1</ele>
        <time>2018-03-09T03:17:15Z</time>
      </trkpt>
      <trkpt lat="46.75236" lon="-1.95709">
        <ele>1</ele>
        <time>2018-03-09T03:18:15Z</time>
      </trkpt>
      <trkpt lat="46.75217" lon="-1.95706">
        <ele>2</ele>
        <time>2018-03-09T03:19:15Z</time>
      </trkpt>
      <trkpt lat="46.75193" lon="-1.95706">
        <ele>1</ele>
        <time>2018-03-09T03:20:15Z</time>
      </trkpt>
      <trkpt lat="46.75163" lon="-1.95705">
        <ele>1</ele>
        <time>2018-03-09T03:21:15Z</time>
      </trkpt>
      <trkpt lat="46.75128" lon="-1.95704">
        <ele>1</ele>
        <time>2018-03-09T03:22:15Z</time>
      </trkpt>
      <trkpt lat="46.75102" lon="-1.95701">
        <ele>1</ele>
        <time>2018-03-09T03:23:15Z</time>
      </trkpt>
      <trkpt lat="46.7508" lon="-1.95696">
        <ele>1</ele>
        <time>2018-03-09T03:24:15Z</time>
      </trkpt>
      <trkpt lat="46.75053" lon="-1.95686">
        <ele>1</ele>
        <time>2018-03-09T03:25:15Z</time>
      </trkpt>
      <trkpt lat="46.75029" lon="-1.95675">
        <ele>1</ele>
        <time>2018-03-09T03:26:15Z</time>
      </trkpt>
      <trkpt lat="46.74994" lon="-1.95658">
        <ele>2</ele>
        <time>2018-03-09T03:27:15Z</time>
      </trkpt>
      <trkpt lat="46.74953" lon="-1.95639">
        <ele>1</ele>
        <time>2018-03-09T03:28:15Z</time>
      </trkpt>
      <trkpt lat="46.74928" lon="-1.95627">
        <ele>1</ele>
        <time>2018-03-09T03:29:15Z</time>
      </trkpt>
      <trkpt lat="46.7492" lon="-1.95623">
        <ele>1</ele>
        <time>2018-03-09T03:30:15Z</time>
      </trkpt>
      <trkpt lat="46.74893" lon="-1.95608">
        <ele>1</ele>
        <time>2018-03-09T03:31:15Z</time>
      </trkpt>
      <trkpt lat="46.74872" lon="-1.95599">
        <ele>1</ele>
        <time>2018-03-09T03:32:15Z</time>
      </trkpt>
      <trkpt lat="46.74848" lon="-1.95588">
        <ele>2</ele>
        <time>2018-03-09T03:33:15Z</time>
      </trkpt>
      <trkpt lat="46.74826" lon="-1.9558">
        <ele>2</ele>
        <time>2018-03-09T03:34:15Z</time>
      </trkpt>
      <trkpt lat="46.74806" lon="-1.95574">
        <ele>2</ele>
        <time>2018-03-09T03:35:15Z</time>
      </trkpt>
      <trkpt lat="46.74785" lon="-1.95572">
        <ele>1</ele>
        <time>2018-03-09T03:36:15Z</time>
      </trkpt>
      <trkpt lat="46.74771" lon="-1.9557">
        <ele>1</ele>
        <time>2018-03-09T03:37:15Z</time>
      </trkpt>
      <trkpt lat="46.74762" lon="-1.95571">
        <ele>1</ele>
        <time>2018-03-09T03:38:15Z</time>
      </trkpt>
      <trkpt lat="46.74738" lon="-1.95572">
        <ele>1</ele>
        <time>2018-03-09T03:39:15Z</time>
      </trkpt>
      <trkpt lat="46.74708" lon="-1.95575">
        <ele>2</ele>
        <time>2018-03-09T03:40:15Z</time>
      </trkpt>
      <trkpt lat="46.74688" lon="-1.95576">
        <ele>2</ele>
        <time>2018-03-09T03:41:15Z</time>
      </trkpt>
      <trkpt lat="46.74666" lon="-1.95578">
        <ele>2</ele>
        <time>2018-03-09T03:42:15Z</time>
      </trkpt>
      <trkpt lat="46.74644" lon="-1.95576">
        <ele>2</ele>
        <time>2018-03-09T03:43:15Z</time>
      </trkpt>
      <trkpt lat="46.7462" lon="-1.95573">
        <ele>2</ele>
        <time>2018-03-09T03:44:15Z</time>
      </trkpt>
      <trkpt lat="46.74591" lon="-1.95567">
        <ele>3</ele>
        <time>2018-03-09T03:45:15Z</time>
      </trkpt>
      <trkpt lat="46.74567" lon="-1.95561">
        <ele>3</ele>
        <time>2018-03-09T03:46:15Z</time>
      </trkpt>
      <trkpt lat="46.74531" lon="-1.95554">
        <ele>2</ele>
        <time>2018-03-09T03:47:15Z</time>
      </trkpt>
      <trkpt lat="46.74509" lon="-1.95549">
        <ele>2</ele>
        <time>2018-03-09T03:48:15Z</time>
      </trkpt>
      <trkpt lat="46.74493" lon="-1.95545">
        <ele>2</ele>
        <time>2018-03-09T03:49:15Z</time>
      </trkpt>
      <trkpt lat="46.74484" lon="-1.95541">
        <ele>1</ele>
        <time>2018-03-09T03:50:15Z</time>
      </trkpt>
      <trkpt lat="46.7448" lon="-1.9554">
        <ele>1</ele>
        <time>2018-03-09T03:51:15Z</time>
      </trkpt>
      <trkpt lat="46.74469" lon="-1.95537">
        <ele>1</ele>
        <time>2018-03-09T03:52:15Z</time>
      </trkpt>
      <trkpt lat="46.74469" lon="-1.95537">
        <ele>1</ele>
        <time>2018-03-09T03:53:15Z</time>
      </trkpt>
      <trkpt lat="46.74468" lon="-1.95542">
        <ele>2</ele>
        <time>2018-03-09T03:54:15Z</time>
      </trkpt>
      <trkpt lat="46.74466" lon="-1.95544">
        <ele>2</ele>
        <time>2018-03-09T03:55:15Z</time>
      </trkpt>
      <trkpt lat="46.74464" lon="-1.95547">
        <ele>2</ele>
        <time>2018-03-09T03:56:15Z</time>
      </trkpt>
      <trkpt lat="46.74461" lon="-1.95548">
        <ele>2</ele>
        <time>2018-03-09T03:57:15Z</time>
      </trkpt>
      <trkpt lat="46.74457" lon="-1.95548">
        <ele>1</ele>
        <time>2018-03-09T03:58:15Z</time>
      </trkpt>
      <trkpt lat="46.74452" lon="-1.95546">
        <ele>1</ele>
        <time>2018-03-09T03:59:15Z</time>
      </trkpt>
      <trkpt lat="46.74448" lon="-1.95542">
        <ele>1</ele>
        <time>2018-03-09T04:00:15Z</time>
      </trkpt>
      <trkpt lat="46.74447" lon="-1.95537">
        <ele>2</ele>
        <time>2018-03-09T04:01:15Z</time>
      </trkpt>
      <trkpt lat="46.74447" lon="-1.9553">
        <ele>2</ele>
        <time>2018-03-09T04:02:15Z</time>
      </trkpt>
      <trkpt lat="46.74432" lon="-1.95514">
        <ele>2</ele>
        <time>2018-03-09T04:03:15Z</time>
      </trkpt>
      <trkpt lat="46.74425" lon="-1.95511">
        <ele>2</ele>
        <time>2018-03-09T04:04:15Z</time>
      </trkpt>
      <trkpt lat="46.74416" lon="-1.95507">
        <ele>2</ele>
        <time>2018-03-09T04:05:15Z</time>
      </trkpt>
      <trkpt lat="46.74394" lon="-1.95502">
        <ele>2</ele>
        <time>2018-03-09T04:06:15Z</time>
      </trkpt>
      <trkpt lat="46.74368" lon="-1.95497">
        <ele>1</ele>
        <time>2018-03-09T04:07:15Z</time>
      </trkpt>
      <trkpt lat="46.7433" lon="-1.9549">
        <ele>1</ele>
        <time>2018-03-09T04:08:15Z</time>
      </trkpt>
      <trkpt lat="46.74293" lon="-1.95482">
        <ele>1</ele>
        <time>2018-03-09T04:09:15Z</time>
      </trkpt>
      <trkpt lat="46.74259" lon="-1.95474">
        <ele>1</ele>
        <time>2018-03-09T04:10:15Z</time>
      </trkpt>
      <trkpt lat="46.74234" lon="-1.95466">
        <ele>1</ele>
        <time>2018-03-09T04:11:15Z</time>
      </trkpt>
      <trkpt lat="46.74206" lon="-1.95455">
        <ele>2</ele>
        <time>2018-03-09T04:12:15Z</time>
      </trkpt>
      <trkpt lat="46.74188" lon="-1.95446">
        <ele>2</ele>
        <time>2018-03-09T04:13:15Z</time>
      </trkpt>
      <trkpt lat="46.74158" lon="-1.95432">
        <ele>2</ele>
        <time>2018-03-09T04:14:15Z</time>
      </trkpt>
      <trkpt lat="46.74136" lon="-1.95419">
        <ele>2</ele>
        <time>2018-03-09T04:15:15Z</time>
      </trkpt>
      <trkpt lat="46.74111" lon="-1.95404">
        <ele>3</ele>
        <time>2018-03-09T04:16:15Z</time>
      </trkpt>
      <trkpt lat="46.74106" lon="-1.954">
        <ele>3</ele>
        <time>2018-03-09T04:17:15Z</time>
      </trkpt>
      <trkpt lat="46.74095" lon="-1.95392">
        <ele>4</ele>
        <time>2018-03-09T04:18:15Z</time>
      </trkpt>
      <trkpt lat="46.7408" lon="-1.95382">
        <ele>5</ele>
        <time>2018-03-09T04:19:15Z</time>
      </trkpt>
      <trkpt lat="46.74062" lon="-1.9537">
        <ele>5</ele>
        <time>2018-03-09T04:20:15Z</time>
      </trkpt>
      <trkpt lat="46.74038" lon="-1.95351">
        <ele>5</ele>
        <time>2018-03-09T04:21:15Z</time>
      </trkpt>
      <trkpt lat="46.7402" lon="-1.95337">
        <ele>5</ele>
        <time>2018-03-09T04:22:15Z</time>
      </trkpt>
      <trkpt lat="46.74006" lon="-1.95327">
        <ele>5</ele>
        <time>2018-03-09T04:23:15Z</time>
      </trkpt>
      <trkpt lat="46.73984" lon="-1.95313">
        <ele>4</ele>
        <time>2018-03-09T04:24:15Z</time>
      </trkpt>
      <trkpt lat="46.73962" lon="-1.95302">
        <ele>4</ele>
        <time>2018-03-09T04:25:15Z</time>
      </trkpt>
      <trkpt lat="46.73939" lon="-1.95292">
        <ele>4</ele>
        <time>2018-03-09T04:26:15Z</time>
      </trkpt>
      <trkpt lat="46.7391" lon="-1.95281">
        <ele>3</ele>
        <time>2018-03-09T04:27:15Z</time>
      </trkpt>
      <trkpt lat="46.7389" lon="-1.95273">
        <ele>3</ele>
        <time>2018-03-09T04:28:15Z</time>
      </trkpt>
      <trkpt lat="46.73862" lon="-1.95261">
        <ele>3</ele>
        <time>2018-03-09T04:29:15Z</time>
      </trkpt>
      <trkpt lat="46.73826" lon="-1.95246">
        <ele>3</ele>
        <time>2018-03-09T04:30:15Z</time>
      </trkpt>
      <trkpt lat="46.73804" lon="-1.95237">
        <ele>4</ele>
        <time>2018-03-09T04:31:15Z</time>
      </trkpt>
      <trkpt lat="46.73784" lon="-1.95228">
        <ele>4</ele>
        <time>2018-03-09T04:32:15Z</time>
      </trkpt>
      <trkpt lat="46.73762" lon="-1.95218">
        <ele>4</ele>
        <time>2018-03-09T04:33:15Z</time>
      </trkpt>
      <trkpt lat="46.73742" lon="-1.95206">
        <ele>4</ele>
        <time>2018-03-09T04:34:15Z</time>
      </trkpt>
      <trkpt lat="46.73714" lon="-1.95191">
        <ele>3</ele>
        <time>2018-03-09T04:35:15Z</time>
      </trkpt>
      <trkpt lat="46.73687" lon="-1.95175">
        <ele>3</ele>
        <time>2018-03-09T04:36:15Z</time>
      </trkpt>
      <trkpt lat="46.73663" lon="-1.95161">
        <ele>3</ele>
        <time>2018-03-09T04:37:15Z</time>
      </trkpt>
      <trkpt lat="46.73662" lon="-1.9516">
        <ele>3</ele>
        <time>2018-03-09T04:38:15Z</time>
      </trkpt>
      <trkpt lat="46.73634" lon="-1.95144">
        <ele>2</ele>
        <time>2018-03-09T04:39:15Z</time>
      </trkpt>
      <trkpt lat="46.73609" lon="-1.9513">
        <ele>2</ele>
        <time>2018-03-09T04:40:15Z</time>
      </trkpt>
      <trkpt lat="46.73589" lon="-1.95117">
        <ele>2</ele>
        <time>2018-03-09T04:41:15Z</time>
      </trkpt>
      <trkpt lat="46.73573" lon="-1.95108">
        <ele>2</ele>
        <time>2018-03-09T04:42:15Z</time>
      </trkpt>
      <trkpt lat="46.73559" lon="-1.951">
        <ele>3</ele>
        <time>2018-03-09T04:43:15Z</time>
      </trkpt>
      <trkpt lat="46.73533" lon="-1.95087">
        <ele>3</ele>
        <time>2018-03-09T04:44:15Z</time>
      </trkpt>
      <trkpt lat="46.73524" lon="-1.95083">
        <ele>4</ele>
        <time>2018-03-09T04:45:15Z</time>
      </trkpt>
      <trkpt lat="46.73513" lon="-1.95077">
        <ele>4</ele>
        <time>2018-03-09T04:46:15Z</time>
      </trkpt>
      <trkpt lat="46.73507" lon="-1.95073">
        <ele>4</ele>
        <time>2018-03-09T04:47:15Z</time>
      </trkpt>
      <trkpt lat="46.73501" lon="-1.95069">
        <ele>4</ele>
        <time>2018-03-09T04:48:15Z</time>
      </trkpt>
      <trkpt lat="46.73497" lon="-1.95067">
        <ele>4</ele>
        <time>2018-03-09T04:49:15Z</time>
      </trkpt>
      <trkpt lat="46.7349" lon="-1.95067">
        <ele>4</ele>
        <time>2018-03-09T04:50:15Z</time>
      </trkpt>
      <trkpt lat="46.73483" lon="-1.95069">
        <ele>4</ele>
        <time>2018-03-09T04:51:15Z</time>
      </trkpt>
      <trkpt lat="46.73475" lon="-1.9507">
        <ele>4</ele>
        <time>2018-03-09T04:52:15Z</time>
      </trkpt>
      <trkpt lat="46.7347" lon="-1.9507">
        <ele>4</ele>
        <time>2018-03-09T04:53:15Z</time>
      </trkpt>
      <trkpt lat="46.73467" lon="-1.95069">
        <ele>4</ele>
        <time>2018-03-09T04:54:15Z</time>
      </trkpt>
      <trkpt lat="46.73456" lon="-1.95066">
        <ele>5</ele>
        <time>2018-03-09T04:55:15Z</time>
      </trkpt>
      <trkpt lat="46.73447" lon="-1.95064">
        <ele>5</ele>
        <time>2018-03-09T04:56:15Z</time>
      </trkpt>
      <trkpt lat="46.73421" lon="-1.9506">
        <ele>5</ele>
        <time>2018-03-09T04:57:15Z</time>
      </trkpt>
      <trkpt lat="46.73413" lon="-1.95056">
        <ele>5</ele>
        <time>2018-03-09T04:58:15Z</time>
      </trkpt>
      <trkpt lat="46.73392" lon="-1.95052">
        <ele>4</ele>
        <time>2018-03-09T04:59:15Z</time>
      </trkpt>
      <trkpt lat="46.73347" lon="-1.95044">
        <ele>4</ele>
        <time>2018-03-09T05:00:15Z</time>
      </trkpt>
      <trkpt lat="46.73309" lon="-1.95037">
        <ele>4</ele>
        <time>2018-03-09T05:01:15Z</time>
      </trkpt>
      <trkpt lat="46.73267" lon="-1.95029">
        <ele>4</ele>
        <time>2018-03-09T05:02:15Z</time>
      </trkpt>
      <trkpt lat="46.73184" lon="-1.95014">
        <ele>6</ele>
        <time>2018-03-09T05:03:15Z</time>
      </trkpt>
      <trkpt lat="46.73133" lon="-1.95002">
        <ele>7</ele>
        <time>2018-03-09T05:04:15Z</time>
      </trkpt>
      <trkpt lat="46.73121" lon="-1.95001">
        <ele>7</ele>
        <time>2018-03-09T05:05:15Z</time>
      </trkpt>
      <trkpt lat="46.73114" lon="-1.94997">
        <ele>7</ele>
        <time>2018-03-09T05:06:15Z</time>
      </trkpt>
      <trkpt lat="46.73055" lon="-1.94978">
        <ele>7</ele>
        <time>2018-03-09T05:07:15Z</time>
      </trkpt>
      <trkpt lat="46.73025" lon="-1.94967">
        <ele>6</ele>
        <time>2018-03-09T05:08:15Z</time>
      </trkpt>
      <trkpt lat="46.73" lon="-1.94957">
        <ele>5</ele>
        <time>2018-03-09T05:09:15Z</time>
      </trkpt>
      <trkpt lat="46.7298" lon="-1.9495">
        <ele>5</ele>
        <time>2018-03-09T05:10:15Z</time>
      </trkpt>
      <trkpt lat="46.72956" lon="-1.94942">
        <ele>5</ele>
        <time>2018-03-09T05:11:15Z</time>
      </trkpt>
      <trkpt lat="46.72938" lon="-1.94935">
        <ele>4</ele>
        <time>2018-03-09T05:12:15Z</time>
      </trkpt>
      <trkpt lat="46.72925" lon="-1.9493">
        <ele>4</ele>
        <time>2018-03-09T05:13:15Z</time>
      </trkpt>
      <trkpt lat="46.72917" lon="-1.94928">
        <ele>4</ele>
        <time>2018-03-09T05:14:15Z</time>
      </trkpt>
      <trkpt lat="46.72906" lon="-1.94925">
        <ele>4</ele>
        <time>2018-03-09T05:15:15Z</time>
      </trkpt>
      <trkpt lat="46.72898" lon="-1.94923">
        <ele>4</ele>
        <time>2018-03-09T05:16:15Z</time>
      </trkpt>
      <trkpt lat="46.72891" lon="-1.94922">
        <ele>4</ele>
        <time>2018-03-09T05:17:15Z</time>
      </trkpt>
      <trkpt lat="46.72884" lon="-1.94922">
        <ele>4</ele>
        <time>2018-03-09T05:18:15Z</time>
      </trkpt>
      <trkpt lat="46.72852" lon="-1.94927">
        <ele>4</ele>
        <time>2018-03-09T05:19:15Z</time>
      </trkpt>
      <trkpt lat="46.72831" lon="-1.94934">
        <ele>4</ele>
        <time>2018-03-09T05:20:15Z</time>
      </trkpt>
      <trkpt lat="46.72823" lon="-1.94937">
        <ele>4</ele>
        <time>2018-03-09T05:21:15Z</time>
      </trkpt>
      <trkpt lat="46.72811" lon="-1.94943">
        <ele>4</ele>
        <time>2018-03-09T05:22:15Z</time>
      </trkpt>
      <trkpt lat="46.72811" lon="-1.94943">
        <ele>4</ele>
        <time>2018-03-09T05:23:15Z</time>
      </trkpt>
      <trkpt lat="46.7281" lon="-1.94944">
        <ele>4</ele>
        <time>2018-03-09T05:24:15Z</time>
      </trkpt>
      <trkpt lat="46.7281" lon="-1.94946">
        <ele>4</ele>
        <time>2018-03-09T05:25:15Z</time>
      </trkpt>
      <trkpt lat="46.72809" lon="-1.94947">
        <ele>4</ele>
        <time>2018-03-09T05:26:15Z</time>
      </trkpt>
      <trkpt lat="46.72808" lon="-1.94949">
        <ele>4</ele>
        <time>2018-03-09T05:27:15Z</time>
      </trkpt>
      <trkpt lat="46.72807" lon="-1.9495">
        <ele>4</ele>
        <time>2018-03-09T05:28:15Z</time>
      </trkpt>
      <trkpt lat="46.72806" lon="-1.94952">
        <ele>4</ele>
        <time>2018-03-09T05:29:15Z</time>
      </trkpt>
      <trkpt lat="46.72805" lon="-1.94953">
        <ele>4</ele>
        <time>2018-03-09T05:30:15Z</time>
      </trkpt>
      <trkpt lat="46.72804" lon="-1.94955">
        <ele>4</ele>
        <time>2018-03-09T05:31:15Z</time>
      </trkpt>
      <trkpt lat="46.72801" lon="-1.94958">
        <ele>4</ele>
        <time>2018-03-09T05:32:15Z</time>
      </trkpt>
      <trkpt lat="46.72798" lon="-1.94961">
        <ele>4</ele>
        <time>2018-03-09T05:33:15Z</time>
      </trkpt>
      <trkpt lat="46.72795" lon="-1.94963">
        <ele>4</ele>
        <time>2018-03-09T05:34:15Z</time>
      </trkpt>
      <trkpt lat="46.72792" lon="-1.94965">
        <ele>4</ele>
        <time>2018-03-09T05:35:15Z</time>
      </trkpt>
      <trkpt lat="46.72788" lon="-1.94966">
        <ele>4</ele>
        <time>2018-03-09T05:36:15Z</time>
      </trkpt>
      <trkpt lat="46.72784" lon="-1.94967">
        <ele>4</ele>
        <time>2018-03-09T05:37:15Z</time>
      </trkpt>
      <trkpt lat="46.72781" lon="-1.94967">
        <ele>4</ele>
        <time>2018-03-09T05:38:15Z</time>
      </trkpt>
      <trkpt lat="46.72777" lon="-1.94967">
        <ele>4</ele>
        <time>2018-03-09T05:39:15Z</time>
      </trkpt>
      <trkpt lat="46.72776" lon="-1.94967">
        <ele>4</ele>
        <time>2018-03-09T05:40:15Z</time>
      </trkpt>
      <trkpt lat="46.72775" lon="-1.94966">
        <ele>4</ele>
        <time>2018-03-09T05:41:15Z</time>
      </trkpt>
      <trkpt lat="46.72774" lon="-1.94966">
        <ele>4</ele>
        <time>2018-03-09T05:42:15Z</time>
      </trkpt>
      <trkpt lat="46.72773" lon="-1.94966">
        <ele>4</ele>
        <time>2018-03-09T05:43:15Z</time>
      </trkpt>
      <trkpt lat="46.72772" lon="-1.94965">
        <ele>4</ele>
        <time>2018-03-09T05:44:15Z</time>
      </trkpt>
      <trkpt lat="46.72771" lon="-1.94965">
        <ele>4</ele>
        <time>2018-03-09T05:45:15Z</time>
      </trkpt>
      <trkpt lat="46.7277" lon="-1.94964">
        <ele>4</ele>
        <time>2018-03-09T05:46:15Z</time>
      </trkpt>
      <trkpt lat="46.72768" lon="-1.94964">
        <ele>4</ele>
        <time>2018-03-09T05:47:15Z</time>
      </trkpt>
      <trkpt lat="46.72767" lon="-1.94963">
        <ele>4</ele>
        <time>2018-03-09T05:48:15Z</time>
      </trkpt>
      <trkpt lat="46.72766" lon="-1.94962">
        <ele>4</ele>
        <time>2018-03-09T05:49:15Z</time>
      </trkpt>
      <trkpt lat="46.72765" lon="-1.94961">
        <ele>4</ele>
        <time>2018-03-09T05:50:15Z</time>
      </trkpt>
      <trkpt lat="46.72764" lon="-1.94961">
        <ele>4</ele>
        <time>2018-03-09T05:51:15Z</time>
      </trkpt>
      <trkpt lat="46.72763" lon="-1.9496">
        <ele>4</ele>
        <time>2018-03-09T05:52:15Z</time>
      </trkpt>
      <trkpt lat="46.72762" lon="-1.94959">
        <ele>4</ele>
        <time>2018-03-09T05:53:15Z</time>
      </trkpt>
      <trkpt lat="46.72761" lon="-1.94958">
        <ele>4</ele>
        <time>2018-03-09T05:54:15Z</time>
      </trkpt>
      <trkpt lat="46.72745" lon="-1.94954">
        <ele>4</ele>
        <time>2018-03-09T05:55:15Z</time>
      </trkpt>
      <trkpt lat="46.72736" lon="-1.94951">
        <ele>4</ele>
        <time>2018-03-09T05:56:15Z</time>
      </trkpt>
      <trkpt lat="46.72724" lon="-1.94945">
        <ele>4</ele>
        <time>2018-03-09T05:57:15Z</time>
      </trkpt>
      <trkpt lat="46.72714" lon="-1.94947">
        <ele>4</ele>
        <time>2018-03-09T05:58:15Z</time>
      </trkpt>
      <trkpt lat="46.72698" lon="-1.94948">
        <ele>4</ele>
        <time>2018-03-09T05:59:15Z</time>
      </trkpt>
      <trkpt lat="46.72689" lon="-1.9495">
        <ele>4</ele>
        <time>2018-03-09T06:00:15Z</time>
      </trkpt>
      <trkpt lat="46.72686" lon="-1.9495">
        <ele>4</ele>
        <time>2018-03-09T06:01:15Z</time>
      </trkpt>
      <trkpt lat="46.72674" lon="-1.94952">
        <ele>4</ele>
        <time>2018-03-09T06:02:15Z</time>
      </trkpt>
      <trkpt lat="46.72657" lon="-1.94954">
        <ele>4</ele>
        <time>2018-03-09T06:03:15Z</time>
      </trkpt>
      <trkpt lat="46.72642" lon="-1.94954">
        <ele>4</ele>
        <time>2018-03-09T06:04:15Z</time>
      </trkpt>
      <trkpt lat="46.72624" lon="-1.94953">
        <ele>4</ele>
        <time>2018-03-09T06:05:15Z</time>
      </trkpt>
      <trkpt lat="46.7261" lon="-1.94952">
        <ele>4</ele>
        <time>2018-03-09T06:06:15Z</time>
      </trkpt>
      <trkpt lat="46.72594" lon="-1.9495">
        <ele>4</ele>
        <time>2018-03-09T06:07:15Z</time>
      </trkpt>
      <trkpt lat="46.72578" lon="-1.94948">
        <ele>4</ele>
        <time>2018-03-09T06:08:15Z</time>
      </trkpt>
      <trkpt lat="46.72566" lon="-1.94946">
        <ele>5</ele>
        <time>2018-03-09T06:09:15Z</time>
      </trkpt>
      <trkpt lat="46.72553" lon="-1.94943">
        <ele>5</ele>
        <time>2018-03-09T06:10:15Z</time>
      </trkpt>
      <trkpt lat="46.72537" lon="-1.94939">
        <ele>5</ele>
        <time>2018-03-09T06:11:15Z</time>
      </trkpt>
      <trkpt lat="46.72525" lon="-1.94935">
        <ele>5</ele>
        <time>2018-03-09T06:12:15Z</time>
      </trkpt>
      <trkpt lat="46.72511" lon="-1.94929">
        <ele>5</ele>
        <time>2018-03-09T06:13:15Z</time>
      </trkpt>
      <trkpt lat="46.72495" lon="-1.94922">
        <ele>5</ele>
        <time>2018-03-09T06:14:15Z</time>
      </trkpt>
      <trkpt lat="46.72485" lon="-1.94918">
        <ele>5</ele>
        <time>2018-03-09T06:15:15Z</time>
      </trkpt>
      <trkpt lat="46.72476" lon="-1.94915">
        <ele>5</ele>
        <time>2018-03-09T06:16:15Z</time>
      </trkpt>
      <trkpt lat="46.72468" lon="-1.94912">
        <ele>5</ele>
        <time>2018-03-09T06:17:15Z</time>
      </trkpt>
      <trkpt lat="46.72461" lon="-1.94909">
        <ele>5</ele>
        <time>2018-03-09T06:18:15Z</time>
      </trkpt>
      <trkpt lat="46.72452" lon="-1.94907">
        <ele>6</ele>
        <time>2018-03-09T06:19:15Z</time>
      </trkpt>
      <trkpt lat="46.72444" lon="-1.94906">
        <ele>6</ele>
        <time>2018-03-09T06:20:15Z</time>
      </trkpt>
      <trkpt lat="46.72435" lon="-1.94906">
        <ele>6</ele>
        <time>2018-03-09T06:21:15Z</time>
      </trkpt>
      <trkpt lat="46.72423" lon="-1.94905">
        <ele>6</ele>
        <time>2018-03-09T06:22:15Z</time>
      </trkpt>
      <trkpt lat="46.72416" lon="-1.94905">
        <ele>6</ele>
        <time>2018-03-09T06:23:15Z</time>
      </trkpt>
      <trkpt lat="46.72406" lon="-1.94904">
        <ele>6</ele>
        <time>2018-03-09T06:24:15Z</time>
      </trkpt>
      <trkpt lat="46.72393" lon="-1.94904">
        <ele>6</ele>
        <time>2018-03-09T06:25:15Z</time>
      </trkpt>
      <trkpt lat="46.72384" lon="-1.94904">
        <ele>6</ele>
        <time>2018-03-09T06:26:15Z</time>
      </trkpt>
      <trkpt lat="46.72377" lon="-1.94905">
        <ele>6</ele>
        <time>2018-03-09T06:27:15Z</time>
      </trkpt>
      <trkpt lat="46.72368" lon="-1.94908">
        <ele>7</ele>
        <time>2018-03-09T06:28:15Z</time>
      </trkpt>
      <trkpt lat="46.72359" lon="-1.94911">
        <ele>7</ele>
        <time>2018-03-09T06:29:15Z</time>
      </trkpt>
      <trkpt lat="46.72359" lon="-1.94911">
        <ele>7</ele>
        <time>2018-03-09T06:30:15Z</time>
      </trkpt>
      <trkpt lat="46.72359" lon="-1.94915">
        <ele>7</ele>
        <time>2018-03-09T06:31:15Z</time>
      </trkpt>
      <trkpt lat="46.72358" lon="-1.94918">
        <ele>7</ele>
        <time>2018-03-09T06:32:15Z</time>
      </trkpt>
      <trkpt lat="46.72356" lon="-1.94921">
        <ele>7</ele>
        <time>2018-03-09T06:33:15Z</time>
      </trkpt>
      <trkpt lat="46.72355" lon="-1.94922">
        <ele>7</ele>
        <time>2018-03-09T06:34:15Z</time>
      </trkpt>
      <trkpt lat="46.72353" lon="-1.94923">
        <ele>7</ele>
        <time>2018-03-09T06:35:15Z</time>
      </trkpt>
      <trkpt lat="46.72351" lon="-1.94924">
        <ele>7</ele>
        <time>2018-03-09T06:36:15Z</time>
      </trkpt>
      <trkpt lat="46.72348" lon="-1.94924">
        <ele>7</ele>
        <time>2018-03-09T06:37:15Z</time>
      </trkpt>
      <trkpt lat="46.72345" lon="-1.94924">
        <ele>7</ele>
        <time>2018-03-09T06:38:15Z</time>
      </trkpt>
      <trkpt lat="46.72343" lon="-1.94923">
        <ele>7</ele>
        <time>2018-03-09T06:39:15Z</time>
      </trkpt>
      <trkpt lat="46.72341" lon="-1.9492">
        <ele>7</ele>
        <time>2018-03-09T06:40:15Z</time>
      </trkpt>
      <trkpt lat="46.72339" lon="-1.94918">
        <ele>7</ele>
        <time>2018-03-09T06:41:15Z</time>
      </trkpt>
      <trkpt lat="46.72338" lon="-1.94914">
        <ele>7</ele>
        <time>2018-03-09T06:42:15Z</time>
      </trkpt>
      <trkpt lat="46.72338" lon="-1.94911">
        <ele>7</ele>
        <time>2018-03-09T06:43:15Z</time>
      </trkpt>
      <trkpt lat="46.72338" lon="-1.94909">
        <ele>7</ele>
        <time>2018-03-09T06:44:15Z</time>
      </trkpt>
      <trkpt lat="46.72332" lon="-1.94895">
        <ele>7</ele>
        <time>2018-03-09T06:45:15Z</time>
      </trkpt>
      <trkpt lat="46.72329" lon="-1.94884">
        <ele>7</ele>
        <time>2018-03-09T06:46:15Z</time>
      </trkpt>
      <trkpt lat="46.72329" lon="-1.94884">
        <ele>7</ele>
        <time>2018-03-09T06:47:15Z</time>
      </trkpt>
      <trkpt lat="46.72332" lon="-1.94883">
        <ele>7</ele>
        <time>2018-03-09T06:48:15Z</time>
      </trkpt>
      <trkpt lat="46.72338" lon="-1.94881">
        <ele>7</ele>
        <time>2018-03-09T06:49:15Z</time>
      </trkpt>
      <trkpt lat="46.72348" lon="-1.94894">
        <ele>7</ele>
        <time>2018-03-09T06:50:15Z</time>
      </trkpt>
      <trkpt lat="46.72348" lon="-1.94894">
        <ele>7</ele>
        <time>2018-03-09T06:51:15Z</time>
      </trkpt>
      <trkpt lat="46.72349" lon="-1.94894">
        <ele>7</ele>
        <time>2018-03-09T06:52:15Z</time>
      </trkpt>
      <trkpt lat="46.72351" lon="-1.94894">
        <ele>7</ele>
        <time>2018-03-09T06:53:15Z</time>
      </trkpt>
      <trkpt lat="46.72352" lon="-1.94895">
        <ele>7</ele>
        <time>2018-03-09T06:54:15Z</time>
      </trkpt>
      <trkpt lat="46.72354" lon="-1.94895">
        <ele>7</ele>
        <time>2018-03-09T06:55:15Z</time>
      </trkpt>
      <trkpt lat="46.72355" lon="-1.94896">
        <ele>7</ele>
        <time>2018-03-09T06:56:15Z</time>
      </trkpt>
      <trkpt lat="46.72357" lon="-1.949">
        <ele>7</ele>
        <time>2018-03-09T06:57:15Z</time>
      </trkpt>
      <trkpt lat="46.72358" lon="-1.94902">
        <ele>7</ele>
        <time>2018-03-09T06:58:15Z</time>
      </trkpt>
      <trkpt lat="46.72358" lon="-1.94905">
        <ele>7</ele>
        <time>2018-03-09T06:59:15Z</time>
      </trkpt>
      <trkpt lat="46.72359" lon="-1.94908">
        <ele>7</ele>
        <time>2018-03-09T07:00:15Z</time>
      </trkpt>
      <trkpt lat="46.72359" lon="-1.94911">
        <ele>7</ele>
        <time>2018-03-09T07:01:15Z</time>
      </trkpt>
      <trkpt lat="46.72359" lon="-1.94915">
        <ele>7</ele>
        <time>2018-03-09T07:02:15Z</time>
      </trkpt>
      <trkpt lat="46.72358" lon="-1.94918">
        <ele>7</ele>
        <time>2018-03-09T07:03:15Z</time>
      </trkpt>
      <trkpt lat="46.72356" lon="-1.94921">
        <ele>7</ele>
        <time>2018-03-09T07:04:15Z</time>
      </trkpt>
      <trkpt lat="46.72355" lon="-1.94922">
        <ele>7</ele>
        <time>2018-03-09T07:05:15Z</time>
      </trkpt>
      <trkpt lat="46.72353" lon="-1.94923">
        <ele>7</ele>
        <time>2018-03-09T07:06:15Z</time>
      </trkpt>
      <trkpt lat="46.72351" lon="-1.94924">
        <ele>7</ele>
        <time>2018-03-09T07:07:15Z</time>
      </trkpt>
      <trkpt lat="46.72348" lon="-1.94924">
        <ele>7</ele>
        <time>2018-03-09T07:08:15Z</time>
      </trkpt>
      <trkpt lat="46.72345" lon="-1.94924">
        <ele>7</ele>
        <time>2018-03-09T07:09:15Z</time>
      </trkpt>
      <trkpt lat="46.72343" lon="-1.94923">
        <ele>7</ele>
        <time>2018-03-09T07:10:15Z</time>
      </trkpt>
      <trkpt lat="46.72341" lon="-1.9492">
        <ele>7</ele>
        <time>2018-03-09T07:11:15Z</time>
      </trkpt>
      <trkpt lat="46.72339" lon="-1.94918">
        <ele>7</ele>
        <time>2018-03-09T07:12:15Z</time>
      </trkpt>
      <trkpt lat="46.72338" lon="-1.94914">
        <ele>7</ele>
        <time>2018-03-09T07:13:15Z</time>
      </trkpt>
      <trkpt lat="46.72338" lon="-1.94911">
        <ele>7</ele>
        <time>2018-03-09T07:14:15Z</time>
      </trkpt>
      <trkpt lat="46.72338" lon="-1.94909">
        <ele>7</ele>
        <time>2018-03-09T07:15:15Z</time>
      </trkpt>
      <trkpt lat="46.72332" lon="-1.94895">
        <ele>7</ele>
        <time>2018-03-09T07:16:15Z</time>
      </trkpt>
      <trkpt lat="46.72332" lon="-1.94895">
        <ele>7</ele>
        <time>2018-03-09T07:17:15Z</time>
      </trkpt>
      <trkpt lat="46.72323" lon="-1.94892">
        <ele>7</ele>
        <time>2018-03-09T07:18:15Z</time>
      </trkpt>
      <trkpt lat="46.72313" lon="-1.94888">
        <ele>7</ele>
        <time>2018-03-09T07:19:15Z</time>
      </trkpt>
      <trkpt lat="46.72301" lon="-1.94886">
        <ele>7</ele>
        <time>2018-03-09T07:20:15Z</time>
      </trkpt>
      <trkpt lat="46.72279" lon="-1.9488">
        <ele>8</ele>
        <time>2018-03-09T07:21:15Z</time>
      </trkpt>
      <trkpt lat="46.72229" lon="-1.94864">
        <ele>9</ele>
        <time>2018-03-09T07:22:15Z</time>
      </trkpt>
      <trkpt lat="46.72173" lon="-1.94851">
        <ele>9</ele>
        <time>2018-03-09T07:23:15Z</time>
      </trkpt>
      <trkpt lat="46.72135" lon="-1.9485">
        <ele>10</ele>
        <time>2018-03-09T07:24:15Z</time>
      </trkpt>
      <trkpt lat="46.72103" lon="-1.94856">
        <ele>11</ele>
        <time>2018-03-09T07:25:15Z</time>
      </trkpt>
      <trkpt lat="46.72072" lon="-1.94873">
        <ele>12</ele>
        <time>2018-03-09T07:26:15Z</time>
      </trkpt>
      <trkpt lat="46.72056" lon="-1.94881">
        <ele>12</ele>
        <time>2018-03-09T07:27:15Z</time>
      </trkpt>
      <trkpt lat="46.72036" lon="-1.94891">
        <ele>12</ele>
        <time>2018-03-09T07:28:15Z</time>
      </trkpt>
      <trkpt lat="46.72021" lon="-1.94898">
        <ele>12</ele>
        <time>2018-03-09T07:29:15Z</time>
      </trkpt>
      <trkpt lat="46.71992" lon="-1.9491">
        <ele>13</ele>
        <time>2018-03-09T07:30:15Z</time>
      </trkpt>
      <trkpt lat="46.71969" lon="-1.94918">
        <ele>13</ele>
        <time>2018-03-09T07:31:15Z</time>
      </trkpt>
      <trkpt lat="46.71948" lon="-1.94924">
        <ele>14</ele>
        <time>2018-03-09T07:32:15Z</time>
      </trkpt>
      <trkpt lat="46.71914" lon="-1.94934">
        <ele>14</ele>
        <time>2018-03-09T07:33:15Z</time>
      </trkpt>
      <trkpt lat="46.71894" lon="-1.9494">
        <ele>14</ele>
        <time>2018-03-09T07:34:15Z</time>
      </trkpt>
      <trkpt lat="46.71878" lon="-1.94946">
        <ele>14</ele>
        <time>2018-03-09T07:35:15Z</time>
      </trkpt>
      <trkpt lat="46.71868" lon="-1.94951">
        <ele>14</ele>
        <time>2018-03-09T07:36:15Z</time>
      </trkpt>
      <trkpt lat="46.7186" lon="-1.94957">
        <ele>14</ele>
        <time>2018-03-09T07:37:15Z</time>
      </trkpt>
      <trkpt lat="46.71849" lon="-1.94963">
        <ele>14</ele>
        <time>2018-03-09T07:38:15Z</time>
      </trkpt>
      <trkpt lat="46.71836" lon="-1.94967">
        <ele>14</ele>
        <time>2018-03-09T07:39:15Z</time>
      </trkpt>
      <trkpt lat="46.71814" lon="-1.94979">
        <ele>15</ele>
        <time>2018-03-09T07:40:15Z</time>
      </trkpt>
      <trkpt lat="46.71778" lon="-1.94996">
        <ele>15</ele>
        <time>2018-03-09T07:41:15Z</time>
      </trkpt>
      <trkpt lat="46.71752" lon="-1.95011">
        <ele>16</ele>
        <time>2018-03-09T07:42:15Z</time>
      </trkpt>
      <trkpt lat="46.71729" lon="-1.95025">
        <ele>17</ele>
        <time>2018-03-09T07:43:15Z</time>
      </trkpt>
      <trkpt lat="46.717" lon="-1.95043">
        <ele>17</ele>
        <time>2018-03-09T07:44:15Z</time>
      </trkpt>
      <trkpt lat="46.7167" lon="-1.95065">
        <ele>18</ele>
        <time>2018-03-09T07:45:15Z</time>
      </trkpt>
      <trkpt lat="46.71654" lon="-1.95077">
        <ele>18</ele>
        <time>2018-03-09T07:46:15Z</time>
      </trkpt>
      <trkpt lat="46.71639" lon="-1.95089">
        <ele>18</ele>
        <time>2018-03-09T07:47:15Z</time>
      </trkpt>
      <trkpt lat="46.71605" lon="-1.95115">
        <ele>18</ele>
        <time>2018-03-09T07:48:15Z</time>
      </trkpt>
      <trkpt lat="46.71604" lon="-1.95116">
        <ele>18</ele>
        <time>2018-03-09T07:49:15Z</time>
      </trkpt>
      <trkpt lat="46.71603" lon="-1.95116">
        <ele>18</ele>
        <time>2018-03-09T07:50:15Z</time>
      </trkpt>
      <trkpt lat="46.71567" lon="-1.95143">
        <ele>18</ele>
        <time>2018-03-09T07:51:15Z</time>
      </trkpt>
      <trkpt lat="46.71561" lon="-1.95149">
        <ele>18</ele>
        <time>2018-03-09T07:52:15Z</time>
      </trkpt>
      <trkpt lat="46.71532" lon="-1.95171">
        <ele>18</ele>
        <time>2018-03-09T07:53:15Z</time>
      </trkpt>
      <trkpt lat="46.71495" lon="-1.95201">
        <ele>18</ele>
        <time>2018-03-09T07:54:15Z</time>
      </trkpt>
      <trkpt lat="46.71468" lon="-1.95228">
        <ele>17</ele>
        <time>2018-03-09T07:55:15Z</time>
      </trkpt>
      <trkpt lat="46.71444" lon="-1.95256">
        <ele>18</ele>
        <time>2018-03-09T07:56:15Z</time>
      </trkpt>
      <trkpt lat="46.71427" lon="-1.95277">
        <ele>18</ele>
        <time>2018-03-09T07:57:15Z</time>
      </trkpt>
      <trkpt lat="46.71422" lon="-1.95284">
        <ele>18</ele>
        <time>2018-03-09T07:58:15Z</time>
      </trkpt>
      <trkpt lat="46.71423" lon="-1.95286">
        <ele>18</ele>
        <time>2018-03-09T07:59:15Z</time>
      </trkpt>
      <trkpt lat="46.71423" lon="-1.95288">
        <ele>18</ele>
        <time>2018-03-09T08:00:15Z</time>
      </trkpt>
      <trkpt lat="46.71423" lon="-1.9529">
        <ele>17</ele>
        <time>2018-03-09T08:01:15Z</time>
      </trkpt>
      <trkpt lat="46.71423" lon="-1.95293">
        <ele>17</ele>
        <time>2018-03-09T08:02:15Z</time>
      </trkpt>
      <trkpt lat="46.71422" lon="-1.95296">
        <ele>17</ele>
        <time>2018-03-09T08:03:15Z</time>
      </trkpt>
      <trkpt lat="46.71422" lon="-1.95297">
        <ele>17</ele>
        <time>2018-03-09T08:04:15Z</time>
      </trkpt>
      <trkpt lat="46.7142" lon="-1.953">
        <ele>17</ele>
        <time>2018-03-09T08:05:15Z</time>
      </trkpt>
      <trkpt lat="46.71418" lon="-1.95302">
        <ele>17</ele>
        <time>2018-03-09T08:06:15Z</time>
      </trkpt>
      <trkpt lat="46.71416" lon="-1.95303">
        <ele>17</ele>
        <time>2018-03-09T08:07:15Z</time>
      </trkpt>
      <trkpt lat="46.71414" lon="-1.95303">
        <ele>17</ele>
        <time>2018-03-09T08:08:15Z</time>
      </trkpt>
      <trkpt lat="46.71412" lon="-1.95302">
        <ele>17</ele>
        <time>2018-03-09T08:09:15Z</time>
      </trkpt>
      <trkpt lat="46.71392" lon="-1.9533">
        <ele>17</ele>
        <time>2018-03-09T08:10:15Z</time>
      </trkpt>
      <trkpt lat="46.71375" lon="-1.95363">
        <ele>17</ele>
        <time>2018-03-09T08:11:15Z</time>
      </trkpt>
      <trkpt lat="46.71356" lon="-1.95404">
        <ele>18</ele>
        <time>2018-03-09T08:12:15Z</time>
      </trkpt>
      <trkpt lat="46.71343" lon="-1.95439">
        <ele>18</ele>
        <time>2018-03-09T08:13:15Z</time>
      </trkpt>
      <trkpt lat="46.71333" lon="-1.95468">
        <ele>18</ele>
        <time>2018-03-09T08:14:15Z</time>
      </trkpt>
      <trkpt lat="46.71316" lon="-1.95528">
        <ele>18</ele>
        <time>2018-03-09T08:15:15Z</time>
      </trkpt>
      <trkpt lat="46.71301" lon="-1.9558">
        <ele>18</ele>
        <time>2018-03-09T08:16:15Z</time>
      </trkpt>
      <trkpt lat="46.71289" lon="-1.95623">
        <ele>18</ele>
        <time>2018-03-09T08:17:15Z</time>
      </trkpt>
      <trkpt lat="46.71276" lon="-1.9567">
        <ele>17</ele>
        <time>2018-03-09T08:18:15Z</time>
      </trkpt>
      <trkpt lat="46.71274" lon="-1.95677">
        <ele>17</ele>
        <time>2018-03-09T08:19:15Z</time>
      </trkpt>
      <trkpt lat="46.71273" lon="-1.9568">
        <ele>17</ele>
        <time>2018-03-09T08:20:15Z</time>
      </trkpt>
      <trkpt lat="46.71255" lon="-1.95749">
        <ele>19</ele>
        <time>2018-03-09T08:21:15Z</time>
      </trkpt>
      <trkpt lat="46.71237" lon="-1.9581">
        <ele>19</ele>
        <time>2018-03-09T08:22:15Z</time>
      </trkpt>
      <trkpt lat="46.71212" lon="-1.95904">
        <ele>19</ele>
        <time>2018-03-09T08:23:15Z</time>
      </trkpt>
      <trkpt lat="46.71194" lon="-1.95967">
        <ele>19</ele>
        <time>2018-03-09T08:24:15Z</time>
      </trkpt>
      <trkpt lat="46.7119" lon="-1.95982">
        <ele>18</ele>
        <time>2018-03-09T08:25:15Z</time>
      </trkpt>
      <trkpt lat="46.71179" lon="-1.96023">
        <ele>18</ele>
        <time>2018-03-09T08:26:15Z</time>
      </trkpt>
      <trkpt lat="46.71165" lon="-1.96078">
        <ele>17</ele>
        <time>2018-03-09T08:27:15Z</time>
      </trkpt>
      <trkpt lat="46.71159" lon="-1.961">
        <ele>17</ele>
        <time>2018-03-09T08:28:15Z</time>
      </trkpt>
      <trkpt lat="46.71159" lon="-1.961">
        <ele>17</ele>
        <time>2018-03-09T08:29:15Z</time>
      </trkpt>
      <trkpt lat="46.71162" lon="-1.96102">
        <ele>17</ele>
        <time>2018-03-09T08:30:15Z</time>
      </trkpt>
      <trkpt lat="46.71164" lon="-1.96104">
        <ele>17</ele>
        <time>2018-03-09T08:31:15Z</time>
      </trkpt>
      <trkpt lat="46.71165" lon="-1.96107">
        <ele>17</ele>
        <time>2018-03-09T08:32:15Z</time>
      </trkpt>
      <trkpt lat="46.71166" lon="-1.96109">
        <ele>17</ele>
        <time>2018-03-09T08:33:15Z</time>
      </trkpt>
      <trkpt lat="46.71167" lon="-1.96112">
        <ele>17</ele>
        <time>2018-03-09T08:34:15Z</time>
      </trkpt>
      <trkpt lat="46.71167" lon="-1.96114">
        <ele>17</ele>
        <time>2018-03-09T08:35:15Z</time>
      </trkpt>
      <trkpt lat="46.71166" lon="-1.96117">
        <ele>17</ele>
        <time>2018-03-09T08:36:15Z</time>
      </trkpt>
      <trkpt lat="46.71166" lon="-1.9612">
        <ele>17</ele>
        <time>2018-03-09T08:37:15Z</time>
      </trkpt>
      <trkpt lat="46.71165" lon="-1.96123">
        <ele>16</ele>
        <time>2018-03-09T08:38:15Z</time>
      </trkpt>
      <trkpt lat="46.71164" lon="-1.96127">
        <ele>16</ele>
        <time>2018-03-09T08:39:15Z</time>
      </trkpt>
      <trkpt lat="46.71161" lon="-1.96131">
        <ele>16</ele>
        <time>2018-03-09T08:40:15Z</time>
      </trkpt>
      <trkpt lat="46.71159" lon="-1.96133">
        <ele>16</ele>
        <time>2018-03-09T08:41:15Z</time>
      </trkpt>
      <trkpt lat="46.71155" lon="-1.96135">
        <ele>16</ele>
        <time>2018-03-09T08:42:15Z</time>
      </trkpt>
      <trkpt lat="46.71152" lon="-1.96136">
        <ele>16</ele>
        <time>2018-03-09T08:43:15Z</time>
      </trkpt>
      <trkpt lat="46.71149" lon="-1.96135">
        <ele>16</ele>
        <time>2018-03-09T08:44:15Z</time>
      </trkpt>
      <trkpt lat="46.71147" lon="-1.96135">
        <ele>16</ele>
        <time>2018-03-09T08:45:15Z</time>
      </trkpt>
      <trkpt lat="46.71145" lon="-1.96132">
        <ele>16</ele>
        <time>2018-03-09T08:46:15Z</time>
      </trkpt>
      <trkpt lat="46.71143" lon="-1.96129">
        <ele>16</ele>
        <time>2018-03-09T08:47:15Z</time>
      </trkpt>
      <trkpt lat="46.71141" lon="-1.96126">
        <ele>16</ele>
        <time>2018-03-09T08:48:15Z</time>
      </trkpt>
      <trkpt lat="46.7114" lon="-1.96124">
        <ele>16</ele>
        <time>2018-03-09T08:49:15Z</time>
      </trkpt>
      <trkpt lat="46.71139" lon="-1.9612">
        <ele>16</ele>
        <time>2018-03-09T08:50:15Z</time>
      </trkpt>
      <trkpt lat="46.71139" lon="-1.96119">
        <ele>16</ele>
        <time>2018-03-09T08:51:15Z</time>
      </trkpt>
      <trkpt lat="46.71139" lon="-1.96116">
        <ele>16</ele>
        <time>2018-03-09T08:52:15Z</time>
      </trkpt>
      <trkpt lat="46.71139" lon="-1.96113">
        <ele>16</ele>
        <time>2018-03-09T08:53:15Z</time>
      </trkpt>
      <trkpt lat="46.71139" lon="-1.9611">
        <ele>16</ele>
        <time>2018-03-09T08:54:15Z</time>
      </trkpt>
      <trkpt lat="46.7114" lon="-1.96107">
        <ele>16</ele>
        <time>2018-03-09T08:55:15Z</time>
      </trkpt>
      <trkpt lat="46.71141" lon="-1.96102">
        <ele>16</ele>
        <time>2018-03-09T08:56:15Z</time>
      </trkpt>
      <trkpt lat="46.71143" lon="-1.96099">
        <ele>16</ele>
        <time>2018-03-09T08:57:15Z</time>
      </trkpt>
      <trkpt lat="46.71146" lon="-1.96097">
        <ele>16</ele>
        <time>2018-03-09T08:58:15Z</time>
      </trkpt>
      <trkpt lat="46.71149" lon="-1.96096">
        <ele>16</ele>
        <time>2018-03-09T08:59:15Z</time>
      </trkpt>
      <trkpt lat="46.71151" lon="-1.96095">
        <ele>16</ele>
        <time>2018-03-09T09:00:15Z</time>
      </trkpt>
      <trkpt lat="46.71153" lon="-1.96095">
        <ele>17</ele>
        <time>2018-03-09T09:01:15Z</time>
      </trkpt>
      <trkpt lat="46.71155" lon="-1.96096">
        <ele>17</ele>
        <time>2018-03-09T09:02:15Z</time>
      </trkpt>
      <trkpt lat="46.71157" lon="-1.96097">
        <ele>17</ele>
        <time>2018-03-09T09:03:15Z</time>
      </trkpt>
      <trkpt lat="46.71159" lon="-1.961">
        <ele>17</ele>
        <time>2018-03-09T09:04:15Z</time>
      </trkpt>
      <trkpt lat="46.71162" lon="-1.96102">
        <ele>17</ele>
        <time>2018-03-09T09:05:15Z</time>
      </trkpt>
      <trkpt lat="46.71164" lon="-1.96104">
        <ele>17</ele>
        <time>2018-03-09T09:06:15Z</time>
      </trkpt>
      <trkpt lat="46.71165" lon="-1.96107">
        <ele>17</ele>
        <time>2018-03-09T09:07:15Z</time>
      </trkpt>
      <trkpt lat="46.71166" lon="-1.96109">
        <ele>17</ele>
        <time>2018-03-09T09:08:15Z</time>
      </trkpt>
      <trkpt lat="46.71167" lon="-1.96112">
        <ele>17</ele>
        <time>2018-03-09T09:09:15Z</time>
      </trkpt>
      <trkpt lat="46.71167" lon="-1.96114">
        <ele>17</ele>
        <time>2018-03-09T09:10:15Z</time>
      </trkpt>
      <trkpt lat="46.71166" lon="-1.96117">
        <ele>17</ele>
        <time>2018-03-09T09:11:15Z</time>
      </trkpt>
      <trkpt lat="46.71166" lon="-1.9612">
        <ele>17</ele>
        <time>2018-03-09T09:12:15Z</time>
      </trkpt>
      <trkpt lat="46.71165" lon="-1.96123">
        <ele>16</ele>
        <time>2018-03-09T09:13:15Z</time>
      </trkpt>
      <trkpt lat="46.71164" lon="-1.96127">
        <ele>16</ele>
        <time>2018-03-09T09:14:15Z</time>
      </trkpt>
      <trkpt lat="46.71161" lon="-1.96131">
        <ele>16</ele>
        <time>2018-03-09T09:15:15Z</time>
      </trkpt>
      <trkpt lat="46.71159" lon="-1.96133">
        <ele>16</ele>
        <time>2018-03-09T09:16:15Z</time>
      </trkpt>
      <trkpt lat="46.71155" lon="-1.96135">
        <ele>16</ele>
        <time>2018-03-09T09:17:15Z</time>
      </trkpt>
      <trkpt lat="46.71152" lon="-1.96136">
        <ele>16</ele>
        <time>2018-03-09T09:18:15Z</time>
      </trkpt>
      <trkpt lat="46.71149" lon="-1.96135">
        <ele>16</ele>
        <time>2018-03-09T09:19:15Z</time>
      </trkpt>
      <trkpt lat="46.71147" lon="-1.96135">
        <ele>16</ele>
        <time>2018-03-09T09:20:15Z</time>
      </trkpt>
      <trkpt lat="46.71145" lon="-1.96132">
        <ele>16</ele>
        <time>2018-03-09T09:21:15Z</time>
      </trkpt>
      <trkpt lat="46.71143" lon="-1.96129">
        <ele>16</ele>
        <time>2018-03-09T09:22:15Z</time>
      </trkpt>
      <trkpt lat="46.71141" lon="-1.96126">
        <ele>16</ele>
        <time>2018-03-09T09:23:15Z</time>
      </trkpt>
      <trkpt lat="46.7114" lon="-1.96124">
        <ele>16</ele>
        <time>2018-03-09T09:24:15Z</time>
      </trkpt>
      <trkpt lat="46.71139" lon="-1.9612">
        <ele>16</ele>
        <time>2018-03-09T09:25:15Z</time>
      </trkpt>
      <trkpt lat="46.71139" lon="-1.96119">
        <ele>16</ele>
        <time>2018-03-09T09:26:15Z</time>
      </trkpt>
      <trkpt lat="46.71139" lon="-1.96119">
        <ele>16</ele>
        <time>2018-03-09T09:27:15Z</time>
      </trkpt>
      <trkpt lat="46.71089" lon="-1.96107">
        <ele>15</ele>
        <time>2018-03-09T09:28:15Z</time>
      </trkpt>
      <trkpt lat="46.71073" lon="-1.96105">
        <ele>15</ele>
        <time>2018-03-09T09:29:15Z</time>
      </trkpt>
      <trkpt lat="46.71029" lon="-1.96101">
        <ele>16</ele>
        <time>2018-03-09T09:30:15Z</time>
      </trkpt>
      <trkpt lat="46.70991" lon="-1.96098">
        <ele>16</ele>
        <time>2018-03-09T09:31:15Z</time>
      </trkpt>
      <trkpt lat="46.7099" lon="-1.96103">
        <ele>16</ele>
        <time>2018-03-09T09:32:15Z</time>
      </trkpt>
      <trkpt lat="46.70987" lon="-1.96109">
        <ele>16</ele>
        <time>2018-03-09T09:33:15Z</time>
      </trkpt>
      <trkpt lat="46.70984" lon="-1.96112">
        <ele>16</ele>
        <time>2018-03-09T09:34:15Z</time>
      </trkpt>
      <trkpt lat="46.70982" lon="-1.96114">
        <ele>15</ele>
        <time>2018-03-09T09:35:15Z</time>
      </trkpt>
      <trkpt lat="46.70977" lon="-1.96114">
        <ele>15</ele>
        <time>2018-03-09T09:36:15Z</time>
      </trkpt>
      <trkpt lat="46.70973" lon="-1.96112">
        <ele>16</ele>
        <time>2018-03-09T09:37:15Z</time>
      </trkpt>
      <trkpt lat="46.7097" lon="-1.96108">
        <ele>16</ele>
        <time>2018-03-09T09:38:15Z</time>
      </trkpt>
      <trkpt lat="46.70968" lon="-1.96102">
        <ele>16</ele>
        <time>2018-03-09T09:39:15Z</time>
      </trkpt>
      <trkpt lat="46.70967" lon="-1.96095">
        <ele>16</ele>
        <time>2018-03-09T09:40:15Z</time>
      </trkpt>
      <trkpt lat="46.70954" lon="-1.96093">
        <ele>16</ele>
        <time>2018-03-09T09:41:15Z</time>
      </trkpt>
      <trkpt lat="46.70938" lon="-1.96092">
        <ele>16</ele>
        <time>2018-03-09T09:42:15Z</time>
      </trkpt>
      <trkpt lat="46.7092" lon="-1.9609">
        <ele>16</ele>
        <time>2018-03-09T09:43:15Z</time>
      </trkpt>
      <trkpt lat="46.70896" lon="-1.96087">
        <ele>16</ele>
        <time>2018-03-09T09:44:15Z</time>
      </trkpt>
      <trkpt lat="46.70848" lon="-1.96082">
        <ele>15</ele>
        <time>2018-03-09T09:45:15Z</time>
      </trkpt>
      <trkpt lat="46.7081" lon="-1.96079">
        <ele>15</ele>
        <time>2018-03-09T09:46:15Z</time>
      </trkpt>
      <trkpt lat="46.70763" lon="-1.96074">
        <ele>16</ele>
        <time>2018-03-09T09:47:15Z</time>
      </trkpt>
      <trkpt lat="46.70722" lon="-1.96071">
        <ele>16</ele>
        <time>2018-03-09T09:48:15Z</time>
      </trkpt>
      <trkpt lat="46.70717" lon="-1.96071">
        <ele>16</ele>
        <time>2018-03-09T09:49:15Z</time>
      </trkpt>
      <trkpt lat="46.70684" lon="-1.96067">
        <ele>16</ele>
        <time>2018-03-09T09:50:15Z</time>
      </trkpt>
      <trkpt lat="46.70647" lon="-1.96064">
        <ele>16</ele>
        <time>2018-03-09T09:51:15Z</time>
      </trkpt>
      <trkpt lat="46.7063" lon="-1.96062">
        <ele>16</ele>
        <time>2018-03-09T09:52:15Z</time>
      </trkpt>
      <trkpt lat="46.70615" lon="-1.96059">
        <ele>16</ele>
        <time>2018-03-09T09:53:15Z</time>
      </trkpt>
      <trkpt lat="46.70579" lon="-1.96052">
        <ele>16</ele>
        <time>2018-03-09T09:54:15Z</time>
      </trkpt>
      <trkpt lat="46.70555" lon="-1.96046">
        <ele>16</ele>
        <time>2018-03-09T09:55:15Z</time>
      </trkpt>
      <trkpt lat="46.70533" lon="-1.96039">
        <ele>16</ele>
        <time>2018-03-09T09:56:15Z</time>
      </trkpt>
      <trkpt lat="46.70506" lon="-1.96029">
        <ele>15</ele>
        <time>2018-03-09T09:57:15Z</time>
      </trkpt>
      <trkpt lat="46.70475" lon="-1.96016">
        <ele>15</ele>
        <time>2018-03-09T09:58:15Z</time>
      </trkpt>
      <trkpt lat="46.70447" lon="-1.96003">
        <ele>16</ele>
        <time>2018-03-09T09:59:15Z</time>
      </trkpt>
      <trkpt lat="46.70419" lon="-1.95986">
        <ele>16</ele>
        <time>2018-03-09T10:00:15Z</time>
      </trkpt>
      <trkpt lat="46.70393" lon="-1.95972">
        <ele>15</ele>
        <time>2018-03-09T10:01:15Z</time>
      </trkpt>
      <trkpt lat="46.70369" lon="-1.95955">
        <ele>15</ele>
        <time>2018-03-09T10:02:15Z</time>
      </trkpt>
      <trkpt lat="46.7036" lon="-1.95948">
        <ele>15</ele>
        <time>2018-03-09T10:03:15Z</time>
      </trkpt>
      <trkpt lat="46.70359" lon="-1.95952">
        <ele>15</ele>
        <time>2018-03-09T10:04:15Z</time>
      </trkpt>
      <trkpt lat="46.70357" lon="-1.95956">
        <ele>15</ele>
        <time>2018-03-09T10:05:15Z</time>
      </trkpt>
      <trkpt lat="46.70354" lon="-1.95958">
        <ele>15</ele>
        <time>2018-03-09T10:06:15Z</time>
      </trkpt>
      <trkpt lat="46.7035" lon="-1.95958">
        <ele>15</ele>
        <time>2018-03-09T10:07:15Z</time>
      </trkpt>
      <trkpt lat="46.70349" lon="-1.95957">
        <ele>15</ele>
        <time>2018-03-09T10:08:15Z</time>
      </trkpt>
      <trkpt lat="46.70347" lon="-1.95955">
        <ele>15</ele>
        <time>2018-03-09T10:09:15Z</time>
      </trkpt>
      <trkpt lat="46.70344" lon="-1.95951">
        <ele>15</ele>
        <time>2018-03-09T10:10:15Z</time>
      </trkpt>
      <trkpt lat="46.70344" lon="-1.95946">
        <ele>14</ele>
        <time>2018-03-09T10:11:15Z</time>
      </trkpt>
      <trkpt lat="46.70344" lon="-1.95941">
        <ele>14</ele>
        <time>2018-03-09T10:12:15Z</time>
      </trkpt>
      <trkpt lat="46.70345" lon="-1.95938">
        <ele>14</ele>
        <time>2018-03-09T10:13:15Z</time>
      </trkpt>
      <trkpt lat="46.70333" lon="-1.95927">
        <ele>14</ele>
        <time>2018-03-09T10:14:15Z</time>
      </trkpt>
      <trkpt lat="46.70313" lon="-1.9591">
        <ele>14</ele>
        <time>2018-03-09T10:15:15Z</time>
      </trkpt>
      <trkpt lat="46.70302" lon="-1.95899">
        <ele>13</ele>
        <time>2018-03-09T10:16:15Z</time>
      </trkpt>
      <trkpt lat="46.70296" lon="-1.95894">
        <ele>13</ele>
        <time>2018-03-09T10:17:15Z</time>
      </trkpt>
      <trkpt lat="46.70274" lon="-1.95872">
        <ele>13</ele>
        <time>2018-03-09T10:18:15Z</time>
      </trkpt>
      <trkpt lat="46.70256" lon="-1.95852">
        <ele>12</ele>
        <time>2018-03-09T10:19:15Z</time>
      </trkpt>
      <trkpt lat="46.70241" lon="-1.95834">
        <ele>12</ele>
        <time>2018-03-09T10:20:15Z</time>
      </trkpt>
      <trkpt lat="46.70228" lon="-1.95813">
        <ele>12</ele>
        <time>2018-03-09T10:21:15Z</time>
      </trkpt>
      <trkpt lat="46.70217" lon="-1.95794">
        <ele>12</ele>
        <time>2018-03-09T10:22:15Z</time>
      </trkpt>
      <trkpt lat="46.70208" lon="-1.95777">
        <ele>12</ele>
        <time>2018-03-09T10:23:15Z</time>
      </trkpt>
      <trkpt lat="46.70197" lon="-1.95753">
        <ele>13</ele>
        <time>2018-03-09T10:24:15Z</time>
      </trkpt>
      <trkpt lat="46.70187" lon="-1.95726">
        <ele>12</ele>
        <time>2018-03-09T10:25:15Z</time>
      </trkpt>
      <trkpt lat="46.70181" lon="-1.95706">
        <ele>12</ele>
        <time>2018-03-09T10:26:15Z</time>
      </trkpt>
      <trkpt lat="46.70176" lon="-1.95686">
        <ele>12</ele>
        <time>2018-03-09T10:27:15Z</time>
      </trkpt>
      <trkpt lat="46.70175" lon="-1.95682">
        <ele>12</ele>
        <time>2018-03-09T10:28:15Z</time>
      </trkpt>
      <trkpt lat="46.70171" lon="-1.95673">
        <ele>12</ele>
        <time>2018-03-09T10:29:15Z</time>
      </trkpt>
      <trkpt lat="46.7017" lon="-1.95669">
        <ele>12</ele>
        <time>2018-03-09T10:30:15Z</time>
      </trkpt>
      <trkpt lat="46.70168" lon="-1.95666">
        <ele>12</ele>
        <time>2018-03-09T10:31:15Z</time>
      </trkpt>
      <trkpt lat="46.70166" lon="-1.9566">
        <ele>12</ele>
        <time>2018-03-09T10:32:15Z</time>
      </trkpt>
      <trkpt lat="46.70165" lon="-1.95657">
        <ele>12</ele>
        <time>2018-03-09T10:33:15Z</time>
      </trkpt>
      <trkpt lat="46.70164" lon="-1.95654">
        <ele>12</ele>
        <time>2018-03-09T10:34:15Z</time>
      </trkpt>
      <trkpt lat="46.70164" lon="-1.95654">
        <ele>12</ele>
        <time>2018-03-09T10:35:15Z</time>
      </trkpt>
      <trkpt lat="46.70163" lon="-1.95654">
        <ele>12</ele>
        <time>2018-03-09T10:36:15Z</time>
      </trkpt>
      <trkpt lat="46.70162" lon="-1.95654">
        <ele>12</ele>
        <time>2018-03-09T10:37:15Z</time>
      </trkpt>
      <trkpt lat="46.70161" lon="-1.95654">
        <ele>12</ele>
        <time>2018-03-09T10:38:15Z</time>
      </trkpt>
      <trkpt lat="46.7016" lon="-1.95654">
        <ele>12</ele>
        <time>2018-03-09T10:39:15Z</time>
      </trkpt>
      <trkpt lat="46.7016" lon="-1.95653">
        <ele>12</ele>
        <time>2018-03-09T10:40:15Z</time>
      </trkpt>
      <trkpt lat="46.70159" lon="-1.95653">
        <ele>12</ele>
        <time>2018-03-09T10:41:15Z</time>
      </trkpt>
      <trkpt lat="46.70159" lon="-1.95652">
        <ele>12</ele>
        <time>2018-03-09T10:42:15Z</time>
      </trkpt>
      <trkpt lat="46.70158" lon="-1.95652">
        <ele>12</ele>
        <time>2018-03-09T10:43:15Z</time>
      </trkpt>
      <trkpt lat="46.70158" lon="-1.95651">
        <ele>12</ele>
        <time>2018-03-09T10:44:15Z</time>
      </trkpt>
      <trkpt lat="46.70157" lon="-1.95651">
        <ele>12</ele>
        <time>2018-03-09T10:45:15Z</time>
      </trkpt>
      <trkpt lat="46.70157" lon="-1.9565">
        <ele>12</ele>
        <time>2018-03-09T10:46:15Z</time>
      </trkpt>
      <trkpt lat="46.70157" lon="-1.95649">
        <ele>12</ele>
        <time>2018-03-09T10:47:15Z</time>
      </trkpt>
      <trkpt lat="46.70156" lon="-1.95649">
        <ele>12</ele>
        <time>2018-03-09T10:48:15Z</time>
      </trkpt>
      <trkpt lat="46.70156" lon="-1.95648">
        <ele>12</ele>
        <time>2018-03-09T10:49:15Z</time>
      </trkpt>
      <trkpt lat="46.70156" lon="-1.95647">
        <ele>12</ele>
        <time>2018-03-09T10:50:15Z</time>
      </trkpt>
      <trkpt lat="46.70156" lon="-1.95646">
        <ele>12</ele>
        <time>2018-03-09T10:51:15Z</time>
      </trkpt>
      <trkpt lat="46.70156" lon="-1.95645">
        <ele>12</ele>
        <time>2018-03-09T10:52:15Z</time>
      </trkpt>
      <trkpt lat="46.70155" lon="-1.95644">
        <ele>12</ele>
        <time>2018-03-09T10:53:15Z</time>
      </trkpt>
      <trkpt lat="46.70155" lon="-1.95643">
        <ele>12</ele>
        <time>2018-03-09T10:54:15Z</time>
      </trkpt>
      <trkpt lat="46.70155" lon="-1.95642">
        <ele>12</ele>
        <time>2018-03-09T10:55:15Z</time>
      </trkpt>
      <trkpt lat="46.70156" lon="-1.95641">
        <ele>12</ele>
        <time>2018-03-09T10:56:15Z</time>
      </trkpt>
      <trkpt lat="46.70156" lon="-1.9564">
        <ele>12</ele>
        <time>2018-03-09T10:57:15Z</time>
      </trkpt>
      <trkpt lat="46.70156" lon="-1.95639">
        <ele>12</ele>
        <time>2018-03-09T10:58:15Z</time>
      </trkpt>
      <trkpt lat="46.70156" lon="-1.95638">
        <ele>11</ele>
        <time>2018-03-09T10:59:15Z</time>
      </trkpt>
      <trkpt lat="46.70156" lon="-1.95637">
        <ele>11</ele>
        <time>2018-03-09T11:00:15Z</time>
      </trkpt>
      <trkpt lat="46.70157" lon="-1.95637">
        <ele>11</ele>
        <time>2018-03-09T11:01:15Z</time>
      </trkpt>
      <trkpt lat="46.70157" lon="-1.95636">
        <ele>11</ele>
        <time>2018-03-09T11:02:15Z</time>
      </trkpt>
      <trkpt lat="46.70157" lon="-1.95635">
        <ele>11</ele>
        <time>2018-03-09T11:03:15Z</time>
      </trkpt>
      <trkpt lat="46.70158" lon="-1.95635">
        <ele>11</ele>
        <time>2018-03-09T11:04:15Z</time>
      </trkpt>
      <trkpt lat="46.70158" lon="-1.95634">
        <ele>11</ele>
        <time>2018-03-09T11:05:15Z</time>
      </trkpt>
      <trkpt lat="46.70159" lon="-1.95634">
        <ele>11</ele>
        <time>2018-03-09T11:06:15Z</time>
      </trkpt>
      <trkpt lat="46.70159" lon="-1.95633">
        <ele>11</ele>
        <time>2018-03-09T11:07:15Z</time>
      </trkpt>
      <trkpt lat="46.7016" lon="-1.95633">
        <ele>11</ele>
        <time>2018-03-09T11:08:15Z</time>
      </trkpt>
      <trkpt lat="46.7016" lon="-1.95632">
        <ele>11</ele>
        <time>2018-03-09T11:09:15Z</time>
      </trkpt>
      <trkpt lat="46.70161" lon="-1.95632">
        <ele>11</ele>
        <time>2018-03-09T11:10:15Z</time>
      </trkpt>
      <trkpt lat="46.70162" lon="-1.95624">
        <ele>11</ele>
        <time>2018-03-09T11:11:15Z</time>
      </trkpt>
      <trkpt lat="46.70163" lon="-1.9561">
        <ele>11</ele>
        <time>2018-03-09T11:12:15Z</time>
      </trkpt>
      <trkpt lat="46.70153" lon="-1.9555">
        <ele>10</ele>
        <time>2018-03-09T11:13:15Z</time>
      </trkpt>
      <trkpt lat="46.70143" lon="-1.95473">
        <ele>9</ele>
        <time>2018-03-09T11:14:15Z</time>
      </trkpt>
      <trkpt lat="46.70142" lon="-1.95447">
        <ele>9</ele>
        <time>2018-03-09T11:15:15Z</time>
      </trkpt>
      <trkpt lat="46.70147" lon="-1.95382">
        <ele>8</ele>
        <time>2018-03-09T11:16:15Z</time>
      </trkpt>
      <trkpt lat="46.70163" lon="-1.95279">
        <ele>6</ele>
        <time>2018-03-09T11:17:15Z</time>
      </trkpt>
      <trkpt lat="46.70167" lon="-1.95232">
        <ele>5</ele>
        <time>2018-03-09T11:18:15Z</time>
      </trkpt>
      <trkpt lat="46.70167" lon="-1.95226">
        <ele>5</ele>
        <time>2018-03-09T11:19:15Z</time>
      </trkpt>
      <trkpt lat="46.70168" lon="-1.95219">
        <ele>5</ele>
        <time>2018-03-09T11:20:15Z</time>
      </trkpt>
      <trkpt lat="46.70167" lon="-1.95198">
        <ele>6</ele>
        <time>2018-03-09T11:21:15Z</time>
      </trkpt>
      <trkpt lat="46.70166" lon="-1.95179">
        <ele>6</ele>
        <time>2018-03-09T11:22:15Z</time>
      </trkpt>
      <trkpt lat="46.70162" lon="-1.95161">
        <ele>6</ele>
        <time>2018-03-09T11:23:15Z</time>
      </trkpt>
      <trkpt lat="46.7016" lon="-1.95145">
        <ele>6</ele>
        <time>2018-03-09T11:24:15Z</time>
      </trkpt>
      <trkpt lat="46.70158" lon="-1.95126">
        <ele>6</ele>
        <time>2018-03-09T11:25:15Z</time>
      </trkpt>
      <trkpt lat="46.70157" lon="-1.95107">
        <ele>5</ele>
        <time>2018-03-09T11:26:15Z</time>
      </trkpt>
      <trkpt lat="46.70156" lon="-1.95089">
        <ele>5</ele>
        <time>2018-03-09T11:27:15Z</time>
      </trkpt>
      <trkpt lat="46.70156" lon="-1.95069">
        <ele>5</ele>
        <time>2018-03-09T11:28:15Z</time>
      </trkpt>
      <trkpt lat="46.70156" lon="-1.95069">
        <ele>5</ele>
        <time>2018-03-09T11:29:15Z</time>
      </trkpt>
      <trkpt lat="46.70155" lon="-1.95069">
        <ele>5</ele>
        <time>2018-03-09T11:30:15Z</time>
      </trkpt>
      <trkpt lat="46.70154" lon="-1.95069">
        <ele>5</ele>
        <time>2018-03-09T11:31:15Z</time>
      </trkpt>
      <trkpt lat="46.70153" lon="-1.95069">
        <ele>5</ele>
        <time>2018-03-09T11:32:15Z</time>
      </trkpt>
      <trkpt lat="46.70152" lon="-1.95069">
        <ele>5</ele>
        <time>2018-03-09T11:33:15Z</time>
      </trkpt>
      <trkpt lat="46.70152" lon="-1.95068">
        <ele>5</ele>
        <time>2018-03-09T11:34:15Z</time>
      </trkpt>
      <trkpt lat="46.70151" lon="-1.95068">
        <ele>5</ele>
        <time>2018-03-09T11:35:15Z</time>
      </trkpt>
      <trkpt lat="46.70151" lon="-1.95067">
        <ele>5</ele>
        <time>2018-03-09T11:36:15Z</time>
      </trkpt>
      <trkpt lat="46.7015" lon="-1.95067">
        <ele>5</ele>
        <time>2018-03-09T11:37:15Z</time>
      </trkpt>
      <trkpt lat="46.7015" lon="-1.95066">
        <ele>5</ele>
        <time>2018-03-09T11:38:15Z</time>
      </trkpt>
      <trkpt lat="46.70149" lon="-1.95066">
        <ele>5</ele>
        <time>2018-03-09T11:39:15Z</time>
      </trkpt>
      <trkpt lat="46.70149" lon="-1.95065">
        <ele>5</ele>
        <time>2018-03-09T11:40:15Z</time>
      </trkpt>
      <trkpt lat="46.70149" lon="-1.95064">
        <ele>5</ele>
        <time>2018-03-09T11:41:15Z</time>
      </trkpt>
      <trkpt lat="46.70149" lon="-1.95063">
        <ele>5</ele>
        <time>2018-03-09T11:42:15Z</time>
      </trkpt>
      <trkpt lat="46.70148" lon="-1.95063">
        <ele>5</ele>
        <time>2018-03-09T11:43:15Z</time>
      </trkpt>
      <trkpt lat="46.70148" lon="-1.95062">
        <ele>5</ele>
        <time>2018-03-09T11:44:15Z</time>
      </trkpt>
      <trkpt lat="46.70148" lon="-1.95061">
        <ele>5</ele>
        <time>2018-03-09T11:45:15Z</time>
      </trkpt>
      <trkpt lat="46.70148" lon="-1.9506">
        <ele>5</ele>
        <time>2018-03-09T11:46:15Z</time>
      </trkpt>
      <trkpt lat="46.70148" lon="-1.95059">
        <ele>5</ele>
        <time>2018-03-09T11:47:15Z</time>
      </trkpt>
      <trkpt lat="46.70148" lon="-1.95058">
        <ele>5</ele>
        <time>2018-03-09T11:48:15Z</time>
      </trkpt>
      <trkpt lat="46.70125" lon="-1.95054">
        <ele>5</ele>
        <time>2018-03-09T11:49:15Z</time>
      </trkpt>
      <trkpt lat="46.70103" lon="-1.9505">
        <ele>5</ele>
        <time>2018-03-09T11:50:15Z</time>
      </trkpt>
      <trkpt lat="46.70069" lon="-1.95044">
        <ele>6</ele>
        <time>2018-03-09T11:51:15Z</time>
      </trkpt>
      <trkpt lat="46.7005" lon="-1.95039">
        <ele>6</ele>
        <time>2018-03-09T11:52:15Z</time>
      </trkpt>
      <trkpt lat="46.70034" lon="-1.95036">
        <ele>7</ele>
        <time>2018-03-09T11:53:15Z</time>
      </trkpt>
      <trkpt lat="46.70019" lon="-1.9503">
        <ele>7</ele>
        <time>2018-03-09T11:54:15Z</time>
      </trkpt>
      <trkpt lat="46.70013" lon="-1.95027">
        <ele>7</ele>
        <time>2018-03-09T11:55:15Z</time>
      </trkpt>
      <trkpt lat="46.70007" lon="-1.95023">
        <ele>7</ele>
        <time>2018-03-09T11:56:15Z</time>
      </trkpt>
      <trkpt lat="46.69997" lon="-1.95014">
        <ele>7</ele>
        <time>2018-03-09T11:57:15Z</time>
      </trkpt>
      <trkpt lat="46.69981" lon="-1.94999">
        <ele>7</ele>
        <time>2018-03-09T11:58:15Z</time>
      </trkpt>
      <trkpt lat="46.69963" lon="-1.9498">
        <ele>8</ele>
        <time>2018-03-09T11:59:15Z</time>
      </trkpt>
      <trkpt lat="46.69949" lon="-1.94964">
        <ele>8</ele>
        <time>2018-03-09T12:00:15Z</time>
      </trkpt>
      <trkpt lat="46.69934" lon="-1.94944">
        <ele>8</ele>
        <time>2018-03-09T12:01:15Z</time>
      </trkpt>
      <trkpt lat="46.69918" lon="-1.94924">
        <ele>7</ele>
        <time>2018-03-09T12:02:15Z</time>
      </trkpt>
      <trkpt lat="46.69911" lon="-1.94912">
        <ele>7</ele>
        <time>2018-03-09T12:03:15Z</time>
      </trkpt>
      <trkpt lat="46.69896" lon="-1.94891">
        <ele>6</ele>
        <time>2018-03-09T12:04:15Z</time>
      </trkpt>
      <trkpt lat="46.69874" lon="-1.94856">
        <ele>6</ele>
        <time>2018-03-09T12:05:15Z</time>
      </trkpt>
      <trkpt lat="46.69867" lon="-1.94841">
        <ele>5</ele>
        <time>2018-03-09T12:06:15Z</time>
      </trkpt>
      <trkpt lat="46.6986" lon="-1.94828">
        <ele>5</ele>
        <time>2018-03-09T12:07:15Z</time>
      </trkpt>
      <trkpt lat="46.69848" lon="-1.94802">
        <ele>5</ele>
        <time>2018-03-09T12:08:15Z</time>
      </trkpt>
      <trkpt lat="46.69836" lon="-1.94769">
        <ele>5</ele>
        <time>2018-03-09T12:09:15Z</time>
      </trkpt>
      <trkpt lat="46.69828" lon="-1.94745">
        <ele>5</ele>
        <time>2018-03-09T12:10:15Z</time>
      </trkpt>
      <trkpt lat="46.69828" lon="-1.94745">
        <ele>5</ele>
        <time>2018-03-09T12:11:15Z</time>
      </trkpt>
      <trkpt lat="46.69826" lon="-1.94736">
        <ele>5</ele>
        <time>2018-03-09T12:12:15Z</time>
      </trkpt>
      <trkpt lat="46.69825" lon="-1.94732">
        <ele>5</ele>
        <time>2018-03-09T12:13:15Z</time>
      </trkpt>
      <trkpt lat="46.69819" lon="-1.94712">
        <ele>4</ele>
        <time>2018-03-09T12:14:15Z</time>
      </trkpt>
      <trkpt lat="46.69814" lon="-1.94695">
        <ele>4</ele>
        <time>2018-03-09T12:15:15Z</time>
      </trkpt>
      <trkpt lat="46.69809" lon="-1.94676">
        <ele>4</ele>
        <time>2018-03-09T12:16:15Z</time>
      </trkpt>
      <trkpt lat="46.69805" lon="-1.94657">
        <ele>4</ele>
        <time>2018-03-09T12:17:15Z</time>
      </trkpt>
      <trkpt lat="46.69799" lon="-1.94634">
        <ele>4</ele>
        <time>2018-03-09T12:18:15Z</time>
      </trkpt>
      <trkpt lat="46.6978" lon="-1.94548">
        <ele>3</ele>
        <time>2018-03-09T12:19:15Z</time>
      </trkpt>
      <trkpt lat="46.69765" lon="-1.94496">
        <ele>4</ele>
        <time>2018-03-09T12:20:15Z</time>
      </trkpt>
      <trkpt lat="46.69758" lon="-1.94477">
        <ele>4</ele>
        <time>2018-03-09T12:21:15Z</time>
      </trkpt>
      <trkpt lat="46.69753" lon="-1.94463">
        <ele>4</ele>
        <time>2018-03-09T12:22:15Z</time>
      </trkpt>
      <trkpt lat="46.69748" lon="-1.94448">
        <ele>2</ele>
        <time>2018-03-09T12:23:15Z</time>
      </trkpt>
      <trkpt lat="46.69745" lon="-1.9444">
        <ele>2</ele>
        <time>2018-03-09T12:24:15Z</time>
      </trkpt>
      <trkpt lat="46.69735" lon="-1.94411">
        <ele>3</ele>
        <time>2018-03-09T12:25:15Z</time>
      </trkpt>
      <trkpt lat="46.69732" lon="-1.944">
        <ele>4</ele>
        <time>2018-03-09T12:26:15Z</time>
      </trkpt>
      <trkpt lat="46.69727" lon="-1.94384">
        <ele>4</ele>
        <time>2018-03-09T12:27:15Z</time>
      </trkpt>
      <trkpt lat="46.69718" lon="-1.9436">
        <ele>4</ele>
        <time>2018-03-09T12:28:15Z</time>
      </trkpt>
      <trkpt lat="46.69709" lon="-1.94333">
        <ele>4</ele>
        <time>2018-03-09T12:29:15Z</time>
      </trkpt>
      <trkpt lat="46.69703" lon="-1.94314">
        <ele>4</ele>
        <time>2018-03-09T12:30:15Z</time>
      </trkpt>
      <trkpt lat="46.697" lon="-1.94303">
        <ele>4</ele>
        <time>2018-03-09T12:31:15Z</time>
      </trkpt>
      <trkpt lat="46.69696" lon="-1.94286">
        <ele>4</ele>
        <time>2018-03-09T12:32:15Z</time>
      </trkpt>
      <trkpt lat="46.69688" lon="-1.94251">
        <ele>4</ele>
        <time>2018-03-09T12:33:15Z</time>
      </trkpt>
      <trkpt lat="46.69675" lon="-1.94202">
        <ele>5</ele>
        <time>2018-03-09T12:34:15Z</time>
      </trkpt>
      <trkpt lat="46.6966" lon="-1.94143">
        <ele>4</ele>
        <time>2018-03-09T12:35:15Z</time>
      </trkpt>
      <trkpt lat="46.69658" lon="-1.94132">
        <ele>4</ele>
        <time>2018-03-09T12:36:15Z</time>
      </trkpt>
      <trkpt lat="46.69653" lon="-1.9411">
        <ele>3</ele>
        <time>2018-03-09T12:37:15Z</time>
      </trkpt>
      <trkpt lat="46.69653" lon="-1.9411">
        <ele>3</ele>
        <time>2018-03-09T12:38:15Z</time>
      </trkpt>
      <trkpt lat="46.69644" lon="-1.94108">
        <ele>3</ele>
        <time>2018-03-09T12:39:15Z</time>
      </trkpt>
      <trkpt lat="46.69639" lon="-1.94108">
        <ele>3</ele>
        <time>2018-03-09T12:40:15Z</time>
      </trkpt>
      <trkpt lat="46.69636" lon="-1.9411">
        <ele>3</ele>
        <time>2018-03-09T12:41:15Z</time>
      </trkpt>
      <trkpt lat="46.69633" lon="-1.94111">
        <ele>3</ele>
        <time>2018-03-09T12:42:15Z</time>
      </trkpt>
      <trkpt lat="46.69622" lon="-1.94114">
        <ele>3</ele>
        <time>2018-03-09T12:43:15Z</time>
      </trkpt>
      <trkpt lat="46.69618" lon="-1.94115">
        <ele>3</ele>
        <time>2018-03-09T12:44:15Z</time>
      </trkpt>
      <trkpt lat="46.69615" lon="-1.94114">
        <ele>3</ele>
        <time>2018-03-09T12:45:15Z</time>
      </trkpt>
      <trkpt lat="46.69612" lon="-1.94113">
        <ele>3</ele>
        <time>2018-03-09T12:46:15Z</time>
      </trkpt>
      <trkpt lat="46.6961" lon="-1.94112">
        <ele>3</ele>
        <time>2018-03-09T12:47:15Z</time>
      </trkpt>
      <trkpt lat="46.69608" lon="-1.9411">
        <ele>3</ele>
        <time>2018-03-09T12:48:15Z</time>
      </trkpt>
      <trkpt lat="46.69606" lon="-1.94105">
        <ele>3</ele>
        <time>2018-03-09T12:49:15Z</time>
      </trkpt>
      <trkpt lat="46.69593" lon="-1.94071">
        <ele>3</ele>
        <time>2018-03-09T12:50:15Z</time>
      </trkpt>
      <trkpt lat="46.69582" lon="-1.94047">
        <ele>3</ele>
        <time>2018-03-09T12:51:15Z</time>
      </trkpt>
      <trkpt lat="46.69582" lon="-1.94047">
        <ele>3</ele>
        <time>2018-03-09T12:52:15Z</time>
      </trkpt>
      <trkpt lat="46.69573" lon="-1.94025">
        <ele>4</ele>
        <time>2018-03-09T12:53:15Z</time>
      </trkpt>
      <trkpt lat="46.69548" lon="-1.93973">
        <ele>4</ele>
        <time>2018-03-09T12:54:15Z</time>
      </trkpt>
      <trkpt lat="46.69544" lon="-1.93963">
        <ele>4</ele>
        <time>2018-03-09T12:55:15Z</time>
      </trkpt>
      <trkpt lat="46.69543" lon="-1.9396">
        <ele>4</ele>
        <time>2018-03-09T12:56:15Z</time>
      </trkpt>
      <trkpt lat="46.69535" lon="-1.93937">
        <ele>4</ele>
        <time>2018-03-09T12:57:15Z</time>
      </trkpt>
      <trkpt lat="46.69532" lon="-1.93928">
        <ele>4</ele>
        <time>2018-03-09T12:58:15Z</time>
      </trkpt>
      <trkpt lat="46.69529" lon="-1.9392">
        <ele>4</ele>
        <time>2018-03-09T12:59:15Z</time>
      </trkpt>
      <trkpt lat="46.69526" lon="-1.93911">
        <ele>4</ele>
        <time>2018-03-09T13:00:15Z</time>
      </trkpt>
      <trkpt lat="46.69525" lon="-1.93905">
        <ele>4</ele>
        <time>2018-03-09T13:01:15Z</time>
      </trkpt>
      <trkpt lat="46.69522" lon="-1.93898">
        <ele>4</ele>
        <time>2018-03-09T13:02:15Z</time>
      </trkpt>
      <trkpt lat="46.69511" lon="-1.93878">
        <ele>4</ele>
        <time>2018-03-09T13:03:15Z</time>
      </trkpt>
      <trkpt lat="46.6951" lon="-1.93875">
        <ele>4</ele>
        <time>2018-03-09T13:04:15Z</time>
      </trkpt>
      <trkpt lat="46.69507" lon="-1.93869">
        <ele>4</ele>
        <time>2018-03-09T13:05:15Z</time>
      </trkpt>
      <trkpt lat="46.69505" lon="-1.93865">
        <ele>4</ele>
        <time>2018-03-09T13:06:15Z</time>
      </trkpt>
      <trkpt lat="46.69495" lon="-1.93843">
        <ele>3</ele>
        <time>2018-03-09T13:07:15Z</time>
      </trkpt>
      <trkpt lat="46.69492" lon="-1.93841">
        <ele>3</ele>
        <time>2018-03-09T13:08:15Z</time>
      </trkpt>
      <trkpt lat="46.69488" lon="-1.93834">
        <ele>3</ele>
        <time>2018-03-09T13:09:15Z</time>
      </trkpt>
      <trkpt lat="46.6947" lon="-1.93801">
        <ele>3</ele>
        <time>2018-03-09T13:10:15Z</time>
      </trkpt>
      <trkpt lat="46.69464" lon="-1.93789">
        <ele>3</ele>
        <time>2018-03-09T13:11:15Z</time>
      </trkpt>
      <trkpt lat="46.6946" lon="-1.93781">
        <ele>3</ele>
        <time>2018-03-09T13:12:15Z</time>
      </trkpt>
      <trkpt lat="46.69451" lon="-1.93756">
        <ele>3</ele>
        <time>2018-03-09T13:13:15Z</time>
      </trkpt>
      <trkpt lat="46.69449" lon="-1.93753">
        <ele>3</ele>
        <time>2018-03-09T13:14:15Z</time>
      </trkpt>
      <trkpt lat="46.69443" lon="-1.9374">
        <ele>3</ele>
        <time>2018-03-09T13:15:15Z</time>
      </trkpt>
      <trkpt lat="46.69441" lon="-1.93734">
        <ele>3</ele>
        <time>2018-03-09T13:16:15Z</time>
      </trkpt>
      <trkpt lat="46.69438" lon="-1.93724">
        <ele>3</ele>
        <time>2018-03-09T13:17:15Z</time>
      </trkpt>
      <trkpt lat="46.69433" lon="-1.93699">
        <ele>3</ele>
        <time>2018-03-09T13:18:15Z</time>
      </trkpt>
      <trkpt lat="46.69425" lon="-1.93665">
        <ele>3</ele>
        <time>2018-03-09T13:19:15Z</time>
      </trkpt>
      <trkpt lat="46.69423" lon="-1.93652">
        <ele>3</ele>
        <time>2018-03-09T13:20:15Z</time>
      </trkpt>
      <trkpt lat="46.69422" lon="-1.93638">
        <ele>2</ele>
        <time>2018-03-09T13:21:15Z</time>
      </trkpt>
      <trkpt lat="46.69422" lon="-1.93633">
        <ele>2</ele>
        <time>2018-03-09T13:22:15Z</time>
      </trkpt>
      <trkpt lat="46.69423" lon="-1.93624">
        <ele>2</ele>
        <time>2018-03-09T13:23:15Z</time>
      </trkpt>
      <trkpt lat="46.69425" lon="-1.93616">
        <ele>2</ele>
        <time>2018-03-09T13:24:15Z</time>
      </trkpt>
      <trkpt lat="46.69427" lon="-1.9361">
        <ele>2</ele>
        <time>2018-03-09T13:25:15Z</time>
      </trkpt>
      <trkpt lat="46.69428" lon="-1.93608">
        <ele>2</ele>
        <time>2018-03-09T13:26:15Z</time>
      </trkpt>
      <trkpt lat="46.69433" lon="-1.93601">
        <ele>2</ele>
        <time>2018-03-09T13:27:15Z</time>
      </trkpt>
      <trkpt lat="46.6944" lon="-1.93596">
        <ele>2</ele>
        <time>2018-03-09T13:28:15Z</time>
      </trkpt>
      <trkpt lat="46.69455" lon="-1.9359">
        <ele>2</ele>
        <time>2018-03-09T13:29:15Z</time>
      </trkpt>
      <trkpt lat="46.69478" lon="-1.93583">
        <ele>2</ele>
        <time>2018-03-09T13:30:15Z</time>
      </trkpt>
      <trkpt lat="46.69488" lon="-1.93581">
        <ele>3</ele>
        <time>2018-03-09T13:31:15Z</time>
      </trkpt>
      <trkpt lat="46.69498" lon="-1.93578">
        <ele>3</ele>
        <time>2018-03-09T13:32:15Z</time>
      </trkpt>
      <trkpt lat="46.69507" lon="-1.93574">
        <ele>3</ele>
        <time>2018-03-09T13:33:15Z</time>
      </trkpt>
      <trkpt lat="46.6951" lon="-1.93574">
        <ele>3</ele>
        <time>2018-03-09T13:34:15Z</time>
      </trkpt>
      <trkpt lat="46.69514" lon="-1.93574">
        <ele>3</ele>
        <time>2018-03-09T13:35:15Z</time>
      </trkpt>
      <trkpt lat="46.69519" lon="-1.93575">
        <ele>3</ele>
        <time>2018-03-09T13:36:15Z</time>
      </trkpt>
      <trkpt lat="46.6953" lon="-1.93579">
        <ele>3</ele>
        <time>2018-03-09T13:37:15Z</time>
      </trkpt>
      <trkpt lat="46.69542" lon="-1.93584">
        <ele>4</ele>
        <time>2018-03-09T13:38:15Z</time>
      </trkpt>
      <trkpt lat="46.69552" lon="-1.93588">
        <ele>4</ele>
        <time>2018-03-09T13:39:15Z</time>
      </trkpt>
      <trkpt lat="46.69561" lon="-1.93593">
        <ele>4</ele>
        <time>2018-03-09T13:40:15Z</time>
      </trkpt>
      <trkpt lat="46.69564" lon="-1.93594">
        <ele>4</ele>
        <time>2018-03-09T13:41:15Z</time>
      </trkpt>
      <trkpt lat="46.69585" lon="-1.93586">
        <ele>4</ele>
        <time>2018-03-09T13:42:15Z</time>
      </trkpt>
      <trkpt lat="46.69585" lon="-1.93586">
        <ele>4</ele>
        <time>2018-03-09T13:43:15Z</time>
      </trkpt>
      <trkpt lat="46.69585" lon="-1.93585">
        <ele>4</ele>
        <time>2018-03-09T13:44:15Z</time>
      </trkpt>
      <trkpt lat="46.69585" lon="-1.93584">
        <ele>4</ele>
        <time>2018-03-09T13:45:15Z</time>
      </trkpt>
      <trkpt lat="46.69585" lon="-1.93583">
        <ele>4</ele>
        <time>2018-03-09T13:46:15Z</time>
      </trkpt>
      <trkpt lat="46.69585" lon="-1.93582">
        <ele>4</ele>
        <time>2018-03-09T13:47:15Z</time>
      </trkpt>
      <trkpt lat="46.69586" lon="-1.93582">
        <ele>4</ele>
        <time>2018-03-09T13:48:15Z</time>
      </trkpt>
      <trkpt lat="46.69586" lon="-1.93581">
        <ele>4</ele>
        <time>2018-03-09T13:49:15Z</time>
      </trkpt>
      <trkpt lat="46.69586" lon="-1.9358">
        <ele>4</ele>
        <time>2018-03-09T13:50:15Z</time>
      </trkpt>
      <trkpt lat="46.69587" lon="-1.9358">
        <ele>4</ele>
        <time>2018-03-09T13:51:15Z</time>
      </trkpt>
      <trkpt lat="46.69587" lon="-1.93579">
        <ele>4</ele>
        <time>2018-03-09T13:52:15Z</time>
      </trkpt>
      <trkpt lat="46.69587" lon="-1.93578">
        <ele>4</ele>
        <time>2018-03-09T13:53:15Z</time>
      </trkpt>
      <trkpt lat="46.69588" lon="-1.93578">
        <ele>4</ele>
        <time>2018-03-09T13:54:15Z</time>
      </trkpt>
      <trkpt lat="46.69588" lon="-1.93577">
        <ele>4</ele>
        <time>2018-03-09T13:55:15Z</time>
      </trkpt>
      <trkpt lat="46.69589" lon="-1.93577">
        <ele>4</ele>
        <time>2018-03-09T13:56:15Z</time>
      </trkpt>
      <trkpt lat="46.69589" lon="-1.93576">
        <ele>4</ele>
        <time>2018-03-09T13:57:15Z</time>
      </trkpt>
      <trkpt lat="46.6959" lon="-1.93576">
        <ele>4</ele>
        <time>2018-03-09T13:58:15Z</time>
      </trkpt>
      <trkpt lat="46.6959" lon="-1.93575">
        <ele>4</ele>
        <time>2018-03-09T13:59:15Z</time>
      </trkpt>
      <trkpt lat="46.69591" lon="-1.93575">
        <ele>4</ele>
        <time>2018-03-09T14:00:15Z</time>
      </trkpt>
      <trkpt lat="46.69592" lon="-1.93574">
        <ele>4</ele>
        <time>2018-03-09T14:01:15Z</time>
      </trkpt>
      <trkpt lat="46.69593" lon="-1.93574">
        <ele>4</ele>
        <time>2018-03-09T14:02:15Z</time>
      </trkpt>
      <trkpt lat="46.69594" lon="-1.93574">
        <ele>4</ele>
        <time>2018-03-09T14:03:15Z</time>
      </trkpt>
      <trkpt lat="46.69602" lon="-1.9355">
        <ele>4</ele>
        <time>2018-03-09T14:04:15Z</time>
      </trkpt>
      <trkpt lat="46.69606" lon="-1.93531">
        <ele>4</ele>
        <time>2018-03-09T14:05:15Z</time>
      </trkpt>
      <trkpt lat="46.69613" lon="-1.93483">
        <ele>4</ele>
        <time>2018-03-09T14:06:15Z</time>
      </trkpt>
      <trkpt lat="46.69619" lon="-1.93445">
        <ele>4</ele>
        <time>2018-03-09T14:07:15Z</time>
      </trkpt>
      <trkpt lat="46.69622" lon="-1.93436">
        <ele>4</ele>
        <time>2018-03-09T14:08:15Z</time>
      </trkpt>
      <trkpt lat="46.69622" lon="-1.93436">
        <ele>4</ele>
        <time>2018-03-09T14:09:15Z</time>
      </trkpt>
      <trkpt lat="46.69621" lon="-1.93436">
        <ele>4</ele>
        <time>2018-03-09T14:10:15Z</time>
      </trkpt>
      <trkpt lat="46.6962" lon="-1.93435">
        <ele>4</ele>
        <time>2018-03-09T14:11:15Z</time>
      </trkpt>
      <trkpt lat="46.69619" lon="-1.93434">
        <ele>4</ele>
        <time>2018-03-09T14:12:15Z</time>
      </trkpt>
      <trkpt lat="46.69619" lon="-1.93433">
        <ele>4</ele>
        <time>2018-03-09T14:13:15Z</time>
      </trkpt>
      <trkpt lat="46.69618" lon="-1.93433">
        <ele>4</ele>
        <time>2018-03-09T14:14:15Z</time>
      </trkpt>
      <trkpt lat="46.69618" lon="-1.93432">
        <ele>4</ele>
        <time>2018-03-09T14:15:15Z</time>
      </trkpt>
      <trkpt lat="46.69618" lon="-1.93431">
        <ele>4</ele>
        <time>2018-03-09T14:16:15Z</time>
      </trkpt>
      <trkpt lat="46.69617" lon="-1.93431">
        <ele>4</ele>
        <time>2018-03-09T14:17:15Z</time>
      </trkpt>
      <trkpt lat="46.69617" lon="-1.9343">
        <ele>4</ele>
        <time>2018-03-09T14:18:15Z</time>
      </trkpt>
      <trkpt lat="46.69617" lon="-1.93429">
        <ele>4</ele>
        <time>2018-03-09T14:19:15Z</time>
      </trkpt>
      <trkpt lat="46.69617" lon="-1.93428">
        <ele>4</ele>
        <time>2018-03-09T14:20:15Z</time>
      </trkpt>
      <trkpt lat="46.69616" lon="-1.93428">
        <ele>4</ele>
        <time>2018-03-09T14:21:15Z</time>
      </trkpt>
      <trkpt lat="46.69616" lon="-1.93427">
        <ele>4</ele>
        <time>2018-03-09T14:22:15Z</time>
      </trkpt>
      <trkpt lat="46.69616" lon="-1.93426">
        <ele>4</ele>
        <time>2018-03-09T14:23:15Z</time>
      </trkpt>
      <trkpt lat="46.69616" lon="-1.93425">
        <ele>4</ele>
        <time>2018-03-09T14:24:15Z</time>
      </trkpt>
      <trkpt lat="46.69616" lon="-1.93424">
        <ele>4</ele>
        <time>2018-03-09T14:25:15Z</time>
      </trkpt>
      <trkpt lat="46.69616" lon="-1.93423">
        <ele>4</ele>
        <time>2018-03-09T14:26:15Z</time>
      </trkpt>
      <trkpt lat="46.69616" lon="-1.93422">
        <ele>4</ele>
        <time>2018-03-09T14:27:15Z</time>
      </trkpt>
      <trkpt lat="46.69616" lon="-1.93421">
        <ele>4</ele>
        <time>2018-03-09T14:28:15Z</time>
      </trkpt>
      <trkpt lat="46.69617" lon="-1.93421">
        <ele>4</ele>
        <time>2018-03-09T14:29:15Z</time>
      </trkpt>
      <trkpt lat="46.69617" lon="-1.9342">
        <ele>4</ele>
        <time>2018-03-09T14:30:15Z</time>
      </trkpt>
      <trkpt lat="46.69617" lon="-1.93419">
        <ele>4</ele>
        <time>2018-03-09T14:31:15Z</time>
      </trkpt>
      <trkpt lat="46.69617" lon="-1.93418">
        <ele>4</ele>
        <time>2018-03-09T14:32:15Z</time>
      </trkpt>
      <trkpt lat="46.69618" lon="-1.93418">
        <ele>4</ele>
        <time>2018-03-09T14:33:15Z</time>
      </trkpt>
      <trkpt lat="46.69618" lon="-1.93417">
        <ele>4</ele>
        <time>2018-03-09T14:34:15Z</time>
      </trkpt>
      <trkpt lat="46.69618" lon="-1.93416">
        <ele>4</ele>
        <time>2018-03-09T14:35:15Z</time>
      </trkpt>
      <trkpt lat="46.69619" lon="-1.93416">
        <ele>4</ele>
        <time>2018-03-09T14:36:15Z</time>
      </trkpt>
      <trkpt lat="46.69619" lon="-1.93415">
        <ele>4</ele>
        <time>2018-03-09T14:37:15Z</time>
      </trkpt>
      <trkpt lat="46.6962" lon="-1.93415">
        <ele>4</ele>
        <time>2018-03-09T14:38:15Z</time>
      </trkpt>
      <trkpt lat="46.6962" lon="-1.93414">
        <ele>5</ele>
        <time>2018-03-09T14:39:15Z</time>
      </trkpt>
      <trkpt lat="46.69621" lon="-1.93414">
        <ele>5</ele>
        <time>2018-03-09T14:40:15Z</time>
      </trkpt>
      <trkpt lat="46.69621" lon="-1.93413">
        <ele>5</ele>
        <time>2018-03-09T14:41:15Z</time>
      </trkpt>
      <trkpt lat="46.69622" lon="-1.93413">
        <ele>5</ele>
        <time>2018-03-09T14:42:15Z</time>
      </trkpt>
      <trkpt lat="46.69623" lon="-1.93412">
        <ele>5</ele>
        <time>2018-03-09T14:43:15Z</time>
      </trkpt>
      <trkpt lat="46.69624" lon="-1.93412">
        <ele>5</ele>
        <time>2018-03-09T14:44:15Z</time>
      </trkpt>
      <trkpt lat="46.69625" lon="-1.93412">
        <ele>5</ele>
        <time>2018-03-09T14:45:15Z</time>
      </trkpt>
      <trkpt lat="46.69626" lon="-1.93412">
        <ele>5</ele>
        <time>2018-03-09T14:46:15Z</time>
      </trkpt>
      <trkpt lat="46.69627" lon="-1.93412">
        <ele>5</ele>
        <time>2018-03-09T14:47:15Z</time>
      </trkpt>
      <trkpt lat="46.69627" lon="-1.93413">
        <ele>5</ele>
        <time>2018-03-09T14:48:15Z</time>
      </trkpt>
      <trkpt lat="46.69628" lon="-1.93413">
        <ele>5</ele>
        <time>2018-03-09T14:49:15Z</time>
      </trkpt>
      <trkpt lat="46.69629" lon="-1.93413">
        <ele>5</ele>
        <time>2018-03-09T14:50:15Z</time>
      </trkpt>
      <trkpt lat="46.69629" lon="-1.93414">
        <ele>5</ele>
        <time>2018-03-09T14:51:15Z</time>
      </trkpt>
      <trkpt lat="46.6963" lon="-1.93414">
        <ele>5</ele>
        <time>2018-03-09T14:52:15Z</time>
      </trkpt>
      <trkpt lat="46.6963" lon="-1.93415">
        <ele>5</ele>
        <time>2018-03-09T14:53:15Z</time>
      </trkpt>
      <trkpt lat="46.69631" lon="-1.93416">
        <ele>5</ele>
        <time>2018-03-09T14:54:15Z</time>
      </trkpt>
      <trkpt lat="46.69631" lon="-1.93417">
        <ele>5</ele>
        <time>2018-03-09T14:55:15Z</time>
      </trkpt>
      <trkpt lat="46.69632" lon="-1.93417">
        <ele>5</ele>
        <time>2018-03-09T14:56:15Z</time>
      </trkpt>
      <trkpt lat="46.69632" lon="-1.93418">
        <ele>5</ele>
        <time>2018-03-09T14:57:15Z</time>
      </trkpt>
      <trkpt lat="46.69632" lon="-1.93419">
        <ele>5</ele>
        <time>2018-03-09T14:58:15Z</time>
      </trkpt>
      <trkpt lat="46.69633" lon="-1.93419">
        <ele>5</ele>
        <time>2018-03-09T14:59:15Z</time>
      </trkpt>
      <trkpt lat="46.69633" lon="-1.9342">
        <ele>5</ele>
        <time>2018-03-09T15:00:15Z</time>
      </trkpt>
      <trkpt lat="46.69633" lon="-1.93421">
        <ele>5</ele>
        <time>2018-03-09T15:01:15Z</time>
      </trkpt>
      <trkpt lat="46.69633" lon="-1.93422">
        <ele>5</ele>
        <time>2018-03-09T15:02:15Z</time>
      </trkpt>
      <trkpt lat="46.69633" lon="-1.93423">
        <ele>5</ele>
        <time>2018-03-09T15:03:15Z</time>
      </trkpt>
      <trkpt lat="46.69685" lon="-1.93435">
        <ele>5</ele>
        <time>2018-03-09T15:04:15Z</time>
      </trkpt>
      <trkpt lat="46.69697" lon="-1.93436">
        <ele>5</ele>
        <time>2018-03-09T15:05:15Z</time>
      </trkpt>
      <trkpt lat="46.69714" lon="-1.93435">
        <ele>5</ele>
        <time>2018-03-09T15:06:15Z</time>
      </trkpt>
      <trkpt lat="46.69721" lon="-1.93434">
        <ele>5</ele>
        <time>2018-03-09T15:07:15Z</time>
      </trkpt>
      <trkpt lat="46.69759" lon="-1.93424">
        <ele>5</ele>
        <time>2018-03-09T15:08:15Z</time>
      </trkpt>
      <trkpt lat="46.69762" lon="-1.93423">
        <ele>5</ele>
        <time>2018-03-09T15:09:15Z</time>
      </trkpt>
      <trkpt lat="46.69767" lon="-1.93422">
        <ele>5</ele>
        <time>2018-03-09T15:10:15Z</time>
      </trkpt>
      <trkpt lat="46.69767" lon="-1.93422">
        <ele>5</ele>
        <time>2018-03-09T15:11:15Z</time>
      </trkpt>
    </trkseg>
  </trk>
</gpx>